<?xml version="1.0" encoding="UTF-8" standalone="no" ?>
<gpx xmlns="http://www.topografix.com/GPX/1/1" xmlns:xsi="http://www.w3.org/2001/XMLSchema-instance" xsi:schemaLocation="http://www.topografix.com/GPX/1/1 http://www.topografix.com/GPX/1/1/gpx.xsd" version="1.1" creator="VisuGPX - https://www.visugpx.com">
  <metadata>
    <name>2016-06-02 Walk from Frontenas</name>
    <desc><![CDATA[2016-06-02 Walk from Frontenas]]></desc>
  </metadata>
  <wpt lat="45.92421" lon="4.61888">
    <ele>358</ele>
    <name><![CDATA[2016-06-02 08:36 (Start)]]></name>
  </wpt>
  <wpt lat="45.92431" lon="4.61897">
    <ele>358</ele>
    <name><![CDATA[2016-06-02 08:36 (End)]]></name>
    <desc><![CDATA[Created by Google My Tracks on Android  Name: 2016-06-02 08:36 Activity type: walking Description: - Total distance: 14.13 km (8.8 mi) Total time: 3:43:56 Moving time: 3:30:26 Average speed: 3.79 km/h (2.4 mi/h) Average moving speed: 4.03 km/h (2.5 mi/h) Max speed: 5.40 km/h (3.4 mi/h) Average pace: 15:51 min/km (25:31 min/mi) Average moving pace: 14:54 min/km (23:58 min/mi) Fastest pace: 11:07 min/km (17:53 min/mi) Max elevation: 710 m (2330 ft) Min elevation: 198 m (650 ft) Elevation gain: 1129 m (3703 ft) Max grade: 238 % Min grade: -1076 % Recorded: 02/06/2016 08:36]]></desc>
  </wpt>
  <trk>
    <name><![CDATA[2016-06-02 08:36]]></name>
    <trkseg>
      <trkpt lat="45.92407" lon="4.61906">
        <ele>356</ele>
        <time>2016-06-02T06:36:16.734Z</time>
      </trkpt>
      <trkpt lat="45.92417" lon="4.61901">
        <ele>357</ele>
        <time>2016-06-02T06:36:17.745Z</time>
      </trkpt>
      <trkpt lat="45.92425" lon="4.619">
        <ele>357</ele>
        <time>2016-06-02T06:37:58.028Z</time>
      </trkpt>
      <trkpt lat="45.92426" lon="4.61901">
        <ele>357</ele>
        <time>2016-06-02T06:37:59.029Z</time>
      </trkpt>
      <trkpt lat="45.92434" lon="4.61902">
        <ele>358</ele>
        <time>2016-06-02T06:38:25.024Z</time>
      </trkpt>
      <trkpt lat="45.92435" lon="4.61902">
        <ele>358</ele>
        <time>2016-06-02T06:38:26.023Z</time>
      </trkpt>
      <trkpt lat="45.92443" lon="4.61897">
        <ele>359</ele>
        <time>2016-06-02T06:38:37.026Z</time>
      </trkpt>
      <trkpt lat="45.92444" lon="4.61897">
        <ele>359</ele>
        <time>2016-06-02T06:38:38.026Z</time>
      </trkpt>
      <trkpt lat="45.92452" lon="4.61894">
        <ele>359</ele>
        <time>2016-06-02T06:38:47.029Z</time>
      </trkpt>
      <trkpt lat="45.92453" lon="4.61894">
        <ele>359</ele>
        <time>2016-06-02T06:38:48.088Z</time>
      </trkpt>
      <trkpt lat="45.92461" lon="4.61892">
        <ele>359</ele>
        <time>2016-06-02T06:38:58.069Z</time>
      </trkpt>
      <trkpt lat="45.92462" lon="4.61892">
        <ele>359</ele>
        <time>2016-06-02T06:38:59.029Z</time>
      </trkpt>
      <trkpt lat="45.92471" lon="4.61889">
        <ele>360</ele>
        <time>2016-06-02T06:39:08.033Z</time>
      </trkpt>
      <trkpt lat="45.92471" lon="4.61888">
        <ele>360</ele>
        <time>2016-06-02T06:39:09.02Z</time>
      </trkpt>
      <trkpt lat="45.92478" lon="4.61883">
        <ele>360</ele>
        <time>2016-06-02T06:39:16.032Z</time>
      </trkpt>
      <trkpt lat="45.92479" lon="4.61882">
        <ele>360</ele>
        <time>2016-06-02T06:39:17.031Z</time>
      </trkpt>
      <trkpt lat="45.92486" lon="4.61876">
        <ele>360</ele>
        <time>2016-06-02T06:39:23.025Z</time>
      </trkpt>
      <trkpt lat="45.92487" lon="4.61876">
        <ele>360</ele>
        <time>2016-06-02T06:39:24.025Z</time>
      </trkpt>
      <trkpt lat="45.92495" lon="4.61871">
        <ele>361</ele>
        <time>2016-06-02T06:39:31.027Z</time>
      </trkpt>
      <trkpt lat="45.92496" lon="4.61871">
        <ele>361</ele>
        <time>2016-06-02T06:39:32.015Z</time>
      </trkpt>
      <trkpt lat="45.92503" lon="4.61863">
        <ele>364</ele>
        <time>2016-06-02T06:39:40.029Z</time>
      </trkpt>
      <trkpt lat="45.92504" lon="4.61862">
        <ele>364</ele>
        <time>2016-06-02T06:39:41.026Z</time>
      </trkpt>
      <trkpt lat="45.92511" lon="4.61855">
        <ele>364</ele>
        <time>2016-06-02T06:39:48.025Z</time>
      </trkpt>
      <trkpt lat="45.92512" lon="4.61854">
        <ele>364</ele>
        <time>2016-06-02T06:39:49.023Z</time>
      </trkpt>
      <trkpt lat="45.92518" lon="4.61845">
        <ele>364</ele>
        <time>2016-06-02T06:39:56.026Z</time>
      </trkpt>
      <trkpt lat="45.92519" lon="4.61844">
        <ele>364</ele>
        <time>2016-06-02T06:39:57.024Z</time>
      </trkpt>
      <trkpt lat="45.92526" lon="4.61839">
        <ele>364</ele>
        <time>2016-06-02T06:40:04.026Z</time>
      </trkpt>
      <trkpt lat="45.92527" lon="4.61839">
        <ele>364</ele>
        <time>2016-06-02T06:40:05.024Z</time>
      </trkpt>
      <trkpt lat="45.92535" lon="4.61835">
        <ele>365</ele>
        <time>2016-06-02T06:40:12.026Z</time>
      </trkpt>
      <trkpt lat="45.92536" lon="4.61834">
        <ele>365</ele>
        <time>2016-06-02T06:40:13.028Z</time>
      </trkpt>
      <trkpt lat="45.92545" lon="4.61834">
        <ele>365</ele>
        <time>2016-06-02T06:40:20.044Z</time>
      </trkpt>
      <trkpt lat="45.92546" lon="4.61833">
        <ele>367</ele>
        <time>2016-06-02T06:40:21.039Z</time>
      </trkpt>
      <trkpt lat="45.92554" lon="4.61831">
        <ele>367</ele>
        <time>2016-06-02T06:40:29.028Z</time>
      </trkpt>
      <trkpt lat="45.92555" lon="4.61832">
        <ele>367</ele>
        <time>2016-06-02T06:40:30.03Z</time>
      </trkpt>
      <trkpt lat="45.92563" lon="4.61838">
        <ele>366</ele>
        <time>2016-06-02T06:40:40.029Z</time>
      </trkpt>
      <trkpt lat="45.92563" lon="4.6184">
        <ele>366</ele>
        <time>2016-06-02T06:40:41.032Z</time>
      </trkpt>
      <trkpt lat="45.92563" lon="4.61853">
        <ele>365</ele>
        <time>2016-06-02T06:41:11.027Z</time>
      </trkpt>
      <trkpt lat="45.92563" lon="4.61853">
        <ele>365</ele>
        <time>2016-06-02T06:41:12.025Z</time>
      </trkpt>
      <trkpt lat="45.92562" lon="4.61865">
        <ele>365</ele>
        <time>2016-06-02T06:41:31.026Z</time>
      </trkpt>
      <trkpt lat="45.92563" lon="4.61866">
        <ele>365</ele>
        <time>2016-06-02T06:41:32.03Z</time>
      </trkpt>
      <trkpt lat="45.9257" lon="4.61862">
        <ele>365</ele>
        <time>2016-06-02T06:41:37.032Z</time>
      </trkpt>
      <trkpt lat="45.92571" lon="4.61861">
        <ele>365</ele>
        <time>2016-06-02T06:41:38.025Z</time>
      </trkpt>
      <trkpt lat="45.9258" lon="4.61862">
        <ele>366</ele>
        <time>2016-06-02T06:41:42.029Z</time>
      </trkpt>
      <trkpt lat="45.92581" lon="4.61864">
        <ele>365</ele>
        <time>2016-06-02T06:41:43.026Z</time>
      </trkpt>
      <trkpt lat="45.92587" lon="4.61871">
        <ele>368</ele>
        <time>2016-06-02T06:41:48.029Z</time>
      </trkpt>
      <trkpt lat="45.92588" lon="4.61873">
        <ele>368</ele>
        <time>2016-06-02T06:41:49.028Z</time>
      </trkpt>
      <trkpt lat="45.92589" lon="4.61885">
        <ele>368</ele>
        <time>2016-06-02T06:41:55.019Z</time>
      </trkpt>
      <trkpt lat="45.9259" lon="4.61886">
        <ele>368</ele>
        <time>2016-06-02T06:41:56.12Z</time>
      </trkpt>
      <trkpt lat="45.92594" lon="4.61896">
        <ele>368</ele>
        <time>2016-06-02T06:42:02.028Z</time>
      </trkpt>
      <trkpt lat="45.92594" lon="4.61898">
        <ele>367</ele>
        <time>2016-06-02T06:42:03.027Z</time>
      </trkpt>
      <trkpt lat="45.92599" lon="4.61908">
        <ele>367</ele>
        <time>2016-06-02T06:42:09.033Z</time>
      </trkpt>
      <trkpt lat="45.926" lon="4.6191">
        <ele>367</ele>
        <time>2016-06-02T06:42:10.032Z</time>
      </trkpt>
      <trkpt lat="45.92605" lon="4.61918">
        <ele>367</ele>
        <time>2016-06-02T06:42:16.031Z</time>
      </trkpt>
      <trkpt lat="45.92606" lon="4.6192">
        <ele>367</ele>
        <time>2016-06-02T06:42:17.029Z</time>
      </trkpt>
      <trkpt lat="45.9261" lon="4.6193">
        <ele>368</ele>
        <time>2016-06-02T06:42:22.039Z</time>
      </trkpt>
      <trkpt lat="45.9261" lon="4.61932">
        <ele>368</ele>
        <time>2016-06-02T06:42:23.033Z</time>
      </trkpt>
      <trkpt lat="45.92614" lon="4.61943">
        <ele>368</ele>
        <time>2016-06-02T06:42:29.027Z</time>
      </trkpt>
      <trkpt lat="45.92615" lon="4.61944">
        <ele>368</ele>
        <time>2016-06-02T06:42:30.027Z</time>
      </trkpt>
      <trkpt lat="45.92619" lon="4.61954">
        <ele>369</ele>
        <time>2016-06-02T06:42:36.028Z</time>
      </trkpt>
      <trkpt lat="45.9262" lon="4.61956">
        <ele>369</ele>
        <time>2016-06-02T06:42:37.029Z</time>
      </trkpt>
      <trkpt lat="45.92624" lon="4.61967">
        <ele>369</ele>
        <time>2016-06-02T06:42:44.028Z</time>
      </trkpt>
      <trkpt lat="45.92624" lon="4.61968">
        <ele>369</ele>
        <time>2016-06-02T06:42:45.025Z</time>
      </trkpt>
      <trkpt lat="45.92628" lon="4.61979">
        <ele>369</ele>
        <time>2016-06-02T06:42:52.031Z</time>
      </trkpt>
      <trkpt lat="45.92628" lon="4.6198">
        <ele>369</ele>
        <time>2016-06-02T06:42:53.029Z</time>
      </trkpt>
      <trkpt lat="45.92631" lon="4.61992">
        <ele>370</ele>
        <time>2016-06-02T06:43:00.03Z</time>
      </trkpt>
      <trkpt lat="45.92631" lon="4.61994">
        <ele>370</ele>
        <time>2016-06-02T06:43:01.029Z</time>
      </trkpt>
      <trkpt lat="45.9263" lon="4.62005">
        <ele>371</ele>
        <time>2016-06-02T06:43:08.032Z</time>
      </trkpt>
      <trkpt lat="45.92629" lon="4.62006">
        <ele>371</ele>
        <time>2016-06-02T06:43:09.03Z</time>
      </trkpt>
      <trkpt lat="45.92623" lon="4.62016">
        <ele>370</ele>
        <time>2016-06-02T06:43:16.024Z</time>
      </trkpt>
      <trkpt lat="45.92623" lon="4.62017">
        <ele>370</ele>
        <time>2016-06-02T06:43:17.025Z</time>
      </trkpt>
      <trkpt lat="45.9263" lon="4.62024">
        <ele>371</ele>
        <time>2016-06-02T06:43:23.029Z</time>
      </trkpt>
      <trkpt lat="45.92631" lon="4.62025">
        <ele>371</ele>
        <time>2016-06-02T06:43:24.044Z</time>
      </trkpt>
      <trkpt lat="45.92638" lon="4.62032">
        <ele>371</ele>
        <time>2016-06-02T06:43:31.029Z</time>
      </trkpt>
      <trkpt lat="45.92639" lon="4.62033">
        <ele>371</ele>
        <time>2016-06-02T06:43:32.031Z</time>
      </trkpt>
      <trkpt lat="45.92646" lon="4.6204">
        <ele>371</ele>
        <time>2016-06-02T06:43:39.042Z</time>
      </trkpt>
      <trkpt lat="45.92647" lon="4.62041">
        <ele>371</ele>
        <time>2016-06-02T06:43:40.028Z</time>
      </trkpt>
      <trkpt lat="45.92653" lon="4.62048">
        <ele>372</ele>
        <time>2016-06-02T06:43:47.029Z</time>
      </trkpt>
      <trkpt lat="45.92654" lon="4.62049">
        <ele>372</ele>
        <time>2016-06-02T06:43:48.028Z</time>
      </trkpt>
      <trkpt lat="45.92663" lon="4.62053">
        <ele>372</ele>
        <time>2016-06-02T06:43:56.029Z</time>
      </trkpt>
      <trkpt lat="45.92664" lon="4.62054">
        <ele>372</ele>
        <time>2016-06-02T06:43:57.028Z</time>
      </trkpt>
      <trkpt lat="45.92671" lon="4.62058">
        <ele>374</ele>
        <time>2016-06-02T06:44:04.027Z</time>
      </trkpt>
      <trkpt lat="45.92673" lon="4.62059">
        <ele>374</ele>
        <time>2016-06-02T06:44:05.03Z</time>
      </trkpt>
      <trkpt lat="45.9268" lon="4.62064">
        <ele>374</ele>
        <time>2016-06-02T06:44:12.026Z</time>
      </trkpt>
      <trkpt lat="45.92681" lon="4.62064">
        <ele>374</ele>
        <time>2016-06-02T06:44:13.031Z</time>
      </trkpt>
      <trkpt lat="45.92688" lon="4.62069">
        <ele>374</ele>
        <time>2016-06-02T06:44:20.026Z</time>
      </trkpt>
      <trkpt lat="45.92689" lon="4.6207">
        <ele>374</ele>
        <time>2016-06-02T06:44:21.031Z</time>
      </trkpt>
      <trkpt lat="45.92698" lon="4.62074">
        <ele>374</ele>
        <time>2016-06-02T06:44:28.015Z</time>
      </trkpt>
      <trkpt lat="45.92699" lon="4.62074">
        <ele>374</ele>
        <time>2016-06-02T06:44:29.009Z</time>
      </trkpt>
      <trkpt lat="45.92707" lon="4.62077">
        <ele>374</ele>
        <time>2016-06-02T06:44:36.03Z</time>
      </trkpt>
      <trkpt lat="45.92708" lon="4.62077">
        <ele>374</ele>
        <time>2016-06-02T06:44:37.026Z</time>
      </trkpt>
      <trkpt lat="45.92716" lon="4.62079">
        <ele>375</ele>
        <time>2016-06-02T06:44:44.025Z</time>
      </trkpt>
      <trkpt lat="45.92717" lon="4.62079">
        <ele>375</ele>
        <time>2016-06-02T06:44:45.029Z</time>
      </trkpt>
      <trkpt lat="45.92725" lon="4.62081">
        <ele>375</ele>
        <time>2016-06-02T06:44:51.028Z</time>
      </trkpt>
      <trkpt lat="45.92726" lon="4.62082">
        <ele>375</ele>
        <time>2016-06-02T06:44:52.018Z</time>
      </trkpt>
      <trkpt lat="45.92734" lon="4.62083">
        <ele>375</ele>
        <time>2016-06-02T06:44:59.028Z</time>
      </trkpt>
      <trkpt lat="45.92735" lon="4.62083">
        <ele>375</ele>
        <time>2016-06-02T06:45:00.028Z</time>
      </trkpt>
      <trkpt lat="45.92744" lon="4.62085">
        <ele>376</ele>
        <time>2016-06-02T06:45:07.026Z</time>
      </trkpt>
      <trkpt lat="45.92745" lon="4.62085">
        <ele>376</ele>
        <time>2016-06-02T06:45:08.028Z</time>
      </trkpt>
      <trkpt lat="45.92754" lon="4.62086">
        <ele>376</ele>
        <time>2016-06-02T06:45:15.028Z</time>
      </trkpt>
      <trkpt lat="45.92755" lon="4.62086">
        <ele>376</ele>
        <time>2016-06-02T06:45:16.03Z</time>
      </trkpt>
      <trkpt lat="45.92763" lon="4.62089">
        <ele>375</ele>
        <time>2016-06-02T06:45:23.03Z</time>
      </trkpt>
      <trkpt lat="45.92764" lon="4.62089">
        <ele>375</ele>
        <time>2016-06-02T06:45:24.027Z</time>
      </trkpt>
      <trkpt lat="45.92772" lon="4.62091">
        <ele>375</ele>
        <time>2016-06-02T06:45:31.031Z</time>
      </trkpt>
      <trkpt lat="45.92774" lon="4.62092">
        <ele>375</ele>
        <time>2016-06-02T06:45:32.029Z</time>
      </trkpt>
      <trkpt lat="45.92781" lon="4.62094">
        <ele>375</ele>
        <time>2016-06-02T06:45:38.029Z</time>
      </trkpt>
      <trkpt lat="45.92783" lon="4.62095">
        <ele>375</ele>
        <time>2016-06-02T06:45:39.029Z</time>
      </trkpt>
      <trkpt lat="45.9279" lon="4.62098">
        <ele>375</ele>
        <time>2016-06-02T06:45:45.041Z</time>
      </trkpt>
      <trkpt lat="45.92792" lon="4.62099">
        <ele>375</ele>
        <time>2016-06-02T06:45:46.03Z</time>
      </trkpt>
      <trkpt lat="45.92799" lon="4.62104">
        <ele>375</ele>
        <time>2016-06-02T06:45:52.027Z</time>
      </trkpt>
      <trkpt lat="45.92801" lon="4.62105">
        <ele>375</ele>
        <time>2016-06-02T06:45:53.031Z</time>
      </trkpt>
      <trkpt lat="45.92808" lon="4.62108">
        <ele>375</ele>
        <time>2016-06-02T06:45:59.02Z</time>
      </trkpt>
      <trkpt lat="45.9281" lon="4.62108">
        <ele>375</ele>
        <time>2016-06-02T06:46:00.017Z</time>
      </trkpt>
      <trkpt lat="45.92818" lon="4.62111">
        <ele>374</ele>
        <time>2016-06-02T06:46:07.03Z</time>
      </trkpt>
      <trkpt lat="45.92819" lon="4.62111">
        <ele>374</ele>
        <time>2016-06-02T06:46:08.143Z</time>
      </trkpt>
      <trkpt lat="45.92827" lon="4.62115">
        <ele>374</ele>
        <time>2016-06-02T06:46:15.039Z</time>
      </trkpt>
      <trkpt lat="45.92828" lon="4.62116">
        <ele>374</ele>
        <time>2016-06-02T06:46:16.043Z</time>
      </trkpt>
      <trkpt lat="45.92834" lon="4.62124">
        <ele>372</ele>
        <time>2016-06-02T06:46:22.03Z</time>
      </trkpt>
      <trkpt lat="45.92834" lon="4.62126">
        <ele>372</ele>
        <time>2016-06-02T06:46:23.044Z</time>
      </trkpt>
      <trkpt lat="45.92837" lon="4.62136">
        <ele>372</ele>
        <time>2016-06-02T06:46:28.025Z</time>
      </trkpt>
      <trkpt lat="45.92838" lon="4.62138">
        <ele>372</ele>
        <time>2016-06-02T06:46:29.021Z</time>
      </trkpt>
      <trkpt lat="45.92843" lon="4.62148">
        <ele>372</ele>
        <time>2016-06-02T06:46:36.026Z</time>
      </trkpt>
      <trkpt lat="45.92844" lon="4.62149">
        <ele>372</ele>
        <time>2016-06-02T06:46:37.028Z</time>
      </trkpt>
      <trkpt lat="45.92849" lon="4.6216">
        <ele>372</ele>
        <time>2016-06-02T06:46:44.03Z</time>
      </trkpt>
      <trkpt lat="45.92849" lon="4.62161">
        <ele>372</ele>
        <time>2016-06-02T06:46:45.033Z</time>
      </trkpt>
      <trkpt lat="45.92854" lon="4.62172">
        <ele>372</ele>
        <time>2016-06-02T06:46:51.025Z</time>
      </trkpt>
      <trkpt lat="45.92855" lon="4.62174">
        <ele>372</ele>
        <time>2016-06-02T06:46:52.025Z</time>
      </trkpt>
      <trkpt lat="45.92858" lon="4.62184">
        <ele>371</ele>
        <time>2016-06-02T06:46:58.029Z</time>
      </trkpt>
      <trkpt lat="45.92859" lon="4.62186">
        <ele>371</ele>
        <time>2016-06-02T06:46:59.029Z</time>
      </trkpt>
      <trkpt lat="45.92864" lon="4.62195">
        <ele>371</ele>
        <time>2016-06-02T06:47:06.031Z</time>
      </trkpt>
      <trkpt lat="45.92865" lon="4.62197">
        <ele>371</ele>
        <time>2016-06-02T06:47:07.038Z</time>
      </trkpt>
      <trkpt lat="45.92871" lon="4.62206">
        <ele>371</ele>
        <time>2016-06-02T06:47:14.027Z</time>
      </trkpt>
      <trkpt lat="45.92872" lon="4.62206">
        <ele>371</ele>
        <time>2016-06-02T06:47:15.027Z</time>
      </trkpt>
      <trkpt lat="45.92879" lon="4.62212">
        <ele>371</ele>
        <time>2016-06-02T06:47:21.028Z</time>
      </trkpt>
      <trkpt lat="45.9288" lon="4.62213">
        <ele>371</ele>
        <time>2016-06-02T06:47:22.028Z</time>
      </trkpt>
      <trkpt lat="45.92888" lon="4.62218">
        <ele>370</ele>
        <time>2016-06-02T06:47:29.041Z</time>
      </trkpt>
      <trkpt lat="45.92889" lon="4.62219">
        <ele>370</ele>
        <time>2016-06-02T06:47:30.034Z</time>
      </trkpt>
      <trkpt lat="45.92897" lon="4.62222">
        <ele>370</ele>
        <time>2016-06-02T06:47:37.031Z</time>
      </trkpt>
      <trkpt lat="45.92898" lon="4.62223">
        <ele>370</ele>
        <time>2016-06-02T06:47:38.028Z</time>
      </trkpt>
      <trkpt lat="45.92906" lon="4.62225">
        <ele>369</ele>
        <time>2016-06-02T06:47:45.044Z</time>
      </trkpt>
      <trkpt lat="45.92908" lon="4.62225">
        <ele>369</ele>
        <time>2016-06-02T06:47:46.031Z</time>
      </trkpt>
      <trkpt lat="45.92915" lon="4.62229">
        <ele>369</ele>
        <time>2016-06-02T06:47:52.047Z</time>
      </trkpt>
      <trkpt lat="45.92916" lon="4.6223">
        <ele>369</ele>
        <time>2016-06-02T06:47:53.028Z</time>
      </trkpt>
      <trkpt lat="45.92923" lon="4.62234">
        <ele>365</ele>
        <time>2016-06-02T06:47:59.027Z</time>
      </trkpt>
      <trkpt lat="45.92924" lon="4.62235">
        <ele>365</ele>
        <time>2016-06-02T06:48:00.038Z</time>
      </trkpt>
      <trkpt lat="45.92931" lon="4.62226">
        <ele>364</ele>
        <time>2016-06-02T06:48:07.047Z</time>
      </trkpt>
      <trkpt lat="45.92931" lon="4.62224">
        <ele>364</ele>
        <time>2016-06-02T06:48:08.027Z</time>
      </trkpt>
      <trkpt lat="45.92934" lon="4.62213">
        <ele>364</ele>
        <time>2016-06-02T06:48:15.044Z</time>
      </trkpt>
      <trkpt lat="45.92935" lon="4.62211">
        <ele>364</ele>
        <time>2016-06-02T06:48:16.033Z</time>
      </trkpt>
      <trkpt lat="45.92938" lon="4.622">
        <ele>364</ele>
        <time>2016-06-02T06:48:23.042Z</time>
      </trkpt>
      <trkpt lat="45.92939" lon="4.62199">
        <ele>364</ele>
        <time>2016-06-02T06:48:24.029Z</time>
      </trkpt>
      <trkpt lat="45.9294" lon="4.62188">
        <ele>364</ele>
        <time>2016-06-02T06:48:30.029Z</time>
      </trkpt>
      <trkpt lat="45.9294" lon="4.62186">
        <ele>364</ele>
        <time>2016-06-02T06:48:31.03Z</time>
      </trkpt>
      <trkpt lat="45.92941" lon="4.62174">
        <ele>365</ele>
        <time>2016-06-02T06:48:37.02Z</time>
      </trkpt>
      <trkpt lat="45.92942" lon="4.62172">
        <ele>365</ele>
        <time>2016-06-02T06:48:38.024Z</time>
      </trkpt>
      <trkpt lat="45.92947" lon="4.62162">
        <ele>365</ele>
        <time>2016-06-02T06:48:45.032Z</time>
      </trkpt>
      <trkpt lat="45.92948" lon="4.6216">
        <ele>364</ele>
        <time>2016-06-02T06:48:46.043Z</time>
      </trkpt>
      <trkpt lat="45.92954" lon="4.62151">
        <ele>364</ele>
        <time>2016-06-02T06:48:52.033Z</time>
      </trkpt>
      <trkpt lat="45.92955" lon="4.62149">
        <ele>364</ele>
        <time>2016-06-02T06:48:53.027Z</time>
      </trkpt>
      <trkpt lat="45.9296" lon="4.62139">
        <ele>363</ele>
        <time>2016-06-02T06:49:00.025Z</time>
      </trkpt>
      <trkpt lat="45.92961" lon="4.62138">
        <ele>363</ele>
        <time>2016-06-02T06:49:01.039Z</time>
      </trkpt>
      <trkpt lat="45.92966" lon="4.6213">
        <ele>363</ele>
        <time>2016-06-02T06:49:06.004Z</time>
      </trkpt>
      <trkpt lat="45.92967" lon="4.62128">
        <ele>363</ele>
        <time>2016-06-02T06:49:07.008Z</time>
      </trkpt>
      <trkpt lat="45.92972" lon="4.62118">
        <ele>363</ele>
        <time>2016-06-02T06:49:12.022Z</time>
      </trkpt>
      <trkpt lat="45.92973" lon="4.62117">
        <ele>363</ele>
        <time>2016-06-02T06:49:13.039Z</time>
      </trkpt>
      <trkpt lat="45.92973" lon="4.62104">
        <ele>363</ele>
        <time>2016-06-02T06:49:21.048Z</time>
      </trkpt>
      <trkpt lat="45.92973" lon="4.62103">
        <ele>363</ele>
        <time>2016-06-02T06:49:22.035Z</time>
      </trkpt>
      <trkpt lat="45.92973" lon="4.62091">
        <ele>362</ele>
        <time>2016-06-02T06:49:29.023Z</time>
      </trkpt>
      <trkpt lat="45.92973" lon="4.62089">
        <ele>362</ele>
        <time>2016-06-02T06:49:30.021Z</time>
      </trkpt>
      <trkpt lat="45.92975" lon="4.62078">
        <ele>363</ele>
        <time>2016-06-02T06:49:37.028Z</time>
      </trkpt>
      <trkpt lat="45.92976" lon="4.62076">
        <ele>363</ele>
        <time>2016-06-02T06:49:38.042Z</time>
      </trkpt>
      <trkpt lat="45.9298" lon="4.62065">
        <ele>364</ele>
        <time>2016-06-02T06:49:44.046Z</time>
      </trkpt>
      <trkpt lat="45.92981" lon="4.62064">
        <ele>364</ele>
        <time>2016-06-02T06:49:45.036Z</time>
      </trkpt>
      <trkpt lat="45.92986" lon="4.62056">
        <ele>364</ele>
        <time>2016-06-02T06:49:49.015Z</time>
      </trkpt>
      <trkpt lat="45.92988" lon="4.62054">
        <ele>364</ele>
        <time>2016-06-02T06:49:50.034Z</time>
      </trkpt>
      <trkpt lat="45.92993" lon="4.62045">
        <ele>364</ele>
        <time>2016-06-02T06:49:55.029Z</time>
      </trkpt>
      <trkpt lat="45.92994" lon="4.62043">
        <ele>364</ele>
        <time>2016-06-02T06:49:56.037Z</time>
      </trkpt>
      <trkpt lat="45.92998" lon="4.62034">
        <ele>364</ele>
        <time>2016-06-02T06:50:02.044Z</time>
      </trkpt>
      <trkpt lat="45.92998" lon="4.62032">
        <ele>364</ele>
        <time>2016-06-02T06:50:03.027Z</time>
      </trkpt>
      <trkpt lat="45.93" lon="4.6202">
        <ele>365</ele>
        <time>2016-06-02T06:50:09.041Z</time>
      </trkpt>
      <trkpt lat="45.93001" lon="4.62018">
        <ele>359</ele>
        <time>2016-06-02T06:50:10.032Z</time>
      </trkpt>
      <trkpt lat="45.93001" lon="4.62006">
        <ele>362</ele>
        <time>2016-06-02T06:50:17.02Z</time>
      </trkpt>
      <trkpt lat="45.93002" lon="4.62005">
        <ele>362</ele>
        <time>2016-06-02T06:50:18.018Z</time>
      </trkpt>
      <trkpt lat="45.93006" lon="4.61995">
        <ele>362</ele>
        <time>2016-06-02T06:50:24.024Z</time>
      </trkpt>
      <trkpt lat="45.93006" lon="4.61993">
        <ele>362</ele>
        <time>2016-06-02T06:50:25.029Z</time>
      </trkpt>
      <trkpt lat="45.93009" lon="4.61983">
        <ele>360</ele>
        <time>2016-06-02T06:50:31.027Z</time>
      </trkpt>
      <trkpt lat="45.93009" lon="4.61981">
        <ele>360</ele>
        <time>2016-06-02T06:50:32.022Z</time>
      </trkpt>
      <trkpt lat="45.93009" lon="4.61969">
        <ele>359</ele>
        <time>2016-06-02T06:50:38.009Z</time>
      </trkpt>
      <trkpt lat="45.93009" lon="4.61967">
        <ele>359</ele>
        <time>2016-06-02T06:50:39.005Z</time>
      </trkpt>
      <trkpt lat="45.93012" lon="4.61957">
        <ele>359</ele>
        <time>2016-06-02T06:50:45.04Z</time>
      </trkpt>
      <trkpt lat="45.93012" lon="4.61955">
        <ele>359</ele>
        <time>2016-06-02T06:50:46.029Z</time>
      </trkpt>
      <trkpt lat="45.93017" lon="4.61945">
        <ele>359</ele>
        <time>2016-06-02T06:50:52.025Z</time>
      </trkpt>
      <trkpt lat="45.93017" lon="4.61943">
        <ele>359</ele>
        <time>2016-06-02T06:50:53.028Z</time>
      </trkpt>
      <trkpt lat="45.9302" lon="4.61933">
        <ele>360</ele>
        <time>2016-06-02T06:50:59.025Z</time>
      </trkpt>
      <trkpt lat="45.9302" lon="4.61931">
        <ele>360</ele>
        <time>2016-06-02T06:51:00.024Z</time>
      </trkpt>
      <trkpt lat="45.93025" lon="4.61921">
        <ele>360</ele>
        <time>2016-06-02T06:51:07.028Z</time>
      </trkpt>
      <trkpt lat="45.93026" lon="4.61919">
        <ele>360</ele>
        <time>2016-06-02T06:51:08.029Z</time>
      </trkpt>
      <trkpt lat="45.93031" lon="4.6191">
        <ele>361</ele>
        <time>2016-06-02T06:51:15.03Z</time>
      </trkpt>
      <trkpt lat="45.93032" lon="4.61908">
        <ele>361</ele>
        <time>2016-06-02T06:51:16.017Z</time>
      </trkpt>
      <trkpt lat="45.93038" lon="4.61898">
        <ele>360</ele>
        <time>2016-06-02T06:51:22.04Z</time>
      </trkpt>
      <trkpt lat="45.93039" lon="4.61897">
        <ele>360</ele>
        <time>2016-06-02T06:51:23.028Z</time>
      </trkpt>
      <trkpt lat="45.93047" lon="4.61894">
        <ele>359</ele>
        <time>2016-06-02T06:51:29.03Z</time>
      </trkpt>
      <trkpt lat="45.93048" lon="4.61894">
        <ele>359</ele>
        <time>2016-06-02T06:51:30.042Z</time>
      </trkpt>
      <trkpt lat="45.93054" lon="4.61888">
        <ele>359</ele>
        <time>2016-06-02T06:51:35.026Z</time>
      </trkpt>
      <trkpt lat="45.93056" lon="4.61887">
        <ele>359</ele>
        <time>2016-06-02T06:51:36.025Z</time>
      </trkpt>
      <trkpt lat="45.93063" lon="4.61879">
        <ele>358</ele>
        <time>2016-06-02T06:51:43.018Z</time>
      </trkpt>
      <trkpt lat="45.93064" lon="4.61879">
        <ele>358</ele>
        <time>2016-06-02T06:51:44.02Z</time>
      </trkpt>
      <trkpt lat="45.93071" lon="4.61873">
        <ele>358</ele>
        <time>2016-06-02T06:51:52.019Z</time>
      </trkpt>
      <trkpt lat="45.93072" lon="4.61872">
        <ele>358</ele>
        <time>2016-06-02T06:51:53.015Z</time>
      </trkpt>
      <trkpt lat="45.93078" lon="4.61865">
        <ele>358</ele>
        <time>2016-06-02T06:51:59.023Z</time>
      </trkpt>
      <trkpt lat="45.93079" lon="4.61864">
        <ele>358</ele>
        <time>2016-06-02T06:52:00.014Z</time>
      </trkpt>
      <trkpt lat="45.93085" lon="4.61856">
        <ele>351</ele>
        <time>2016-06-02T06:52:06.028Z</time>
      </trkpt>
      <trkpt lat="45.93086" lon="4.61855">
        <ele>352</ele>
        <time>2016-06-02T06:52:07.025Z</time>
      </trkpt>
      <trkpt lat="45.93091" lon="4.61846">
        <ele>352</ele>
        <time>2016-06-02T06:52:13.024Z</time>
      </trkpt>
      <trkpt lat="45.93091" lon="4.61844">
        <ele>352</ele>
        <time>2016-06-02T06:52:14.033Z</time>
      </trkpt>
      <trkpt lat="45.93096" lon="4.61836">
        <ele>352</ele>
        <time>2016-06-02T06:52:19.022Z</time>
      </trkpt>
      <trkpt lat="45.93097" lon="4.61834">
        <ele>352</ele>
        <time>2016-06-02T06:52:20.006Z</time>
      </trkpt>
      <trkpt lat="45.93103" lon="4.61826">
        <ele>355</ele>
        <time>2016-06-02T06:52:25.029Z</time>
      </trkpt>
      <trkpt lat="45.93104" lon="4.61824">
        <ele>355</ele>
        <time>2016-06-02T06:52:26.034Z</time>
      </trkpt>
      <trkpt lat="45.9311" lon="4.61817">
        <ele>355</ele>
        <time>2016-06-02T06:52:32.026Z</time>
      </trkpt>
      <trkpt lat="45.93111" lon="4.61815">
        <ele>355</ele>
        <time>2016-06-02T06:52:33.031Z</time>
      </trkpt>
      <trkpt lat="45.93119" lon="4.61811">
        <ele>355</ele>
        <time>2016-06-02T06:52:40.012Z</time>
      </trkpt>
      <trkpt lat="45.9312" lon="4.6181">
        <ele>354</ele>
        <time>2016-06-02T06:52:41.036Z</time>
      </trkpt>
      <trkpt lat="45.93128" lon="4.61804">
        <ele>354</ele>
        <time>2016-06-02T06:52:48.029Z</time>
      </trkpt>
      <trkpt lat="45.93129" lon="4.61803">
        <ele>354</ele>
        <time>2016-06-02T06:52:49.044Z</time>
      </trkpt>
      <trkpt lat="45.93136" lon="4.61799">
        <ele>354</ele>
        <time>2016-06-02T06:52:55.041Z</time>
      </trkpt>
      <trkpt lat="45.93137" lon="4.61798">
        <ele>354</ele>
        <time>2016-06-02T06:52:56.03Z</time>
      </trkpt>
      <trkpt lat="45.93145" lon="4.61799">
        <ele>354</ele>
        <time>2016-06-02T06:53:03.029Z</time>
      </trkpt>
      <trkpt lat="45.93146" lon="4.61799">
        <ele>354</ele>
        <time>2016-06-02T06:53:04.027Z</time>
      </trkpt>
      <trkpt lat="45.93155" lon="4.61799">
        <ele>353</ele>
        <time>2016-06-02T06:53:12.024Z</time>
      </trkpt>
      <trkpt lat="45.93156" lon="4.61799">
        <ele>353</ele>
        <time>2016-06-02T06:53:13.029Z</time>
      </trkpt>
      <trkpt lat="45.93164" lon="4.61799">
        <ele>353</ele>
        <time>2016-06-02T06:53:20.032Z</time>
      </trkpt>
      <trkpt lat="45.93166" lon="4.61799">
        <ele>353</ele>
        <time>2016-06-02T06:53:21.024Z</time>
      </trkpt>
      <trkpt lat="45.93174" lon="4.61799">
        <ele>350</ele>
        <time>2016-06-02T06:53:28.029Z</time>
      </trkpt>
      <trkpt lat="45.93175" lon="4.61799">
        <ele>350</ele>
        <time>2016-06-02T06:53:29.029Z</time>
      </trkpt>
      <trkpt lat="45.93184" lon="4.61798">
        <ele>350</ele>
        <time>2016-06-02T06:53:36.029Z</time>
      </trkpt>
      <trkpt lat="45.93185" lon="4.61798">
        <ele>350</ele>
        <time>2016-06-02T06:53:37.028Z</time>
      </trkpt>
      <trkpt lat="45.93193" lon="4.61798">
        <ele>350</ele>
        <time>2016-06-02T06:53:43.011Z</time>
      </trkpt>
      <trkpt lat="45.93194" lon="4.61798">
        <ele>350</ele>
        <time>2016-06-02T06:53:44.005Z</time>
      </trkpt>
      <trkpt lat="45.93203" lon="4.61799">
        <ele>350</ele>
        <time>2016-06-02T06:53:52.026Z</time>
      </trkpt>
      <trkpt lat="45.93204" lon="4.618">
        <ele>350</ele>
        <time>2016-06-02T06:53:53.038Z</time>
      </trkpt>
      <trkpt lat="45.93212" lon="4.61802">
        <ele>350</ele>
        <time>2016-06-02T06:54:10.02Z</time>
      </trkpt>
      <trkpt lat="45.93213" lon="4.61802">
        <ele>350</ele>
        <time>2016-06-02T06:54:11.025Z</time>
      </trkpt>
      <trkpt lat="45.93221" lon="4.61804">
        <ele>350</ele>
        <time>2016-06-02T06:54:20.019Z</time>
      </trkpt>
      <trkpt lat="45.93222" lon="4.61804">
        <ele>350</ele>
        <time>2016-06-02T06:54:21.023Z</time>
      </trkpt>
      <trkpt lat="45.93231" lon="4.61804">
        <ele>349</ele>
        <time>2016-06-02T06:54:29.025Z</time>
      </trkpt>
      <trkpt lat="45.93232" lon="4.61804">
        <ele>349</ele>
        <time>2016-06-02T06:54:30.028Z</time>
      </trkpt>
      <trkpt lat="45.9324" lon="4.61805">
        <ele>349</ele>
        <time>2016-06-02T06:54:36.024Z</time>
      </trkpt>
      <trkpt lat="45.93242" lon="4.61805">
        <ele>349</ele>
        <time>2016-06-02T06:54:37.021Z</time>
      </trkpt>
      <trkpt lat="45.9325" lon="4.61807">
        <ele>351</ele>
        <time>2016-06-02T06:54:43.02Z</time>
      </trkpt>
      <trkpt lat="45.93252" lon="4.61808">
        <ele>351</ele>
        <time>2016-06-02T06:54:44.043Z</time>
      </trkpt>
      <trkpt lat="45.9326" lon="4.61808">
        <ele>351</ele>
        <time>2016-06-02T06:54:50.022Z</time>
      </trkpt>
      <trkpt lat="45.93261" lon="4.61808">
        <ele>351</ele>
        <time>2016-06-02T06:54:51.021Z</time>
      </trkpt>
      <trkpt lat="45.93269" lon="4.61811">
        <ele>351</ele>
        <time>2016-06-02T06:54:58.031Z</time>
      </trkpt>
      <trkpt lat="45.9327" lon="4.61811">
        <ele>351</ele>
        <time>2016-06-02T06:54:59.031Z</time>
      </trkpt>
      <trkpt lat="45.93279" lon="4.61809">
        <ele>352</ele>
        <time>2016-06-02T06:55:07.014Z</time>
      </trkpt>
      <trkpt lat="45.9328" lon="4.61809">
        <ele>352</ele>
        <time>2016-06-02T06:55:08.02Z</time>
      </trkpt>
      <trkpt lat="45.93289" lon="4.61806">
        <ele>352</ele>
        <time>2016-06-02T06:55:16.005Z</time>
      </trkpt>
      <trkpt lat="45.93289" lon="4.61806">
        <ele>352</ele>
        <time>2016-06-02T06:55:17.008Z</time>
      </trkpt>
      <trkpt lat="45.93297" lon="4.618">
        <ele>353</ele>
        <time>2016-06-02T06:55:24.013Z</time>
      </trkpt>
      <trkpt lat="45.93299" lon="4.61799">
        <ele>353</ele>
        <time>2016-06-02T06:55:25.034Z</time>
      </trkpt>
      <trkpt lat="45.93305" lon="4.61793">
        <ele>353</ele>
        <time>2016-06-02T06:55:31.019Z</time>
      </trkpt>
      <trkpt lat="45.93306" lon="4.61792">
        <ele>353</ele>
        <time>2016-06-02T06:55:32.025Z</time>
      </trkpt>
      <trkpt lat="45.93312" lon="4.61783">
        <ele>354</ele>
        <time>2016-06-02T06:55:40.033Z</time>
      </trkpt>
      <trkpt lat="45.93313" lon="4.61782">
        <ele>354</ele>
        <time>2016-06-02T06:55:41.028Z</time>
      </trkpt>
      <trkpt lat="45.9332" lon="4.61776">
        <ele>355</ele>
        <time>2016-06-02T06:55:48.04Z</time>
      </trkpt>
      <trkpt lat="45.93321" lon="4.61775">
        <ele>355</ele>
        <time>2016-06-02T06:55:49.029Z</time>
      </trkpt>
      <trkpt lat="45.93326" lon="4.61786">
        <ele>354</ele>
        <time>2016-06-02T06:55:58.015Z</time>
      </trkpt>
      <trkpt lat="45.93327" lon="4.61787">
        <ele>354</ele>
        <time>2016-06-02T06:55:59.015Z</time>
      </trkpt>
      <trkpt lat="45.93333" lon="4.61796">
        <ele>354</ele>
        <time>2016-06-02T06:56:09.032Z</time>
      </trkpt>
      <trkpt lat="45.93333" lon="4.61796">
        <ele>361</ele>
        <time>2016-06-02T06:56:10.025Z</time>
      </trkpt>
      <trkpt lat="45.93341" lon="4.61799">
        <ele>361</ele>
        <time>2016-06-02T06:56:20.021Z</time>
      </trkpt>
      <trkpt lat="45.93342" lon="4.61799">
        <ele>361</ele>
        <time>2016-06-02T06:56:21.02Z</time>
      </trkpt>
      <trkpt lat="45.9335" lon="4.61804">
        <ele>362</ele>
        <time>2016-06-02T06:56:32.024Z</time>
      </trkpt>
      <trkpt lat="45.93351" lon="4.61805">
        <ele>362</ele>
        <time>2016-06-02T06:56:33.023Z</time>
      </trkpt>
      <trkpt lat="45.93359" lon="4.61809">
        <ele>362</ele>
        <time>2016-06-02T06:56:44.032Z</time>
      </trkpt>
      <trkpt lat="45.9336" lon="4.61809">
        <ele>362</ele>
        <time>2016-06-02T06:56:45.021Z</time>
      </trkpt>
      <trkpt lat="45.93369" lon="4.6181">
        <ele>363</ele>
        <time>2016-06-02T06:56:55.013Z</time>
      </trkpt>
      <trkpt lat="45.9337" lon="4.61811">
        <ele>363</ele>
        <time>2016-06-02T06:56:56.031Z</time>
      </trkpt>
      <trkpt lat="45.93378" lon="4.61812">
        <ele>364</ele>
        <time>2016-06-02T06:57:07.015Z</time>
      </trkpt>
      <trkpt lat="45.93379" lon="4.61813">
        <ele>364</ele>
        <time>2016-06-02T06:57:08.019Z</time>
      </trkpt>
      <trkpt lat="45.93387" lon="4.61816">
        <ele>365</ele>
        <time>2016-06-02T06:57:15.032Z</time>
      </trkpt>
      <trkpt lat="45.93388" lon="4.61817">
        <ele>365</ele>
        <time>2016-06-02T06:57:16.023Z</time>
      </trkpt>
      <trkpt lat="45.93395" lon="4.61821">
        <ele>366</ele>
        <time>2016-06-02T06:57:23.029Z</time>
      </trkpt>
      <trkpt lat="45.93397" lon="4.61822">
        <ele>367</ele>
        <time>2016-06-02T06:57:24.011Z</time>
      </trkpt>
      <trkpt lat="45.93406" lon="4.61822">
        <ele>368</ele>
        <time>2016-06-02T06:57:32.036Z</time>
      </trkpt>
      <trkpt lat="45.93406" lon="4.61823">
        <ele>368</ele>
        <time>2016-06-02T06:57:33.03Z</time>
      </trkpt>
      <trkpt lat="45.93415" lon="4.61823">
        <ele>369</ele>
        <time>2016-06-02T06:57:44.023Z</time>
      </trkpt>
      <trkpt lat="45.93416" lon="4.61823">
        <ele>369</ele>
        <time>2016-06-02T06:57:45.025Z</time>
      </trkpt>
      <trkpt lat="45.93424" lon="4.61821">
        <ele>375</ele>
        <time>2016-06-02T06:57:58.026Z</time>
      </trkpt>
      <trkpt lat="45.93425" lon="4.61821">
        <ele>375</ele>
        <time>2016-06-02T06:57:59.021Z</time>
      </trkpt>
      <trkpt lat="45.93434" lon="4.61822">
        <ele>376</ele>
        <time>2016-06-02T06:58:07.025Z</time>
      </trkpt>
      <trkpt lat="45.93435" lon="4.61823">
        <ele>377</ele>
        <time>2016-06-02T06:58:08.027Z</time>
      </trkpt>
      <trkpt lat="45.93444" lon="4.61825">
        <ele>378</ele>
        <time>2016-06-02T06:58:15.038Z</time>
      </trkpt>
      <trkpt lat="45.93445" lon="4.61825">
        <ele>378</ele>
        <time>2016-06-02T06:58:16.028Z</time>
      </trkpt>
      <trkpt lat="45.93453" lon="4.61827">
        <ele>379</ele>
        <time>2016-06-02T06:58:24.034Z</time>
      </trkpt>
      <trkpt lat="45.93455" lon="4.61827">
        <ele>379</ele>
        <time>2016-06-02T06:58:25.016Z</time>
      </trkpt>
      <trkpt lat="45.93462" lon="4.61831">
        <ele>381</ele>
        <time>2016-06-02T06:58:34.028Z</time>
      </trkpt>
      <trkpt lat="45.93463" lon="4.61831">
        <ele>381</ele>
        <time>2016-06-02T06:58:35.041Z</time>
      </trkpt>
      <trkpt lat="45.93472" lon="4.61834">
        <ele>381</ele>
        <time>2016-06-02T06:58:43.029Z</time>
      </trkpt>
      <trkpt lat="45.93473" lon="4.61835">
        <ele>381</ele>
        <time>2016-06-02T06:58:44.015Z</time>
      </trkpt>
      <trkpt lat="45.9348" lon="4.61837">
        <ele>382</ele>
        <time>2016-06-02T06:58:51.025Z</time>
      </trkpt>
      <trkpt lat="45.93482" lon="4.61837">
        <ele>382</ele>
        <time>2016-06-02T06:58:52.02Z</time>
      </trkpt>
      <trkpt lat="45.9349" lon="4.61838">
        <ele>384</ele>
        <time>2016-06-02T06:59:09.038Z</time>
      </trkpt>
      <trkpt lat="45.93491" lon="4.61838">
        <ele>384</ele>
        <time>2016-06-02T06:59:10.022Z</time>
      </trkpt>
      <trkpt lat="45.93485" lon="4.61828">
        <ele>384</ele>
        <time>2016-06-02T07:01:35.024Z</time>
      </trkpt>
      <trkpt lat="45.93484" lon="4.61827">
        <ele>384</ele>
        <time>2016-06-02T07:01:36.018Z</time>
      </trkpt>
      <trkpt lat="45.9348" lon="4.61816">
        <ele>383</ele>
        <time>2016-06-02T07:01:42.034Z</time>
      </trkpt>
      <trkpt lat="45.93479" lon="4.61815">
        <ele>383</ele>
        <time>2016-06-02T07:01:43.026Z</time>
      </trkpt>
      <trkpt lat="45.93477" lon="4.61803">
        <ele>382</ele>
        <time>2016-06-02T07:01:50.023Z</time>
      </trkpt>
      <trkpt lat="45.93476" lon="4.61802">
        <ele>382</ele>
        <time>2016-06-02T07:01:51.026Z</time>
      </trkpt>
      <trkpt lat="45.93476" lon="4.6179">
        <ele>382</ele>
        <time>2016-06-02T07:01:58.02Z</time>
      </trkpt>
      <trkpt lat="45.93476" lon="4.61788">
        <ele>382</ele>
        <time>2016-06-02T07:01:59.014Z</time>
      </trkpt>
      <trkpt lat="45.93474" lon="4.61776">
        <ele>383</ele>
        <time>2016-06-02T07:02:07.019Z</time>
      </trkpt>
      <trkpt lat="45.93474" lon="4.61774">
        <ele>383</ele>
        <time>2016-06-02T07:02:08.016Z</time>
      </trkpt>
      <trkpt lat="45.93471" lon="4.61764">
        <ele>383</ele>
        <time>2016-06-02T07:02:14.032Z</time>
      </trkpt>
      <trkpt lat="45.93471" lon="4.61762">
        <ele>383</ele>
        <time>2016-06-02T07:02:15.03Z</time>
      </trkpt>
      <trkpt lat="45.93468" lon="4.61751">
        <ele>383</ele>
        <time>2016-06-02T07:02:21.027Z</time>
      </trkpt>
      <trkpt lat="45.93467" lon="4.61749">
        <ele>383</ele>
        <time>2016-06-02T07:02:22.024Z</time>
      </trkpt>
      <trkpt lat="45.93463" lon="4.61738">
        <ele>382</ele>
        <time>2016-06-02T07:02:28.023Z</time>
      </trkpt>
      <trkpt lat="45.93462" lon="4.61737">
        <ele>382</ele>
        <time>2016-06-02T07:02:29.023Z</time>
      </trkpt>
      <trkpt lat="45.93459" lon="4.61725">
        <ele>381</ele>
        <time>2016-06-02T07:02:35.037Z</time>
      </trkpt>
      <trkpt lat="45.93458" lon="4.61723">
        <ele>381</ele>
        <time>2016-06-02T07:02:36.039Z</time>
      </trkpt>
      <trkpt lat="45.93453" lon="4.61713">
        <ele>380</ele>
        <time>2016-06-02T07:02:42.034Z</time>
      </trkpt>
      <trkpt lat="45.93453" lon="4.61711">
        <ele>380</ele>
        <time>2016-06-02T07:02:43.033Z</time>
      </trkpt>
      <trkpt lat="45.9345" lon="4.61701">
        <ele>380</ele>
        <time>2016-06-02T07:02:48.023Z</time>
      </trkpt>
      <trkpt lat="45.93449" lon="4.61698">
        <ele>380</ele>
        <time>2016-06-02T07:02:49.039Z</time>
      </trkpt>
      <trkpt lat="45.93447" lon="4.61686">
        <ele>379</ele>
        <time>2016-06-02T07:02:55.022Z</time>
      </trkpt>
      <trkpt lat="45.93447" lon="4.61684">
        <ele>379</ele>
        <time>2016-06-02T07:02:56.026Z</time>
      </trkpt>
      <trkpt lat="45.93456" lon="4.61682">
        <ele>380</ele>
        <time>2016-06-02T07:03:08.02Z</time>
      </trkpt>
      <trkpt lat="45.93457" lon="4.61683">
        <ele>380</ele>
        <time>2016-06-02T07:03:09.028Z</time>
      </trkpt>
      <trkpt lat="45.93464" lon="4.61688">
        <ele>382</ele>
        <time>2016-06-02T07:03:17.022Z</time>
      </trkpt>
      <trkpt lat="45.93465" lon="4.61688">
        <ele>382</ele>
        <time>2016-06-02T07:03:18.016Z</time>
      </trkpt>
      <trkpt lat="45.93474" lon="4.6169">
        <ele>383</ele>
        <time>2016-06-02T07:04:31.004Z</time>
      </trkpt>
      <trkpt lat="45.93474" lon="4.61691">
        <ele>383</ele>
        <time>2016-06-02T07:04:32.01Z</time>
      </trkpt>
      <trkpt lat="45.93483" lon="4.61693">
        <ele>384</ele>
        <time>2016-06-02T07:06:30.024Z</time>
      </trkpt>
      <trkpt lat="45.93484" lon="4.61694">
        <ele>384</ele>
        <time>2016-06-02T07:06:31.025Z</time>
      </trkpt>
      <trkpt lat="45.93492" lon="4.61699">
        <ele>384</ele>
        <time>2016-06-02T07:08:17.035Z</time>
      </trkpt>
      <trkpt lat="45.93493" lon="4.617">
        <ele>384</ele>
        <time>2016-06-02T07:08:18.037Z</time>
      </trkpt>
      <trkpt lat="45.93501" lon="4.61698">
        <ele>394</ele>
        <time>2016-06-02T07:08:27.022Z</time>
      </trkpt>
      <trkpt lat="45.93502" lon="4.61698">
        <ele>394</ele>
        <time>2016-06-02T07:08:28.016Z</time>
      </trkpt>
      <trkpt lat="45.9351" lon="4.61696">
        <ele>395</ele>
        <time>2016-06-02T07:08:38.029Z</time>
      </trkpt>
      <trkpt lat="45.93511" lon="4.61695">
        <ele>395</ele>
        <time>2016-06-02T07:08:39.026Z</time>
      </trkpt>
      <trkpt lat="45.93517" lon="4.61686">
        <ele>395</ele>
        <time>2016-06-02T07:08:47.029Z</time>
      </trkpt>
      <trkpt lat="45.93517" lon="4.61685">
        <ele>395</ele>
        <time>2016-06-02T07:08:48.015Z</time>
      </trkpt>
      <trkpt lat="45.93522" lon="4.61674">
        <ele>395</ele>
        <time>2016-06-02T07:08:59.047Z</time>
      </trkpt>
      <trkpt lat="45.93522" lon="4.61673">
        <ele>395</ele>
        <time>2016-06-02T07:09:00.03Z</time>
      </trkpt>
      <trkpt lat="45.93524" lon="4.61661">
        <ele>394</ele>
        <time>2016-06-02T07:09:10.022Z</time>
      </trkpt>
      <trkpt lat="45.93524" lon="4.6166">
        <ele>394</ele>
        <time>2016-06-02T07:09:11.03Z</time>
      </trkpt>
      <trkpt lat="45.93529" lon="4.61651">
        <ele>394</ele>
        <time>2016-06-02T07:09:24.016Z</time>
      </trkpt>
      <trkpt lat="45.9353" lon="4.6165">
        <ele>394</ele>
        <time>2016-06-02T07:09:25.038Z</time>
      </trkpt>
      <trkpt lat="45.93532" lon="4.61638">
        <ele>394</ele>
        <time>2016-06-02T07:09:34.023Z</time>
      </trkpt>
      <trkpt lat="45.93533" lon="4.61637">
        <ele>395</ele>
        <time>2016-06-02T07:09:35.029Z</time>
      </trkpt>
      <trkpt lat="45.9354" lon="4.61628">
        <ele>395</ele>
        <time>2016-06-02T07:09:50.034Z</time>
      </trkpt>
      <trkpt lat="45.9354" lon="4.61628">
        <ele>395</ele>
        <time>2016-06-02T07:09:51.038Z</time>
      </trkpt>
      <trkpt lat="45.93544" lon="4.61616">
        <ele>395</ele>
        <time>2016-06-02T07:12:45.03Z</time>
      </trkpt>
      <trkpt lat="45.93544" lon="4.61616">
        <ele>395</ele>
        <time>2016-06-02T07:12:46.027Z</time>
      </trkpt>
      <trkpt lat="45.9355" lon="4.61606">
        <ele>395</ele>
        <time>2016-06-02T07:13:06.028Z</time>
      </trkpt>
      <trkpt lat="45.93551" lon="4.61606">
        <ele>395</ele>
        <time>2016-06-02T07:13:07.023Z</time>
      </trkpt>
      <trkpt lat="45.93554" lon="4.61618">
        <ele>396</ele>
        <time>2016-06-02T07:15:54.018Z</time>
      </trkpt>
      <trkpt lat="45.93554" lon="4.61619">
        <ele>396</ele>
        <time>2016-06-02T07:15:55.025Z</time>
      </trkpt>
      <trkpt lat="45.93558" lon="4.61629">
        <ele>397</ele>
        <time>2016-06-02T07:17:09.021Z</time>
      </trkpt>
      <trkpt lat="45.93559" lon="4.6163">
        <ele>397</ele>
        <time>2016-06-02T07:17:10.025Z</time>
      </trkpt>
      <trkpt lat="45.93567" lon="4.61633">
        <ele>397</ele>
        <time>2016-06-02T07:17:18.017Z</time>
      </trkpt>
      <trkpt lat="45.93568" lon="4.61633">
        <ele>398</ele>
        <time>2016-06-02T07:17:19.021Z</time>
      </trkpt>
      <trkpt lat="45.93575" lon="4.61638">
        <ele>398</ele>
        <time>2016-06-02T07:17:46.014Z</time>
      </trkpt>
      <trkpt lat="45.93576" lon="4.61638">
        <ele>399</ele>
        <time>2016-06-02T07:17:47.038Z</time>
      </trkpt>
      <trkpt lat="45.93585" lon="4.61638">
        <ele>407</ele>
        <time>2016-06-02T07:17:55.021Z</time>
      </trkpt>
      <trkpt lat="45.93586" lon="4.61638">
        <ele>407</ele>
        <time>2016-06-02T07:17:56.018Z</time>
      </trkpt>
      <trkpt lat="45.93593" lon="4.61631">
        <ele>407</ele>
        <time>2016-06-02T07:18:05.025Z</time>
      </trkpt>
      <trkpt lat="45.93594" lon="4.61631">
        <ele>407</ele>
        <time>2016-06-02T07:18:06.041Z</time>
      </trkpt>
      <trkpt lat="45.93602" lon="4.61631">
        <ele>407</ele>
        <time>2016-06-02T07:18:14.014Z</time>
      </trkpt>
      <trkpt lat="45.93604" lon="4.61631">
        <ele>407</ele>
        <time>2016-06-02T07:18:15.035Z</time>
      </trkpt>
      <trkpt lat="45.93611" lon="4.61633">
        <ele>408</ele>
        <time>2016-06-02T07:18:22.014Z</time>
      </trkpt>
      <trkpt lat="45.93612" lon="4.61634">
        <ele>408</ele>
        <time>2016-06-02T07:18:23.004Z</time>
      </trkpt>
      <trkpt lat="45.93621" lon="4.61632">
        <ele>409</ele>
        <time>2016-06-02T07:18:31.022Z</time>
      </trkpt>
      <trkpt lat="45.93622" lon="4.61632">
        <ele>409</ele>
        <time>2016-06-02T07:18:32.014Z</time>
      </trkpt>
      <trkpt lat="45.9363" lon="4.61635">
        <ele>409</ele>
        <time>2016-06-02T07:18:41.017Z</time>
      </trkpt>
      <trkpt lat="45.93631" lon="4.61635">
        <ele>409</ele>
        <time>2016-06-02T07:18:42.011Z</time>
      </trkpt>
      <trkpt lat="45.9364" lon="4.61638">
        <ele>410</ele>
        <time>2016-06-02T07:18:51.012Z</time>
      </trkpt>
      <trkpt lat="45.9364" lon="4.61639">
        <ele>410</ele>
        <time>2016-06-02T07:18:52.015Z</time>
      </trkpt>
      <trkpt lat="45.93648" lon="4.61645">
        <ele>411</ele>
        <time>2016-06-02T07:19:00.019Z</time>
      </trkpt>
      <trkpt lat="45.9365" lon="4.61645">
        <ele>411</ele>
        <time>2016-06-02T07:19:01.019Z</time>
      </trkpt>
      <trkpt lat="45.93658" lon="4.61644">
        <ele>412</ele>
        <time>2016-06-02T07:19:08.018Z</time>
      </trkpt>
      <trkpt lat="45.93659" lon="4.61643">
        <ele>412</ele>
        <time>2016-06-02T07:19:09.021Z</time>
      </trkpt>
      <trkpt lat="45.93667" lon="4.61645">
        <ele>418</ele>
        <time>2016-06-02T07:19:18.014Z</time>
      </trkpt>
      <trkpt lat="45.93668" lon="4.61645">
        <ele>418</ele>
        <time>2016-06-02T07:19:19.021Z</time>
      </trkpt>
      <trkpt lat="45.93676" lon="4.61645">
        <ele>418</ele>
        <time>2016-06-02T07:19:26.031Z</time>
      </trkpt>
      <trkpt lat="45.93677" lon="4.61646">
        <ele>418</ele>
        <time>2016-06-02T07:19:27.02Z</time>
      </trkpt>
      <trkpt lat="45.93686" lon="4.61644">
        <ele>418</ele>
        <time>2016-06-02T07:19:34.021Z</time>
      </trkpt>
      <trkpt lat="45.93687" lon="4.61642">
        <ele>419</ele>
        <time>2016-06-02T07:19:35.025Z</time>
      </trkpt>
      <trkpt lat="45.93694" lon="4.61636">
        <ele>419</ele>
        <time>2016-06-02T07:19:43.012Z</time>
      </trkpt>
      <trkpt lat="45.93695" lon="4.61635">
        <ele>419</ele>
        <time>2016-06-02T07:19:44.019Z</time>
      </trkpt>
      <trkpt lat="45.93703" lon="4.61635">
        <ele>420</ele>
        <time>2016-06-02T07:19:50.014Z</time>
      </trkpt>
      <trkpt lat="45.93705" lon="4.61635">
        <ele>420</ele>
        <time>2016-06-02T07:19:51.026Z</time>
      </trkpt>
      <trkpt lat="45.93713" lon="4.61634">
        <ele>420</ele>
        <time>2016-06-02T07:19:58.018Z</time>
      </trkpt>
      <trkpt lat="45.93714" lon="4.61634">
        <ele>420</ele>
        <time>2016-06-02T07:19:59.023Z</time>
      </trkpt>
      <trkpt lat="45.93721" lon="4.6164">
        <ele>421</ele>
        <time>2016-06-02T07:20:07.03Z</time>
      </trkpt>
      <trkpt lat="45.93722" lon="4.61641">
        <ele>421</ele>
        <time>2016-06-02T07:20:08.022Z</time>
      </trkpt>
      <trkpt lat="45.9373" lon="4.61642">
        <ele>421</ele>
        <time>2016-06-02T07:20:13.006Z</time>
      </trkpt>
      <trkpt lat="45.93731" lon="4.61642">
        <ele>421</ele>
        <time>2016-06-02T07:20:14.018Z</time>
      </trkpt>
      <trkpt lat="45.93739" lon="4.61641">
        <ele>421</ele>
        <time>2016-06-02T07:20:22.016Z</time>
      </trkpt>
      <trkpt lat="45.9374" lon="4.6164">
        <ele>421</ele>
        <time>2016-06-02T07:20:23.021Z</time>
      </trkpt>
      <trkpt lat="45.93748" lon="4.61638">
        <ele>422</ele>
        <time>2016-06-02T07:20:30.038Z</time>
      </trkpt>
      <trkpt lat="45.9375" lon="4.61638">
        <ele>422</ele>
        <time>2016-06-02T07:20:31.038Z</time>
      </trkpt>
      <trkpt lat="45.93758" lon="4.61636">
        <ele>428</ele>
        <time>2016-06-02T07:20:37.006Z</time>
      </trkpt>
      <trkpt lat="45.93759" lon="4.61636">
        <ele>428</ele>
        <time>2016-06-02T07:20:38.003Z</time>
      </trkpt>
      <trkpt lat="45.93768" lon="4.61638">
        <ele>429</ele>
        <time>2016-06-02T07:20:45.028Z</time>
      </trkpt>
      <trkpt lat="45.93769" lon="4.61638">
        <ele>429</ele>
        <time>2016-06-02T07:20:46.036Z</time>
      </trkpt>
      <trkpt lat="45.93778" lon="4.61638">
        <ele>429</ele>
        <time>2016-06-02T07:20:52.029Z</time>
      </trkpt>
      <trkpt lat="45.93779" lon="4.61638">
        <ele>429</ele>
        <time>2016-06-02T07:20:53.014Z</time>
      </trkpt>
      <trkpt lat="45.93786" lon="4.61634">
        <ele>430</ele>
        <time>2016-06-02T07:20:59.024Z</time>
      </trkpt>
      <trkpt lat="45.93787" lon="4.61633">
        <ele>430</ele>
        <time>2016-06-02T07:21:00.023Z</time>
      </trkpt>
      <trkpt lat="45.93796" lon="4.61632">
        <ele>431</ele>
        <time>2016-06-02T07:21:07.019Z</time>
      </trkpt>
      <trkpt lat="45.93797" lon="4.61632">
        <ele>431</ele>
        <time>2016-06-02T07:21:08.03Z</time>
      </trkpt>
      <trkpt lat="45.93805" lon="4.61631">
        <ele>431</ele>
        <time>2016-06-02T07:21:16.019Z</time>
      </trkpt>
      <trkpt lat="45.93807" lon="4.61631">
        <ele>432</ele>
        <time>2016-06-02T07:21:17.023Z</time>
      </trkpt>
      <trkpt lat="45.93815" lon="4.61631">
        <ele>432</ele>
        <time>2016-06-02T07:21:23.017Z</time>
      </trkpt>
      <trkpt lat="45.93816" lon="4.6163">
        <ele>432</ele>
        <time>2016-06-02T07:21:24.022Z</time>
      </trkpt>
      <trkpt lat="45.93823" lon="4.61625">
        <ele>432</ele>
        <time>2016-06-02T07:21:32.029Z</time>
      </trkpt>
      <trkpt lat="45.93824" lon="4.61625">
        <ele>433</ele>
        <time>2016-06-02T07:21:33.027Z</time>
      </trkpt>
      <trkpt lat="45.93832" lon="4.61622">
        <ele>433</ele>
        <time>2016-06-02T07:21:41.022Z</time>
      </trkpt>
      <trkpt lat="45.93833" lon="4.61622">
        <ele>433</ele>
        <time>2016-06-02T07:21:42.027Z</time>
      </trkpt>
      <trkpt lat="45.93842" lon="4.6162">
        <ele>441</ele>
        <time>2016-06-02T07:21:51.02Z</time>
      </trkpt>
      <trkpt lat="45.93843" lon="4.6162">
        <ele>441</ele>
        <time>2016-06-02T07:21:52.023Z</time>
      </trkpt>
      <trkpt lat="45.93852" lon="4.61622">
        <ele>441</ele>
        <time>2016-06-02T07:21:59.021Z</time>
      </trkpt>
      <trkpt lat="45.93853" lon="4.61622">
        <ele>441</ele>
        <time>2016-06-02T07:22:00.02Z</time>
      </trkpt>
      <trkpt lat="45.93862" lon="4.61624">
        <ele>442</ele>
        <time>2016-06-02T07:22:07.029Z</time>
      </trkpt>
      <trkpt lat="45.93863" lon="4.61623">
        <ele>442</ele>
        <time>2016-06-02T07:22:08.03Z</time>
      </trkpt>
      <trkpt lat="45.93871" lon="4.6162">
        <ele>443</ele>
        <time>2016-06-02T07:22:14.013Z</time>
      </trkpt>
      <trkpt lat="45.93872" lon="4.6162">
        <ele>443</ele>
        <time>2016-06-02T07:22:15.02Z</time>
      </trkpt>
      <trkpt lat="45.9388" lon="4.61616">
        <ele>443</ele>
        <time>2016-06-02T07:22:22.036Z</time>
      </trkpt>
      <trkpt lat="45.93881" lon="4.61615">
        <ele>443</ele>
        <time>2016-06-02T07:22:23.028Z</time>
      </trkpt>
      <trkpt lat="45.93888" lon="4.61609">
        <ele>444</ele>
        <time>2016-06-02T07:22:32.025Z</time>
      </trkpt>
      <trkpt lat="45.93889" lon="4.61608">
        <ele>444</ele>
        <time>2016-06-02T07:22:33.02Z</time>
      </trkpt>
      <trkpt lat="45.93896" lon="4.61607">
        <ele>445</ele>
        <time>2016-06-02T07:22:41.031Z</time>
      </trkpt>
      <trkpt lat="45.93897" lon="4.61607">
        <ele>445</ele>
        <time>2016-06-02T07:22:42.03Z</time>
      </trkpt>
      <trkpt lat="45.93906" lon="4.61603">
        <ele>445</ele>
        <time>2016-06-02T07:22:52.019Z</time>
      </trkpt>
      <trkpt lat="45.93907" lon="4.61602">
        <ele>445</ele>
        <time>2016-06-02T07:22:53.03Z</time>
      </trkpt>
      <trkpt lat="45.93914" lon="4.61595">
        <ele>446</ele>
        <time>2016-06-02T07:23:02.011Z</time>
      </trkpt>
      <trkpt lat="45.93915" lon="4.61595">
        <ele>446</ele>
        <time>2016-06-02T07:23:03.022Z</time>
      </trkpt>
      <trkpt lat="45.93923" lon="4.61595">
        <ele>451</ele>
        <time>2016-06-02T07:23:10.027Z</time>
      </trkpt>
      <trkpt lat="45.93925" lon="4.61596">
        <ele>451</ele>
        <time>2016-06-02T07:23:11.016Z</time>
      </trkpt>
      <trkpt lat="45.93932" lon="4.61601">
        <ele>452</ele>
        <time>2016-06-02T07:23:17.018Z</time>
      </trkpt>
      <trkpt lat="45.93933" lon="4.61602">
        <ele>453</ele>
        <time>2016-06-02T07:23:18.03Z</time>
      </trkpt>
      <trkpt lat="45.9394" lon="4.61608">
        <ele>454</ele>
        <time>2016-06-02T07:23:25.013Z</time>
      </trkpt>
      <trkpt lat="45.93941" lon="4.61609">
        <ele>454</ele>
        <time>2016-06-02T07:23:26.02Z</time>
      </trkpt>
      <trkpt lat="45.93948" lon="4.61616">
        <ele>455</ele>
        <time>2016-06-02T07:23:34.029Z</time>
      </trkpt>
      <trkpt lat="45.93949" lon="4.61617">
        <ele>455</ele>
        <time>2016-06-02T07:23:35.021Z</time>
      </trkpt>
      <trkpt lat="45.93956" lon="4.61623">
        <ele>455</ele>
        <time>2016-06-02T07:23:43.028Z</time>
      </trkpt>
      <trkpt lat="45.93957" lon="4.61623">
        <ele>455</ele>
        <time>2016-06-02T07:23:44.028Z</time>
      </trkpt>
      <trkpt lat="45.93963" lon="4.6163">
        <ele>456</ele>
        <time>2016-06-02T07:23:51.031Z</time>
      </trkpt>
      <trkpt lat="45.93964" lon="4.61631">
        <ele>456</ele>
        <time>2016-06-02T07:23:52.03Z</time>
      </trkpt>
      <trkpt lat="45.9397" lon="4.6164">
        <ele>457</ele>
        <time>2016-06-02T07:24:00.031Z</time>
      </trkpt>
      <trkpt lat="45.9397" lon="4.61641">
        <ele>457</ele>
        <time>2016-06-02T07:24:01.02Z</time>
      </trkpt>
      <trkpt lat="45.93975" lon="4.6165">
        <ele>458</ele>
        <time>2016-06-02T07:24:09.022Z</time>
      </trkpt>
      <trkpt lat="45.93976" lon="4.61651">
        <ele>458</ele>
        <time>2016-06-02T07:24:10.024Z</time>
      </trkpt>
      <trkpt lat="45.93984" lon="4.61658">
        <ele>459</ele>
        <time>2016-06-02T07:24:17.017Z</time>
      </trkpt>
      <trkpt lat="45.93985" lon="4.61659">
        <ele>460</ele>
        <time>2016-06-02T07:24:18.014Z</time>
      </trkpt>
      <trkpt lat="45.93994" lon="4.6166">
        <ele>461</ele>
        <time>2016-06-02T07:24:26.023Z</time>
      </trkpt>
      <trkpt lat="45.93995" lon="4.6166">
        <ele>462</ele>
        <time>2016-06-02T07:24:27.024Z</time>
      </trkpt>
      <trkpt lat="45.94002" lon="4.61666">
        <ele>464</ele>
        <time>2016-06-02T07:24:43.023Z</time>
      </trkpt>
      <trkpt lat="45.94004" lon="4.61666">
        <ele>464</ele>
        <time>2016-06-02T07:24:44.019Z</time>
      </trkpt>
      <trkpt lat="45.94012" lon="4.61665">
        <ele>465</ele>
        <time>2016-06-02T07:24:56.023Z</time>
      </trkpt>
      <trkpt lat="45.94013" lon="4.61665">
        <ele>465</ele>
        <time>2016-06-02T07:24:57.021Z</time>
      </trkpt>
      <trkpt lat="45.94021" lon="4.61667">
        <ele>466</ele>
        <time>2016-06-02T07:25:02.031Z</time>
      </trkpt>
      <trkpt lat="45.94022" lon="4.61667">
        <ele>466</ele>
        <time>2016-06-02T07:25:03.024Z</time>
      </trkpt>
      <trkpt lat="45.94031" lon="4.61668">
        <ele>466</ele>
        <time>2016-06-02T07:25:09.017Z</time>
      </trkpt>
      <trkpt lat="45.94032" lon="4.61667">
        <ele>466</ele>
        <time>2016-06-02T07:25:10.023Z</time>
      </trkpt>
      <trkpt lat="45.94039" lon="4.61661">
        <ele>467</ele>
        <time>2016-06-02T07:25:17.019Z</time>
      </trkpt>
      <trkpt lat="45.9404" lon="4.61661">
        <ele>467</ele>
        <time>2016-06-02T07:25:18.019Z</time>
      </trkpt>
      <trkpt lat="45.94048" lon="4.61657">
        <ele>468</ele>
        <time>2016-06-02T07:25:26.037Z</time>
      </trkpt>
      <trkpt lat="45.94049" lon="4.61657">
        <ele>468</ele>
        <time>2016-06-02T07:25:27.034Z</time>
      </trkpt>
      <trkpt lat="45.94057" lon="4.61655">
        <ele>469</ele>
        <time>2016-06-02T07:25:34.036Z</time>
      </trkpt>
      <trkpt lat="45.94058" lon="4.61656">
        <ele>469</ele>
        <time>2016-06-02T07:25:35.022Z</time>
      </trkpt>
      <trkpt lat="45.94066" lon="4.61656">
        <ele>470</ele>
        <time>2016-06-02T07:25:42.021Z</time>
      </trkpt>
      <trkpt lat="45.94067" lon="4.61655">
        <ele>470</ele>
        <time>2016-06-02T07:25:43.018Z</time>
      </trkpt>
      <trkpt lat="45.94075" lon="4.61649">
        <ele>470</ele>
        <time>2016-06-02T07:25:51.02Z</time>
      </trkpt>
      <trkpt lat="45.94076" lon="4.61648">
        <ele>470</ele>
        <time>2016-06-02T07:25:52.021Z</time>
      </trkpt>
      <trkpt lat="45.94083" lon="4.61643">
        <ele>470</ele>
        <time>2016-06-02T07:25:59.021Z</time>
      </trkpt>
      <trkpt lat="45.94084" lon="4.61643">
        <ele>476</ele>
        <time>2016-06-02T07:26:00.008Z</time>
      </trkpt>
      <trkpt lat="45.94092" lon="4.6164">
        <ele>477</ele>
        <time>2016-06-02T07:26:07.013Z</time>
      </trkpt>
      <trkpt lat="45.94093" lon="4.6164">
        <ele>477</ele>
        <time>2016-06-02T07:26:08.04Z</time>
      </trkpt>
      <trkpt lat="45.94101" lon="4.61637">
        <ele>477</ele>
        <time>2016-06-02T07:26:16.012Z</time>
      </trkpt>
      <trkpt lat="45.94102" lon="4.61636">
        <ele>478</ele>
        <time>2016-06-02T07:26:17.014Z</time>
      </trkpt>
      <trkpt lat="45.9411" lon="4.61635">
        <ele>478</ele>
        <time>2016-06-02T07:26:26.021Z</time>
      </trkpt>
      <trkpt lat="45.94112" lon="4.61634">
        <ele>478</ele>
        <time>2016-06-02T07:26:27.02Z</time>
      </trkpt>
      <trkpt lat="45.94119" lon="4.61629">
        <ele>479</ele>
        <time>2016-06-02T07:26:34.027Z</time>
      </trkpt>
      <trkpt lat="45.9412" lon="4.61629">
        <ele>479</ele>
        <time>2016-06-02T07:26:35.029Z</time>
      </trkpt>
      <trkpt lat="45.94128" lon="4.61627">
        <ele>480</ele>
        <time>2016-06-02T07:26:43.021Z</time>
      </trkpt>
      <trkpt lat="45.94129" lon="4.61627">
        <ele>480</ele>
        <time>2016-06-02T07:26:44.019Z</time>
      </trkpt>
      <trkpt lat="45.94137" lon="4.61625">
        <ele>481</ele>
        <time>2016-06-02T07:27:07.027Z</time>
      </trkpt>
      <trkpt lat="45.94138" lon="4.61625">
        <ele>481</ele>
        <time>2016-06-02T07:27:08.025Z</time>
      </trkpt>
      <trkpt lat="45.94146" lon="4.61629">
        <ele>481</ele>
        <time>2016-06-02T07:27:22.011Z</time>
      </trkpt>
      <trkpt lat="45.94147" lon="4.61629">
        <ele>481</ele>
        <time>2016-06-02T07:27:23.018Z</time>
      </trkpt>
      <trkpt lat="45.94155" lon="4.61627">
        <ele>482</ele>
        <time>2016-06-02T07:27:38.006Z</time>
      </trkpt>
      <trkpt lat="45.94156" lon="4.61627">
        <ele>482</ele>
        <time>2016-06-02T07:27:39.005Z</time>
      </trkpt>
      <trkpt lat="45.94163" lon="4.61621">
        <ele>483</ele>
        <time>2016-06-02T07:27:50.035Z</time>
      </trkpt>
      <trkpt lat="45.94164" lon="4.6162">
        <ele>483</ele>
        <time>2016-06-02T07:27:51.028Z</time>
      </trkpt>
      <trkpt lat="45.94172" lon="4.61617">
        <ele>491</ele>
        <time>2016-06-02T07:28:04.019Z</time>
      </trkpt>
      <trkpt lat="45.94173" lon="4.61617">
        <ele>491</ele>
        <time>2016-06-02T07:28:05.021Z</time>
      </trkpt>
      <trkpt lat="45.94181" lon="4.61615">
        <ele>492</ele>
        <time>2016-06-02T07:28:20.012Z</time>
      </trkpt>
      <trkpt lat="45.94182" lon="4.61614">
        <ele>492</ele>
        <time>2016-06-02T07:28:21.035Z</time>
      </trkpt>
      <trkpt lat="45.94188" lon="4.61607">
        <ele>492</ele>
        <time>2016-06-02T07:28:31.033Z</time>
      </trkpt>
      <trkpt lat="45.94189" lon="4.61606">
        <ele>493</ele>
        <time>2016-06-02T07:28:32.029Z</time>
      </trkpt>
      <trkpt lat="45.94196" lon="4.61599">
        <ele>493</ele>
        <time>2016-06-02T07:28:45.015Z</time>
      </trkpt>
      <trkpt lat="45.94197" lon="4.61599">
        <ele>493</ele>
        <time>2016-06-02T07:28:46.009Z</time>
      </trkpt>
      <trkpt lat="45.942" lon="4.61587">
        <ele>494</ele>
        <time>2016-06-02T07:29:00.035Z</time>
      </trkpt>
      <trkpt lat="45.942" lon="4.61586">
        <ele>494</ele>
        <time>2016-06-02T07:29:01.028Z</time>
      </trkpt>
      <trkpt lat="45.94202" lon="4.61574">
        <ele>503</ele>
        <time>2016-06-02T07:29:14.021Z</time>
      </trkpt>
      <trkpt lat="45.94203" lon="4.61573">
        <ele>503</ele>
        <time>2016-06-02T07:29:15.025Z</time>
      </trkpt>
      <trkpt lat="45.94207" lon="4.61562">
        <ele>504</ele>
        <time>2016-06-02T07:29:29.02Z</time>
      </trkpt>
      <trkpt lat="45.94207" lon="4.61561">
        <ele>504</ele>
        <time>2016-06-02T07:29:30.024Z</time>
      </trkpt>
      <trkpt lat="45.9421" lon="4.61549">
        <ele>505</ele>
        <time>2016-06-02T07:29:42.024Z</time>
      </trkpt>
      <trkpt lat="45.9421" lon="4.61547">
        <ele>505</ele>
        <time>2016-06-02T07:29:43.029Z</time>
      </trkpt>
      <trkpt lat="45.94211" lon="4.61535">
        <ele>506</ele>
        <time>2016-06-02T07:29:58.023Z</time>
      </trkpt>
      <trkpt lat="45.94211" lon="4.61534">
        <ele>506</ele>
        <time>2016-06-02T07:29:59.021Z</time>
      </trkpt>
      <trkpt lat="45.94212" lon="4.61523">
        <ele>507</ele>
        <time>2016-06-02T07:30:13.021Z</time>
      </trkpt>
      <trkpt lat="45.94212" lon="4.61522">
        <ele>507</ele>
        <time>2016-06-02T07:30:14.04Z</time>
      </trkpt>
      <trkpt lat="45.94217" lon="4.61511">
        <ele>508</ele>
        <time>2016-06-02T07:30:24.024Z</time>
      </trkpt>
      <trkpt lat="45.94217" lon="4.61509">
        <ele>509</ele>
        <time>2016-06-02T07:30:25.014Z</time>
      </trkpt>
      <trkpt lat="45.94221" lon="4.61498">
        <ele>513</ele>
        <time>2016-06-02T07:30:35.03Z</time>
      </trkpt>
      <trkpt lat="45.94221" lon="4.61497">
        <ele>513</ele>
        <time>2016-06-02T07:30:36.019Z</time>
      </trkpt>
      <trkpt lat="45.9423" lon="4.61496">
        <ele>515</ele>
        <time>2016-06-02T07:30:52.029Z</time>
      </trkpt>
      <trkpt lat="45.9423" lon="4.61496">
        <ele>515</ele>
        <time>2016-06-02T07:30:53.025Z</time>
      </trkpt>
      <trkpt lat="45.94239" lon="4.61497">
        <ele>518</ele>
        <time>2016-06-02T07:31:05.029Z</time>
      </trkpt>
      <trkpt lat="45.94239" lon="4.61496">
        <ele>518</ele>
        <time>2016-06-02T07:31:06.027Z</time>
      </trkpt>
      <trkpt lat="45.94246" lon="4.61488">
        <ele>518</ele>
        <time>2016-06-02T07:31:17.034Z</time>
      </trkpt>
      <trkpt lat="45.94247" lon="4.61487">
        <ele>518</ele>
        <time>2016-06-02T07:31:18.038Z</time>
      </trkpt>
      <trkpt lat="45.94251" lon="4.61477">
        <ele>525</ele>
        <time>2016-06-02T07:31:31.023Z</time>
      </trkpt>
      <trkpt lat="45.94252" lon="4.61477">
        <ele>526</ele>
        <time>2016-06-02T07:31:32.03Z</time>
      </trkpt>
      <trkpt lat="45.94257" lon="4.61467">
        <ele>526</ele>
        <time>2016-06-02T07:31:43.029Z</time>
      </trkpt>
      <trkpt lat="45.94258" lon="4.61466">
        <ele>526</ele>
        <time>2016-06-02T07:31:44.029Z</time>
      </trkpt>
      <trkpt lat="45.94266" lon="4.61461">
        <ele>527</ele>
        <time>2016-06-02T07:31:56.023Z</time>
      </trkpt>
      <trkpt lat="45.94266" lon="4.61461">
        <ele>527</ele>
        <time>2016-06-02T07:31:57.009Z</time>
      </trkpt>
      <trkpt lat="45.94275" lon="4.61464">
        <ele>527</ele>
        <time>2016-06-02T07:32:50.032Z</time>
      </trkpt>
      <trkpt lat="45.94275" lon="4.61465">
        <ele>527</ele>
        <time>2016-06-02T07:32:51.017Z</time>
      </trkpt>
      <trkpt lat="45.94267" lon="4.61463">
        <ele>527</ele>
        <time>2016-06-02T07:35:14.011Z</time>
      </trkpt>
      <trkpt lat="45.94266" lon="4.61462">
        <ele>527</ele>
        <time>2016-06-02T07:35:15.009Z</time>
      </trkpt>
      <trkpt lat="45.94265" lon="4.6145">
        <ele>527</ele>
        <time>2016-06-02T07:35:26.018Z</time>
      </trkpt>
      <trkpt lat="45.94266" lon="4.61449">
        <ele>527</ele>
        <time>2016-06-02T07:35:27.023Z</time>
      </trkpt>
      <trkpt lat="45.94269" lon="4.61437">
        <ele>528</ele>
        <time>2016-06-02T07:35:36.018Z</time>
      </trkpt>
      <trkpt lat="45.9427" lon="4.61436">
        <ele>528</ele>
        <time>2016-06-02T07:35:37.027Z</time>
      </trkpt>
      <trkpt lat="45.94276" lon="4.61427">
        <ele>528</ele>
        <time>2016-06-02T07:35:49.017Z</time>
      </trkpt>
      <trkpt lat="45.94277" lon="4.61426">
        <ele>528</ele>
        <time>2016-06-02T07:35:50.025Z</time>
      </trkpt>
      <trkpt lat="45.94283" lon="4.61418">
        <ele>529</ele>
        <time>2016-06-02T07:36:00.023Z</time>
      </trkpt>
      <trkpt lat="45.94283" lon="4.61417">
        <ele>529</ele>
        <time>2016-06-02T07:36:01.029Z</time>
      </trkpt>
      <trkpt lat="45.9429" lon="4.61409">
        <ele>532</ele>
        <time>2016-06-02T07:36:10.021Z</time>
      </trkpt>
      <trkpt lat="45.9429" lon="4.61408">
        <ele>532</ele>
        <time>2016-06-02T07:36:11.019Z</time>
      </trkpt>
      <trkpt lat="45.94296" lon="4.61398">
        <ele>533</ele>
        <time>2016-06-02T07:36:22.02Z</time>
      </trkpt>
      <trkpt lat="45.94297" lon="4.61397">
        <ele>533</ele>
        <time>2016-06-02T07:36:23.018Z</time>
      </trkpt>
      <trkpt lat="45.94304" lon="4.61391">
        <ele>534</ele>
        <time>2016-06-02T07:36:31.032Z</time>
      </trkpt>
      <trkpt lat="45.94305" lon="4.61391">
        <ele>534</ele>
        <time>2016-06-02T07:36:32.02Z</time>
      </trkpt>
      <trkpt lat="45.9431" lon="4.61381">
        <ele>534</ele>
        <time>2016-06-02T07:36:42.04Z</time>
      </trkpt>
      <trkpt lat="45.94311" lon="4.6138">
        <ele>534</ele>
        <time>2016-06-02T07:36:43.026Z</time>
      </trkpt>
      <trkpt lat="45.94317" lon="4.61371">
        <ele>535</ele>
        <time>2016-06-02T07:36:53.998Z</time>
      </trkpt>
      <trkpt lat="45.94318" lon="4.6137">
        <ele>535</ele>
        <time>2016-06-02T07:36:55.015Z</time>
      </trkpt>
      <trkpt lat="45.94322" lon="4.61359">
        <ele>536</ele>
        <time>2016-06-02T07:37:06.021Z</time>
      </trkpt>
      <trkpt lat="45.94322" lon="4.61358">
        <ele>536</ele>
        <time>2016-06-02T07:37:07.022Z</time>
      </trkpt>
      <trkpt lat="45.94328" lon="4.61349">
        <ele>538</ele>
        <time>2016-06-02T07:37:20.038Z</time>
      </trkpt>
      <trkpt lat="45.94328" lon="4.61348">
        <ele>539</ele>
        <time>2016-06-02T07:37:21.04Z</time>
      </trkpt>
      <trkpt lat="45.94334" lon="4.6134">
        <ele>544</ele>
        <time>2016-06-02T07:37:29.034Z</time>
      </trkpt>
      <trkpt lat="45.94335" lon="4.61339">
        <ele>544</ele>
        <time>2016-06-02T07:37:30.039Z</time>
      </trkpt>
      <trkpt lat="45.94342" lon="4.61332">
        <ele>546</ele>
        <time>2016-06-02T07:37:40.02Z</time>
      </trkpt>
      <trkpt lat="45.94343" lon="4.61331">
        <ele>546</ele>
        <time>2016-06-02T07:37:41.02Z</time>
      </trkpt>
      <trkpt lat="45.94349" lon="4.61323">
        <ele>547</ele>
        <time>2016-06-02T07:37:51.028Z</time>
      </trkpt>
      <trkpt lat="45.94349" lon="4.61323">
        <ele>547</ele>
        <time>2016-06-02T07:37:52.027Z</time>
      </trkpt>
      <trkpt lat="45.94356" lon="4.61316">
        <ele>548</ele>
        <time>2016-06-02T07:38:01.031Z</time>
      </trkpt>
      <trkpt lat="45.94357" lon="4.61315">
        <ele>548</ele>
        <time>2016-06-02T07:38:02.028Z</time>
      </trkpt>
      <trkpt lat="45.94363" lon="4.61308">
        <ele>549</ele>
        <time>2016-06-02T07:38:12.007Z</time>
      </trkpt>
      <trkpt lat="45.94364" lon="4.61307">
        <ele>549</ele>
        <time>2016-06-02T07:38:13.015Z</time>
      </trkpt>
      <trkpt lat="45.94371" lon="4.61301">
        <ele>550</ele>
        <time>2016-06-02T07:38:21.022Z</time>
      </trkpt>
      <trkpt lat="45.94372" lon="4.613">
        <ele>550</ele>
        <time>2016-06-02T07:38:22.011Z</time>
      </trkpt>
      <trkpt lat="45.94378" lon="4.61292">
        <ele>550</ele>
        <time>2016-06-02T07:38:29.012Z</time>
      </trkpt>
      <trkpt lat="45.94379" lon="4.61291">
        <ele>550</ele>
        <time>2016-06-02T07:38:30.016Z</time>
      </trkpt>
      <trkpt lat="45.94385" lon="4.61283">
        <ele>551</ele>
        <time>2016-06-02T07:38:41.019Z</time>
      </trkpt>
      <trkpt lat="45.94386" lon="4.61282">
        <ele>551</ele>
        <time>2016-06-02T07:38:42.021Z</time>
      </trkpt>
      <trkpt lat="45.94392" lon="4.61273">
        <ele>552</ele>
        <time>2016-06-02T07:38:50.042Z</time>
      </trkpt>
      <trkpt lat="45.94392" lon="4.61272">
        <ele>552</ele>
        <time>2016-06-02T07:38:51.023Z</time>
      </trkpt>
      <trkpt lat="45.94399" lon="4.61265">
        <ele>554</ele>
        <time>2016-06-02T07:39:00.022Z</time>
      </trkpt>
      <trkpt lat="45.944" lon="4.61264">
        <ele>554</ele>
        <time>2016-06-02T07:39:01.015Z</time>
      </trkpt>
      <trkpt lat="45.94407" lon="4.61258">
        <ele>556</ele>
        <time>2016-06-02T07:39:10.035Z</time>
      </trkpt>
      <trkpt lat="45.94408" lon="4.61257">
        <ele>556</ele>
        <time>2016-06-02T07:39:11.024Z</time>
      </trkpt>
      <trkpt lat="45.94413" lon="4.61248">
        <ele>558</ele>
        <time>2016-06-02T07:39:18.009Z</time>
      </trkpt>
      <trkpt lat="45.94414" lon="4.61247">
        <ele>558</ele>
        <time>2016-06-02T07:39:19.012Z</time>
      </trkpt>
      <trkpt lat="45.94422" lon="4.61242">
        <ele>560</ele>
        <time>2016-06-02T07:39:28.035Z</time>
      </trkpt>
      <trkpt lat="45.94422" lon="4.61241">
        <ele>560</ele>
        <time>2016-06-02T07:39:29.023Z</time>
      </trkpt>
      <trkpt lat="45.94429" lon="4.61232">
        <ele>560</ele>
        <time>2016-06-02T07:39:41.038Z</time>
      </trkpt>
      <trkpt lat="45.94429" lon="4.61232">
        <ele>560</ele>
        <time>2016-06-02T07:39:42.021Z</time>
      </trkpt>
      <trkpt lat="45.94437" lon="4.61225">
        <ele>561</ele>
        <time>2016-06-02T07:39:52.025Z</time>
      </trkpt>
      <trkpt lat="45.94438" lon="4.61224">
        <ele>561</ele>
        <time>2016-06-02T07:39:53.026Z</time>
      </trkpt>
      <trkpt lat="45.94445" lon="4.61217">
        <ele>561</ele>
        <time>2016-06-02T07:40:01.03Z</time>
      </trkpt>
      <trkpt lat="45.94446" lon="4.61215">
        <ele>561</ele>
        <time>2016-06-02T07:40:02.015Z</time>
      </trkpt>
      <trkpt lat="45.9445" lon="4.61204">
        <ele>561</ele>
        <time>2016-06-02T07:40:10.028Z</time>
      </trkpt>
      <trkpt lat="45.9445" lon="4.61202">
        <ele>561</ele>
        <time>2016-06-02T07:40:11.035Z</time>
      </trkpt>
      <trkpt lat="45.94454" lon="4.61192">
        <ele>561</ele>
        <time>2016-06-02T07:40:18.017Z</time>
      </trkpt>
      <trkpt lat="45.94455" lon="4.61191">
        <ele>561</ele>
        <time>2016-06-02T07:40:19.009Z</time>
      </trkpt>
      <trkpt lat="45.9446" lon="4.61184">
        <ele>562</ele>
        <time>2016-06-02T07:40:25.016Z</time>
      </trkpt>
      <trkpt lat="45.94462" lon="4.61183">
        <ele>562</ele>
        <time>2016-06-02T07:40:26.021Z</time>
      </trkpt>
      <trkpt lat="45.94469" lon="4.61176">
        <ele>563</ele>
        <time>2016-06-02T07:40:32.035Z</time>
      </trkpt>
      <trkpt lat="45.9447" lon="4.61175">
        <ele>563</ele>
        <time>2016-06-02T07:40:33.029Z</time>
      </trkpt>
      <trkpt lat="45.94476" lon="4.61165">
        <ele>563</ele>
        <time>2016-06-02T07:40:42.023Z</time>
      </trkpt>
      <trkpt lat="45.94476" lon="4.61165">
        <ele>563</ele>
        <time>2016-06-02T07:40:43.028Z</time>
      </trkpt>
      <trkpt lat="45.94483" lon="4.61158">
        <ele>564</ele>
        <time>2016-06-02T07:40:52.024Z</time>
      </trkpt>
      <trkpt lat="45.94484" lon="4.61157">
        <ele>564</ele>
        <time>2016-06-02T07:40:53.038Z</time>
      </trkpt>
      <trkpt lat="45.94491" lon="4.61151">
        <ele>564</ele>
        <time>2016-06-02T07:41:00.028Z</time>
      </trkpt>
      <trkpt lat="45.94491" lon="4.6115">
        <ele>564</ele>
        <time>2016-06-02T07:41:01.015Z</time>
      </trkpt>
      <trkpt lat="45.94497" lon="4.61139">
        <ele>563</ele>
        <time>2016-06-02T07:41:08.029Z</time>
      </trkpt>
      <trkpt lat="45.94498" lon="4.61138">
        <ele>563</ele>
        <time>2016-06-02T07:41:09.028Z</time>
      </trkpt>
      <trkpt lat="45.94502" lon="4.61128">
        <ele>570</ele>
        <time>2016-06-02T07:41:16.022Z</time>
      </trkpt>
      <trkpt lat="45.94502" lon="4.61127">
        <ele>570</ele>
        <time>2016-06-02T07:41:17.038Z</time>
      </trkpt>
      <trkpt lat="45.94509" lon="4.6112">
        <ele>570</ele>
        <time>2016-06-02T07:41:24.018Z</time>
      </trkpt>
      <trkpt lat="45.9451" lon="4.61119">
        <ele>570</ele>
        <time>2016-06-02T07:41:25.02Z</time>
      </trkpt>
      <trkpt lat="45.94518" lon="4.61115">
        <ele>570</ele>
        <time>2016-06-02T07:41:31.005Z</time>
      </trkpt>
      <trkpt lat="45.94519" lon="4.61114">
        <ele>570</ele>
        <time>2016-06-02T07:41:32.012Z</time>
      </trkpt>
      <trkpt lat="45.94527" lon="4.61109">
        <ele>570</ele>
        <time>2016-06-02T07:41:38.021Z</time>
      </trkpt>
      <trkpt lat="45.94528" lon="4.61108">
        <ele>570</ele>
        <time>2016-06-02T07:41:39.028Z</time>
      </trkpt>
      <trkpt lat="45.94527" lon="4.61096">
        <ele>570</ele>
        <time>2016-06-02T07:42:39.021Z</time>
      </trkpt>
      <trkpt lat="45.94527" lon="4.61095">
        <ele>570</ele>
        <time>2016-06-02T07:42:40.024Z</time>
      </trkpt>
      <trkpt lat="45.94534" lon="4.61087">
        <ele>571</ele>
        <time>2016-06-02T07:45:05.016Z</time>
      </trkpt>
      <trkpt lat="45.94534" lon="4.61086">
        <ele>571</ele>
        <time>2016-06-02T07:45:06.02Z</time>
      </trkpt>
      <trkpt lat="45.94541" lon="4.61078">
        <ele>571</ele>
        <time>2016-06-02T07:45:14.027Z</time>
      </trkpt>
      <trkpt lat="45.94542" lon="4.61077">
        <ele>572</ele>
        <time>2016-06-02T07:45:15.018Z</time>
      </trkpt>
      <trkpt lat="45.94547" lon="4.61069">
        <ele>572</ele>
        <time>2016-06-02T07:45:21.025Z</time>
      </trkpt>
      <trkpt lat="45.94548" lon="4.61067">
        <ele>572</ele>
        <time>2016-06-02T07:45:22.021Z</time>
      </trkpt>
      <trkpt lat="45.94549" lon="4.61055">
        <ele>572</ele>
        <time>2016-06-02T07:45:32.026Z</time>
      </trkpt>
      <trkpt lat="45.94549" lon="4.61054">
        <ele>572</ele>
        <time>2016-06-02T07:45:33.029Z</time>
      </trkpt>
      <trkpt lat="45.94548" lon="4.61042">
        <ele>571</ele>
        <time>2016-06-02T07:45:46.021Z</time>
      </trkpt>
      <trkpt lat="45.94549" lon="4.61041">
        <ele>571</ele>
        <time>2016-06-02T07:45:47.038Z</time>
      </trkpt>
      <trkpt lat="45.94552" lon="4.6103">
        <ele>572</ele>
        <time>2016-06-02T07:45:57.017Z</time>
      </trkpt>
      <trkpt lat="45.94553" lon="4.61028">
        <ele>572</ele>
        <time>2016-06-02T07:45:58.022Z</time>
      </trkpt>
      <trkpt lat="45.94556" lon="4.61018">
        <ele>572</ele>
        <time>2016-06-02T07:46:06.009Z</time>
      </trkpt>
      <trkpt lat="45.94556" lon="4.61016">
        <ele>572</ele>
        <time>2016-06-02T07:46:07.01Z</time>
      </trkpt>
      <trkpt lat="45.94561" lon="4.61007">
        <ele>573</ele>
        <time>2016-06-02T07:46:15.021Z</time>
      </trkpt>
      <trkpt lat="45.94562" lon="4.61005">
        <ele>573</ele>
        <time>2016-06-02T07:46:16.025Z</time>
      </trkpt>
      <trkpt lat="45.94568" lon="4.60996">
        <ele>572</ele>
        <time>2016-06-02T07:46:24.01Z</time>
      </trkpt>
      <trkpt lat="45.94569" lon="4.60995">
        <ele>573</ele>
        <time>2016-06-02T07:46:25.011Z</time>
      </trkpt>
      <trkpt lat="45.94573" lon="4.60985">
        <ele>572</ele>
        <time>2016-06-02T07:46:32.04Z</time>
      </trkpt>
      <trkpt lat="45.94574" lon="4.60983">
        <ele>572</ele>
        <time>2016-06-02T07:46:33.029Z</time>
      </trkpt>
      <trkpt lat="45.94578" lon="4.60972">
        <ele>571</ele>
        <time>2016-06-02T07:46:41.031Z</time>
      </trkpt>
      <trkpt lat="45.94579" lon="4.6097">
        <ele>570</ele>
        <time>2016-06-02T07:46:42.021Z</time>
      </trkpt>
      <trkpt lat="45.94583" lon="4.60959">
        <ele>570</ele>
        <time>2016-06-02T07:46:51.029Z</time>
      </trkpt>
      <trkpt lat="45.94584" lon="4.60958">
        <ele>581</ele>
        <time>2016-06-02T07:46:52.039Z</time>
      </trkpt>
      <trkpt lat="45.94588" lon="4.60948">
        <ele>581</ele>
        <time>2016-06-02T07:47:01.023Z</time>
      </trkpt>
      <trkpt lat="45.94588" lon="4.60947">
        <ele>581</ele>
        <time>2016-06-02T07:47:02.023Z</time>
      </trkpt>
      <trkpt lat="45.94594" lon="4.60938">
        <ele>580</ele>
        <time>2016-06-02T07:47:10.023Z</time>
      </trkpt>
      <trkpt lat="45.94594" lon="4.60937">
        <ele>580</ele>
        <time>2016-06-02T07:47:11.035Z</time>
      </trkpt>
      <trkpt lat="45.94602" lon="4.60935">
        <ele>581</ele>
        <time>2016-06-02T07:47:20.035Z</time>
      </trkpt>
      <trkpt lat="45.94603" lon="4.60934">
        <ele>581</ele>
        <time>2016-06-02T07:47:21.027Z</time>
      </trkpt>
      <trkpt lat="45.94612" lon="4.60933">
        <ele>582</ele>
        <time>2016-06-02T07:47:31.033Z</time>
      </trkpt>
      <trkpt lat="45.94613" lon="4.60933">
        <ele>582</ele>
        <time>2016-06-02T07:47:32.029Z</time>
      </trkpt>
      <trkpt lat="45.9462" lon="4.60924">
        <ele>583</ele>
        <time>2016-06-02T07:47:41.002Z</time>
      </trkpt>
      <trkpt lat="45.9462" lon="4.60923">
        <ele>583</ele>
        <time>2016-06-02T07:47:42.024Z</time>
      </trkpt>
      <trkpt lat="45.94627" lon="4.60916">
        <ele>580</ele>
        <time>2016-06-02T07:47:51.031Z</time>
      </trkpt>
      <trkpt lat="45.94628" lon="4.60916">
        <ele>580</ele>
        <time>2016-06-02T07:47:52.038Z</time>
      </trkpt>
      <trkpt lat="45.94634" lon="4.60909">
        <ele>581</ele>
        <time>2016-06-02T07:47:59.028Z</time>
      </trkpt>
      <trkpt lat="45.94635" lon="4.60907">
        <ele>581</ele>
        <time>2016-06-02T07:48:00.039Z</time>
      </trkpt>
      <trkpt lat="45.94642" lon="4.609">
        <ele>582</ele>
        <time>2016-06-02T07:48:07.02Z</time>
      </trkpt>
      <trkpt lat="45.94643" lon="4.609">
        <ele>582</ele>
        <time>2016-06-02T07:48:08.034Z</time>
      </trkpt>
      <trkpt lat="45.9465" lon="4.60893">
        <ele>582</ele>
        <time>2016-06-02T07:48:15.025Z</time>
      </trkpt>
      <trkpt lat="45.94651" lon="4.60892">
        <ele>582</ele>
        <time>2016-06-02T07:48:16.041Z</time>
      </trkpt>
      <trkpt lat="45.94658" lon="4.60886">
        <ele>582</ele>
        <time>2016-06-02T07:48:24.026Z</time>
      </trkpt>
      <trkpt lat="45.94659" lon="4.60885">
        <ele>582</ele>
        <time>2016-06-02T07:48:25.019Z</time>
      </trkpt>
      <trkpt lat="45.94666" lon="4.60879">
        <ele>582</ele>
        <time>2016-06-02T07:48:31.024Z</time>
      </trkpt>
      <trkpt lat="45.94667" lon="4.60878">
        <ele>589</ele>
        <time>2016-06-02T07:48:32.021Z</time>
      </trkpt>
      <trkpt lat="45.94674" lon="4.60872">
        <ele>589</ele>
        <time>2016-06-02T07:48:38.013Z</time>
      </trkpt>
      <trkpt lat="45.94675" lon="4.60871">
        <ele>589</ele>
        <time>2016-06-02T07:48:39.023Z</time>
      </trkpt>
      <trkpt lat="45.94683" lon="4.60867">
        <ele>589</ele>
        <time>2016-06-02T07:48:46.021Z</time>
      </trkpt>
      <trkpt lat="45.94685" lon="4.60867">
        <ele>589</ele>
        <time>2016-06-02T07:48:47.022Z</time>
      </trkpt>
      <trkpt lat="45.94693" lon="4.60861">
        <ele>589</ele>
        <time>2016-06-02T07:48:54.025Z</time>
      </trkpt>
      <trkpt lat="45.94694" lon="4.6086">
        <ele>589</ele>
        <time>2016-06-02T07:48:55.024Z</time>
      </trkpt>
      <trkpt lat="45.94701" lon="4.60854">
        <ele>589</ele>
        <time>2016-06-02T07:49:02.011Z</time>
      </trkpt>
      <trkpt lat="45.94702" lon="4.60853">
        <ele>589</ele>
        <time>2016-06-02T07:49:03.011Z</time>
      </trkpt>
      <trkpt lat="45.94709" lon="4.60847">
        <ele>590</ele>
        <time>2016-06-02T07:49:11.009Z</time>
      </trkpt>
      <trkpt lat="45.9471" lon="4.60846">
        <ele>590</ele>
        <time>2016-06-02T07:49:12.005Z</time>
      </trkpt>
      <trkpt lat="45.94718" lon="4.6084">
        <ele>590</ele>
        <time>2016-06-02T07:49:20.02Z</time>
      </trkpt>
      <trkpt lat="45.94719" lon="4.60839">
        <ele>590</ele>
        <time>2016-06-02T07:49:21.019Z</time>
      </trkpt>
      <trkpt lat="45.94726" lon="4.60834">
        <ele>591</ele>
        <time>2016-06-02T07:49:27.025Z</time>
      </trkpt>
      <trkpt lat="45.94727" lon="4.60833">
        <ele>588</ele>
        <time>2016-06-02T07:49:28.022Z</time>
      </trkpt>
      <trkpt lat="45.94733" lon="4.60827">
        <ele>589</ele>
        <time>2016-06-02T07:49:34.014Z</time>
      </trkpt>
      <trkpt lat="45.94734" lon="4.60826">
        <ele>589</ele>
        <time>2016-06-02T07:49:35.021Z</time>
      </trkpt>
      <trkpt lat="45.94742" lon="4.60822">
        <ele>590</ele>
        <time>2016-06-02T07:49:41.022Z</time>
      </trkpt>
      <trkpt lat="45.94743" lon="4.60822">
        <ele>590</ele>
        <time>2016-06-02T07:49:42.025Z</time>
      </trkpt>
      <trkpt lat="45.94751" lon="4.60817">
        <ele>591</ele>
        <time>2016-06-02T07:49:49.02Z</time>
      </trkpt>
      <trkpt lat="45.94752" lon="4.60816">
        <ele>591</ele>
        <time>2016-06-02T07:49:50.021Z</time>
      </trkpt>
      <trkpt lat="45.94759" lon="4.6081">
        <ele>590</ele>
        <time>2016-06-02T07:49:58.02Z</time>
      </trkpt>
      <trkpt lat="45.9476" lon="4.60809">
        <ele>590</ele>
        <time>2016-06-02T07:49:59.025Z</time>
      </trkpt>
      <trkpt lat="45.94768" lon="4.60804">
        <ele>589</ele>
        <time>2016-06-02T07:50:16.014Z</time>
      </trkpt>
      <trkpt lat="45.94768" lon="4.60804">
        <ele>589</ele>
        <time>2016-06-02T07:50:17.031Z</time>
      </trkpt>
      <trkpt lat="45.94775" lon="4.60795">
        <ele>588</ele>
        <time>2016-06-02T07:50:25.018Z</time>
      </trkpt>
      <trkpt lat="45.94776" lon="4.60794">
        <ele>588</ele>
        <time>2016-06-02T07:50:26.02Z</time>
      </trkpt>
      <trkpt lat="45.94781" lon="4.60785">
        <ele>587</ele>
        <time>2016-06-02T07:50:34.023Z</time>
      </trkpt>
      <trkpt lat="45.94782" lon="4.60784">
        <ele>587</ele>
        <time>2016-06-02T07:50:35.024Z</time>
      </trkpt>
      <trkpt lat="45.94785" lon="4.60772">
        <ele>587</ele>
        <time>2016-06-02T07:51:00.029Z</time>
      </trkpt>
      <trkpt lat="45.94785" lon="4.60772">
        <ele>587</ele>
        <time>2016-06-02T07:51:01.038Z</time>
      </trkpt>
      <trkpt lat="45.9479" lon="4.60761">
        <ele>586</ele>
        <time>2016-06-02T07:51:16.038Z</time>
      </trkpt>
      <trkpt lat="45.9479" lon="4.6076">
        <ele>586</ele>
        <time>2016-06-02T07:51:17.022Z</time>
      </trkpt>
      <trkpt lat="45.94793" lon="4.60749">
        <ele>581</ele>
        <time>2016-06-02T07:51:36.029Z</time>
      </trkpt>
      <trkpt lat="45.94793" lon="4.60748">
        <ele>581</ele>
        <time>2016-06-02T07:51:37.034Z</time>
      </trkpt>
      <trkpt lat="45.94796" lon="4.60736">
        <ele>580</ele>
        <time>2016-06-02T07:51:50.015Z</time>
      </trkpt>
      <trkpt lat="45.94796" lon="4.60735">
        <ele>580</ele>
        <time>2016-06-02T07:51:51.022Z</time>
      </trkpt>
      <trkpt lat="45.94799" lon="4.60723">
        <ele>579</ele>
        <time>2016-06-02T07:52:07.022Z</time>
      </trkpt>
      <trkpt lat="45.94799" lon="4.60722">
        <ele>579</ele>
        <time>2016-06-02T07:52:08.022Z</time>
      </trkpt>
      <trkpt lat="45.948" lon="4.6071">
        <ele>579</ele>
        <time>2016-06-02T07:52:20.027Z</time>
      </trkpt>
      <trkpt lat="45.948" lon="4.60709">
        <ele>579</ele>
        <time>2016-06-02T07:52:21.031Z</time>
      </trkpt>
      <trkpt lat="45.94802" lon="4.60697">
        <ele>578</ele>
        <time>2016-06-02T07:52:32.01Z</time>
      </trkpt>
      <trkpt lat="45.94803" lon="4.60696">
        <ele>578</ele>
        <time>2016-06-02T07:52:33.04Z</time>
      </trkpt>
      <trkpt lat="45.94804" lon="4.60684">
        <ele>577</ele>
        <time>2016-06-02T07:52:43.031Z</time>
      </trkpt>
      <trkpt lat="45.94804" lon="4.60683">
        <ele>577</ele>
        <time>2016-06-02T07:52:44.041Z</time>
      </trkpt>
      <trkpt lat="45.94805" lon="4.6067">
        <ele>577</ele>
        <time>2016-06-02T07:52:52.036Z</time>
      </trkpt>
      <trkpt lat="45.94805" lon="4.60668">
        <ele>577</ele>
        <time>2016-06-02T07:52:53.022Z</time>
      </trkpt>
      <trkpt lat="45.94807" lon="4.60657">
        <ele>572</ele>
        <time>2016-06-02T07:53:02.022Z</time>
      </trkpt>
      <trkpt lat="45.94807" lon="4.60655">
        <ele>572</ele>
        <time>2016-06-02T07:53:03.021Z</time>
      </trkpt>
      <trkpt lat="45.94809" lon="4.60644">
        <ele>572</ele>
        <time>2016-06-02T07:53:09.025Z</time>
      </trkpt>
      <trkpt lat="45.94809" lon="4.60642">
        <ele>572</ele>
        <time>2016-06-02T07:53:10.025Z</time>
      </trkpt>
      <trkpt lat="45.94811" lon="4.6063">
        <ele>572</ele>
        <time>2016-06-02T07:53:17.01Z</time>
      </trkpt>
      <trkpt lat="45.94811" lon="4.60628">
        <ele>572</ele>
        <time>2016-06-02T07:53:18.012Z</time>
      </trkpt>
      <trkpt lat="45.9481" lon="4.60616">
        <ele>572</ele>
        <time>2016-06-02T07:53:26.029Z</time>
      </trkpt>
      <trkpt lat="45.94809" lon="4.60614">
        <ele>572</ele>
        <time>2016-06-02T07:53:27.02Z</time>
      </trkpt>
      <trkpt lat="45.94813" lon="4.60603">
        <ele>572</ele>
        <time>2016-06-02T07:53:35.024Z</time>
      </trkpt>
      <trkpt lat="45.94813" lon="4.60602">
        <ele>572</ele>
        <time>2016-06-02T07:53:36.024Z</time>
      </trkpt>
      <trkpt lat="45.94815" lon="4.6059">
        <ele>572</ele>
        <time>2016-06-02T07:53:44.025Z</time>
      </trkpt>
      <trkpt lat="45.94816" lon="4.60589">
        <ele>572</ele>
        <time>2016-06-02T07:53:45.024Z</time>
      </trkpt>
      <trkpt lat="45.94818" lon="4.60577">
        <ele>570</ele>
        <time>2016-06-02T07:53:52.01Z</time>
      </trkpt>
      <trkpt lat="45.94818" lon="4.60575">
        <ele>570</ele>
        <time>2016-06-02T07:53:53.007Z</time>
      </trkpt>
      <trkpt lat="45.94823" lon="4.60566">
        <ele>569</ele>
        <time>2016-06-02T07:54:00.019Z</time>
      </trkpt>
      <trkpt lat="45.94823" lon="4.60565">
        <ele>569</ele>
        <time>2016-06-02T07:54:01.025Z</time>
      </trkpt>
      <trkpt lat="45.94829" lon="4.60556">
        <ele>568</ele>
        <time>2016-06-02T07:54:08.037Z</time>
      </trkpt>
      <trkpt lat="45.94829" lon="4.60555">
        <ele>568</ele>
        <time>2016-06-02T07:54:09.021Z</time>
      </trkpt>
      <trkpt lat="45.94836" lon="4.60546">
        <ele>570</ele>
        <time>2016-06-02T07:54:15.012Z</time>
      </trkpt>
      <trkpt lat="45.94837" lon="4.60544">
        <ele>569</ele>
        <time>2016-06-02T07:54:16.015Z</time>
      </trkpt>
      <trkpt lat="45.94842" lon="4.60534">
        <ele>569</ele>
        <time>2016-06-02T07:54:22.02Z</time>
      </trkpt>
      <trkpt lat="45.94843" lon="4.60533">
        <ele>569</ele>
        <time>2016-06-02T07:54:23.02Z</time>
      </trkpt>
      <trkpt lat="45.94848" lon="4.60523">
        <ele>569</ele>
        <time>2016-06-02T07:54:29.029Z</time>
      </trkpt>
      <trkpt lat="45.94848" lon="4.60522">
        <ele>569</ele>
        <time>2016-06-02T07:54:30.029Z</time>
      </trkpt>
      <trkpt lat="45.94855" lon="4.60514">
        <ele>568</ele>
        <time>2016-06-02T07:54:36.022Z</time>
      </trkpt>
      <trkpt lat="45.94856" lon="4.60513">
        <ele>568</ele>
        <time>2016-06-02T07:54:37.023Z</time>
      </trkpt>
      <trkpt lat="45.94862" lon="4.60505">
        <ele>568</ele>
        <time>2016-06-02T07:54:43.026Z</time>
      </trkpt>
      <trkpt lat="45.94863" lon="4.60503">
        <ele>568</ele>
        <time>2016-06-02T07:54:44.02Z</time>
      </trkpt>
      <trkpt lat="45.94868" lon="4.60492">
        <ele>568</ele>
        <time>2016-06-02T07:54:51.024Z</time>
      </trkpt>
      <trkpt lat="45.94868" lon="4.60491">
        <ele>568</ele>
        <time>2016-06-02T07:54:52.029Z</time>
      </trkpt>
      <trkpt lat="45.94873" lon="4.60482">
        <ele>568</ele>
        <time>2016-06-02T07:54:59.013Z</time>
      </trkpt>
      <trkpt lat="45.94874" lon="4.60481">
        <ele>568</ele>
        <time>2016-06-02T07:55:00.033Z</time>
      </trkpt>
      <trkpt lat="45.94881" lon="4.60473">
        <ele>568</ele>
        <time>2016-06-02T07:55:07.023Z</time>
      </trkpt>
      <trkpt lat="45.94882" lon="4.60472">
        <ele>568</ele>
        <time>2016-06-02T07:55:08.024Z</time>
      </trkpt>
      <trkpt lat="45.94887" lon="4.60463">
        <ele>568</ele>
        <time>2016-06-02T07:55:14.014Z</time>
      </trkpt>
      <trkpt lat="45.94888" lon="4.60461">
        <ele>568</ele>
        <time>2016-06-02T07:55:15.013Z</time>
      </trkpt>
      <trkpt lat="45.94893" lon="4.60452">
        <ele>568</ele>
        <time>2016-06-02T07:55:20.015Z</time>
      </trkpt>
      <trkpt lat="45.94894" lon="4.6045">
        <ele>568</ele>
        <time>2016-06-02T07:55:21.028Z</time>
      </trkpt>
      <trkpt lat="45.94898" lon="4.60441">
        <ele>569</ele>
        <time>2016-06-02T07:55:26.04Z</time>
      </trkpt>
      <trkpt lat="45.94899" lon="4.60439">
        <ele>569</ele>
        <time>2016-06-02T07:55:27.04Z</time>
      </trkpt>
      <trkpt lat="45.94902" lon="4.60429">
        <ele>570</ele>
        <time>2016-06-02T07:55:33.036Z</time>
      </trkpt>
      <trkpt lat="45.94903" lon="4.60427">
        <ele>570</ele>
        <time>2016-06-02T07:55:34.027Z</time>
      </trkpt>
      <trkpt lat="45.94909" lon="4.60419">
        <ele>572</ele>
        <time>2016-06-02T07:55:40.022Z</time>
      </trkpt>
      <trkpt lat="45.9491" lon="4.60418">
        <ele>572</ele>
        <time>2016-06-02T07:55:41.034Z</time>
      </trkpt>
      <trkpt lat="45.94918" lon="4.60411">
        <ele>573</ele>
        <time>2016-06-02T07:55:47.025Z</time>
      </trkpt>
      <trkpt lat="45.94918" lon="4.60409">
        <ele>573</ele>
        <time>2016-06-02T07:55:48.035Z</time>
      </trkpt>
      <trkpt lat="45.94923" lon="4.604">
        <ele>571</ele>
        <time>2016-06-02T07:57:18.038Z</time>
      </trkpt>
      <trkpt lat="45.94924" lon="4.60399">
        <ele>571</ele>
        <time>2016-06-02T07:57:19.026Z</time>
      </trkpt>
      <trkpt lat="45.9493" lon="4.6039">
        <ele>570</ele>
        <time>2016-06-02T07:57:25.022Z</time>
      </trkpt>
      <trkpt lat="45.9493" lon="4.60388">
        <ele>570</ele>
        <time>2016-06-02T07:57:26.022Z</time>
      </trkpt>
      <trkpt lat="45.94936" lon="4.60379">
        <ele>569</ele>
        <time>2016-06-02T07:57:32.023Z</time>
      </trkpt>
      <trkpt lat="45.94937" lon="4.60377">
        <ele>569</ele>
        <time>2016-06-02T07:57:33.016Z</time>
      </trkpt>
      <trkpt lat="45.94943" lon="4.6037">
        <ele>569</ele>
        <time>2016-06-02T07:57:39.02Z</time>
      </trkpt>
      <trkpt lat="45.94944" lon="4.60369">
        <ele>569</ele>
        <time>2016-06-02T07:57:40.035Z</time>
      </trkpt>
      <trkpt lat="45.94949" lon="4.6036">
        <ele>569</ele>
        <time>2016-06-02T07:57:47.009Z</time>
      </trkpt>
      <trkpt lat="45.9495" lon="4.60359">
        <ele>569</ele>
        <time>2016-06-02T07:57:48.015Z</time>
      </trkpt>
      <trkpt lat="45.94958" lon="4.60353">
        <ele>569</ele>
        <time>2016-06-02T07:58:08.031Z</time>
      </trkpt>
      <trkpt lat="45.94959" lon="4.60352">
        <ele>569</ele>
        <time>2016-06-02T07:58:09.024Z</time>
      </trkpt>
      <trkpt lat="45.94964" lon="4.60344">
        <ele>569</ele>
        <time>2016-06-02T07:58:16.038Z</time>
      </trkpt>
      <trkpt lat="45.94965" lon="4.60343">
        <ele>569</ele>
        <time>2016-06-02T07:58:17.015Z</time>
      </trkpt>
      <trkpt lat="45.94971" lon="4.60335">
        <ele>570</ele>
        <time>2016-06-02T07:58:24.027Z</time>
      </trkpt>
      <trkpt lat="45.94972" lon="4.60333">
        <ele>570</ele>
        <time>2016-06-02T07:58:25.029Z</time>
      </trkpt>
      <trkpt lat="45.94977" lon="4.60323">
        <ele>568</ele>
        <time>2016-06-02T07:58:32.014Z</time>
      </trkpt>
      <trkpt lat="45.94978" lon="4.60321">
        <ele>568</ele>
        <time>2016-06-02T07:58:33.014Z</time>
      </trkpt>
      <trkpt lat="45.94982" lon="4.60311">
        <ele>568</ele>
        <time>2016-06-02T07:58:40.029Z</time>
      </trkpt>
      <trkpt lat="45.94982" lon="4.6031">
        <ele>568</ele>
        <time>2016-06-02T07:58:41.029Z</time>
      </trkpt>
      <trkpt lat="45.94986" lon="4.603">
        <ele>568</ele>
        <time>2016-06-02T07:58:50.041Z</time>
      </trkpt>
      <trkpt lat="45.94987" lon="4.60299">
        <ele>568</ele>
        <time>2016-06-02T07:58:51.039Z</time>
      </trkpt>
      <trkpt lat="45.94994" lon="4.60293">
        <ele>568</ele>
        <time>2016-06-02T07:58:59.031Z</time>
      </trkpt>
      <trkpt lat="45.94996" lon="4.60292">
        <ele>568</ele>
        <time>2016-06-02T07:59:00.023Z</time>
      </trkpt>
      <trkpt lat="45.95003" lon="4.60286">
        <ele>572</ele>
        <time>2016-06-02T07:59:06.02Z</time>
      </trkpt>
      <trkpt lat="45.95005" lon="4.60285">
        <ele>572</ele>
        <time>2016-06-02T07:59:07.041Z</time>
      </trkpt>
      <trkpt lat="45.95013" lon="4.6028">
        <ele>572</ele>
        <time>2016-06-02T07:59:12.015Z</time>
      </trkpt>
      <trkpt lat="45.95014" lon="4.60279">
        <ele>572</ele>
        <time>2016-06-02T07:59:13.017Z</time>
      </trkpt>
      <trkpt lat="45.95022" lon="4.60276">
        <ele>572</ele>
        <time>2016-06-02T07:59:19.041Z</time>
      </trkpt>
      <trkpt lat="45.95023" lon="4.60275">
        <ele>572</ele>
        <time>2016-06-02T07:59:20.038Z</time>
      </trkpt>
      <trkpt lat="45.95031" lon="4.60268">
        <ele>572</ele>
        <time>2016-06-02T07:59:26.032Z</time>
      </trkpt>
      <trkpt lat="45.95032" lon="4.60267">
        <ele>572</ele>
        <time>2016-06-02T07:59:27.038Z</time>
      </trkpt>
      <trkpt lat="45.95039" lon="4.60263">
        <ele>572</ele>
        <time>2016-06-02T07:59:32.023Z</time>
      </trkpt>
      <trkpt lat="45.95041" lon="4.60262">
        <ele>572</ele>
        <time>2016-06-02T07:59:33.04Z</time>
      </trkpt>
      <trkpt lat="45.95048" lon="4.60256">
        <ele>572</ele>
        <time>2016-06-02T07:59:38.01Z</time>
      </trkpt>
      <trkpt lat="45.95049" lon="4.60255">
        <ele>572</ele>
        <time>2016-06-02T07:59:39.011Z</time>
      </trkpt>
      <trkpt lat="45.95056" lon="4.60247">
        <ele>573</ele>
        <time>2016-06-02T07:59:45.047Z</time>
      </trkpt>
      <trkpt lat="45.95058" lon="4.60246">
        <ele>573</ele>
        <time>2016-06-02T07:59:46.045Z</time>
      </trkpt>
      <trkpt lat="45.95065" lon="4.6024">
        <ele>574</ele>
        <time>2016-06-02T07:59:53.014Z</time>
      </trkpt>
      <trkpt lat="45.95066" lon="4.60239">
        <ele>574</ele>
        <time>2016-06-02T07:59:54.04Z</time>
      </trkpt>
      <trkpt lat="45.95074" lon="4.60234">
        <ele>574</ele>
        <time>2016-06-02T08:00:01.004Z</time>
      </trkpt>
      <trkpt lat="45.95075" lon="4.60234">
        <ele>574</ele>
        <time>2016-06-02T08:00:02.004Z</time>
      </trkpt>
      <trkpt lat="45.95083" lon="4.60231">
        <ele>574</ele>
        <time>2016-06-02T08:00:10.02Z</time>
      </trkpt>
      <trkpt lat="45.95084" lon="4.6023">
        <ele>580</ele>
        <time>2016-06-02T08:00:11.028Z</time>
      </trkpt>
      <trkpt lat="45.9509" lon="4.60222">
        <ele>581</ele>
        <time>2016-06-02T08:00:19.02Z</time>
      </trkpt>
      <trkpt lat="45.9509" lon="4.6022">
        <ele>581</ele>
        <time>2016-06-02T08:00:20.039Z</time>
      </trkpt>
      <trkpt lat="45.95096" lon="4.60211">
        <ele>582</ele>
        <time>2016-06-02T08:00:30.022Z</time>
      </trkpt>
      <trkpt lat="45.95096" lon="4.6021">
        <ele>582</ele>
        <time>2016-06-02T08:00:31.027Z</time>
      </trkpt>
      <trkpt lat="45.951" lon="4.602">
        <ele>583</ele>
        <time>2016-06-02T08:00:42.014Z</time>
      </trkpt>
      <trkpt lat="45.95101" lon="4.60199">
        <ele>583</ele>
        <time>2016-06-02T08:00:43.004Z</time>
      </trkpt>
      <trkpt lat="45.95106" lon="4.60188">
        <ele>584</ele>
        <time>2016-06-02T08:00:54.017Z</time>
      </trkpt>
      <trkpt lat="45.95106" lon="4.60187">
        <ele>584</ele>
        <time>2016-06-02T08:00:55.014Z</time>
      </trkpt>
      <trkpt lat="45.9511" lon="4.60176">
        <ele>584</ele>
        <time>2016-06-02T08:01:06.027Z</time>
      </trkpt>
      <trkpt lat="45.95111" lon="4.60175">
        <ele>584</ele>
        <time>2016-06-02T08:01:07.028Z</time>
      </trkpt>
      <trkpt lat="45.95117" lon="4.60167">
        <ele>585</ele>
        <time>2016-06-02T08:01:17.023Z</time>
      </trkpt>
      <trkpt lat="45.95117" lon="4.60166">
        <ele>589</ele>
        <time>2016-06-02T08:01:18.015Z</time>
      </trkpt>
      <trkpt lat="45.95122" lon="4.60156">
        <ele>590</ele>
        <time>2016-06-02T08:01:27.022Z</time>
      </trkpt>
      <trkpt lat="45.95123" lon="4.60155">
        <ele>590</ele>
        <time>2016-06-02T08:01:28.032Z</time>
      </trkpt>
      <trkpt lat="45.95128" lon="4.60145">
        <ele>591</ele>
        <time>2016-06-02T08:01:39.041Z</time>
      </trkpt>
      <trkpt lat="45.95129" lon="4.60144">
        <ele>591</ele>
        <time>2016-06-02T08:01:40.023Z</time>
      </trkpt>
      <trkpt lat="45.95135" lon="4.60136">
        <ele>592</ele>
        <time>2016-06-02T08:01:53.02Z</time>
      </trkpt>
      <trkpt lat="45.95135" lon="4.60135">
        <ele>592</ele>
        <time>2016-06-02T08:01:54.029Z</time>
      </trkpt>
      <trkpt lat="45.95142" lon="4.60125">
        <ele>593</ele>
        <time>2016-06-02T08:02:08.039Z</time>
      </trkpt>
      <trkpt lat="45.95142" lon="4.60124">
        <ele>593</ele>
        <time>2016-06-02T08:02:09.042Z</time>
      </trkpt>
      <trkpt lat="45.95149" lon="4.60119">
        <ele>594</ele>
        <time>2016-06-02T08:02:34.034Z</time>
      </trkpt>
      <trkpt lat="45.9515" lon="4.60119">
        <ele>594</ele>
        <time>2016-06-02T08:02:35.045Z</time>
      </trkpt>
      <trkpt lat="45.95156" lon="4.6011">
        <ele>596</ele>
        <time>2016-06-02T08:02:47.038Z</time>
      </trkpt>
      <trkpt lat="45.95156" lon="4.60109">
        <ele>596</ele>
        <time>2016-06-02T08:02:48.027Z</time>
      </trkpt>
      <trkpt lat="45.95162" lon="4.601">
        <ele>598</ele>
        <time>2016-06-02T08:02:57.029Z</time>
      </trkpt>
      <trkpt lat="45.95163" lon="4.601">
        <ele>598</ele>
        <time>2016-06-02T08:02:58.028Z</time>
      </trkpt>
      <trkpt lat="45.95171" lon="4.60093">
        <ele>606</ele>
        <time>2016-06-02T08:03:11.02Z</time>
      </trkpt>
      <trkpt lat="45.95171" lon="4.60094">
        <ele>606</ele>
        <time>2016-06-02T08:03:12.021Z</time>
      </trkpt>
      <trkpt lat="45.95179" lon="4.60089">
        <ele>606</ele>
        <time>2016-06-02T08:03:22.018Z</time>
      </trkpt>
      <trkpt lat="45.9518" lon="4.60088">
        <ele>606</ele>
        <time>2016-06-02T08:03:23.02Z</time>
      </trkpt>
      <trkpt lat="45.95186" lon="4.60079">
        <ele>610</ele>
        <time>2016-06-02T08:03:30.028Z</time>
      </trkpt>
      <trkpt lat="45.95187" lon="4.60078">
        <ele>610</ele>
        <time>2016-06-02T08:03:31.037Z</time>
      </trkpt>
      <trkpt lat="45.95195" lon="4.60074">
        <ele>611</ele>
        <time>2016-06-02T08:03:37.028Z</time>
      </trkpt>
      <trkpt lat="45.95196" lon="4.60074">
        <ele>611</ele>
        <time>2016-06-02T08:03:38.03Z</time>
      </trkpt>
      <trkpt lat="45.95205" lon="4.60074">
        <ele>612</ele>
        <time>2016-06-02T08:03:44.026Z</time>
      </trkpt>
      <trkpt lat="45.95207" lon="4.60074">
        <ele>613</ele>
        <time>2016-06-02T08:03:45.024Z</time>
      </trkpt>
      <trkpt lat="45.95215" lon="4.60073">
        <ele>613</ele>
        <time>2016-06-02T08:03:52.029Z</time>
      </trkpt>
      <trkpt lat="45.95216" lon="4.60073">
        <ele>613</ele>
        <time>2016-06-02T08:03:53.019Z</time>
      </trkpt>
      <trkpt lat="45.95225" lon="4.60073">
        <ele>614</ele>
        <time>2016-06-02T08:04:01.022Z</time>
      </trkpt>
      <trkpt lat="45.95226" lon="4.60073">
        <ele>614</ele>
        <time>2016-06-02T08:04:02.035Z</time>
      </trkpt>
      <trkpt lat="45.95235" lon="4.60074">
        <ele>615</ele>
        <time>2016-06-02T08:04:10.036Z</time>
      </trkpt>
      <trkpt lat="45.95236" lon="4.60074">
        <ele>615</ele>
        <time>2016-06-02T08:04:11.023Z</time>
      </trkpt>
      <trkpt lat="45.95244" lon="4.60075">
        <ele>615</ele>
        <time>2016-06-02T08:04:18.019Z</time>
      </trkpt>
      <trkpt lat="45.95246" lon="4.60074">
        <ele>615</ele>
        <time>2016-06-02T08:04:19.023Z</time>
      </trkpt>
      <trkpt lat="45.95255" lon="4.60074">
        <ele>618</ele>
        <time>2016-06-02T08:04:25.022Z</time>
      </trkpt>
      <trkpt lat="45.95256" lon="4.60074">
        <ele>618</ele>
        <time>2016-06-02T08:04:26.036Z</time>
      </trkpt>
      <trkpt lat="45.95265" lon="4.60075">
        <ele>619</ele>
        <time>2016-06-02T08:04:33.019Z</time>
      </trkpt>
      <trkpt lat="45.95266" lon="4.60076">
        <ele>619</ele>
        <time>2016-06-02T08:04:34.028Z</time>
      </trkpt>
      <trkpt lat="45.95273" lon="4.6008">
        <ele>619</ele>
        <time>2016-06-02T08:04:41.019Z</time>
      </trkpt>
      <trkpt lat="45.95275" lon="4.60081">
        <ele>619</ele>
        <time>2016-06-02T08:04:42.019Z</time>
      </trkpt>
      <trkpt lat="45.95283" lon="4.60087">
        <ele>613</ele>
        <time>2016-06-02T08:05:10.019Z</time>
      </trkpt>
      <trkpt lat="45.95283" lon="4.60087">
        <ele>613</ele>
        <time>2016-06-02T08:05:11.013Z</time>
      </trkpt>
      <trkpt lat="45.9529" lon="4.6009">
        <ele>613</ele>
        <time>2016-06-02T08:05:39.022Z</time>
      </trkpt>
      <trkpt lat="45.95291" lon="4.6009">
        <ele>613</ele>
        <time>2016-06-02T08:05:40.012Z</time>
      </trkpt>
      <trkpt lat="45.953" lon="4.60093">
        <ele>613</ele>
        <time>2016-06-02T08:05:47.02Z</time>
      </trkpt>
      <trkpt lat="45.95301" lon="4.60092">
        <ele>613</ele>
        <time>2016-06-02T08:05:48.011Z</time>
      </trkpt>
      <trkpt lat="45.95309" lon="4.60087">
        <ele>614</ele>
        <time>2016-06-02T08:05:56.034Z</time>
      </trkpt>
      <trkpt lat="45.9531" lon="4.60086">
        <ele>614</ele>
        <time>2016-06-02T08:05:57.047Z</time>
      </trkpt>
      <trkpt lat="45.95313" lon="4.60075">
        <ele>620</ele>
        <time>2016-06-02T08:06:06.03Z</time>
      </trkpt>
      <trkpt lat="45.95314" lon="4.60074">
        <ele>621</ele>
        <time>2016-06-02T08:06:07.033Z</time>
      </trkpt>
      <trkpt lat="45.95315" lon="4.60061">
        <ele>621</ele>
        <time>2016-06-02T08:06:16.032Z</time>
      </trkpt>
      <trkpt lat="45.95315" lon="4.6006">
        <ele>621</ele>
        <time>2016-06-02T08:06:17.042Z</time>
      </trkpt>
      <trkpt lat="45.95314" lon="4.60048">
        <ele>622</ele>
        <time>2016-06-02T08:06:28.045Z</time>
      </trkpt>
      <trkpt lat="45.95313" lon="4.60047">
        <ele>623</ele>
        <time>2016-06-02T08:06:29.061Z</time>
      </trkpt>
      <trkpt lat="45.95305" lon="4.60041">
        <ele>623</ele>
        <time>2016-06-02T08:06:41.034Z</time>
      </trkpt>
      <trkpt lat="45.95304" lon="4.60041">
        <ele>623</ele>
        <time>2016-06-02T08:06:42.022Z</time>
      </trkpt>
      <trkpt lat="45.95299" lon="4.6003">
        <ele>624</ele>
        <time>2016-06-02T08:06:51.023Z</time>
      </trkpt>
      <trkpt lat="45.953" lon="4.60029">
        <ele>624</ele>
        <time>2016-06-02T08:06:52.022Z</time>
      </trkpt>
      <trkpt lat="45.95292" lon="4.60022">
        <ele>624</ele>
        <time>2016-06-02T08:07:06.022Z</time>
      </trkpt>
      <trkpt lat="45.95292" lon="4.60021">
        <ele>624</ele>
        <time>2016-06-02T08:07:07.041Z</time>
      </trkpt>
      <trkpt lat="45.95286" lon="4.60013">
        <ele>625</ele>
        <time>2016-06-02T08:07:15.045Z</time>
      </trkpt>
      <trkpt lat="45.95285" lon="4.60012">
        <ele>625</ele>
        <time>2016-06-02T08:07:16.03Z</time>
      </trkpt>
      <trkpt lat="45.9528" lon="4.60003">
        <ele>625</ele>
        <time>2016-06-02T08:07:23.043Z</time>
      </trkpt>
      <trkpt lat="45.9528" lon="4.60001">
        <ele>625</ele>
        <time>2016-06-02T08:07:24.043Z</time>
      </trkpt>
      <trkpt lat="45.95279" lon="4.59989">
        <ele>631</ele>
        <time>2016-06-02T08:07:32.053Z</time>
      </trkpt>
      <trkpt lat="45.95278" lon="4.59988">
        <ele>631</ele>
        <time>2016-06-02T08:07:33.051Z</time>
      </trkpt>
      <trkpt lat="45.95271" lon="4.59981">
        <ele>631</ele>
        <time>2016-06-02T08:07:41.071Z</time>
      </trkpt>
      <trkpt lat="45.95271" lon="4.5998">
        <ele>631</ele>
        <time>2016-06-02T08:07:42.051Z</time>
      </trkpt>
      <trkpt lat="45.95271" lon="4.59968">
        <ele>632</ele>
        <time>2016-06-02T08:07:52.026Z</time>
      </trkpt>
      <trkpt lat="45.9527" lon="4.59966">
        <ele>632</ele>
        <time>2016-06-02T08:07:53.064Z</time>
      </trkpt>
      <trkpt lat="45.9527" lon="4.59955">
        <ele>632</ele>
        <time>2016-06-02T08:08:03.067Z</time>
      </trkpt>
      <trkpt lat="45.95271" lon="4.59953">
        <ele>633</ele>
        <time>2016-06-02T08:08:04.051Z</time>
      </trkpt>
      <trkpt lat="45.95274" lon="4.59942">
        <ele>633</ele>
        <time>2016-06-02T08:08:15.024Z</time>
      </trkpt>
      <trkpt lat="45.95275" lon="4.59941">
        <ele>633</ele>
        <time>2016-06-02T08:08:16.02Z</time>
      </trkpt>
      <trkpt lat="45.95278" lon="4.5993">
        <ele>634</ele>
        <time>2016-06-02T08:08:25.023Z</time>
      </trkpt>
      <trkpt lat="45.95278" lon="4.59928">
        <ele>634</ele>
        <time>2016-06-02T08:08:26.023Z</time>
      </trkpt>
      <trkpt lat="45.95282" lon="4.59918">
        <ele>634</ele>
        <time>2016-06-02T08:08:33.023Z</time>
      </trkpt>
      <trkpt lat="45.95282" lon="4.59916">
        <ele>637</ele>
        <time>2016-06-02T08:08:34.021Z</time>
      </trkpt>
      <trkpt lat="45.95281" lon="4.59904">
        <ele>638</ele>
        <time>2016-06-02T08:08:43.032Z</time>
      </trkpt>
      <trkpt lat="45.9528" lon="4.59903">
        <ele>638</ele>
        <time>2016-06-02T08:08:44.029Z</time>
      </trkpt>
      <trkpt lat="45.95278" lon="4.59891">
        <ele>638</ele>
        <time>2016-06-02T08:08:54.029Z</time>
      </trkpt>
      <trkpt lat="45.95277" lon="4.5989">
        <ele>638</ele>
        <time>2016-06-02T08:08:55.029Z</time>
      </trkpt>
      <trkpt lat="45.95278" lon="4.59878">
        <ele>638</ele>
        <time>2016-06-02T08:09:05.019Z</time>
      </trkpt>
      <trkpt lat="45.95278" lon="4.59877">
        <ele>638</ele>
        <time>2016-06-02T08:09:06.025Z</time>
      </trkpt>
      <trkpt lat="45.95281" lon="4.59867">
        <ele>639</ele>
        <time>2016-06-02T08:09:12.012Z</time>
      </trkpt>
      <trkpt lat="45.95282" lon="4.59865">
        <ele>639</ele>
        <time>2016-06-02T08:09:13.014Z</time>
      </trkpt>
      <trkpt lat="45.95283" lon="4.59853">
        <ele>639</ele>
        <time>2016-06-02T08:09:22.023Z</time>
      </trkpt>
      <trkpt lat="45.95283" lon="4.59851">
        <ele>639</ele>
        <time>2016-06-02T08:09:23.023Z</time>
      </trkpt>
      <trkpt lat="45.95286" lon="4.59842">
        <ele>639</ele>
        <time>2016-06-02T08:09:30.019Z</time>
      </trkpt>
      <trkpt lat="45.95287" lon="4.59839">
        <ele>640</ele>
        <time>2016-06-02T08:09:31.019Z</time>
      </trkpt>
      <trkpt lat="45.95289" lon="4.59827">
        <ele>642</ele>
        <time>2016-06-02T08:09:37.024Z</time>
      </trkpt>
      <trkpt lat="45.95289" lon="4.59826">
        <ele>642</ele>
        <time>2016-06-02T08:09:38.021Z</time>
      </trkpt>
      <trkpt lat="45.95293" lon="4.59816">
        <ele>642</ele>
        <time>2016-06-02T08:09:45.019Z</time>
      </trkpt>
      <trkpt lat="45.95294" lon="4.59815">
        <ele>642</ele>
        <time>2016-06-02T08:09:46.018Z</time>
      </trkpt>
      <trkpt lat="45.95299" lon="4.59805">
        <ele>643</ele>
        <time>2016-06-02T08:09:55.025Z</time>
      </trkpt>
      <trkpt lat="45.95299" lon="4.59804">
        <ele>643</ele>
        <time>2016-06-02T08:09:56.014Z</time>
      </trkpt>
      <trkpt lat="45.95304" lon="4.59794">
        <ele>643</ele>
        <time>2016-06-02T08:10:05.02Z</time>
      </trkpt>
      <trkpt lat="45.95305" lon="4.59793">
        <ele>643</ele>
        <time>2016-06-02T08:10:06.028Z</time>
      </trkpt>
      <trkpt lat="45.95306" lon="4.5978">
        <ele>643</ele>
        <time>2016-06-02T08:10:14.025Z</time>
      </trkpt>
      <trkpt lat="45.95305" lon="4.59779">
        <ele>643</ele>
        <time>2016-06-02T08:10:15.023Z</time>
      </trkpt>
      <trkpt lat="45.95301" lon="4.59768">
        <ele>643</ele>
        <time>2016-06-02T08:10:26.016Z</time>
      </trkpt>
      <trkpt lat="45.953" lon="4.59766">
        <ele>643</ele>
        <time>2016-06-02T08:10:27.019Z</time>
      </trkpt>
      <trkpt lat="45.95294" lon="4.59757">
        <ele>643</ele>
        <time>2016-06-02T08:10:34.026Z</time>
      </trkpt>
      <trkpt lat="45.95294" lon="4.59756">
        <ele>643</ele>
        <time>2016-06-02T08:10:35.024Z</time>
      </trkpt>
      <trkpt lat="45.95292" lon="4.59744">
        <ele>642</ele>
        <time>2016-06-02T08:10:57.025Z</time>
      </trkpt>
      <trkpt lat="45.95292" lon="4.59743">
        <ele>642</ele>
        <time>2016-06-02T08:10:58.021Z</time>
      </trkpt>
      <trkpt lat="45.95299" lon="4.59735">
        <ele>643</ele>
        <time>2016-06-02T08:11:07.038Z</time>
      </trkpt>
      <trkpt lat="45.95299" lon="4.59734">
        <ele>643</ele>
        <time>2016-06-02T08:11:08.04Z</time>
      </trkpt>
      <trkpt lat="45.953" lon="4.59721">
        <ele>643</ele>
        <time>2016-06-02T08:11:16.024Z</time>
      </trkpt>
      <trkpt lat="45.953" lon="4.5972">
        <ele>643</ele>
        <time>2016-06-02T08:11:17.022Z</time>
      </trkpt>
      <trkpt lat="45.95303" lon="4.59709">
        <ele>643</ele>
        <time>2016-06-02T08:11:24.02Z</time>
      </trkpt>
      <trkpt lat="45.95304" lon="4.59707">
        <ele>643</ele>
        <time>2016-06-02T08:11:25.018Z</time>
      </trkpt>
      <trkpt lat="45.95307" lon="4.59696">
        <ele>643</ele>
        <time>2016-06-02T08:11:33.01Z</time>
      </trkpt>
      <trkpt lat="45.95308" lon="4.59695">
        <ele>643</ele>
        <time>2016-06-02T08:11:34.02Z</time>
      </trkpt>
      <trkpt lat="45.95313" lon="4.59685">
        <ele>644</ele>
        <time>2016-06-02T08:11:45.025Z</time>
      </trkpt>
      <trkpt lat="45.95313" lon="4.59685">
        <ele>644</ele>
        <time>2016-06-02T08:11:46.023Z</time>
      </trkpt>
      <trkpt lat="45.95318" lon="4.59676">
        <ele>645</ele>
        <time>2016-06-02T08:11:54.014Z</time>
      </trkpt>
      <trkpt lat="45.95319" lon="4.59674">
        <ele>645</ele>
        <time>2016-06-02T08:11:55.022Z</time>
      </trkpt>
      <trkpt lat="45.95322" lon="4.59662">
        <ele>644</ele>
        <time>2016-06-02T08:12:16.018Z</time>
      </trkpt>
      <trkpt lat="45.95322" lon="4.59662">
        <ele>644</ele>
        <time>2016-06-02T08:12:17.019Z</time>
      </trkpt>
      <trkpt lat="45.95319" lon="4.5965">
        <ele>642</ele>
        <time>2016-06-02T08:12:28.031Z</time>
      </trkpt>
      <trkpt lat="45.95319" lon="4.59648">
        <ele>642</ele>
        <time>2016-06-02T08:12:29.019Z</time>
      </trkpt>
      <trkpt lat="45.95317" lon="4.59636">
        <ele>641</ele>
        <time>2016-06-02T08:12:36.027Z</time>
      </trkpt>
      <trkpt lat="45.95317" lon="4.59635">
        <ele>641</ele>
        <time>2016-06-02T08:12:37.055Z</time>
      </trkpt>
      <trkpt lat="45.95314" lon="4.59624">
        <ele>640</ele>
        <time>2016-06-02T08:12:47.014Z</time>
      </trkpt>
      <trkpt lat="45.95314" lon="4.59623">
        <ele>640</ele>
        <time>2016-06-02T08:12:48.03Z</time>
      </trkpt>
      <trkpt lat="45.95306" lon="4.59627">
        <ele>640</ele>
        <time>2016-06-02T08:13:53.01Z</time>
      </trkpt>
      <trkpt lat="45.95305" lon="4.59628">
        <ele>640</ele>
        <time>2016-06-02T08:13:54.008Z</time>
      </trkpt>
      <trkpt lat="45.95305" lon="4.59615">
        <ele>640</ele>
        <time>2016-06-02T08:15:22.024Z</time>
      </trkpt>
      <trkpt lat="45.95306" lon="4.59615">
        <ele>640</ele>
        <time>2016-06-02T08:15:23.015Z</time>
      </trkpt>
      <trkpt lat="45.95311" lon="4.59624">
        <ele>640</ele>
        <time>2016-06-02T08:15:49.026Z</time>
      </trkpt>
      <trkpt lat="45.95312" lon="4.59625">
        <ele>640</ele>
        <time>2016-06-02T08:15:50.021Z</time>
      </trkpt>
      <trkpt lat="45.95318" lon="4.59633">
        <ele>641</ele>
        <time>2016-06-02T08:16:08.039Z</time>
      </trkpt>
      <trkpt lat="45.95318" lon="4.59634">
        <ele>641</ele>
        <time>2016-06-02T08:16:09.034Z</time>
      </trkpt>
      <trkpt lat="45.95324" lon="4.59642">
        <ele>642</ele>
        <time>2016-06-02T08:16:23.042Z</time>
      </trkpt>
      <trkpt lat="45.95325" lon="4.59642">
        <ele>642</ele>
        <time>2016-06-02T08:16:24.014Z</time>
      </trkpt>
      <trkpt lat="45.9533" lon="4.59633">
        <ele>642</ele>
        <time>2016-06-02T08:16:36.022Z</time>
      </trkpt>
      <trkpt lat="45.95332" lon="4.59633">
        <ele>642</ele>
        <time>2016-06-02T08:16:37.021Z</time>
      </trkpt>
      <trkpt lat="45.95336" lon="4.59623">
        <ele>647</ele>
        <time>2016-06-02T08:16:46.014Z</time>
      </trkpt>
      <trkpt lat="45.95337" lon="4.59621">
        <ele>647</ele>
        <time>2016-06-02T08:16:47.022Z</time>
      </trkpt>
      <trkpt lat="45.9534" lon="4.5961">
        <ele>647</ele>
        <time>2016-06-02T08:16:54.019Z</time>
      </trkpt>
      <trkpt lat="45.95341" lon="4.59609">
        <ele>647</ele>
        <time>2016-06-02T08:16:55.021Z</time>
      </trkpt>
      <trkpt lat="45.95348" lon="4.59602">
        <ele>646</ele>
        <time>2016-06-02T08:17:01.04Z</time>
      </trkpt>
      <trkpt lat="45.95349" lon="4.59601">
        <ele>646</ele>
        <time>2016-06-02T08:17:02.033Z</time>
      </trkpt>
      <trkpt lat="45.95355" lon="4.59593">
        <ele>646</ele>
        <time>2016-06-02T08:17:09.038Z</time>
      </trkpt>
      <trkpt lat="45.95356" lon="4.59592">
        <ele>646</ele>
        <time>2016-06-02T08:17:10.026Z</time>
      </trkpt>
      <trkpt lat="45.95361" lon="4.59581">
        <ele>645</ele>
        <time>2016-06-02T08:17:21.025Z</time>
      </trkpt>
      <trkpt lat="45.95361" lon="4.5958">
        <ele>645</ele>
        <time>2016-06-02T08:17:22.034Z</time>
      </trkpt>
      <trkpt lat="45.95362" lon="4.59568">
        <ele>645</ele>
        <time>2016-06-02T08:17:30.018Z</time>
      </trkpt>
      <trkpt lat="45.95363" lon="4.59567">
        <ele>645</ele>
        <time>2016-06-02T08:17:31.018Z</time>
      </trkpt>
      <trkpt lat="45.95368" lon="4.59556">
        <ele>645</ele>
        <time>2016-06-02T08:17:37.039Z</time>
      </trkpt>
      <trkpt lat="45.95368" lon="4.59554">
        <ele>645</ele>
        <time>2016-06-02T08:17:38.04Z</time>
      </trkpt>
      <trkpt lat="45.95371" lon="4.59543">
        <ele>644</ele>
        <time>2016-06-02T08:17:44.036Z</time>
      </trkpt>
      <trkpt lat="45.95371" lon="4.59541">
        <ele>644</ele>
        <time>2016-06-02T08:17:45.035Z</time>
      </trkpt>
      <trkpt lat="45.95375" lon="4.59532">
        <ele>644</ele>
        <time>2016-06-02T08:17:52.039Z</time>
      </trkpt>
      <trkpt lat="45.95376" lon="4.5953">
        <ele>644</ele>
        <time>2016-06-02T08:17:53.032Z</time>
      </trkpt>
      <trkpt lat="45.95382" lon="4.59523">
        <ele>644</ele>
        <time>2016-06-02T08:17:58.02Z</time>
      </trkpt>
      <trkpt lat="45.95384" lon="4.59522">
        <ele>645</ele>
        <time>2016-06-02T08:17:59.032Z</time>
      </trkpt>
      <trkpt lat="45.95391" lon="4.59516">
        <ele>645</ele>
        <time>2016-06-02T08:18:04.02Z</time>
      </trkpt>
      <trkpt lat="45.95392" lon="4.59515">
        <ele>645</ele>
        <time>2016-06-02T08:18:05.033Z</time>
      </trkpt>
      <trkpt lat="45.95399" lon="4.59506">
        <ele>645</ele>
        <time>2016-06-02T08:18:12.034Z</time>
      </trkpt>
      <trkpt lat="45.954" lon="4.59505">
        <ele>645</ele>
        <time>2016-06-02T08:18:13.025Z</time>
      </trkpt>
      <trkpt lat="45.95406" lon="4.59498">
        <ele>645</ele>
        <time>2016-06-02T08:18:22.015Z</time>
      </trkpt>
      <trkpt lat="45.95407" lon="4.59497">
        <ele>645</ele>
        <time>2016-06-02T08:18:23.031Z</time>
      </trkpt>
      <trkpt lat="45.95415" lon="4.59493">
        <ele>645</ele>
        <time>2016-06-02T08:18:29.017Z</time>
      </trkpt>
      <trkpt lat="45.95416" lon="4.59492">
        <ele>645</ele>
        <time>2016-06-02T08:18:30.016Z</time>
      </trkpt>
      <trkpt lat="45.95422" lon="4.59485">
        <ele>647</ele>
        <time>2016-06-02T08:18:36.018Z</time>
      </trkpt>
      <trkpt lat="45.95424" lon="4.59484">
        <ele>647</ele>
        <time>2016-06-02T08:18:37.032Z</time>
      </trkpt>
      <trkpt lat="45.9543" lon="4.59478">
        <ele>647</ele>
        <time>2016-06-02T08:18:43.005Z</time>
      </trkpt>
      <trkpt lat="45.95432" lon="4.59477">
        <ele>647</ele>
        <time>2016-06-02T08:18:44.019Z</time>
      </trkpt>
      <trkpt lat="45.95438" lon="4.59471">
        <ele>647</ele>
        <time>2016-06-02T08:18:50.038Z</time>
      </trkpt>
      <trkpt lat="45.95439" lon="4.5947">
        <ele>647</ele>
        <time>2016-06-02T08:18:51.026Z</time>
      </trkpt>
      <trkpt lat="45.95445" lon="4.59461">
        <ele>647</ele>
        <time>2016-06-02T08:18:57.022Z</time>
      </trkpt>
      <trkpt lat="45.95446" lon="4.5946">
        <ele>647</ele>
        <time>2016-06-02T08:18:58.03Z</time>
      </trkpt>
      <trkpt lat="45.95453" lon="4.59452">
        <ele>647</ele>
        <time>2016-06-02T08:19:04.04Z</time>
      </trkpt>
      <trkpt lat="45.95454" lon="4.5945">
        <ele>647</ele>
        <time>2016-06-02T08:19:05.02Z</time>
      </trkpt>
      <trkpt lat="45.95461" lon="4.59445">
        <ele>647</ele>
        <time>2016-06-02T08:19:11.04Z</time>
      </trkpt>
      <trkpt lat="45.95462" lon="4.59445">
        <ele>647</ele>
        <time>2016-06-02T08:19:12.035Z</time>
      </trkpt>
      <trkpt lat="45.9547" lon="4.59441">
        <ele>647</ele>
        <time>2016-06-02T08:19:18.034Z</time>
      </trkpt>
      <trkpt lat="45.95472" lon="4.5944">
        <ele>647</ele>
        <time>2016-06-02T08:19:19.038Z</time>
      </trkpt>
      <trkpt lat="45.95479" lon="4.59434">
        <ele>648</ele>
        <time>2016-06-02T08:19:26.014Z</time>
      </trkpt>
      <trkpt lat="45.9548" lon="4.59433">
        <ele>648</ele>
        <time>2016-06-02T08:19:27.032Z</time>
      </trkpt>
      <trkpt lat="45.95488" lon="4.59427">
        <ele>648</ele>
        <time>2016-06-02T08:19:34.015Z</time>
      </trkpt>
      <trkpt lat="45.95488" lon="4.59426">
        <ele>648</ele>
        <time>2016-06-02T08:19:35.033Z</time>
      </trkpt>
      <trkpt lat="45.95494" lon="4.59419">
        <ele>649</ele>
        <time>2016-06-02T08:19:44.014Z</time>
      </trkpt>
      <trkpt lat="45.95495" lon="4.59417">
        <ele>649</ele>
        <time>2016-06-02T08:19:45.035Z</time>
      </trkpt>
      <trkpt lat="45.95502" lon="4.59409">
        <ele>648</ele>
        <time>2016-06-02T08:19:52.023Z</time>
      </trkpt>
      <trkpt lat="45.95503" lon="4.59408">
        <ele>648</ele>
        <time>2016-06-02T08:19:53.042Z</time>
      </trkpt>
      <trkpt lat="45.9551" lon="4.59405">
        <ele>647</ele>
        <time>2016-06-02T08:19:58.021Z</time>
      </trkpt>
      <trkpt lat="45.95512" lon="4.59405">
        <ele>647</ele>
        <time>2016-06-02T08:19:59.04Z</time>
      </trkpt>
      <trkpt lat="45.95519" lon="4.594">
        <ele>647</ele>
        <time>2016-06-02T08:20:05.011Z</time>
      </trkpt>
      <trkpt lat="45.9552" lon="4.59398">
        <ele>647</ele>
        <time>2016-06-02T08:20:06.014Z</time>
      </trkpt>
      <trkpt lat="45.95526" lon="4.59392">
        <ele>646</ele>
        <time>2016-06-02T08:20:10.03Z</time>
      </trkpt>
      <trkpt lat="45.95528" lon="4.5939">
        <ele>646</ele>
        <time>2016-06-02T08:20:11.022Z</time>
      </trkpt>
      <trkpt lat="45.95535" lon="4.59384">
        <ele>646</ele>
        <time>2016-06-02T08:20:16.024Z</time>
      </trkpt>
      <trkpt lat="45.95536" lon="4.59383">
        <ele>646</ele>
        <time>2016-06-02T08:20:17.041Z</time>
      </trkpt>
      <trkpt lat="45.95544" lon="4.5938">
        <ele>646</ele>
        <time>2016-06-02T08:20:23.024Z</time>
      </trkpt>
      <trkpt lat="45.95545" lon="4.59379">
        <ele>646</ele>
        <time>2016-06-02T08:20:24.021Z</time>
      </trkpt>
      <trkpt lat="45.95552" lon="4.59373">
        <ele>645</ele>
        <time>2016-06-02T08:20:29.034Z</time>
      </trkpt>
      <trkpt lat="45.95553" lon="4.59372">
        <ele>645</ele>
        <time>2016-06-02T08:20:30.041Z</time>
      </trkpt>
      <trkpt lat="45.9556" lon="4.59367">
        <ele>645</ele>
        <time>2016-06-02T08:20:35.042Z</time>
      </trkpt>
      <trkpt lat="45.95561" lon="4.59366">
        <ele>645</ele>
        <time>2016-06-02T08:20:36.028Z</time>
      </trkpt>
      <trkpt lat="45.95569" lon="4.59365">
        <ele>645</ele>
        <time>2016-06-02T08:20:41.031Z</time>
      </trkpt>
      <trkpt lat="45.95571" lon="4.59365">
        <ele>645</ele>
        <time>2016-06-02T08:20:42.016Z</time>
      </trkpt>
      <trkpt lat="45.95578" lon="4.59359">
        <ele>645</ele>
        <time>2016-06-02T08:20:49.041Z</time>
      </trkpt>
      <trkpt lat="45.95579" lon="4.59358">
        <ele>645</ele>
        <time>2016-06-02T08:20:50.023Z</time>
      </trkpt>
      <trkpt lat="45.95587" lon="4.59356">
        <ele>644</ele>
        <time>2016-06-02T08:20:56.022Z</time>
      </trkpt>
      <trkpt lat="45.95588" lon="4.59355">
        <ele>644</ele>
        <time>2016-06-02T08:20:57.025Z</time>
      </trkpt>
      <trkpt lat="45.95596" lon="4.59353">
        <ele>644</ele>
        <time>2016-06-02T08:21:04.02Z</time>
      </trkpt>
      <trkpt lat="45.95598" lon="4.59353">
        <ele>644</ele>
        <time>2016-06-02T08:21:05.022Z</time>
      </trkpt>
      <trkpt lat="45.95605" lon="4.59349">
        <ele>644</ele>
        <time>2016-06-02T08:21:11.017Z</time>
      </trkpt>
      <trkpt lat="45.95606" lon="4.59348">
        <ele>644</ele>
        <time>2016-06-02T08:21:12.022Z</time>
      </trkpt>
      <trkpt lat="45.95613" lon="4.59342">
        <ele>644</ele>
        <time>2016-06-02T08:21:18.037Z</time>
      </trkpt>
      <trkpt lat="45.95614" lon="4.59342">
        <ele>644</ele>
        <time>2016-06-02T08:21:19.039Z</time>
      </trkpt>
      <trkpt lat="45.95623" lon="4.59339">
        <ele>644</ele>
        <time>2016-06-02T08:21:24.024Z</time>
      </trkpt>
      <trkpt lat="45.95624" lon="4.59338">
        <ele>644</ele>
        <time>2016-06-02T08:21:25.025Z</time>
      </trkpt>
      <trkpt lat="45.95631" lon="4.59333">
        <ele>644</ele>
        <time>2016-06-02T08:21:32.016Z</time>
      </trkpt>
      <trkpt lat="45.95633" lon="4.59333">
        <ele>639</ele>
        <time>2016-06-02T08:21:33.019Z</time>
      </trkpt>
      <trkpt lat="45.95641" lon="4.59328">
        <ele>639</ele>
        <time>2016-06-02T08:21:41.027Z</time>
      </trkpt>
      <trkpt lat="45.95642" lon="4.59328">
        <ele>639</ele>
        <time>2016-06-02T08:21:42.02Z</time>
      </trkpt>
      <trkpt lat="45.9565" lon="4.59326">
        <ele>639</ele>
        <time>2016-06-02T08:21:48.038Z</time>
      </trkpt>
      <trkpt lat="45.95651" lon="4.59324">
        <ele>639</ele>
        <time>2016-06-02T08:21:49.039Z</time>
      </trkpt>
      <trkpt lat="45.95658" lon="4.59318">
        <ele>639</ele>
        <time>2016-06-02T08:21:55.035Z</time>
      </trkpt>
      <trkpt lat="45.95659" lon="4.59317">
        <ele>639</ele>
        <time>2016-06-02T08:21:56.037Z</time>
      </trkpt>
      <trkpt lat="45.95667" lon="4.59316">
        <ele>639</ele>
        <time>2016-06-02T08:22:01.039Z</time>
      </trkpt>
      <trkpt lat="45.95668" lon="4.59316">
        <ele>639</ele>
        <time>2016-06-02T08:22:02.036Z</time>
      </trkpt>
      <trkpt lat="45.95677" lon="4.59312">
        <ele>638</ele>
        <time>2016-06-02T08:22:08.039Z</time>
      </trkpt>
      <trkpt lat="45.95678" lon="4.59311">
        <ele>638</ele>
        <time>2016-06-02T08:22:09.041Z</time>
      </trkpt>
      <trkpt lat="45.95685" lon="4.59306">
        <ele>637</ele>
        <time>2016-06-02T08:22:14.028Z</time>
      </trkpt>
      <trkpt lat="45.95686" lon="4.59305">
        <ele>637</ele>
        <time>2016-06-02T08:22:15.023Z</time>
      </trkpt>
      <trkpt lat="45.95694" lon="4.59303">
        <ele>636</ele>
        <time>2016-06-02T08:22:20.023Z</time>
      </trkpt>
      <trkpt lat="45.95696" lon="4.59302">
        <ele>636</ele>
        <time>2016-06-02T08:22:21.039Z</time>
      </trkpt>
      <trkpt lat="45.95703" lon="4.59297">
        <ele>636</ele>
        <time>2016-06-02T08:22:26.026Z</time>
      </trkpt>
      <trkpt lat="45.95704" lon="4.59297">
        <ele>636</ele>
        <time>2016-06-02T08:22:27.021Z</time>
      </trkpt>
      <trkpt lat="45.95712" lon="4.59293">
        <ele>636</ele>
        <time>2016-06-02T08:22:33.014Z</time>
      </trkpt>
      <trkpt lat="45.95713" lon="4.59293">
        <ele>636</ele>
        <time>2016-06-02T08:22:34.039Z</time>
      </trkpt>
      <trkpt lat="45.95721" lon="4.59291">
        <ele>636</ele>
        <time>2016-06-02T08:22:40.023Z</time>
      </trkpt>
      <trkpt lat="45.95723" lon="4.5929">
        <ele>636</ele>
        <time>2016-06-02T08:22:41.02Z</time>
      </trkpt>
      <trkpt lat="45.9573" lon="4.59286">
        <ele>635</ele>
        <time>2016-06-02T08:22:47.011Z</time>
      </trkpt>
      <trkpt lat="45.95731" lon="4.59285">
        <ele>635</ele>
        <time>2016-06-02T08:22:48.015Z</time>
      </trkpt>
      <trkpt lat="45.95739" lon="4.59282">
        <ele>635</ele>
        <time>2016-06-02T08:22:53.041Z</time>
      </trkpt>
      <trkpt lat="45.9574" lon="4.59281">
        <ele>635</ele>
        <time>2016-06-02T08:22:54.029Z</time>
      </trkpt>
      <trkpt lat="45.95748" lon="4.59277">
        <ele>635</ele>
        <time>2016-06-02T08:23:01.02Z</time>
      </trkpt>
      <trkpt lat="45.95749" lon="4.59276">
        <ele>635</ele>
        <time>2016-06-02T08:23:02.03Z</time>
      </trkpt>
      <trkpt lat="45.95756" lon="4.59269">
        <ele>634</ele>
        <time>2016-06-02T08:23:10.015Z</time>
      </trkpt>
      <trkpt lat="45.95757" lon="4.59268">
        <ele>634</ele>
        <time>2016-06-02T08:23:11.015Z</time>
      </trkpt>
      <trkpt lat="45.95764" lon="4.59262">
        <ele>634</ele>
        <time>2016-06-02T08:23:17.023Z</time>
      </trkpt>
      <trkpt lat="45.95766" lon="4.59262">
        <ele>634</ele>
        <time>2016-06-02T08:23:18.025Z</time>
      </trkpt>
      <trkpt lat="45.95774" lon="4.59262">
        <ele>633</ele>
        <time>2016-06-02T08:23:23.022Z</time>
      </trkpt>
      <trkpt lat="45.95775" lon="4.59261">
        <ele>633</ele>
        <time>2016-06-02T08:23:24.018Z</time>
      </trkpt>
      <trkpt lat="45.95783" lon="4.59256">
        <ele>633</ele>
        <time>2016-06-02T08:23:31.019Z</time>
      </trkpt>
      <trkpt lat="45.95784" lon="4.59255">
        <ele>633</ele>
        <time>2016-06-02T08:23:32.034Z</time>
      </trkpt>
      <trkpt lat="45.95792" lon="4.5925">
        <ele>633</ele>
        <time>2016-06-02T08:23:40.018Z</time>
      </trkpt>
      <trkpt lat="45.95793" lon="4.5925">
        <ele>631</ele>
        <time>2016-06-02T08:23:41.008Z</time>
      </trkpt>
      <trkpt lat="45.95801" lon="4.59249">
        <ele>631</ele>
        <time>2016-06-02T08:23:48.023Z</time>
      </trkpt>
      <trkpt lat="45.95802" lon="4.59249">
        <ele>631</ele>
        <time>2016-06-02T08:23:49.018Z</time>
      </trkpt>
      <trkpt lat="45.95811" lon="4.59246">
        <ele>631</ele>
        <time>2016-06-02T08:23:56.023Z</time>
      </trkpt>
      <trkpt lat="45.95812" lon="4.59245">
        <ele>631</ele>
        <time>2016-06-02T08:23:57.021Z</time>
      </trkpt>
      <trkpt lat="45.9582" lon="4.59243">
        <ele>631</ele>
        <time>2016-06-02T08:24:04.025Z</time>
      </trkpt>
      <trkpt lat="45.95821" lon="4.59243">
        <ele>631</ele>
        <time>2016-06-02T08:24:05.026Z</time>
      </trkpt>
      <trkpt lat="45.95828" lon="4.59239">
        <ele>631</ele>
        <time>2016-06-02T08:24:11.032Z</time>
      </trkpt>
      <trkpt lat="45.9583" lon="4.59239">
        <ele>631</ele>
        <time>2016-06-02T08:24:12.026Z</time>
      </trkpt>
      <trkpt lat="45.95839" lon="4.59239">
        <ele>632</ele>
        <time>2016-06-02T08:24:17.025Z</time>
      </trkpt>
      <trkpt lat="45.9584" lon="4.59239">
        <ele>631</ele>
        <time>2016-06-02T08:24:18.038Z</time>
      </trkpt>
      <trkpt lat="45.95849" lon="4.59238">
        <ele>631</ele>
        <time>2016-06-02T08:24:24.02Z</time>
      </trkpt>
      <trkpt lat="45.9585" lon="4.59238">
        <ele>631</ele>
        <time>2016-06-02T08:24:25.019Z</time>
      </trkpt>
      <trkpt lat="45.95858" lon="4.59234">
        <ele>631</ele>
        <time>2016-06-02T08:24:30.024Z</time>
      </trkpt>
      <trkpt lat="45.95859" lon="4.59233">
        <ele>631</ele>
        <time>2016-06-02T08:24:31.016Z</time>
      </trkpt>
      <trkpt lat="45.95866" lon="4.59228">
        <ele>631</ele>
        <time>2016-06-02T08:24:38.011Z</time>
      </trkpt>
      <trkpt lat="45.95868" lon="4.59227">
        <ele>631</ele>
        <time>2016-06-02T08:24:39.023Z</time>
      </trkpt>
      <trkpt lat="45.95874" lon="4.59221">
        <ele>631</ele>
        <time>2016-06-02T08:24:45.014Z</time>
      </trkpt>
      <trkpt lat="45.95876" lon="4.5922">
        <ele>631</ele>
        <time>2016-06-02T08:24:46.03Z</time>
      </trkpt>
      <trkpt lat="45.95883" lon="4.59215">
        <ele>631</ele>
        <time>2016-06-02T08:24:51.035Z</time>
      </trkpt>
      <trkpt lat="45.95884" lon="4.59214">
        <ele>631</ele>
        <time>2016-06-02T08:24:52.038Z</time>
      </trkpt>
      <trkpt lat="45.95891" lon="4.59208">
        <ele>631</ele>
        <time>2016-06-02T08:24:58.03Z</time>
      </trkpt>
      <trkpt lat="45.95892" lon="4.59206">
        <ele>631</ele>
        <time>2016-06-02T08:24:59.048Z</time>
      </trkpt>
      <trkpt lat="45.95899" lon="4.59201">
        <ele>631</ele>
        <time>2016-06-02T08:25:06.022Z</time>
      </trkpt>
      <trkpt lat="45.959" lon="4.592">
        <ele>631</ele>
        <time>2016-06-02T08:25:07.022Z</time>
      </trkpt>
      <trkpt lat="45.95906" lon="4.59191">
        <ele>630</ele>
        <time>2016-06-02T08:25:13.038Z</time>
      </trkpt>
      <trkpt lat="45.95907" lon="4.59189">
        <ele>630</ele>
        <time>2016-06-02T08:25:14.025Z</time>
      </trkpt>
      <trkpt lat="45.95913" lon="4.5918">
        <ele>630</ele>
        <time>2016-06-02T08:25:20.02Z</time>
      </trkpt>
      <trkpt lat="45.95914" lon="4.59179">
        <ele>630</ele>
        <time>2016-06-02T08:25:21.024Z</time>
      </trkpt>
      <trkpt lat="45.95921" lon="4.59172">
        <ele>630</ele>
        <time>2016-06-02T08:25:27.038Z</time>
      </trkpt>
      <trkpt lat="45.95922" lon="4.59171">
        <ele>630</ele>
        <time>2016-06-02T08:25:28.026Z</time>
      </trkpt>
      <trkpt lat="45.95929" lon="4.59165">
        <ele>629</ele>
        <time>2016-06-02T08:25:34.021Z</time>
      </trkpt>
      <trkpt lat="45.9593" lon="4.59164">
        <ele>629</ele>
        <time>2016-06-02T08:25:35.019Z</time>
      </trkpt>
      <trkpt lat="45.95939" lon="4.5916">
        <ele>628</ele>
        <time>2016-06-02T08:25:41.027Z</time>
      </trkpt>
      <trkpt lat="45.9594" lon="4.5916">
        <ele>628</ele>
        <time>2016-06-02T08:25:42.021Z</time>
      </trkpt>
      <trkpt lat="45.95949" lon="4.59162">
        <ele>629</ele>
        <time>2016-06-02T08:25:48.019Z</time>
      </trkpt>
      <trkpt lat="45.9595" lon="4.59163">
        <ele>629</ele>
        <time>2016-06-02T08:25:49.014Z</time>
      </trkpt>
      <trkpt lat="45.95957" lon="4.59169">
        <ele>632</ele>
        <time>2016-06-02T08:25:58.022Z</time>
      </trkpt>
      <trkpt lat="45.95958" lon="4.59171">
        <ele>632</ele>
        <time>2016-06-02T08:25:59.021Z</time>
      </trkpt>
      <trkpt lat="45.95964" lon="4.59178">
        <ele>632</ele>
        <time>2016-06-02T08:26:05.019Z</time>
      </trkpt>
      <trkpt lat="45.95965" lon="4.59179">
        <ele>632</ele>
        <time>2016-06-02T08:26:06.029Z</time>
      </trkpt>
      <trkpt lat="45.95972" lon="4.59185">
        <ele>632</ele>
        <time>2016-06-02T08:26:12.036Z</time>
      </trkpt>
      <trkpt lat="45.95974" lon="4.59185">
        <ele>632</ele>
        <time>2016-06-02T08:26:13.015Z</time>
      </trkpt>
      <trkpt lat="45.95982" lon="4.5919">
        <ele>633</ele>
        <time>2016-06-02T08:26:20.023Z</time>
      </trkpt>
      <trkpt lat="45.95982" lon="4.59191">
        <ele>633</ele>
        <time>2016-06-02T08:26:21.021Z</time>
      </trkpt>
      <trkpt lat="45.95988" lon="4.59199">
        <ele>633</ele>
        <time>2016-06-02T08:26:33.017Z</time>
      </trkpt>
      <trkpt lat="45.95988" lon="4.592">
        <ele>633</ele>
        <time>2016-06-02T08:26:34.033Z</time>
      </trkpt>
      <trkpt lat="45.95994" lon="4.59208">
        <ele>633</ele>
        <time>2016-06-02T08:26:46.037Z</time>
      </trkpt>
      <trkpt lat="45.95996" lon="4.59208">
        <ele>633</ele>
        <time>2016-06-02T08:26:47.034Z</time>
      </trkpt>
      <trkpt lat="45.96003" lon="4.59213">
        <ele>634</ele>
        <time>2016-06-02T08:26:53.015Z</time>
      </trkpt>
      <trkpt lat="45.96004" lon="4.59214">
        <ele>634</ele>
        <time>2016-06-02T08:26:54.038Z</time>
      </trkpt>
      <trkpt lat="45.96012" lon="4.59218">
        <ele>634</ele>
        <time>2016-06-02T08:27:00.033Z</time>
      </trkpt>
      <trkpt lat="45.96013" lon="4.59218">
        <ele>634</ele>
        <time>2016-06-02T08:27:01.024Z</time>
      </trkpt>
      <trkpt lat="45.9602" lon="4.59223">
        <ele>634</ele>
        <time>2016-06-02T08:27:06.034Z</time>
      </trkpt>
      <trkpt lat="45.96021" lon="4.59224">
        <ele>634</ele>
        <time>2016-06-02T08:27:07.023Z</time>
      </trkpt>
      <trkpt lat="45.96027" lon="4.59233">
        <ele>634</ele>
        <time>2016-06-02T08:27:17.039Z</time>
      </trkpt>
      <trkpt lat="45.96028" lon="4.59233">
        <ele>634</ele>
        <time>2016-06-02T08:27:18.039Z</time>
      </trkpt>
      <trkpt lat="45.96036" lon="4.59238">
        <ele>634</ele>
        <time>2016-06-02T08:27:24.015Z</time>
      </trkpt>
      <trkpt lat="45.96037" lon="4.5924">
        <ele>634</ele>
        <time>2016-06-02T08:27:25.032Z</time>
      </trkpt>
      <trkpt lat="45.96044" lon="4.59247">
        <ele>634</ele>
        <time>2016-06-02T08:27:30.024Z</time>
      </trkpt>
      <trkpt lat="45.96046" lon="4.59248">
        <ele>634</ele>
        <time>2016-06-02T08:27:31.039Z</time>
      </trkpt>
      <trkpt lat="45.96052" lon="4.59252">
        <ele>630</ele>
        <time>2016-06-02T08:27:35.022Z</time>
      </trkpt>
      <trkpt lat="45.96054" lon="4.59254">
        <ele>630</ele>
        <time>2016-06-02T08:27:36.024Z</time>
      </trkpt>
      <trkpt lat="45.96061" lon="4.59262">
        <ele>630</ele>
        <time>2016-06-02T08:27:43.023Z</time>
      </trkpt>
      <trkpt lat="45.96062" lon="4.59262">
        <ele>630</ele>
        <time>2016-06-02T08:27:44.028Z</time>
      </trkpt>
      <trkpt lat="45.9607" lon="4.59264">
        <ele>631</ele>
        <time>2016-06-02T08:27:50.009Z</time>
      </trkpt>
      <trkpt lat="45.96071" lon="4.59264">
        <ele>631</ele>
        <time>2016-06-02T08:27:51.008Z</time>
      </trkpt>
      <trkpt lat="45.96079" lon="4.59266">
        <ele>631</ele>
        <time>2016-06-02T08:27:58.025Z</time>
      </trkpt>
      <trkpt lat="45.96081" lon="4.59266">
        <ele>631</ele>
        <time>2016-06-02T08:27:59.036Z</time>
      </trkpt>
      <trkpt lat="45.96088" lon="4.59261">
        <ele>633</ele>
        <time>2016-06-02T08:28:05.028Z</time>
      </trkpt>
      <trkpt lat="45.96089" lon="4.59261">
        <ele>633</ele>
        <time>2016-06-02T08:28:06.028Z</time>
      </trkpt>
      <trkpt lat="45.96097" lon="4.59264">
        <ele>632</ele>
        <time>2016-06-02T08:28:12.035Z</time>
      </trkpt>
      <trkpt lat="45.96098" lon="4.59265">
        <ele>632</ele>
        <time>2016-06-02T08:28:13.026Z</time>
      </trkpt>
      <trkpt lat="45.96106" lon="4.59269">
        <ele>632</ele>
        <time>2016-06-02T08:28:24.015Z</time>
      </trkpt>
      <trkpt lat="45.96107" lon="4.59269">
        <ele>632</ele>
        <time>2016-06-02T08:28:25.027Z</time>
      </trkpt>
      <trkpt lat="45.96116" lon="4.59269">
        <ele>632</ele>
        <time>2016-06-02T08:28:34.03Z</time>
      </trkpt>
      <trkpt lat="45.96117" lon="4.59269">
        <ele>632</ele>
        <time>2016-06-02T08:28:35.015Z</time>
      </trkpt>
      <trkpt lat="45.96126" lon="4.5927">
        <ele>632</ele>
        <time>2016-06-02T08:28:40.036Z</time>
      </trkpt>
      <trkpt lat="45.96127" lon="4.5927">
        <ele>632</ele>
        <time>2016-06-02T08:28:41.02Z</time>
      </trkpt>
      <trkpt lat="45.96135" lon="4.59272">
        <ele>632</ele>
        <time>2016-06-02T08:28:46.025Z</time>
      </trkpt>
      <trkpt lat="45.96137" lon="4.59273">
        <ele>632</ele>
        <time>2016-06-02T08:28:47.024Z</time>
      </trkpt>
      <trkpt lat="45.96144" lon="4.5928">
        <ele>632</ele>
        <time>2016-06-02T08:28:53.025Z</time>
      </trkpt>
      <trkpt lat="45.96146" lon="4.59281">
        <ele>632</ele>
        <time>2016-06-02T08:28:54.025Z</time>
      </trkpt>
      <trkpt lat="45.96152" lon="4.59284">
        <ele>632</ele>
        <time>2016-06-02T08:28:58.025Z</time>
      </trkpt>
      <trkpt lat="45.96154" lon="4.59284">
        <ele>632</ele>
        <time>2016-06-02T08:28:59.024Z</time>
      </trkpt>
      <trkpt lat="45.96162" lon="4.59287">
        <ele>632</ele>
        <time>2016-06-02T08:29:04.028Z</time>
      </trkpt>
      <trkpt lat="45.96164" lon="4.59287">
        <ele>632</ele>
        <time>2016-06-02T08:29:05.019Z</time>
      </trkpt>
      <trkpt lat="45.96171" lon="4.59292">
        <ele>635</ele>
        <time>2016-06-02T08:29:13.012Z</time>
      </trkpt>
      <trkpt lat="45.96172" lon="4.59292">
        <ele>635</ele>
        <time>2016-06-02T08:29:14.011Z</time>
      </trkpt>
      <trkpt lat="45.9618" lon="4.59295">
        <ele>635</ele>
        <time>2016-06-02T08:29:22.034Z</time>
      </trkpt>
      <trkpt lat="45.96182" lon="4.59295">
        <ele>635</ele>
        <time>2016-06-02T08:29:23.024Z</time>
      </trkpt>
      <trkpt lat="45.96189" lon="4.59301">
        <ele>635</ele>
        <time>2016-06-02T08:29:29.038Z</time>
      </trkpt>
      <trkpt lat="45.96191" lon="4.59302">
        <ele>635</ele>
        <time>2016-06-02T08:29:30.034Z</time>
      </trkpt>
      <trkpt lat="45.96198" lon="4.59308">
        <ele>634</ele>
        <time>2016-06-02T08:29:38.02Z</time>
      </trkpt>
      <trkpt lat="45.96199" lon="4.59309">
        <ele>634</ele>
        <time>2016-06-02T08:29:39.026Z</time>
      </trkpt>
      <trkpt lat="45.96207" lon="4.5931">
        <ele>635</ele>
        <time>2016-06-02T08:29:48.028Z</time>
      </trkpt>
      <trkpt lat="45.96208" lon="4.5931">
        <ele>635</ele>
        <time>2016-06-02T08:29:49.023Z</time>
      </trkpt>
      <trkpt lat="45.96216" lon="4.5931">
        <ele>635</ele>
        <time>2016-06-02T08:29:55.008Z</time>
      </trkpt>
      <trkpt lat="45.96217" lon="4.5931">
        <ele>635</ele>
        <time>2016-06-02T08:29:56.017Z</time>
      </trkpt>
      <trkpt lat="45.96224" lon="4.59316">
        <ele>635</ele>
        <time>2016-06-02T08:30:02.015Z</time>
      </trkpt>
      <trkpt lat="45.96225" lon="4.59318">
        <ele>634</ele>
        <time>2016-06-02T08:30:03.019Z</time>
      </trkpt>
      <trkpt lat="45.96233" lon="4.59324">
        <ele>634</ele>
        <time>2016-06-02T08:30:13.013Z</time>
      </trkpt>
      <trkpt lat="45.96235" lon="4.59324">
        <ele>634</ele>
        <time>2016-06-02T08:30:14.004Z</time>
      </trkpt>
      <trkpt lat="45.96243" lon="4.59329">
        <ele>633</ele>
        <time>2016-06-02T08:30:30.016Z</time>
      </trkpt>
      <trkpt lat="45.96244" lon="4.5933">
        <ele>633</ele>
        <time>2016-06-02T08:30:31.019Z</time>
      </trkpt>
      <trkpt lat="45.96251" lon="4.59335">
        <ele>631</ele>
        <time>2016-06-02T08:30:36.021Z</time>
      </trkpt>
      <trkpt lat="45.96253" lon="4.59337">
        <ele>631</ele>
        <time>2016-06-02T08:30:37.016Z</time>
      </trkpt>
      <trkpt lat="45.96259" lon="4.59342">
        <ele>629</ele>
        <time>2016-06-02T08:30:40.035Z</time>
      </trkpt>
      <trkpt lat="45.96262" lon="4.59344">
        <ele>628</ele>
        <time>2016-06-02T08:30:41.018Z</time>
      </trkpt>
      <trkpt lat="45.9627" lon="4.5935">
        <ele>627</ele>
        <time>2016-06-02T08:30:44.034Z</time>
      </trkpt>
      <trkpt lat="45.96272" lon="4.59352">
        <ele>627</ele>
        <time>2016-06-02T08:30:45.022Z</time>
      </trkpt>
      <trkpt lat="45.96279" lon="4.59358">
        <ele>626</ele>
        <time>2016-06-02T08:30:49.024Z</time>
      </trkpt>
      <trkpt lat="45.96281" lon="4.59359">
        <ele>626</ele>
        <time>2016-06-02T08:30:50.004Z</time>
      </trkpt>
      <trkpt lat="45.96289" lon="4.59363">
        <ele>626</ele>
        <time>2016-06-02T08:30:56.008Z</time>
      </trkpt>
      <trkpt lat="45.9629" lon="4.59364">
        <ele>626</ele>
        <time>2016-06-02T08:30:57.016Z</time>
      </trkpt>
      <trkpt lat="45.96298" lon="4.59369">
        <ele>625</ele>
        <time>2016-06-02T08:31:09.026Z</time>
      </trkpt>
      <trkpt lat="45.96298" lon="4.5937">
        <ele>625</ele>
        <time>2016-06-02T08:31:10.025Z</time>
      </trkpt>
      <trkpt lat="45.96305" lon="4.59377">
        <ele>625</ele>
        <time>2016-06-02T08:31:17.022Z</time>
      </trkpt>
      <trkpt lat="45.96306" lon="4.59378">
        <ele>625</ele>
        <time>2016-06-02T08:31:18.022Z</time>
      </trkpt>
      <trkpt lat="45.96314" lon="4.59385">
        <ele>624</ele>
        <time>2016-06-02T08:31:23.025Z</time>
      </trkpt>
      <trkpt lat="45.96315" lon="4.59386">
        <ele>624</ele>
        <time>2016-06-02T08:31:24.009Z</time>
      </trkpt>
      <trkpt lat="45.96321" lon="4.59391">
        <ele>624</ele>
        <time>2016-06-02T08:31:35.016Z</time>
      </trkpt>
      <trkpt lat="45.96324" lon="4.59393">
        <ele>623</ele>
        <time>2016-06-02T08:31:36.005Z</time>
      </trkpt>
      <trkpt lat="45.96329" lon="4.59397">
        <ele>623</ele>
        <time>2016-06-02T08:31:38.039Z</time>
      </trkpt>
      <trkpt lat="45.96332" lon="4.594">
        <ele>622</ele>
        <time>2016-06-02T08:31:39.034Z</time>
      </trkpt>
      <trkpt lat="45.96338" lon="4.59405">
        <ele>622</ele>
        <time>2016-06-02T08:31:41.022Z</time>
      </trkpt>
      <trkpt lat="45.9634" lon="4.59407">
        <ele>622</ele>
        <time>2016-06-02T08:31:42.018Z</time>
      </trkpt>
      <trkpt lat="45.96345" lon="4.59417">
        <ele>616</ele>
        <time>2016-06-02T08:31:51.014Z</time>
      </trkpt>
      <trkpt lat="45.96346" lon="4.59418">
        <ele>615</ele>
        <time>2016-06-02T08:31:52.023Z</time>
      </trkpt>
      <trkpt lat="45.96355" lon="4.59422">
        <ele>614</ele>
        <time>2016-06-02T08:32:01.005Z</time>
      </trkpt>
      <trkpt lat="45.96355" lon="4.59422">
        <ele>614</ele>
        <time>2016-06-02T08:32:02.013Z</time>
      </trkpt>
      <trkpt lat="45.96362" lon="4.5943">
        <ele>612</ele>
        <time>2016-06-02T08:32:10.023Z</time>
      </trkpt>
      <trkpt lat="45.96363" lon="4.59431">
        <ele>612</ele>
        <time>2016-06-02T08:32:11.016Z</time>
      </trkpt>
      <trkpt lat="45.96372" lon="4.59433">
        <ele>611</ele>
        <time>2016-06-02T08:32:17.02Z</time>
      </trkpt>
      <trkpt lat="45.96373" lon="4.59434">
        <ele>611</ele>
        <time>2016-06-02T08:32:18.034Z</time>
      </trkpt>
      <trkpt lat="45.96379" lon="4.59439">
        <ele>611</ele>
        <time>2016-06-02T08:32:22.008Z</time>
      </trkpt>
      <trkpt lat="45.96381" lon="4.5944">
        <ele>610</ele>
        <time>2016-06-02T08:32:23.001Z</time>
      </trkpt>
      <trkpt lat="45.96389" lon="4.59443">
        <ele>610</ele>
        <time>2016-06-02T08:32:28.024Z</time>
      </trkpt>
      <trkpt lat="45.9639" lon="4.59443">
        <ele>610</ele>
        <time>2016-06-02T08:32:29.021Z</time>
      </trkpt>
      <trkpt lat="45.96397" lon="4.59449">
        <ele>610</ele>
        <time>2016-06-02T08:32:39.013Z</time>
      </trkpt>
      <trkpt lat="45.96399" lon="4.5945">
        <ele>609</ele>
        <time>2016-06-02T08:32:40.021Z</time>
      </trkpt>
      <trkpt lat="45.96407" lon="4.59453">
        <ele>609</ele>
        <time>2016-06-02T08:32:48.031Z</time>
      </trkpt>
      <trkpt lat="45.96408" lon="4.59453">
        <ele>609</ele>
        <time>2016-06-02T08:32:49.022Z</time>
      </trkpt>
      <trkpt lat="45.96416" lon="4.59459">
        <ele>608</ele>
        <time>2016-06-02T08:33:03.025Z</time>
      </trkpt>
      <trkpt lat="45.96416" lon="4.5946">
        <ele>608</ele>
        <time>2016-06-02T08:33:04.02Z</time>
      </trkpt>
      <trkpt lat="45.96422" lon="4.59467">
        <ele>608</ele>
        <time>2016-06-02T08:33:09.011Z</time>
      </trkpt>
      <trkpt lat="45.96423" lon="4.59468">
        <ele>608</ele>
        <time>2016-06-02T08:33:10.022Z</time>
      </trkpt>
      <trkpt lat="45.96431" lon="4.59473">
        <ele>608</ele>
        <time>2016-06-02T08:33:15.012Z</time>
      </trkpt>
      <trkpt lat="45.96432" lon="4.59473">
        <ele>608</ele>
        <time>2016-06-02T08:33:16.027Z</time>
      </trkpt>
      <trkpt lat="45.9644" lon="4.59476">
        <ele>608</ele>
        <time>2016-06-02T08:33:23.015Z</time>
      </trkpt>
      <trkpt lat="45.96442" lon="4.59478">
        <ele>608</ele>
        <time>2016-06-02T08:33:24.02Z</time>
      </trkpt>
      <trkpt lat="45.96449" lon="4.59484">
        <ele>608</ele>
        <time>2016-06-02T08:33:34.022Z</time>
      </trkpt>
      <trkpt lat="45.9645" lon="4.59485">
        <ele>608</ele>
        <time>2016-06-02T08:33:35.028Z</time>
      </trkpt>
      <trkpt lat="45.96453" lon="4.59496">
        <ele>608</ele>
        <time>2016-06-02T08:34:39.028Z</time>
      </trkpt>
      <trkpt lat="45.96454" lon="4.59498">
        <ele>608</ele>
        <time>2016-06-02T08:34:40.024Z</time>
      </trkpt>
      <trkpt lat="45.96461" lon="4.59502">
        <ele>597</ele>
        <time>2016-06-02T08:34:45.041Z</time>
      </trkpt>
      <trkpt lat="45.96462" lon="4.59503">
        <ele>597</ele>
        <time>2016-06-02T08:34:46.037Z</time>
      </trkpt>
      <trkpt lat="45.96469" lon="4.59511">
        <ele>597</ele>
        <time>2016-06-02T08:34:53.022Z</time>
      </trkpt>
      <trkpt lat="45.96469" lon="4.59512">
        <ele>597</ele>
        <time>2016-06-02T08:34:54.025Z</time>
      </trkpt>
      <trkpt lat="45.96477" lon="4.59518">
        <ele>597</ele>
        <time>2016-06-02T08:35:03.014Z</time>
      </trkpt>
      <trkpt lat="45.96478" lon="4.59519">
        <ele>597</ele>
        <time>2016-06-02T08:35:04.015Z</time>
      </trkpt>
      <trkpt lat="45.96484" lon="4.59527">
        <ele>597</ele>
        <time>2016-06-02T08:36:29.026Z</time>
      </trkpt>
      <trkpt lat="45.96484" lon="4.59527">
        <ele>597</ele>
        <time>2016-06-02T08:36:30.019Z</time>
      </trkpt>
      <trkpt lat="45.96488" lon="4.59539">
        <ele>595</ele>
        <time>2016-06-02T08:36:49.019Z</time>
      </trkpt>
      <trkpt lat="45.96488" lon="4.5954">
        <ele>595</ele>
        <time>2016-06-02T08:36:50.018Z</time>
      </trkpt>
      <trkpt lat="45.9649" lon="4.59552">
        <ele>593</ele>
        <time>2016-06-02T08:36:57.022Z</time>
      </trkpt>
      <trkpt lat="45.96491" lon="4.59554">
        <ele>593</ele>
        <time>2016-06-02T08:36:58.028Z</time>
      </trkpt>
      <trkpt lat="45.96497" lon="4.59563">
        <ele>592</ele>
        <time>2016-06-02T08:37:04.019Z</time>
      </trkpt>
      <trkpt lat="45.96498" lon="4.59565">
        <ele>591</ele>
        <time>2016-06-02T08:37:05.024Z</time>
      </trkpt>
      <trkpt lat="45.96504" lon="4.59573">
        <ele>594</ele>
        <time>2016-06-02T08:37:10.022Z</time>
      </trkpt>
      <trkpt lat="45.96506" lon="4.59575">
        <ele>594</ele>
        <time>2016-06-02T08:37:11.02Z</time>
      </trkpt>
      <trkpt lat="45.96512" lon="4.59581">
        <ele>595</ele>
        <time>2016-06-02T08:37:16.026Z</time>
      </trkpt>
      <trkpt lat="45.96514" lon="4.59582">
        <ele>595</ele>
        <time>2016-06-02T08:37:17.026Z</time>
      </trkpt>
      <trkpt lat="45.9652" lon="4.59591">
        <ele>590</ele>
        <time>2016-06-02T08:37:24.022Z</time>
      </trkpt>
      <trkpt lat="45.96521" lon="4.59592">
        <ele>590</ele>
        <time>2016-06-02T08:37:25.02Z</time>
      </trkpt>
      <trkpt lat="45.96527" lon="4.59599">
        <ele>590</ele>
        <time>2016-06-02T08:37:30.036Z</time>
      </trkpt>
      <trkpt lat="45.96529" lon="4.59601">
        <ele>590</ele>
        <time>2016-06-02T08:37:31.022Z</time>
      </trkpt>
      <trkpt lat="45.96533" lon="4.59612">
        <ele>590</ele>
        <time>2016-06-02T08:37:37.024Z</time>
      </trkpt>
      <trkpt lat="45.96534" lon="4.59613">
        <ele>590</ele>
        <time>2016-06-02T08:37:38.022Z</time>
      </trkpt>
      <trkpt lat="45.96536" lon="4.59624">
        <ele>589</ele>
        <time>2016-06-02T08:37:45.021Z</time>
      </trkpt>
      <trkpt lat="45.96536" lon="4.59625">
        <ele>589</ele>
        <time>2016-06-02T08:37:46.013Z</time>
      </trkpt>
      <trkpt lat="45.96538" lon="4.59637">
        <ele>588</ele>
        <time>2016-06-02T08:37:53.025Z</time>
      </trkpt>
      <trkpt lat="45.96539" lon="4.59639">
        <ele>588</ele>
        <time>2016-06-02T08:37:54.032Z</time>
      </trkpt>
      <trkpt lat="45.96541" lon="4.5965">
        <ele>588</ele>
        <time>2016-06-02T08:37:59.029Z</time>
      </trkpt>
      <trkpt lat="45.96542" lon="4.59653">
        <ele>587</ele>
        <time>2016-06-02T08:38:00.008Z</time>
      </trkpt>
      <trkpt lat="45.96544" lon="4.59664">
        <ele>587</ele>
        <time>2016-06-02T08:38:05.022Z</time>
      </trkpt>
      <trkpt lat="45.96545" lon="4.59666">
        <ele>587</ele>
        <time>2016-06-02T08:38:06.029Z</time>
      </trkpt>
      <trkpt lat="45.96549" lon="4.59676">
        <ele>579</ele>
        <time>2016-06-02T08:38:11.025Z</time>
      </trkpt>
      <trkpt lat="45.9655" lon="4.59678">
        <ele>579</ele>
        <time>2016-06-02T08:38:12.038Z</time>
      </trkpt>
      <trkpt lat="45.96553" lon="4.59689">
        <ele>579</ele>
        <time>2016-06-02T08:38:18.029Z</time>
      </trkpt>
      <trkpt lat="45.96553" lon="4.59691">
        <ele>578</ele>
        <time>2016-06-02T08:38:19.028Z</time>
      </trkpt>
      <trkpt lat="45.96557" lon="4.59699">
        <ele>578</ele>
        <time>2016-06-02T08:38:23.008Z</time>
      </trkpt>
      <trkpt lat="45.96559" lon="4.59701">
        <ele>578</ele>
        <time>2016-06-02T08:38:24.016Z</time>
      </trkpt>
      <trkpt lat="45.96563" lon="4.59709">
        <ele>577</ele>
        <time>2016-06-02T08:38:28.031Z</time>
      </trkpt>
      <trkpt lat="45.96565" lon="4.59711">
        <ele>577</ele>
        <time>2016-06-02T08:38:29.026Z</time>
      </trkpt>
      <trkpt lat="45.96571" lon="4.59719">
        <ele>577</ele>
        <time>2016-06-02T08:38:34.001Z</time>
      </trkpt>
      <trkpt lat="45.96573" lon="4.59721">
        <ele>576</ele>
        <time>2016-06-02T08:38:35.026Z</time>
      </trkpt>
      <trkpt lat="45.96578" lon="4.59728">
        <ele>576</ele>
        <time>2016-06-02T08:38:41.023Z</time>
      </trkpt>
      <trkpt lat="45.96579" lon="4.5973">
        <ele>576</ele>
        <time>2016-06-02T08:38:42.034Z</time>
      </trkpt>
      <trkpt lat="45.96584" lon="4.59739">
        <ele>577</ele>
        <time>2016-06-02T08:38:49.025Z</time>
      </trkpt>
      <trkpt lat="45.96584" lon="4.5974">
        <ele>577</ele>
        <time>2016-06-02T08:38:50.023Z</time>
      </trkpt>
      <trkpt lat="45.96589" lon="4.5975">
        <ele>574</ele>
        <time>2016-06-02T08:38:57.036Z</time>
      </trkpt>
      <trkpt lat="45.9659" lon="4.59751">
        <ele>573</ele>
        <time>2016-06-02T08:38:58.026Z</time>
      </trkpt>
      <trkpt lat="45.96596" lon="4.59759">
        <ele>573</ele>
        <time>2016-06-02T08:39:05.023Z</time>
      </trkpt>
      <trkpt lat="45.96597" lon="4.5976">
        <ele>573</ele>
        <time>2016-06-02T08:39:06.019Z</time>
      </trkpt>
      <trkpt lat="45.96603" lon="4.59766">
        <ele>573</ele>
        <time>2016-06-02T08:39:11.018Z</time>
      </trkpt>
      <trkpt lat="45.96604" lon="4.59767">
        <ele>573</ele>
        <time>2016-06-02T08:39:12.02Z</time>
      </trkpt>
      <trkpt lat="45.9661" lon="4.59776">
        <ele>572</ele>
        <time>2016-06-02T08:39:18.021Z</time>
      </trkpt>
      <trkpt lat="45.96611" lon="4.59778">
        <ele>572</ele>
        <time>2016-06-02T08:39:19.034Z</time>
      </trkpt>
      <trkpt lat="45.96618" lon="4.59786">
        <ele>572</ele>
        <time>2016-06-02T08:39:28.035Z</time>
      </trkpt>
      <trkpt lat="45.96618" lon="4.59787">
        <ele>572</ele>
        <time>2016-06-02T08:39:29.037Z</time>
      </trkpt>
      <trkpt lat="45.96622" lon="4.59799">
        <ele>571</ele>
        <time>2016-06-02T08:40:10.038Z</time>
      </trkpt>
      <trkpt lat="45.96622" lon="4.59799">
        <ele>571</ele>
        <time>2016-06-02T08:40:11.022Z</time>
      </trkpt>
      <trkpt lat="45.96629" lon="4.59805">
        <ele>571</ele>
        <time>2016-06-02T08:41:37.015Z</time>
      </trkpt>
      <trkpt lat="45.9663" lon="4.59806">
        <ele>571</ele>
        <time>2016-06-02T08:41:38.005Z</time>
      </trkpt>
      <trkpt lat="45.96634" lon="4.59817">
        <ele>571</ele>
        <time>2016-06-02T08:41:49.021Z</time>
      </trkpt>
      <trkpt lat="45.96634" lon="4.59818">
        <ele>571</ele>
        <time>2016-06-02T08:41:50.023Z</time>
      </trkpt>
      <trkpt lat="45.96636" lon="4.59829">
        <ele>571</ele>
        <time>2016-06-02T08:41:58.02Z</time>
      </trkpt>
      <trkpt lat="45.96637" lon="4.59831">
        <ele>571</ele>
        <time>2016-06-02T08:41:59.039Z</time>
      </trkpt>
      <trkpt lat="45.96643" lon="4.59839">
        <ele>566</ele>
        <time>2016-06-02T08:42:07.029Z</time>
      </trkpt>
      <trkpt lat="45.96643" lon="4.5984">
        <ele>566</ele>
        <time>2016-06-02T08:42:08.005Z</time>
      </trkpt>
      <trkpt lat="45.96645" lon="4.59852">
        <ele>566</ele>
        <time>2016-06-02T08:42:19.023Z</time>
      </trkpt>
      <trkpt lat="45.96646" lon="4.59853">
        <ele>566</ele>
        <time>2016-06-02T08:42:20.021Z</time>
      </trkpt>
      <trkpt lat="45.96651" lon="4.59863">
        <ele>565</ele>
        <time>2016-06-02T08:42:26.026Z</time>
      </trkpt>
      <trkpt lat="45.96652" lon="4.59864">
        <ele>565</ele>
        <time>2016-06-02T08:42:27.02Z</time>
      </trkpt>
      <trkpt lat="45.96658" lon="4.59872">
        <ele>565</ele>
        <time>2016-06-02T08:42:34.029Z</time>
      </trkpt>
      <trkpt lat="45.96659" lon="4.59873">
        <ele>565</ele>
        <time>2016-06-02T08:42:35.011Z</time>
      </trkpt>
      <trkpt lat="45.96667" lon="4.59878">
        <ele>564</ele>
        <time>2016-06-02T08:42:42.015Z</time>
      </trkpt>
      <trkpt lat="45.96668" lon="4.59879">
        <ele>564</ele>
        <time>2016-06-02T08:42:43.025Z</time>
      </trkpt>
      <trkpt lat="45.96676" lon="4.59884">
        <ele>564</ele>
        <time>2016-06-02T08:42:49.015Z</time>
      </trkpt>
      <trkpt lat="45.96677" lon="4.59884">
        <ele>564</ele>
        <time>2016-06-02T08:42:50.009Z</time>
      </trkpt>
      <trkpt lat="45.96679" lon="4.59897">
        <ele>563</ele>
        <time>2016-06-02T08:42:59.019Z</time>
      </trkpt>
      <trkpt lat="45.96679" lon="4.59899">
        <ele>563</ele>
        <time>2016-06-02T08:43:00.017Z</time>
      </trkpt>
      <trkpt lat="45.96679" lon="4.5991">
        <ele>562</ele>
        <time>2016-06-02T08:43:09.011Z</time>
      </trkpt>
      <trkpt lat="45.9668" lon="4.59911">
        <ele>562</ele>
        <time>2016-06-02T08:43:10.007Z</time>
      </trkpt>
      <trkpt lat="45.96682" lon="4.59923">
        <ele>559</ele>
        <time>2016-06-02T08:43:17.014Z</time>
      </trkpt>
      <trkpt lat="45.96683" lon="4.59924">
        <ele>559</ele>
        <time>2016-06-02T08:43:18.024Z</time>
      </trkpt>
      <trkpt lat="45.96679" lon="4.59936">
        <ele>558</ele>
        <time>2016-06-02T08:43:27.082Z</time>
      </trkpt>
      <trkpt lat="45.96679" lon="4.59937">
        <ele>558</ele>
        <time>2016-06-02T08:43:28.068Z</time>
      </trkpt>
      <trkpt lat="45.9668" lon="4.5995">
        <ele>557</ele>
        <time>2016-06-02T08:43:39.013Z</time>
      </trkpt>
      <trkpt lat="45.9668" lon="4.59951">
        <ele>556</ele>
        <time>2016-06-02T08:43:40.02Z</time>
      </trkpt>
      <trkpt lat="45.96681" lon="4.59964">
        <ele>556</ele>
        <time>2016-06-02T08:43:48.018Z</time>
      </trkpt>
      <trkpt lat="45.96682" lon="4.59967">
        <ele>555</ele>
        <time>2016-06-02T08:43:49.018Z</time>
      </trkpt>
      <trkpt lat="45.96683" lon="4.59979">
        <ele>555</ele>
        <time>2016-06-02T08:43:56.036Z</time>
      </trkpt>
      <trkpt lat="45.96682" lon="4.59981">
        <ele>555</ele>
        <time>2016-06-02T08:43:57.024Z</time>
      </trkpt>
      <trkpt lat="45.96683" lon="4.59993">
        <ele>554</ele>
        <time>2016-06-02T08:44:03.036Z</time>
      </trkpt>
      <trkpt lat="45.96684" lon="4.59995">
        <ele>554</ele>
        <time>2016-06-02T08:44:04.02Z</time>
      </trkpt>
      <trkpt lat="45.96682" lon="4.60008">
        <ele>549</ele>
        <time>2016-06-02T08:44:12.015Z</time>
      </trkpt>
      <trkpt lat="45.96682" lon="4.60009">
        <ele>549</ele>
        <time>2016-06-02T08:44:13.009Z</time>
      </trkpt>
      <trkpt lat="45.96683" lon="4.60021">
        <ele>548</ele>
        <time>2016-06-02T08:44:20.023Z</time>
      </trkpt>
      <trkpt lat="45.96684" lon="4.60023">
        <ele>548</ele>
        <time>2016-06-02T08:44:21.024Z</time>
      </trkpt>
      <trkpt lat="45.96689" lon="4.60032">
        <ele>546</ele>
        <time>2016-06-02T08:44:25.012Z</time>
      </trkpt>
      <trkpt lat="45.96691" lon="4.60034">
        <ele>546</ele>
        <time>2016-06-02T08:44:26.023Z</time>
      </trkpt>
      <trkpt lat="45.96696" lon="4.60043">
        <ele>545</ele>
        <time>2016-06-02T08:44:31.009Z</time>
      </trkpt>
      <trkpt lat="45.96697" lon="4.60045">
        <ele>545</ele>
        <time>2016-06-02T08:44:32.016Z</time>
      </trkpt>
      <trkpt lat="45.96697" lon="4.60057">
        <ele>544</ele>
        <time>2016-06-02T08:44:39.006Z</time>
      </trkpt>
      <trkpt lat="45.96698" lon="4.60059">
        <ele>544</ele>
        <time>2016-06-02T08:44:40.018Z</time>
      </trkpt>
      <trkpt lat="45.967" lon="4.60072">
        <ele>544</ele>
        <time>2016-06-02T08:44:47.011Z</time>
      </trkpt>
      <trkpt lat="45.96701" lon="4.60074">
        <ele>543</ele>
        <time>2016-06-02T08:44:48.022Z</time>
      </trkpt>
      <trkpt lat="45.96701" lon="4.60086">
        <ele>538</ele>
        <time>2016-06-02T08:44:56.021Z</time>
      </trkpt>
      <trkpt lat="45.96701" lon="4.60088">
        <ele>538</ele>
        <time>2016-06-02T08:44:57.02Z</time>
      </trkpt>
      <trkpt lat="45.96694" lon="4.60097">
        <ele>538</ele>
        <time>2016-06-02T08:45:04.017Z</time>
      </trkpt>
      <trkpt lat="45.96693" lon="4.60098">
        <ele>538</ele>
        <time>2016-06-02T08:45:05.022Z</time>
      </trkpt>
      <trkpt lat="45.96691" lon="4.60109">
        <ele>537</ele>
        <time>2016-06-02T08:45:13.02Z</time>
      </trkpt>
      <trkpt lat="45.9669" lon="4.6011">
        <ele>537</ele>
        <time>2016-06-02T08:45:14.008Z</time>
      </trkpt>
      <trkpt lat="45.96684" lon="4.60117">
        <ele>537</ele>
        <time>2016-06-02T08:45:21.024Z</time>
      </trkpt>
      <trkpt lat="45.96683" lon="4.60117">
        <ele>537</ele>
        <time>2016-06-02T08:45:22.035Z</time>
      </trkpt>
      <trkpt lat="45.96674" lon="4.60117">
        <ele>537</ele>
        <time>2016-06-02T08:45:29.01Z</time>
      </trkpt>
      <trkpt lat="45.96673" lon="4.60117">
        <ele>537</ele>
        <time>2016-06-02T08:45:30.023Z</time>
      </trkpt>
      <trkpt lat="45.96665" lon="4.60116">
        <ele>535</ele>
        <time>2016-06-02T08:45:38.012Z</time>
      </trkpt>
      <trkpt lat="45.96664" lon="4.60115">
        <ele>535</ele>
        <time>2016-06-02T08:45:39.008Z</time>
      </trkpt>
      <trkpt lat="45.96656" lon="4.60119">
        <ele>535</ele>
        <time>2016-06-02T08:45:46.023Z</time>
      </trkpt>
      <trkpt lat="45.96656" lon="4.60121">
        <ele>535</ele>
        <time>2016-06-02T08:45:47.025Z</time>
      </trkpt>
      <trkpt lat="45.96654" lon="4.60132">
        <ele>534</ele>
        <time>2016-06-02T08:45:52.022Z</time>
      </trkpt>
      <trkpt lat="45.96654" lon="4.60134">
        <ele>534</ele>
        <time>2016-06-02T08:45:53.022Z</time>
      </trkpt>
      <trkpt lat="45.96655" lon="4.60145">
        <ele>534</ele>
        <time>2016-06-02T08:45:59.015Z</time>
      </trkpt>
      <trkpt lat="45.96655" lon="4.60147">
        <ele>534</ele>
        <time>2016-06-02T08:46:00.008Z</time>
      </trkpt>
      <trkpt lat="45.96656" lon="4.60158">
        <ele>534</ele>
        <time>2016-06-02T08:46:06.01Z</time>
      </trkpt>
      <trkpt lat="45.96656" lon="4.6016">
        <ele>534</ele>
        <time>2016-06-02T08:46:07.023Z</time>
      </trkpt>
      <trkpt lat="45.96657" lon="4.60171">
        <ele>532</ele>
        <time>2016-06-02T08:46:13.02Z</time>
      </trkpt>
      <trkpt lat="45.96657" lon="4.60173">
        <ele>532</ele>
        <time>2016-06-02T08:46:14.012Z</time>
      </trkpt>
      <trkpt lat="45.96657" lon="4.60186">
        <ele>531</ele>
        <time>2016-06-02T08:46:21.019Z</time>
      </trkpt>
      <trkpt lat="45.96657" lon="4.60188">
        <ele>531</ele>
        <time>2016-06-02T08:46:22.005Z</time>
      </trkpt>
      <trkpt lat="45.96658" lon="4.60199">
        <ele>530</ele>
        <time>2016-06-02T08:46:28.013Z</time>
      </trkpt>
      <trkpt lat="45.96658" lon="4.60201">
        <ele>530</ele>
        <time>2016-06-02T08:46:29.018Z</time>
      </trkpt>
      <trkpt lat="45.96658" lon="4.60212">
        <ele>530</ele>
        <time>2016-06-02T08:46:35.02Z</time>
      </trkpt>
      <trkpt lat="45.96658" lon="4.60214">
        <ele>530</ele>
        <time>2016-06-02T08:46:36.007Z</time>
      </trkpt>
      <trkpt lat="45.96659" lon="4.60225">
        <ele>530</ele>
        <time>2016-06-02T08:46:42.019Z</time>
      </trkpt>
      <trkpt lat="45.9666" lon="4.60227">
        <ele>530</ele>
        <time>2016-06-02T08:46:43.038Z</time>
      </trkpt>
      <trkpt lat="45.9666" lon="4.60238">
        <ele>530</ele>
        <time>2016-06-02T08:46:50.021Z</time>
      </trkpt>
      <trkpt lat="45.9666" lon="4.6024">
        <ele>530</ele>
        <time>2016-06-02T08:46:51.022Z</time>
      </trkpt>
      <trkpt lat="45.96657" lon="4.60252">
        <ele>528</ele>
        <time>2016-06-02T08:47:02.038Z</time>
      </trkpt>
      <trkpt lat="45.96657" lon="4.60253">
        <ele>528</ele>
        <time>2016-06-02T08:47:03.029Z</time>
      </trkpt>
      <trkpt lat="45.96649" lon="4.60257">
        <ele>527</ele>
        <time>2016-06-02T08:47:25.02Z</time>
      </trkpt>
      <trkpt lat="45.96648" lon="4.60257">
        <ele>527</ele>
        <time>2016-06-02T08:47:26.017Z</time>
      </trkpt>
      <trkpt lat="45.9664" lon="4.60259">
        <ele>526</ele>
        <time>2016-06-02T08:47:37.017Z</time>
      </trkpt>
      <trkpt lat="45.96639" lon="4.60259">
        <ele>526</ele>
        <time>2016-06-02T08:47:38.011Z</time>
      </trkpt>
      <trkpt lat="45.9663" lon="4.60259">
        <ele>525</ele>
        <time>2016-06-02T08:47:50.015Z</time>
      </trkpt>
      <trkpt lat="45.9663" lon="4.60259">
        <ele>525</ele>
        <time>2016-06-02T08:47:51.03Z</time>
      </trkpt>
      <trkpt lat="45.96621" lon="4.60261">
        <ele>525</ele>
        <time>2016-06-02T08:47:59.024Z</time>
      </trkpt>
      <trkpt lat="45.96621" lon="4.60262">
        <ele>525</ele>
        <time>2016-06-02T08:48:00.019Z</time>
      </trkpt>
      <trkpt lat="45.96614" lon="4.60263">
        <ele>525</ele>
        <time>2016-06-02T08:48:04.019Z</time>
      </trkpt>
      <trkpt lat="45.96611" lon="4.60263">
        <ele>525</ele>
        <time>2016-06-02T08:48:05.02Z</time>
      </trkpt>
      <trkpt lat="45.96605" lon="4.60266">
        <ele>524</ele>
        <time>2016-06-02T08:48:08.035Z</time>
      </trkpt>
      <trkpt lat="45.96603" lon="4.60268">
        <ele>524</ele>
        <time>2016-06-02T08:48:09.02Z</time>
      </trkpt>
      <trkpt lat="45.96597" lon="4.60277">
        <ele>524</ele>
        <time>2016-06-02T08:48:15.026Z</time>
      </trkpt>
      <trkpt lat="45.96597" lon="4.60279">
        <ele>524</ele>
        <time>2016-06-02T08:48:16.025Z</time>
      </trkpt>
      <trkpt lat="45.96595" lon="4.6029">
        <ele>523</ele>
        <time>2016-06-02T08:48:21.016Z</time>
      </trkpt>
      <trkpt lat="45.96595" lon="4.60291">
        <ele>523</ele>
        <time>2016-06-02T08:48:22.02Z</time>
      </trkpt>
      <trkpt lat="45.96597" lon="4.60303">
        <ele>523</ele>
        <time>2016-06-02T08:48:31.024Z</time>
      </trkpt>
      <trkpt lat="45.96598" lon="4.60305">
        <ele>523</ele>
        <time>2016-06-02T08:48:32.032Z</time>
      </trkpt>
      <trkpt lat="45.96599" lon="4.60316">
        <ele>522</ele>
        <time>2016-06-02T08:48:37.018Z</time>
      </trkpt>
      <trkpt lat="45.966" lon="4.60319">
        <ele>522</ele>
        <time>2016-06-02T08:48:38.015Z</time>
      </trkpt>
      <trkpt lat="45.96603" lon="4.6033">
        <ele>522</ele>
        <time>2016-06-02T08:48:44.023Z</time>
      </trkpt>
      <trkpt lat="45.96603" lon="4.60331">
        <ele>522</ele>
        <time>2016-06-02T08:48:45.029Z</time>
      </trkpt>
      <trkpt lat="45.96606" lon="4.60343">
        <ele>516</ele>
        <time>2016-06-02T08:48:51.023Z</time>
      </trkpt>
      <trkpt lat="45.96606" lon="4.60344">
        <ele>516</ele>
        <time>2016-06-02T08:48:52.019Z</time>
      </trkpt>
      <trkpt lat="45.96612" lon="4.60352">
        <ele>515</ele>
        <time>2016-06-02T08:49:01.023Z</time>
      </trkpt>
      <trkpt lat="45.96613" lon="4.60353">
        <ele>515</ele>
        <time>2016-06-02T08:49:02.019Z</time>
      </trkpt>
      <trkpt lat="45.96621" lon="4.60356">
        <ele>515</ele>
        <time>2016-06-02T08:49:11.022Z</time>
      </trkpt>
      <trkpt lat="45.96622" lon="4.60357">
        <ele>515</ele>
        <time>2016-06-02T08:49:12.025Z</time>
      </trkpt>
      <trkpt lat="45.9663" lon="4.60358">
        <ele>515</ele>
        <time>2016-06-02T08:49:18.014Z</time>
      </trkpt>
      <trkpt lat="45.96632" lon="4.60358">
        <ele>515</ele>
        <time>2016-06-02T08:49:19.014Z</time>
      </trkpt>
      <trkpt lat="45.96639" lon="4.6036">
        <ele>515</ele>
        <time>2016-06-02T08:49:25.012Z</time>
      </trkpt>
      <trkpt lat="45.96641" lon="4.60361">
        <ele>515</ele>
        <time>2016-06-02T08:49:26.015Z</time>
      </trkpt>
      <trkpt lat="45.96649" lon="4.60364">
        <ele>515</ele>
        <time>2016-06-02T08:49:32.015Z</time>
      </trkpt>
      <trkpt lat="45.9665" lon="4.60365">
        <ele>515</ele>
        <time>2016-06-02T08:49:33.02Z</time>
      </trkpt>
      <trkpt lat="45.96659" lon="4.60367">
        <ele>515</ele>
        <time>2016-06-02T08:49:40.02Z</time>
      </trkpt>
      <trkpt lat="45.9666" lon="4.60367">
        <ele>515</ele>
        <time>2016-06-02T08:49:41.007Z</time>
      </trkpt>
      <trkpt lat="45.96668" lon="4.60363">
        <ele>511</ele>
        <time>2016-06-02T08:49:48.019Z</time>
      </trkpt>
      <trkpt lat="45.96669" lon="4.60364">
        <ele>511</ele>
        <time>2016-06-02T08:49:49.024Z</time>
      </trkpt>
      <trkpt lat="45.96677" lon="4.60359">
        <ele>512</ele>
        <time>2016-06-02T08:49:58.018Z</time>
      </trkpt>
      <trkpt lat="45.96678" lon="4.60358">
        <ele>512</ele>
        <time>2016-06-02T08:49:59.019Z</time>
      </trkpt>
      <trkpt lat="45.96685" lon="4.60357">
        <ele>511</ele>
        <time>2016-06-02T08:50:05.026Z</time>
      </trkpt>
      <trkpt lat="45.96687" lon="4.60357">
        <ele>511</ele>
        <time>2016-06-02T08:50:06.019Z</time>
      </trkpt>
      <trkpt lat="45.96695" lon="4.60356">
        <ele>510</ele>
        <time>2016-06-02T08:50:11.012Z</time>
      </trkpt>
      <trkpt lat="45.96696" lon="4.60356">
        <ele>510</ele>
        <time>2016-06-02T08:50:12.015Z</time>
      </trkpt>
      <trkpt lat="45.96705" lon="4.60355">
        <ele>509</ele>
        <time>2016-06-02T08:50:18.02Z</time>
      </trkpt>
      <trkpt lat="45.96707" lon="4.60355">
        <ele>509</ele>
        <time>2016-06-02T08:50:19.018Z</time>
      </trkpt>
      <trkpt lat="45.96714" lon="4.60349">
        <ele>509</ele>
        <time>2016-06-02T08:50:24.016Z</time>
      </trkpt>
      <trkpt lat="45.96715" lon="4.60348">
        <ele>509</ele>
        <time>2016-06-02T08:50:25.025Z</time>
      </trkpt>
      <trkpt lat="45.96708" lon="4.60354">
        <ele>509</ele>
        <time>2016-06-02T08:50:48.033Z</time>
      </trkpt>
      <trkpt lat="45.96707" lon="4.60355">
        <ele>509</ele>
        <time>2016-06-02T08:50:49.026Z</time>
      </trkpt>
      <trkpt lat="45.96701" lon="4.60364">
        <ele>509</ele>
        <time>2016-06-02T08:50:58.029Z</time>
      </trkpt>
      <trkpt lat="45.967" lon="4.60365">
        <ele>509</ele>
        <time>2016-06-02T08:50:59.029Z</time>
      </trkpt>
      <trkpt lat="45.96698" lon="4.60377">
        <ele>507</ele>
        <time>2016-06-02T08:51:06.02Z</time>
      </trkpt>
      <trkpt lat="45.96697" lon="4.60379">
        <ele>507</ele>
        <time>2016-06-02T08:51:07.011Z</time>
      </trkpt>
      <trkpt lat="45.96692" lon="4.60388">
        <ele>507</ele>
        <time>2016-06-02T08:51:17.021Z</time>
      </trkpt>
      <trkpt lat="45.96692" lon="4.60391">
        <ele>506</ele>
        <time>2016-06-02T08:51:18.017Z</time>
      </trkpt>
      <trkpt lat="45.96688" lon="4.604">
        <ele>506</ele>
        <time>2016-06-02T08:51:24.028Z</time>
      </trkpt>
      <trkpt lat="45.96687" lon="4.60401">
        <ele>506</ele>
        <time>2016-06-02T08:51:25.018Z</time>
      </trkpt>
      <trkpt lat="45.96683" lon="4.60412">
        <ele>506</ele>
        <time>2016-06-02T08:51:31.032Z</time>
      </trkpt>
      <trkpt lat="45.96684" lon="4.60415">
        <ele>506</ele>
        <time>2016-06-02T08:51:32.023Z</time>
      </trkpt>
      <trkpt lat="45.96682" lon="4.60426">
        <ele>496</ele>
        <time>2016-06-02T08:51:38.027Z</time>
      </trkpt>
      <trkpt lat="45.96681" lon="4.60428">
        <ele>495</ele>
        <time>2016-06-02T08:51:39.015Z</time>
      </trkpt>
      <trkpt lat="45.96675" lon="4.60437">
        <ele>494</ele>
        <time>2016-06-02T08:51:47.009Z</time>
      </trkpt>
      <trkpt lat="45.96674" lon="4.60439">
        <ele>493</ele>
        <time>2016-06-02T08:51:48.015Z</time>
      </trkpt>
      <trkpt lat="45.9667" lon="4.6045">
        <ele>491</ele>
        <time>2016-06-02T08:51:55.024Z</time>
      </trkpt>
      <trkpt lat="45.96669" lon="4.60452">
        <ele>490</ele>
        <time>2016-06-02T08:51:56.032Z</time>
      </trkpt>
      <trkpt lat="45.96663" lon="4.60461">
        <ele>494</ele>
        <time>2016-06-02T08:52:03.037Z</time>
      </trkpt>
      <trkpt lat="45.96663" lon="4.60463">
        <ele>493</ele>
        <time>2016-06-02T08:52:04.021Z</time>
      </trkpt>
      <trkpt lat="45.96657" lon="4.60471">
        <ele>492</ele>
        <time>2016-06-02T08:52:20.017Z</time>
      </trkpt>
      <trkpt lat="45.96656" lon="4.60472">
        <ele>492</ele>
        <time>2016-06-02T08:52:21.026Z</time>
      </trkpt>
      <trkpt lat="45.96649" lon="4.60478">
        <ele>491</ele>
        <time>2016-06-02T08:52:29.012Z</time>
      </trkpt>
      <trkpt lat="45.96648" lon="4.60479">
        <ele>491</ele>
        <time>2016-06-02T08:52:30.019Z</time>
      </trkpt>
      <trkpt lat="45.96645" lon="4.60491">
        <ele>489</ele>
        <time>2016-06-02T08:52:41.019Z</time>
      </trkpt>
      <trkpt lat="45.96645" lon="4.60491">
        <ele>489</ele>
        <time>2016-06-02T08:52:42.021Z</time>
      </trkpt>
      <trkpt lat="45.96637" lon="4.60497">
        <ele>489</ele>
        <time>2016-06-02T08:52:57.02Z</time>
      </trkpt>
      <trkpt lat="45.96637" lon="4.60498">
        <ele>489</ele>
        <time>2016-06-02T08:52:58.029Z</time>
      </trkpt>
      <trkpt lat="45.96631" lon="4.60507">
        <ele>475</ele>
        <time>2016-06-02T08:53:22.024Z</time>
      </trkpt>
      <trkpt lat="45.9663" lon="4.60507">
        <ele>475</ele>
        <time>2016-06-02T08:53:23.02Z</time>
      </trkpt>
      <trkpt lat="45.96622" lon="4.60509">
        <ele>475</ele>
        <time>2016-06-02T08:53:40.023Z</time>
      </trkpt>
      <trkpt lat="45.96621" lon="4.60509">
        <ele>475</ele>
        <time>2016-06-02T08:53:41.021Z</time>
      </trkpt>
      <trkpt lat="45.96613" lon="4.6051">
        <ele>475</ele>
        <time>2016-06-02T08:53:49.01Z</time>
      </trkpt>
      <trkpt lat="45.96612" lon="4.60511">
        <ele>475</ele>
        <time>2016-06-02T08:53:50.01Z</time>
      </trkpt>
      <trkpt lat="45.96604" lon="4.60508">
        <ele>476</ele>
        <time>2016-06-02T08:53:58.006Z</time>
      </trkpt>
      <trkpt lat="45.96602" lon="4.60508">
        <ele>476</ele>
        <time>2016-06-02T08:53:59.003Z</time>
      </trkpt>
      <trkpt lat="45.96594" lon="4.60504">
        <ele>478</ele>
        <time>2016-06-02T08:54:07.024Z</time>
      </trkpt>
      <trkpt lat="45.96593" lon="4.60503">
        <ele>478</ele>
        <time>2016-06-02T08:54:08.034Z</time>
      </trkpt>
      <trkpt lat="45.96586" lon="4.60498">
        <ele>482</ele>
        <time>2016-06-02T08:54:17.022Z</time>
      </trkpt>
      <trkpt lat="45.96584" lon="4.60498">
        <ele>482</ele>
        <time>2016-06-02T08:54:18.019Z</time>
      </trkpt>
      <trkpt lat="45.96577" lon="4.60491">
        <ele>481</ele>
        <time>2016-06-02T08:54:28.049Z</time>
      </trkpt>
      <trkpt lat="45.96577" lon="4.6049">
        <ele>481</ele>
        <time>2016-06-02T08:54:29.011Z</time>
      </trkpt>
      <trkpt lat="45.9657" lon="4.60481">
        <ele>481</ele>
        <time>2016-06-02T08:54:35.031Z</time>
      </trkpt>
      <trkpt lat="45.96569" lon="4.6048">
        <ele>481</ele>
        <time>2016-06-02T08:54:36.024Z</time>
      </trkpt>
      <trkpt lat="45.96562" lon="4.60472">
        <ele>481</ele>
        <time>2016-06-02T08:54:43.021Z</time>
      </trkpt>
      <trkpt lat="45.96562" lon="4.6047">
        <ele>481</ele>
        <time>2016-06-02T08:54:44.025Z</time>
      </trkpt>
      <trkpt lat="45.96555" lon="4.60463">
        <ele>481</ele>
        <time>2016-06-02T08:54:51.019Z</time>
      </trkpt>
      <trkpt lat="45.96554" lon="4.60462">
        <ele>481</ele>
        <time>2016-06-02T08:54:52.028Z</time>
      </trkpt>
      <trkpt lat="45.96546" lon="4.60458">
        <ele>480</ele>
        <time>2016-06-02T08:54:58.022Z</time>
      </trkpt>
      <trkpt lat="45.96545" lon="4.60457">
        <ele>480</ele>
        <time>2016-06-02T08:54:59.022Z</time>
      </trkpt>
      <trkpt lat="45.96537" lon="4.6045">
        <ele>480</ele>
        <time>2016-06-02T08:55:05.021Z</time>
      </trkpt>
      <trkpt lat="45.96536" lon="4.60449">
        <ele>480</ele>
        <time>2016-06-02T08:55:06.022Z</time>
      </trkpt>
      <trkpt lat="45.96528" lon="4.60444">
        <ele>479</ele>
        <time>2016-06-02T08:55:13.014Z</time>
      </trkpt>
      <trkpt lat="45.96528" lon="4.60443">
        <ele>479</ele>
        <time>2016-06-02T08:55:14.02Z</time>
      </trkpt>
      <trkpt lat="45.96521" lon="4.60435">
        <ele>479</ele>
        <time>2016-06-02T08:55:21.031Z</time>
      </trkpt>
      <trkpt lat="45.96521" lon="4.60434">
        <ele>479</ele>
        <time>2016-06-02T08:55:22.019Z</time>
      </trkpt>
      <trkpt lat="45.96516" lon="4.60424">
        <ele>478</ele>
        <time>2016-06-02T08:55:28.022Z</time>
      </trkpt>
      <trkpt lat="45.96515" lon="4.60422">
        <ele>478</ele>
        <time>2016-06-02T08:55:29.034Z</time>
      </trkpt>
      <trkpt lat="45.96511" lon="4.60413">
        <ele>484</ele>
        <time>2016-06-02T08:55:34.034Z</time>
      </trkpt>
      <trkpt lat="45.9651" lon="4.60411">
        <ele>484</ele>
        <time>2016-06-02T08:55:35.036Z</time>
      </trkpt>
      <trkpt lat="45.96506" lon="4.60402">
        <ele>486</ele>
        <time>2016-06-02T08:55:41.015Z</time>
      </trkpt>
      <trkpt lat="45.96506" lon="4.604">
        <ele>486</ele>
        <time>2016-06-02T08:55:42.02Z</time>
      </trkpt>
      <trkpt lat="45.965" lon="4.60389">
        <ele>489</ele>
        <time>2016-06-02T08:55:51.004Z</time>
      </trkpt>
      <trkpt lat="45.96499" lon="4.60389">
        <ele>471</ele>
        <time>2016-06-02T08:55:52.007Z</time>
      </trkpt>
      <trkpt lat="45.96493" lon="4.60381">
        <ele>470</ele>
        <time>2016-06-02T08:56:02.018Z</time>
      </trkpt>
      <trkpt lat="45.96492" lon="4.6038">
        <ele>470</ele>
        <time>2016-06-02T08:56:03.025Z</time>
      </trkpt>
      <trkpt lat="45.96483" lon="4.60379">
        <ele>469</ele>
        <time>2016-06-02T08:56:12.027Z</time>
      </trkpt>
      <trkpt lat="45.96482" lon="4.60379">
        <ele>469</ele>
        <time>2016-06-02T08:56:13.021Z</time>
      </trkpt>
      <trkpt lat="45.96475" lon="4.60371">
        <ele>468</ele>
        <time>2016-06-02T08:56:20.026Z</time>
      </trkpt>
      <trkpt lat="45.96474" lon="4.6037">
        <ele>468</ele>
        <time>2016-06-02T08:56:21.021Z</time>
      </trkpt>
      <trkpt lat="45.96468" lon="4.60361">
        <ele>468</ele>
        <time>2016-06-02T08:56:26.023Z</time>
      </trkpt>
      <trkpt lat="45.96467" lon="4.60359">
        <ele>468</ele>
        <time>2016-06-02T08:56:27.028Z</time>
      </trkpt>
      <trkpt lat="45.96463" lon="4.60349">
        <ele>468</ele>
        <time>2016-06-02T08:56:37.011Z</time>
      </trkpt>
      <trkpt lat="45.96462" lon="4.60347">
        <ele>468</ele>
        <time>2016-06-02T08:56:38.023Z</time>
      </trkpt>
      <trkpt lat="45.96461" lon="4.60336">
        <ele>468</ele>
        <time>2016-06-02T08:56:44.024Z</time>
      </trkpt>
      <trkpt lat="45.9646" lon="4.60333">
        <ele>468</ele>
        <time>2016-06-02T08:56:45.023Z</time>
      </trkpt>
      <trkpt lat="45.96458" lon="4.60323">
        <ele>475</ele>
        <time>2016-06-02T08:56:50.01Z</time>
      </trkpt>
      <trkpt lat="45.96456" lon="4.6032">
        <ele>474</ele>
        <time>2016-06-02T08:56:51.007Z</time>
      </trkpt>
      <trkpt lat="45.96451" lon="4.60309">
        <ele>474</ele>
        <time>2016-06-02T08:56:58.021Z</time>
      </trkpt>
      <trkpt lat="45.96451" lon="4.60308">
        <ele>474</ele>
        <time>2016-06-02T08:56:59.019Z</time>
      </trkpt>
      <trkpt lat="45.96446" lon="4.60298">
        <ele>474</ele>
        <time>2016-06-02T08:57:13.013Z</time>
      </trkpt>
      <trkpt lat="45.96446" lon="4.60296">
        <ele>474</ele>
        <time>2016-06-02T08:57:14.019Z</time>
      </trkpt>
      <trkpt lat="45.96442" lon="4.60285">
        <ele>474</ele>
        <time>2016-06-02T08:57:39.028Z</time>
      </trkpt>
      <trkpt lat="45.96442" lon="4.60285">
        <ele>474</ele>
        <time>2016-06-02T08:57:40.037Z</time>
      </trkpt>
      <trkpt lat="45.96434" lon="4.60286">
        <ele>473</ele>
        <time>2016-06-02T08:58:00.021Z</time>
      </trkpt>
      <trkpt lat="45.96433" lon="4.60286">
        <ele>473</ele>
        <time>2016-06-02T08:58:01.019Z</time>
      </trkpt>
      <trkpt lat="45.96425" lon="4.6028">
        <ele>472</ele>
        <time>2016-06-02T08:58:09.026Z</time>
      </trkpt>
      <trkpt lat="45.96424" lon="4.6028">
        <ele>472</ele>
        <time>2016-06-02T08:58:10.019Z</time>
      </trkpt>
      <trkpt lat="45.96416" lon="4.60277">
        <ele>463</ele>
        <time>2016-06-02T08:58:19.02Z</time>
      </trkpt>
      <trkpt lat="45.96416" lon="4.60277">
        <ele>463</ele>
        <time>2016-06-02T08:58:20.023Z</time>
      </trkpt>
      <trkpt lat="45.96407" lon="4.60273">
        <ele>463</ele>
        <time>2016-06-02T08:58:30.027Z</time>
      </trkpt>
      <trkpt lat="45.96406" lon="4.60273">
        <ele>463</ele>
        <time>2016-06-02T08:58:31.022Z</time>
      </trkpt>
      <trkpt lat="45.96398" lon="4.60275">
        <ele>462</ele>
        <time>2016-06-02T08:58:43.034Z</time>
      </trkpt>
      <trkpt lat="45.96397" lon="4.60275">
        <ele>462</ele>
        <time>2016-06-02T08:58:44.033Z</time>
      </trkpt>
      <trkpt lat="45.96389" lon="4.60274">
        <ele>462</ele>
        <time>2016-06-02T08:58:51.015Z</time>
      </trkpt>
      <trkpt lat="45.96387" lon="4.60273">
        <ele>462</ele>
        <time>2016-06-02T08:58:52.028Z</time>
      </trkpt>
      <trkpt lat="45.96379" lon="4.60276">
        <ele>462</ele>
        <time>2016-06-02T08:59:03.016Z</time>
      </trkpt>
      <trkpt lat="45.96378" lon="4.60276">
        <ele>462</ele>
        <time>2016-06-02T08:59:04.014Z</time>
      </trkpt>
      <trkpt lat="45.9637" lon="4.60279">
        <ele>461</ele>
        <time>2016-06-02T08:59:11.026Z</time>
      </trkpt>
      <trkpt lat="45.96369" lon="4.60279">
        <ele>461</ele>
        <time>2016-06-02T08:59:12.028Z</time>
      </trkpt>
      <trkpt lat="45.96361" lon="4.60283">
        <ele>461</ele>
        <time>2016-06-02T08:59:20.025Z</time>
      </trkpt>
      <trkpt lat="45.9636" lon="4.60283">
        <ele>461</ele>
        <time>2016-06-02T08:59:21.025Z</time>
      </trkpt>
      <trkpt lat="45.96353" lon="4.60279">
        <ele>461</ele>
        <time>2016-06-02T08:59:28.013Z</time>
      </trkpt>
      <trkpt lat="45.9635" lon="4.60279">
        <ele>461</ele>
        <time>2016-06-02T08:59:29.019Z</time>
      </trkpt>
      <trkpt lat="45.96343" lon="4.60282">
        <ele>461</ele>
        <time>2016-06-02T08:59:33.024Z</time>
      </trkpt>
      <trkpt lat="45.96341" lon="4.60283">
        <ele>461</ele>
        <time>2016-06-02T08:59:34.01Z</time>
      </trkpt>
      <trkpt lat="45.96333" lon="4.60287">
        <ele>456</ele>
        <time>2016-06-02T08:59:39.018Z</time>
      </trkpt>
      <trkpt lat="45.9633" lon="4.60288">
        <ele>456</ele>
        <time>2016-06-02T08:59:40.014Z</time>
      </trkpt>
      <trkpt lat="45.96322" lon="4.60289">
        <ele>455</ele>
        <time>2016-06-02T08:59:44.006Z</time>
      </trkpt>
      <trkpt lat="45.9632" lon="4.60288">
        <ele>455</ele>
        <time>2016-06-02T08:59:45.027Z</time>
      </trkpt>
      <trkpt lat="45.96311" lon="4.60293">
        <ele>454</ele>
        <time>2016-06-02T08:59:51.028Z</time>
      </trkpt>
      <trkpt lat="45.96311" lon="4.60294">
        <ele>454</ele>
        <time>2016-06-02T08:59:52.024Z</time>
      </trkpt>
      <trkpt lat="45.96305" lon="4.60303">
        <ele>453</ele>
        <time>2016-06-02T09:00:05.011Z</time>
      </trkpt>
      <trkpt lat="45.96304" lon="4.60304">
        <ele>453</ele>
        <time>2016-06-02T09:00:06.01Z</time>
      </trkpt>
      <trkpt lat="45.96296" lon="4.6031">
        <ele>452</ele>
        <time>2016-06-02T09:00:24.016Z</time>
      </trkpt>
      <trkpt lat="45.96296" lon="4.60309">
        <ele>452</ele>
        <time>2016-06-02T09:00:25.019Z</time>
      </trkpt>
      <trkpt lat="45.96288" lon="4.6031">
        <ele>451</ele>
        <time>2016-06-02T09:00:33.012Z</time>
      </trkpt>
      <trkpt lat="45.96286" lon="4.60311">
        <ele>451</ele>
        <time>2016-06-02T09:00:34.026Z</time>
      </trkpt>
      <trkpt lat="45.96278" lon="4.60308">
        <ele>450</ele>
        <time>2016-06-02T09:00:42.02Z</time>
      </trkpt>
      <trkpt lat="45.96277" lon="4.60307">
        <ele>450</ele>
        <time>2016-06-02T09:00:43.022Z</time>
      </trkpt>
      <trkpt lat="45.96269" lon="4.60301">
        <ele>451</ele>
        <time>2016-06-02T09:00:53.024Z</time>
      </trkpt>
      <trkpt lat="45.96269" lon="4.603">
        <ele>451</ele>
        <time>2016-06-02T09:00:54.018Z</time>
      </trkpt>
      <trkpt lat="45.96261" lon="4.60297">
        <ele>451</ele>
        <time>2016-06-02T09:01:02.019Z</time>
      </trkpt>
      <trkpt lat="45.9626" lon="4.60295">
        <ele>451</ele>
        <time>2016-06-02T09:01:03.029Z</time>
      </trkpt>
      <trkpt lat="45.96252" lon="4.60296">
        <ele>451</ele>
        <time>2016-06-02T09:01:15.02Z</time>
      </trkpt>
      <trkpt lat="45.9625" lon="4.60294">
        <ele>451</ele>
        <time>2016-06-02T09:01:16.018Z</time>
      </trkpt>
      <trkpt lat="45.96242" lon="4.60295">
        <ele>445</ele>
        <time>2016-06-02T09:01:25.014Z</time>
      </trkpt>
      <trkpt lat="45.96241" lon="4.60294">
        <ele>445</ele>
        <time>2016-06-02T09:01:26.029Z</time>
      </trkpt>
      <trkpt lat="45.96232" lon="4.60295">
        <ele>445</ele>
        <time>2016-06-02T09:01:34.02Z</time>
      </trkpt>
      <trkpt lat="45.96231" lon="4.60297">
        <ele>445</ele>
        <time>2016-06-02T09:01:35.019Z</time>
      </trkpt>
      <trkpt lat="45.96223" lon="4.60303">
        <ele>444</ele>
        <time>2016-06-02T09:01:45.012Z</time>
      </trkpt>
      <trkpt lat="45.96222" lon="4.60303">
        <ele>444</ele>
        <time>2016-06-02T09:01:46.018Z</time>
      </trkpt>
      <trkpt lat="45.96214" lon="4.60307">
        <ele>443</ele>
        <time>2016-06-02T09:01:55.027Z</time>
      </trkpt>
      <trkpt lat="45.96213" lon="4.60308">
        <ele>443</ele>
        <time>2016-06-02T09:01:56.024Z</time>
      </trkpt>
      <trkpt lat="45.96212" lon="4.6032">
        <ele>442</ele>
        <time>2016-06-02T09:02:13.016Z</time>
      </trkpt>
      <trkpt lat="45.96211" lon="4.60322">
        <ele>442</ele>
        <time>2016-06-02T09:02:14.011Z</time>
      </trkpt>
      <trkpt lat="45.9621" lon="4.60334">
        <ele>432</ele>
        <time>2016-06-02T09:02:25.018Z</time>
      </trkpt>
      <trkpt lat="45.9621" lon="4.60335">
        <ele>432</ele>
        <time>2016-06-02T09:02:26.024Z</time>
      </trkpt>
      <trkpt lat="45.9621" lon="4.60348">
        <ele>432</ele>
        <time>2016-06-02T09:04:07.026Z</time>
      </trkpt>
      <trkpt lat="45.9621" lon="4.60349">
        <ele>432</ele>
        <time>2016-06-02T09:04:08.019Z</time>
      </trkpt>
      <trkpt lat="45.96204" lon="4.60357">
        <ele>431</ele>
        <time>2016-06-02T09:06:28.024Z</time>
      </trkpt>
      <trkpt lat="45.96203" lon="4.60358">
        <ele>431</ele>
        <time>2016-06-02T09:06:29.023Z</time>
      </trkpt>
      <trkpt lat="45.96199" lon="4.60369">
        <ele>430</ele>
        <time>2016-06-02T09:06:36.034Z</time>
      </trkpt>
      <trkpt lat="45.96199" lon="4.60371">
        <ele>430</ele>
        <time>2016-06-02T09:06:37.036Z</time>
      </trkpt>
      <trkpt lat="45.96194" lon="4.60381">
        <ele>429</ele>
        <time>2016-06-02T09:06:44.034Z</time>
      </trkpt>
      <trkpt lat="45.96193" lon="4.60383">
        <ele>429</ele>
        <time>2016-06-02T09:06:45.023Z</time>
      </trkpt>
      <trkpt lat="45.96189" lon="4.60393">
        <ele>429</ele>
        <time>2016-06-02T09:06:52.018Z</time>
      </trkpt>
      <trkpt lat="45.96188" lon="4.60394">
        <ele>429</ele>
        <time>2016-06-02T09:06:53.032Z</time>
      </trkpt>
      <trkpt lat="45.96184" lon="4.60404">
        <ele>428</ele>
        <time>2016-06-02T09:07:01.032Z</time>
      </trkpt>
      <trkpt lat="45.96184" lon="4.60406">
        <ele>428</ele>
        <time>2016-06-02T09:07:02.009Z</time>
      </trkpt>
      <trkpt lat="45.96181" lon="4.60417">
        <ele>423</ele>
        <time>2016-06-02T09:07:09.011Z</time>
      </trkpt>
      <trkpt lat="45.96181" lon="4.60418">
        <ele>423</ele>
        <time>2016-06-02T09:07:10.013Z</time>
      </trkpt>
      <trkpt lat="45.96177" lon="4.6043">
        <ele>423</ele>
        <time>2016-06-02T09:07:17.024Z</time>
      </trkpt>
      <trkpt lat="45.96176" lon="4.60431">
        <ele>423</ele>
        <time>2016-06-02T09:07:18.009Z</time>
      </trkpt>
      <trkpt lat="45.96172" lon="4.60442">
        <ele>422</ele>
        <time>2016-06-02T09:07:25.038Z</time>
      </trkpt>
      <trkpt lat="45.96171" lon="4.60443">
        <ele>422</ele>
        <time>2016-06-02T09:07:26.038Z</time>
      </trkpt>
      <trkpt lat="45.96166" lon="4.60451">
        <ele>429</ele>
        <time>2016-06-02T09:07:32.024Z</time>
      </trkpt>
      <trkpt lat="45.96164" lon="4.60453">
        <ele>429</ele>
        <time>2016-06-02T09:07:33.01Z</time>
      </trkpt>
      <trkpt lat="45.96159" lon="4.60461">
        <ele>429</ele>
        <time>2016-06-02T09:07:38.038Z</time>
      </trkpt>
      <trkpt lat="45.96158" lon="4.60463">
        <ele>429</ele>
        <time>2016-06-02T09:07:39.032Z</time>
      </trkpt>
      <trkpt lat="45.96152" lon="4.60472">
        <ele>429</ele>
        <time>2016-06-02T09:07:45.023Z</time>
      </trkpt>
      <trkpt lat="45.96152" lon="4.60474">
        <ele>428</ele>
        <time>2016-06-02T09:07:46.02Z</time>
      </trkpt>
      <trkpt lat="45.96148" lon="4.60485">
        <ele>428</ele>
        <time>2016-06-02T09:07:51.999Z</time>
      </trkpt>
      <trkpt lat="45.96148" lon="4.60487">
        <ele>427</ele>
        <time>2016-06-02T09:07:53.013Z</time>
      </trkpt>
      <trkpt lat="45.96147" lon="4.605">
        <ele>427</ele>
        <time>2016-06-02T09:07:59.013Z</time>
      </trkpt>
      <trkpt lat="45.96147" lon="4.60502">
        <ele>424</ele>
        <time>2016-06-02T09:08:00.011Z</time>
      </trkpt>
      <trkpt lat="45.96146" lon="4.60513">
        <ele>425</ele>
        <time>2016-06-02T09:08:06.017Z</time>
      </trkpt>
      <trkpt lat="45.96146" lon="4.60515">
        <ele>425</ele>
        <time>2016-06-02T09:08:07Z</time>
      </trkpt>
      <trkpt lat="45.96145" lon="4.60527">
        <ele>425</ele>
        <time>2016-06-02T09:08:14.019Z</time>
      </trkpt>
      <trkpt lat="45.96145" lon="4.60529">
        <ele>425</ele>
        <time>2016-06-02T09:08:15.019Z</time>
      </trkpt>
      <trkpt lat="45.96143" lon="4.6054">
        <ele>425</ele>
        <time>2016-06-02T09:08:21.023Z</time>
      </trkpt>
      <trkpt lat="45.96142" lon="4.60541">
        <ele>425</ele>
        <time>2016-06-02T09:08:22.04Z</time>
      </trkpt>
      <trkpt lat="45.96138" lon="4.60552">
        <ele>425</ele>
        <time>2016-06-02T09:08:29.017Z</time>
      </trkpt>
      <trkpt lat="45.96138" lon="4.60553">
        <ele>425</ele>
        <time>2016-06-02T09:08:30.014Z</time>
      </trkpt>
      <trkpt lat="45.96133" lon="4.60564">
        <ele>425</ele>
        <time>2016-06-02T09:08:37.031Z</time>
      </trkpt>
      <trkpt lat="45.96132" lon="4.60565">
        <ele>425</ele>
        <time>2016-06-02T09:08:38.038Z</time>
      </trkpt>
      <trkpt lat="45.96128" lon="4.60576">
        <ele>425</ele>
        <time>2016-06-02T09:08:44.004Z</time>
      </trkpt>
      <trkpt lat="45.96128" lon="4.60578">
        <ele>425</ele>
        <time>2016-06-02T09:08:45.017Z</time>
      </trkpt>
      <trkpt lat="45.96123" lon="4.60588">
        <ele>423</ele>
        <time>2016-06-02T09:08:52.038Z</time>
      </trkpt>
      <trkpt lat="45.96122" lon="4.60589">
        <ele>423</ele>
        <time>2016-06-02T09:08:53.03Z</time>
      </trkpt>
      <trkpt lat="45.96119" lon="4.60601">
        <ele>423</ele>
        <time>2016-06-02T09:09:01.04Z</time>
      </trkpt>
      <trkpt lat="45.96118" lon="4.60602">
        <ele>423</ele>
        <time>2016-06-02T09:09:02.032Z</time>
      </trkpt>
      <trkpt lat="45.96112" lon="4.60612">
        <ele>423</ele>
        <time>2016-06-02T09:09:08.022Z</time>
      </trkpt>
      <trkpt lat="45.96112" lon="4.60614">
        <ele>423</ele>
        <time>2016-06-02T09:09:09.007Z</time>
      </trkpt>
      <trkpt lat="45.96107" lon="4.60622">
        <ele>423</ele>
        <time>2016-06-02T09:09:14.02Z</time>
      </trkpt>
      <trkpt lat="45.96106" lon="4.60624">
        <ele>423</ele>
        <time>2016-06-02T09:09:15.013Z</time>
      </trkpt>
      <trkpt lat="45.96101" lon="4.60632">
        <ele>423</ele>
        <time>2016-06-02T09:09:20.019Z</time>
      </trkpt>
      <trkpt lat="45.96099" lon="4.60634">
        <ele>423</ele>
        <time>2016-06-02T09:09:21.018Z</time>
      </trkpt>
      <trkpt lat="45.96094" lon="4.60644">
        <ele>423</ele>
        <time>2016-06-02T09:09:27.011Z</time>
      </trkpt>
      <trkpt lat="45.96093" lon="4.60646">
        <ele>423</ele>
        <time>2016-06-02T09:09:28.017Z</time>
      </trkpt>
      <trkpt lat="45.96089" lon="4.60655">
        <ele>423</ele>
        <time>2016-06-02T09:09:33.019Z</time>
      </trkpt>
      <trkpt lat="45.96088" lon="4.60657">
        <ele>423</ele>
        <time>2016-06-02T09:09:34.018Z</time>
      </trkpt>
      <trkpt lat="45.96084" lon="4.60666">
        <ele>423</ele>
        <time>2016-06-02T09:09:39.031Z</time>
      </trkpt>
      <trkpt lat="45.96083" lon="4.60668">
        <ele>423</ele>
        <time>2016-06-02T09:09:40.021Z</time>
      </trkpt>
      <trkpt lat="45.96078" lon="4.60677">
        <ele>426</ele>
        <time>2016-06-02T09:09:45.015Z</time>
      </trkpt>
      <trkpt lat="45.96077" lon="4.60679">
        <ele>426</ele>
        <time>2016-06-02T09:09:46.005Z</time>
      </trkpt>
      <trkpt lat="45.96071" lon="4.60686">
        <ele>427</ele>
        <time>2016-06-02T09:09:51.02Z</time>
      </trkpt>
      <trkpt lat="45.9607" lon="4.60687">
        <ele>427</ele>
        <time>2016-06-02T09:09:52.02Z</time>
      </trkpt>
      <trkpt lat="45.96064" lon="4.60695">
        <ele>428</ele>
        <time>2016-06-02T09:09:57.024Z</time>
      </trkpt>
      <trkpt lat="45.96063" lon="4.60697">
        <ele>428</ele>
        <time>2016-06-02T09:09:58.021Z</time>
      </trkpt>
      <trkpt lat="45.96057" lon="4.60706">
        <ele>429</ele>
        <time>2016-06-02T09:10:05.017Z</time>
      </trkpt>
      <trkpt lat="45.96057" lon="4.60708">
        <ele>429</ele>
        <time>2016-06-02T09:10:06.015Z</time>
      </trkpt>
      <trkpt lat="45.96051" lon="4.60716">
        <ele>429</ele>
        <time>2016-06-02T09:10:13.025Z</time>
      </trkpt>
      <trkpt lat="45.9605" lon="4.60717">
        <ele>429</ele>
        <time>2016-06-02T09:10:14.022Z</time>
      </trkpt>
      <trkpt lat="45.96047" lon="4.60729">
        <ele>429</ele>
        <time>2016-06-02T09:10:21.02Z</time>
      </trkpt>
      <trkpt lat="45.96046" lon="4.6073">
        <ele>429</ele>
        <time>2016-06-02T09:10:22.019Z</time>
      </trkpt>
      <trkpt lat="45.96042" lon="4.60742">
        <ele>429</ele>
        <time>2016-06-02T09:10:29.029Z</time>
      </trkpt>
      <trkpt lat="45.96042" lon="4.60743">
        <ele>429</ele>
        <time>2016-06-02T09:10:30.03Z</time>
      </trkpt>
      <trkpt lat="45.96037" lon="4.60754">
        <ele>427</ele>
        <time>2016-06-02T09:10:39.023Z</time>
      </trkpt>
      <trkpt lat="45.96036" lon="4.60754">
        <ele>427</ele>
        <time>2016-06-02T09:10:40.018Z</time>
      </trkpt>
      <trkpt lat="45.96033" lon="4.60766">
        <ele>427</ele>
        <time>2016-06-02T09:10:50.034Z</time>
      </trkpt>
      <trkpt lat="45.96033" lon="4.60767">
        <ele>427</ele>
        <time>2016-06-02T09:10:51.036Z</time>
      </trkpt>
      <trkpt lat="45.96028" lon="4.60778">
        <ele>427</ele>
        <time>2016-06-02T09:10:58.016Z</time>
      </trkpt>
      <trkpt lat="45.96027" lon="4.60779">
        <ele>427</ele>
        <time>2016-06-02T09:10:59.017Z</time>
      </trkpt>
      <trkpt lat="45.96021" lon="4.60788">
        <ele>427</ele>
        <time>2016-06-02T09:11:06.036Z</time>
      </trkpt>
      <trkpt lat="45.9602" lon="4.60789">
        <ele>427</ele>
        <time>2016-06-02T09:11:07.032Z</time>
      </trkpt>
      <trkpt lat="45.96016" lon="4.608">
        <ele>427</ele>
        <time>2016-06-02T09:11:13.023Z</time>
      </trkpt>
      <trkpt lat="45.96016" lon="4.60801">
        <ele>427</ele>
        <time>2016-06-02T09:11:14.024Z</time>
      </trkpt>
      <trkpt lat="45.96013" lon="4.60811">
        <ele>427</ele>
        <time>2016-06-02T09:11:20.033Z</time>
      </trkpt>
      <trkpt lat="45.96012" lon="4.60813">
        <ele>427</ele>
        <time>2016-06-02T09:11:21.04Z</time>
      </trkpt>
      <trkpt lat="45.9601" lon="4.60825">
        <ele>428</ele>
        <time>2016-06-02T09:11:27.02Z</time>
      </trkpt>
      <trkpt lat="45.96009" lon="4.60826">
        <ele>428</ele>
        <time>2016-06-02T09:11:28.016Z</time>
      </trkpt>
      <trkpt lat="45.96003" lon="4.60835">
        <ele>428</ele>
        <time>2016-06-02T09:11:34.034Z</time>
      </trkpt>
      <trkpt lat="45.96002" lon="4.60836">
        <ele>428</ele>
        <time>2016-06-02T09:11:35.034Z</time>
      </trkpt>
      <trkpt lat="45.95995" lon="4.60841">
        <ele>429</ele>
        <time>2016-06-02T09:11:40.031Z</time>
      </trkpt>
      <trkpt lat="45.95993" lon="4.60841">
        <ele>429</ele>
        <time>2016-06-02T09:11:41.034Z</time>
      </trkpt>
      <trkpt lat="45.95985" lon="4.60845">
        <ele>429</ele>
        <time>2016-06-02T09:11:46.035Z</time>
      </trkpt>
      <trkpt lat="45.95984" lon="4.60846">
        <ele>429</ele>
        <time>2016-06-02T09:11:47.02Z</time>
      </trkpt>
      <trkpt lat="45.95976" lon="4.60849">
        <ele>429</ele>
        <time>2016-06-02T09:11:53.02Z</time>
      </trkpt>
      <trkpt lat="45.95975" lon="4.60849">
        <ele>429</ele>
        <time>2016-06-02T09:11:54.022Z</time>
      </trkpt>
      <trkpt lat="45.95967" lon="4.60851">
        <ele>429</ele>
        <time>2016-06-02T09:12:00.014Z</time>
      </trkpt>
      <trkpt lat="45.95965" lon="4.60851">
        <ele>429</ele>
        <time>2016-06-02T09:12:01.012Z</time>
      </trkpt>
      <trkpt lat="45.95956" lon="4.60851">
        <ele>430</ele>
        <time>2016-06-02T09:12:07.031Z</time>
      </trkpt>
      <trkpt lat="45.95955" lon="4.60851">
        <ele>430</ele>
        <time>2016-06-02T09:12:08.022Z</time>
      </trkpt>
      <trkpt lat="45.95946" lon="4.60851">
        <ele>430</ele>
        <time>2016-06-02T09:12:15.031Z</time>
      </trkpt>
      <trkpt lat="45.95945" lon="4.60851">
        <ele>430</ele>
        <time>2016-06-02T09:12:16.023Z</time>
      </trkpt>
      <trkpt lat="45.95937" lon="4.60849">
        <ele>430</ele>
        <time>2016-06-02T09:12:24.027Z</time>
      </trkpt>
      <trkpt lat="45.95936" lon="4.60849">
        <ele>430</ele>
        <time>2016-06-02T09:12:25.018Z</time>
      </trkpt>
      <trkpt lat="45.95928" lon="4.60842">
        <ele>431</ele>
        <time>2016-06-02T09:12:34.021Z</time>
      </trkpt>
      <trkpt lat="45.95927" lon="4.60841">
        <ele>431</ele>
        <time>2016-06-02T09:12:35.021Z</time>
      </trkpt>
      <trkpt lat="45.95919" lon="4.60835">
        <ele>433</ele>
        <time>2016-06-02T09:12:41.034Z</time>
      </trkpt>
      <trkpt lat="45.95918" lon="4.60833">
        <ele>433</ele>
        <time>2016-06-02T09:12:42.019Z</time>
      </trkpt>
      <trkpt lat="45.95912" lon="4.60825">
        <ele>435</ele>
        <time>2016-06-02T09:12:49.01Z</time>
      </trkpt>
      <trkpt lat="45.95912" lon="4.60824">
        <ele>435</ele>
        <time>2016-06-02T09:12:50.032Z</time>
      </trkpt>
      <trkpt lat="45.95906" lon="4.60815">
        <ele>437</ele>
        <time>2016-06-02T09:12:58.033Z</time>
      </trkpt>
      <trkpt lat="45.95904" lon="4.60815">
        <ele>437</ele>
        <time>2016-06-02T09:12:59.015Z</time>
      </trkpt>
      <trkpt lat="45.95896" lon="4.60811">
        <ele>437</ele>
        <time>2016-06-02T09:13:05.023Z</time>
      </trkpt>
      <trkpt lat="45.95895" lon="4.6081">
        <ele>438</ele>
        <time>2016-06-02T09:13:06.022Z</time>
      </trkpt>
      <trkpt lat="45.95888" lon="4.60806">
        <ele>438</ele>
        <time>2016-06-02T09:13:11.02Z</time>
      </trkpt>
      <trkpt lat="45.95886" lon="4.60805">
        <ele>438</ele>
        <time>2016-06-02T09:13:12.018Z</time>
      </trkpt>
      <trkpt lat="45.95878" lon="4.60803">
        <ele>438</ele>
        <time>2016-06-02T09:13:18.038Z</time>
      </trkpt>
      <trkpt lat="45.95876" lon="4.60804">
        <ele>438</ele>
        <time>2016-06-02T09:13:19.029Z</time>
      </trkpt>
      <trkpt lat="45.95869" lon="4.60805">
        <ele>438</ele>
        <time>2016-06-02T09:13:25.033Z</time>
      </trkpt>
      <trkpt lat="45.95867" lon="4.60805">
        <ele>438</ele>
        <time>2016-06-02T09:13:26.02Z</time>
      </trkpt>
      <trkpt lat="45.95859" lon="4.60805">
        <ele>438</ele>
        <time>2016-06-02T09:13:33.024Z</time>
      </trkpt>
      <trkpt lat="45.95857" lon="4.60805">
        <ele>438</ele>
        <time>2016-06-02T09:13:34.025Z</time>
      </trkpt>
      <trkpt lat="45.95849" lon="4.60806">
        <ele>437</ele>
        <time>2016-06-02T09:13:41.033Z</time>
      </trkpt>
      <trkpt lat="45.95847" lon="4.60806">
        <ele>437</ele>
        <time>2016-06-02T09:13:42.035Z</time>
      </trkpt>
      <trkpt lat="45.9584" lon="4.60804">
        <ele>437</ele>
        <time>2016-06-02T09:13:47.021Z</time>
      </trkpt>
      <trkpt lat="45.95839" lon="4.60803">
        <ele>438</ele>
        <time>2016-06-02T09:13:48.02Z</time>
      </trkpt>
      <trkpt lat="45.95832" lon="4.60798">
        <ele>437</ele>
        <time>2016-06-02T09:13:53.021Z</time>
      </trkpt>
      <trkpt lat="45.9583" lon="4.60797">
        <ele>437</ele>
        <time>2016-06-02T09:13:54.016Z</time>
      </trkpt>
      <trkpt lat="45.95822" lon="4.60795">
        <ele>438</ele>
        <time>2016-06-02T09:14:00.005Z</time>
      </trkpt>
      <trkpt lat="45.95821" lon="4.60795">
        <ele>438</ele>
        <time>2016-06-02T09:14:00.999Z</time>
      </trkpt>
      <trkpt lat="45.95813" lon="4.60796">
        <ele>437</ele>
        <time>2016-06-02T09:14:07.023Z</time>
      </trkpt>
      <trkpt lat="45.95812" lon="4.60796">
        <ele>437</ele>
        <time>2016-06-02T09:14:08.032Z</time>
      </trkpt>
      <trkpt lat="45.95804" lon="4.60796">
        <ele>437</ele>
        <time>2016-06-02T09:14:14.021Z</time>
      </trkpt>
      <trkpt lat="45.95803" lon="4.60796">
        <ele>437</ele>
        <time>2016-06-02T09:14:15.033Z</time>
      </trkpt>
      <trkpt lat="45.95794" lon="4.60796">
        <ele>437</ele>
        <time>2016-06-02T09:14:21.009Z</time>
      </trkpt>
      <trkpt lat="45.95792" lon="4.60796">
        <ele>437</ele>
        <time>2016-06-02T09:14:22.021Z</time>
      </trkpt>
      <trkpt lat="45.95785" lon="4.6079">
        <ele>438</ele>
        <time>2016-06-02T09:14:29.035Z</time>
      </trkpt>
      <trkpt lat="45.95784" lon="4.60789">
        <ele>438</ele>
        <time>2016-06-02T09:14:30.014Z</time>
      </trkpt>
      <trkpt lat="45.95777" lon="4.60783">
        <ele>438</ele>
        <time>2016-06-02T09:14:36.026Z</time>
      </trkpt>
      <trkpt lat="45.95776" lon="4.60782">
        <ele>438</ele>
        <time>2016-06-02T09:14:37.021Z</time>
      </trkpt>
      <trkpt lat="45.95767" lon="4.60781">
        <ele>438</ele>
        <time>2016-06-02T09:14:43.011Z</time>
      </trkpt>
      <trkpt lat="45.95766" lon="4.60782">
        <ele>438</ele>
        <time>2016-06-02T09:14:44.025Z</time>
      </trkpt>
      <trkpt lat="45.95758" lon="4.60782">
        <ele>438</ele>
        <time>2016-06-02T09:14:49.019Z</time>
      </trkpt>
      <trkpt lat="45.95757" lon="4.60782">
        <ele>438</ele>
        <time>2016-06-02T09:14:50.022Z</time>
      </trkpt>
      <trkpt lat="45.95748" lon="4.60783">
        <ele>436</ele>
        <time>2016-06-02T09:14:57.01Z</time>
      </trkpt>
      <trkpt lat="45.95746" lon="4.60783">
        <ele>436</ele>
        <time>2016-06-02T09:14:58.03Z</time>
      </trkpt>
      <trkpt lat="45.95738" lon="4.60782">
        <ele>436</ele>
        <time>2016-06-02T09:15:03.005Z</time>
      </trkpt>
      <trkpt lat="45.95736" lon="4.60782">
        <ele>436</ele>
        <time>2016-06-02T09:15:04.021Z</time>
      </trkpt>
      <trkpt lat="45.95728" lon="4.60779">
        <ele>436</ele>
        <time>2016-06-02T09:15:10.021Z</time>
      </trkpt>
      <trkpt lat="45.95727" lon="4.60778">
        <ele>436</ele>
        <time>2016-06-02T09:15:11.022Z</time>
      </trkpt>
      <trkpt lat="45.95719" lon="4.60777">
        <ele>436</ele>
        <time>2016-06-02T09:15:17.023Z</time>
      </trkpt>
      <trkpt lat="45.95718" lon="4.60778">
        <ele>436</ele>
        <time>2016-06-02T09:15:18.025Z</time>
      </trkpt>
      <trkpt lat="45.9571" lon="4.60779">
        <ele>435</ele>
        <time>2016-06-02T09:15:24.013Z</time>
      </trkpt>
      <trkpt lat="45.95708" lon="4.60779">
        <ele>435</ele>
        <time>2016-06-02T09:15:25.02Z</time>
      </trkpt>
      <trkpt lat="45.957" lon="4.6078">
        <ele>435</ele>
        <time>2016-06-02T09:15:32.024Z</time>
      </trkpt>
      <trkpt lat="45.95698" lon="4.6078">
        <ele>435</ele>
        <time>2016-06-02T09:15:33.007Z</time>
      </trkpt>
      <trkpt lat="45.9569" lon="4.60777">
        <ele>436</ele>
        <time>2016-06-02T09:15:39.01Z</time>
      </trkpt>
      <trkpt lat="45.95689" lon="4.60776">
        <ele>436</ele>
        <time>2016-06-02T09:15:40.021Z</time>
      </trkpt>
      <trkpt lat="45.95681" lon="4.60774">
        <ele>436</ele>
        <time>2016-06-02T09:15:46.019Z</time>
      </trkpt>
      <trkpt lat="45.95679" lon="4.60773">
        <ele>436</ele>
        <time>2016-06-02T09:15:47.013Z</time>
      </trkpt>
      <trkpt lat="45.95672" lon="4.60773">
        <ele>437</ele>
        <time>2016-06-02T09:15:52.008Z</time>
      </trkpt>
      <trkpt lat="45.9567" lon="4.60773">
        <ele>437</ele>
        <time>2016-06-02T09:15:53.011Z</time>
      </trkpt>
      <trkpt lat="45.95663" lon="4.60775">
        <ele>435</ele>
        <time>2016-06-02T09:15:57.034Z</time>
      </trkpt>
      <trkpt lat="45.95661" lon="4.60776">
        <ele>435</ele>
        <time>2016-06-02T09:15:58.033Z</time>
      </trkpt>
      <trkpt lat="45.95653" lon="4.60776">
        <ele>435</ele>
        <time>2016-06-02T09:16:05.027Z</time>
      </trkpt>
      <trkpt lat="45.95652" lon="4.60777">
        <ele>435</ele>
        <time>2016-06-02T09:16:06.015Z</time>
      </trkpt>
      <trkpt lat="45.95643" lon="4.60776">
        <ele>435</ele>
        <time>2016-06-02T09:16:12.023Z</time>
      </trkpt>
      <trkpt lat="45.95642" lon="4.60775">
        <ele>435</ele>
        <time>2016-06-02T09:16:13.013Z</time>
      </trkpt>
      <trkpt lat="45.95634" lon="4.6077">
        <ele>435</ele>
        <time>2016-06-02T09:16:20.016Z</time>
      </trkpt>
      <trkpt lat="45.95633" lon="4.6077">
        <ele>435</ele>
        <time>2016-06-02T09:16:21.019Z</time>
      </trkpt>
      <trkpt lat="45.95625" lon="4.60766">
        <ele>435</ele>
        <time>2016-06-02T09:16:27.021Z</time>
      </trkpt>
      <trkpt lat="45.95624" lon="4.60765">
        <ele>435</ele>
        <time>2016-06-02T09:16:28.014Z</time>
      </trkpt>
      <trkpt lat="45.95616" lon="4.60762">
        <ele>436</ele>
        <time>2016-06-02T09:16:34.013Z</time>
      </trkpt>
      <trkpt lat="45.95615" lon="4.60761">
        <ele>436</ele>
        <time>2016-06-02T09:16:35.032Z</time>
      </trkpt>
      <trkpt lat="45.95607" lon="4.6076">
        <ele>436</ele>
        <time>2016-06-02T09:16:40.022Z</time>
      </trkpt>
      <trkpt lat="45.95606" lon="4.6076">
        <ele>436</ele>
        <time>2016-06-02T09:16:41.023Z</time>
      </trkpt>
      <trkpt lat="45.95597" lon="4.60756">
        <ele>438</ele>
        <time>2016-06-02T09:16:48.022Z</time>
      </trkpt>
      <trkpt lat="45.95596" lon="4.60756">
        <ele>438</ele>
        <time>2016-06-02T09:16:49.008Z</time>
      </trkpt>
      <trkpt lat="45.95588" lon="4.60759">
        <ele>439</ele>
        <time>2016-06-02T09:17:00.024Z</time>
      </trkpt>
      <trkpt lat="45.95587" lon="4.6076">
        <ele>439</ele>
        <time>2016-06-02T09:17:01.023Z</time>
      </trkpt>
      <trkpt lat="45.95579" lon="4.60763">
        <ele>439</ele>
        <time>2016-06-02T09:17:08.01Z</time>
      </trkpt>
      <trkpt lat="45.95578" lon="4.60765">
        <ele>439</ele>
        <time>2016-06-02T09:17:09.019Z</time>
      </trkpt>
      <trkpt lat="45.9557" lon="4.60768">
        <ele>438</ele>
        <time>2016-06-02T09:17:14.033Z</time>
      </trkpt>
      <trkpt lat="45.95568" lon="4.60769">
        <ele>438</ele>
        <time>2016-06-02T09:17:15.012Z</time>
      </trkpt>
      <trkpt lat="45.9556" lon="4.6077">
        <ele>438</ele>
        <time>2016-06-02T09:17:23.028Z</time>
      </trkpt>
      <trkpt lat="45.95559" lon="4.60771">
        <ele>438</ele>
        <time>2016-06-02T09:17:24.025Z</time>
      </trkpt>
      <trkpt lat="45.95552" lon="4.60776">
        <ele>437</ele>
        <time>2016-06-02T09:17:30.032Z</time>
      </trkpt>
      <trkpt lat="45.95551" lon="4.60777">
        <ele>437</ele>
        <time>2016-06-02T09:17:31.022Z</time>
      </trkpt>
      <trkpt lat="45.95542" lon="4.60778">
        <ele>437</ele>
        <time>2016-06-02T09:17:37.028Z</time>
      </trkpt>
      <trkpt lat="45.95541" lon="4.60778">
        <ele>437</ele>
        <time>2016-06-02T09:17:38.026Z</time>
      </trkpt>
      <trkpt lat="45.95533" lon="4.6078">
        <ele>438</ele>
        <time>2016-06-02T09:17:44.017Z</time>
      </trkpt>
      <trkpt lat="45.95531" lon="4.60781">
        <ele>438</ele>
        <time>2016-06-02T09:17:45.032Z</time>
      </trkpt>
      <trkpt lat="45.95524" lon="4.60787">
        <ele>437</ele>
        <time>2016-06-02T09:17:52.025Z</time>
      </trkpt>
      <trkpt lat="45.95523" lon="4.60788">
        <ele>437</ele>
        <time>2016-06-02T09:17:53.033Z</time>
      </trkpt>
      <trkpt lat="45.95518" lon="4.60797">
        <ele>437</ele>
        <time>2016-06-02T09:17:58.019Z</time>
      </trkpt>
      <trkpt lat="45.95517" lon="4.60799">
        <ele>437</ele>
        <time>2016-06-02T09:17:59.019Z</time>
      </trkpt>
      <trkpt lat="45.95513" lon="4.60808">
        <ele>436</ele>
        <time>2016-06-02T09:18:04.016Z</time>
      </trkpt>
      <trkpt lat="45.95512" lon="4.6081">
        <ele>436</ele>
        <time>2016-06-02T09:18:05.019Z</time>
      </trkpt>
      <trkpt lat="45.95507" lon="4.6082">
        <ele>436</ele>
        <time>2016-06-02T09:18:12.022Z</time>
      </trkpt>
      <trkpt lat="45.95506" lon="4.60822">
        <ele>436</ele>
        <time>2016-06-02T09:18:13.019Z</time>
      </trkpt>
      <trkpt lat="45.95499" lon="4.60829">
        <ele>437</ele>
        <time>2016-06-02T09:18:20.009Z</time>
      </trkpt>
      <trkpt lat="45.95498" lon="4.60831">
        <ele>437</ele>
        <time>2016-06-02T09:18:21.01Z</time>
      </trkpt>
      <trkpt lat="45.95493" lon="4.6084">
        <ele>437</ele>
        <time>2016-06-02T09:18:26.019Z</time>
      </trkpt>
      <trkpt lat="45.95493" lon="4.60842">
        <ele>438</ele>
        <time>2016-06-02T09:18:27.031Z</time>
      </trkpt>
      <trkpt lat="45.95489" lon="4.60853">
        <ele>438</ele>
        <time>2016-06-02T09:18:34.025Z</time>
      </trkpt>
      <trkpt lat="45.95489" lon="4.60854">
        <ele>438</ele>
        <time>2016-06-02T09:18:35.027Z</time>
      </trkpt>
      <trkpt lat="45.95484" lon="4.60864">
        <ele>439</ele>
        <time>2016-06-02T09:18:43.033Z</time>
      </trkpt>
      <trkpt lat="45.95484" lon="4.60866">
        <ele>439</ele>
        <time>2016-06-02T09:18:44.034Z</time>
      </trkpt>
      <trkpt lat="45.95481" lon="4.60876">
        <ele>439</ele>
        <time>2016-06-02T09:18:50.034Z</time>
      </trkpt>
      <trkpt lat="45.95481" lon="4.60878">
        <ele>439</ele>
        <time>2016-06-02T09:18:51.025Z</time>
      </trkpt>
      <trkpt lat="45.95476" lon="4.60887">
        <ele>439</ele>
        <time>2016-06-02T09:18:57.018Z</time>
      </trkpt>
      <trkpt lat="45.95475" lon="4.60889">
        <ele>439</ele>
        <time>2016-06-02T09:18:58.032Z</time>
      </trkpt>
      <trkpt lat="45.95472" lon="4.609">
        <ele>439</ele>
        <time>2016-06-02T09:19:06.022Z</time>
      </trkpt>
      <trkpt lat="45.95471" lon="4.60902">
        <ele>439</ele>
        <time>2016-06-02T09:19:07.02Z</time>
      </trkpt>
      <trkpt lat="45.9547" lon="4.60914">
        <ele>439</ele>
        <time>2016-06-02T09:19:13.017Z</time>
      </trkpt>
      <trkpt lat="45.95469" lon="4.60917">
        <ele>439</ele>
        <time>2016-06-02T09:19:14.018Z</time>
      </trkpt>
      <trkpt lat="45.95466" lon="4.60927">
        <ele>439</ele>
        <time>2016-06-02T09:19:19.003Z</time>
      </trkpt>
      <trkpt lat="45.95465" lon="4.60929">
        <ele>439</ele>
        <time>2016-06-02T09:19:20.021Z</time>
      </trkpt>
      <trkpt lat="45.95461" lon="4.60941">
        <ele>439</ele>
        <time>2016-06-02T09:19:26.023Z</time>
      </trkpt>
      <trkpt lat="45.95461" lon="4.60943">
        <ele>439</ele>
        <time>2016-06-02T09:19:27.015Z</time>
      </trkpt>
      <trkpt lat="45.95463" lon="4.60955">
        <ele>439</ele>
        <time>2016-06-02T09:19:33.022Z</time>
      </trkpt>
      <trkpt lat="45.95463" lon="4.60957">
        <ele>439</ele>
        <time>2016-06-02T09:19:34.028Z</time>
      </trkpt>
      <trkpt lat="45.95465" lon="4.6097">
        <ele>439</ele>
        <time>2016-06-02T09:19:40.021Z</time>
      </trkpt>
      <trkpt lat="45.95465" lon="4.60971">
        <ele>439</ele>
        <time>2016-06-02T09:19:41.013Z</time>
      </trkpt>
      <trkpt lat="45.95464" lon="4.60982">
        <ele>439</ele>
        <time>2016-06-02T09:19:47.031Z</time>
      </trkpt>
      <trkpt lat="45.95464" lon="4.60984">
        <ele>439</ele>
        <time>2016-06-02T09:19:48.019Z</time>
      </trkpt>
      <trkpt lat="45.95462" lon="4.60995">
        <ele>439</ele>
        <time>2016-06-02T09:19:53.032Z</time>
      </trkpt>
      <trkpt lat="45.95462" lon="4.60997">
        <ele>439</ele>
        <time>2016-06-02T09:19:54.034Z</time>
      </trkpt>
      <trkpt lat="45.95465" lon="4.61009">
        <ele>438</ele>
        <time>2016-06-02T09:19:59.023Z</time>
      </trkpt>
      <trkpt lat="45.95465" lon="4.61011">
        <ele>438</ele>
        <time>2016-06-02T09:20:00.019Z</time>
      </trkpt>
      <trkpt lat="45.95469" lon="4.61023">
        <ele>438</ele>
        <time>2016-06-02T09:20:06.015Z</time>
      </trkpt>
      <trkpt lat="45.95469" lon="4.61024">
        <ele>438</ele>
        <time>2016-06-02T09:20:07.013Z</time>
      </trkpt>
      <trkpt lat="45.95471" lon="4.61036">
        <ele>437</ele>
        <time>2016-06-02T09:20:14.018Z</time>
      </trkpt>
      <trkpt lat="45.95472" lon="4.61037">
        <ele>437</ele>
        <time>2016-06-02T09:20:15.029Z</time>
      </trkpt>
      <trkpt lat="45.95473" lon="4.61048">
        <ele>437</ele>
        <time>2016-06-02T09:20:24.031Z</time>
      </trkpt>
      <trkpt lat="45.95474" lon="4.6105">
        <ele>437</ele>
        <time>2016-06-02T09:20:25.018Z</time>
      </trkpt>
      <trkpt lat="45.95479" lon="4.61059">
        <ele>435</ele>
        <time>2016-06-02T09:20:32.034Z</time>
      </trkpt>
      <trkpt lat="45.95479" lon="4.61061">
        <ele>435</ele>
        <time>2016-06-02T09:20:33.02Z</time>
      </trkpt>
      <trkpt lat="45.9548" lon="4.61071">
        <ele>434</ele>
        <time>2016-06-02T09:20:39.012Z</time>
      </trkpt>
      <trkpt lat="45.95481" lon="4.61073">
        <ele>434</ele>
        <time>2016-06-02T09:20:40.034Z</time>
      </trkpt>
      <trkpt lat="45.95484" lon="4.61084">
        <ele>432</ele>
        <time>2016-06-02T09:20:45.026Z</time>
      </trkpt>
      <trkpt lat="45.95484" lon="4.61086">
        <ele>432</ele>
        <time>2016-06-02T09:20:46.019Z</time>
      </trkpt>
      <trkpt lat="45.95483" lon="4.61097">
        <ele>432</ele>
        <time>2016-06-02T09:20:52.03Z</time>
      </trkpt>
      <trkpt lat="45.95483" lon="4.61099">
        <ele>433</ele>
        <time>2016-06-02T09:20:53.031Z</time>
      </trkpt>
      <trkpt lat="45.95482" lon="4.6111">
        <ele>434</ele>
        <time>2016-06-02T09:20:58.094Z</time>
      </trkpt>
      <trkpt lat="45.95482" lon="4.61112">
        <ele>434</ele>
        <time>2016-06-02T09:20:59.026Z</time>
      </trkpt>
      <trkpt lat="45.95482" lon="4.61123">
        <ele>434</ele>
        <time>2016-06-02T09:21:05.049Z</time>
      </trkpt>
      <trkpt lat="45.95482" lon="4.61125">
        <ele>434</ele>
        <time>2016-06-02T09:21:06.037Z</time>
      </trkpt>
      <trkpt lat="45.95482" lon="4.61138">
        <ele>434</ele>
        <time>2016-06-02T09:21:12.022Z</time>
      </trkpt>
      <trkpt lat="45.95482" lon="4.6114">
        <ele>434</ele>
        <time>2016-06-02T09:21:13.032Z</time>
      </trkpt>
      <trkpt lat="45.9548" lon="4.61152">
        <ele>433</ele>
        <time>2016-06-02T09:21:19.02Z</time>
      </trkpt>
      <trkpt lat="45.95479" lon="4.61154">
        <ele>433</ele>
        <time>2016-06-02T09:21:20.015Z</time>
      </trkpt>
      <trkpt lat="45.95479" lon="4.61166">
        <ele>433</ele>
        <time>2016-06-02T09:21:27.032Z</time>
      </trkpt>
      <trkpt lat="45.9548" lon="4.61167">
        <ele>433</ele>
        <time>2016-06-02T09:21:28.016Z</time>
      </trkpt>
      <trkpt lat="45.95481" lon="4.61179">
        <ele>433</ele>
        <time>2016-06-02T09:21:35.024Z</time>
      </trkpt>
      <trkpt lat="45.95482" lon="4.61181">
        <ele>434</ele>
        <time>2016-06-02T09:21:36.032Z</time>
      </trkpt>
      <trkpt lat="45.95482" lon="4.61192">
        <ele>435</ele>
        <time>2016-06-02T09:21:42.028Z</time>
      </trkpt>
      <trkpt lat="45.95482" lon="4.61194">
        <ele>435</ele>
        <time>2016-06-02T09:21:43.011Z</time>
      </trkpt>
      <trkpt lat="45.95483" lon="4.61206">
        <ele>435</ele>
        <time>2016-06-02T09:21:48.027Z</time>
      </trkpt>
      <trkpt lat="45.95482" lon="4.61208">
        <ele>436</ele>
        <time>2016-06-02T09:21:49.015Z</time>
      </trkpt>
      <trkpt lat="45.95483" lon="4.6122">
        <ele>436</ele>
        <time>2016-06-02T09:21:56.024Z</time>
      </trkpt>
      <trkpt lat="45.95483" lon="4.61222">
        <ele>436</ele>
        <time>2016-06-02T09:21:57.022Z</time>
      </trkpt>
      <trkpt lat="45.95486" lon="4.61232">
        <ele>435</ele>
        <time>2016-06-02T09:22:04.02Z</time>
      </trkpt>
      <trkpt lat="45.95486" lon="4.61234">
        <ele>435</ele>
        <time>2016-06-02T09:22:05.038Z</time>
      </trkpt>
      <trkpt lat="45.95492" lon="4.61243">
        <ele>433</ele>
        <time>2016-06-02T09:22:11.018Z</time>
      </trkpt>
      <trkpt lat="45.95493" lon="4.61244">
        <ele>433</ele>
        <time>2016-06-02T09:22:12.034Z</time>
      </trkpt>
      <trkpt lat="45.95497" lon="4.61254">
        <ele>433</ele>
        <time>2016-06-02T09:22:18.012Z</time>
      </trkpt>
      <trkpt lat="45.95497" lon="4.61256">
        <ele>434</ele>
        <time>2016-06-02T09:22:19.016Z</time>
      </trkpt>
      <trkpt lat="45.95501" lon="4.61266">
        <ele>428</ele>
        <time>2016-06-02T09:22:26.015Z</time>
      </trkpt>
      <trkpt lat="45.95502" lon="4.61268">
        <ele>428</ele>
        <time>2016-06-02T09:22:27.021Z</time>
      </trkpt>
      <trkpt lat="45.95507" lon="4.61278">
        <ele>428</ele>
        <time>2016-06-02T09:22:33.021Z</time>
      </trkpt>
      <trkpt lat="45.95508" lon="4.6128">
        <ele>428</ele>
        <time>2016-06-02T09:22:34.022Z</time>
      </trkpt>
      <trkpt lat="45.95513" lon="4.61289">
        <ele>428</ele>
        <time>2016-06-02T09:22:40.018Z</time>
      </trkpt>
      <trkpt lat="45.95513" lon="4.61291">
        <ele>428</ele>
        <time>2016-06-02T09:22:41.024Z</time>
      </trkpt>
      <trkpt lat="45.95517" lon="4.61302">
        <ele>429</ele>
        <time>2016-06-02T09:22:47.019Z</time>
      </trkpt>
      <trkpt lat="45.95518" lon="4.61304">
        <ele>429</ele>
        <time>2016-06-02T09:22:48.02Z</time>
      </trkpt>
      <trkpt lat="45.9552" lon="4.61316">
        <ele>430</ele>
        <time>2016-06-02T09:22:56.035Z</time>
      </trkpt>
      <trkpt lat="45.95521" lon="4.61317">
        <ele>430</ele>
        <time>2016-06-02T09:22:57.024Z</time>
      </trkpt>
      <trkpt lat="45.95524" lon="4.61328">
        <ele>430</ele>
        <time>2016-06-02T09:23:07.019Z</time>
      </trkpt>
      <trkpt lat="45.95525" lon="4.61329">
        <ele>430</ele>
        <time>2016-06-02T09:23:08.015Z</time>
      </trkpt>
      <trkpt lat="45.95531" lon="4.61338">
        <ele>433</ele>
        <time>2016-06-02T09:23:17.009Z</time>
      </trkpt>
      <trkpt lat="45.95531" lon="4.61339">
        <ele>433</ele>
        <time>2016-06-02T09:23:18.016Z</time>
      </trkpt>
      <trkpt lat="45.95538" lon="4.61347">
        <ele>431</ele>
        <time>2016-06-02T09:23:27.029Z</time>
      </trkpt>
      <trkpt lat="45.95538" lon="4.61349">
        <ele>431</ele>
        <time>2016-06-02T09:23:28.022Z</time>
      </trkpt>
      <trkpt lat="45.95538" lon="4.61361">
        <ele>432</ele>
        <time>2016-06-02T09:23:35.013Z</time>
      </trkpt>
      <trkpt lat="45.95539" lon="4.61363">
        <ele>432</ele>
        <time>2016-06-02T09:23:36.024Z</time>
      </trkpt>
      <trkpt lat="45.9554" lon="4.61375">
        <ele>432</ele>
        <time>2016-06-02T09:23:43.022Z</time>
      </trkpt>
      <trkpt lat="45.9554" lon="4.61377">
        <ele>432</ele>
        <time>2016-06-02T09:23:44.013Z</time>
      </trkpt>
      <trkpt lat="45.95542" lon="4.61389">
        <ele>432</ele>
        <time>2016-06-02T09:23:51.023Z</time>
      </trkpt>
      <trkpt lat="45.95543" lon="4.61392">
        <ele>432</ele>
        <time>2016-06-02T09:23:52.019Z</time>
      </trkpt>
      <trkpt lat="45.95544" lon="4.61403">
        <ele>432</ele>
        <time>2016-06-02T09:23:57.018Z</time>
      </trkpt>
      <trkpt lat="45.95544" lon="4.61405">
        <ele>432</ele>
        <time>2016-06-02T09:23:58.03Z</time>
      </trkpt>
      <trkpt lat="45.95546" lon="4.61417">
        <ele>432</ele>
        <time>2016-06-02T09:24:04.031Z</time>
      </trkpt>
      <trkpt lat="45.95547" lon="4.61418">
        <ele>432</ele>
        <time>2016-06-02T09:24:05.031Z</time>
      </trkpt>
      <trkpt lat="45.95551" lon="4.6143">
        <ele>431</ele>
        <time>2016-06-02T09:24:11.032Z</time>
      </trkpt>
      <trkpt lat="45.95551" lon="4.61432">
        <ele>431</ele>
        <time>2016-06-02T09:24:12.035Z</time>
      </trkpt>
      <trkpt lat="45.95554" lon="4.61443">
        <ele>431</ele>
        <time>2016-06-02T09:24:20.036Z</time>
      </trkpt>
      <trkpt lat="45.95555" lon="4.61445">
        <ele>431</ele>
        <time>2016-06-02T09:24:21.025Z</time>
      </trkpt>
      <trkpt lat="45.95554" lon="4.61457">
        <ele>431</ele>
        <time>2016-06-02T09:24:27.014Z</time>
      </trkpt>
      <trkpt lat="45.95554" lon="4.6146">
        <ele>431</ele>
        <time>2016-06-02T09:24:28.019Z</time>
      </trkpt>
      <trkpt lat="45.95553" lon="4.61471">
        <ele>431</ele>
        <time>2016-06-02T09:24:33.037Z</time>
      </trkpt>
      <trkpt lat="45.95553" lon="4.61473">
        <ele>431</ele>
        <time>2016-06-02T09:24:34.029Z</time>
      </trkpt>
      <trkpt lat="45.95553" lon="4.61485">
        <ele>430</ele>
        <time>2016-06-02T09:24:40.028Z</time>
      </trkpt>
      <trkpt lat="45.95554" lon="4.61487">
        <ele>430</ele>
        <time>2016-06-02T09:24:41.022Z</time>
      </trkpt>
      <trkpt lat="45.95553" lon="4.61499">
        <ele>430</ele>
        <time>2016-06-02T09:24:47.026Z</time>
      </trkpt>
      <trkpt lat="45.95553" lon="4.61501">
        <ele>427</ele>
        <time>2016-06-02T09:24:48.014Z</time>
      </trkpt>
      <trkpt lat="45.95551" lon="4.61512">
        <ele>427</ele>
        <time>2016-06-02T09:24:54.012Z</time>
      </trkpt>
      <trkpt lat="45.95551" lon="4.61514">
        <ele>427</ele>
        <time>2016-06-02T09:24:55.029Z</time>
      </trkpt>
      <trkpt lat="45.9555" lon="4.61526">
        <ele>427</ele>
        <time>2016-06-02T09:25:02.025Z</time>
      </trkpt>
      <trkpt lat="45.9555" lon="4.61527">
        <ele>427</ele>
        <time>2016-06-02T09:25:03.007Z</time>
      </trkpt>
      <trkpt lat="45.95548" lon="4.61539">
        <ele>426</ele>
        <time>2016-06-02T09:25:10.015Z</time>
      </trkpt>
      <trkpt lat="45.95548" lon="4.61541">
        <ele>426</ele>
        <time>2016-06-02T09:25:11.016Z</time>
      </trkpt>
      <trkpt lat="45.95544" lon="4.61552">
        <ele>426</ele>
        <time>2016-06-02T09:25:17.021Z</time>
      </trkpt>
      <trkpt lat="45.95543" lon="4.61553">
        <ele>426</ele>
        <time>2016-06-02T09:25:18.024Z</time>
      </trkpt>
      <trkpt lat="45.95537" lon="4.61563">
        <ele>426</ele>
        <time>2016-06-02T09:25:24.999Z</time>
      </trkpt>
      <trkpt lat="45.95537" lon="4.61565">
        <ele>426</ele>
        <time>2016-06-02T09:25:26.023Z</time>
      </trkpt>
      <trkpt lat="45.95532" lon="4.61574">
        <ele>426</ele>
        <time>2016-06-02T09:25:32.023Z</time>
      </trkpt>
      <trkpt lat="45.95531" lon="4.61576">
        <ele>426</ele>
        <time>2016-06-02T09:25:33.017Z</time>
      </trkpt>
      <trkpt lat="45.95526" lon="4.61584">
        <ele>424</ele>
        <time>2016-06-02T09:25:39.018Z</time>
      </trkpt>
      <trkpt lat="45.95525" lon="4.61585">
        <ele>424</ele>
        <time>2016-06-02T09:25:40.029Z</time>
      </trkpt>
      <trkpt lat="45.95518" lon="4.61594">
        <ele>424</ele>
        <time>2016-06-02T09:25:46.025Z</time>
      </trkpt>
      <trkpt lat="45.95517" lon="4.61595">
        <ele>424</ele>
        <time>2016-06-02T09:25:47.035Z</time>
      </trkpt>
      <trkpt lat="45.95511" lon="4.61601">
        <ele>424</ele>
        <time>2016-06-02T09:25:53.019Z</time>
      </trkpt>
      <trkpt lat="45.9551" lon="4.61604">
        <ele>424</ele>
        <time>2016-06-02T09:25:54.015Z</time>
      </trkpt>
      <trkpt lat="45.95505" lon="4.61612">
        <ele>423</ele>
        <time>2016-06-02T09:26:00.012Z</time>
      </trkpt>
      <trkpt lat="45.95504" lon="4.61614">
        <ele>423</ele>
        <time>2016-06-02T09:26:01.03Z</time>
      </trkpt>
      <trkpt lat="45.95498" lon="4.61622">
        <ele>425</ele>
        <time>2016-06-02T09:26:07.034Z</time>
      </trkpt>
      <trkpt lat="45.95497" lon="4.61623">
        <ele>425</ele>
        <time>2016-06-02T09:26:08.035Z</time>
      </trkpt>
      <trkpt lat="45.9549" lon="4.61629">
        <ele>425</ele>
        <time>2016-06-02T09:26:15.019Z</time>
      </trkpt>
      <trkpt lat="45.95489" lon="4.6163">
        <ele>425</ele>
        <time>2016-06-02T09:26:16.031Z</time>
      </trkpt>
      <trkpt lat="45.95482" lon="4.61636">
        <ele>424</ele>
        <time>2016-06-02T09:26:24.038Z</time>
      </trkpt>
      <trkpt lat="45.95481" lon="4.61637">
        <ele>424</ele>
        <time>2016-06-02T09:26:25.02Z</time>
      </trkpt>
      <trkpt lat="45.95472" lon="4.61638">
        <ele>424</ele>
        <time>2016-06-02T09:26:30.012Z</time>
      </trkpt>
      <trkpt lat="45.95471" lon="4.61638">
        <ele>424</ele>
        <time>2016-06-02T09:26:31.019Z</time>
      </trkpt>
      <trkpt lat="45.95462" lon="4.61639">
        <ele>424</ele>
        <time>2016-06-02T09:26:37.022Z</time>
      </trkpt>
      <trkpt lat="45.9546" lon="4.61639">
        <ele>424</ele>
        <time>2016-06-02T09:26:38.035Z</time>
      </trkpt>
      <trkpt lat="45.95452" lon="4.61641">
        <ele>424</ele>
        <time>2016-06-02T09:26:45.012Z</time>
      </trkpt>
      <trkpt lat="45.9545" lon="4.61641">
        <ele>424</ele>
        <time>2016-06-02T09:26:46.02Z</time>
      </trkpt>
      <trkpt lat="45.95443" lon="4.61643">
        <ele>424</ele>
        <time>2016-06-02T09:26:51.037Z</time>
      </trkpt>
      <trkpt lat="45.95441" lon="4.61644">
        <ele>424</ele>
        <time>2016-06-02T09:26:52.032Z</time>
      </trkpt>
      <trkpt lat="45.95433" lon="4.61644">
        <ele>424</ele>
        <time>2016-06-02T09:26:59.017Z</time>
      </trkpt>
      <trkpt lat="45.95431" lon="4.61644">
        <ele>424</ele>
        <time>2016-06-02T09:27:00.039Z</time>
      </trkpt>
      <trkpt lat="45.95423" lon="4.61641">
        <ele>424</ele>
        <time>2016-06-02T09:27:07.019Z</time>
      </trkpt>
      <trkpt lat="45.95421" lon="4.6164">
        <ele>424</ele>
        <time>2016-06-02T09:27:08.019Z</time>
      </trkpt>
      <trkpt lat="45.95412" lon="4.61638">
        <ele>425</ele>
        <time>2016-06-02T09:27:14.024Z</time>
      </trkpt>
      <trkpt lat="45.95411" lon="4.61637">
        <ele>425</ele>
        <time>2016-06-02T09:27:15.033Z</time>
      </trkpt>
      <trkpt lat="45.95403" lon="4.61635">
        <ele>426</ele>
        <time>2016-06-02T09:27:21.016Z</time>
      </trkpt>
      <trkpt lat="45.95402" lon="4.61635">
        <ele>426</ele>
        <time>2016-06-02T09:27:22.016Z</time>
      </trkpt>
      <trkpt lat="45.95394" lon="4.61633">
        <ele>426</ele>
        <time>2016-06-02T09:27:28.016Z</time>
      </trkpt>
      <trkpt lat="45.95393" lon="4.61632">
        <ele>426</ele>
        <time>2016-06-02T09:27:29.02Z</time>
      </trkpt>
      <trkpt lat="45.95385" lon="4.61632">
        <ele>427</ele>
        <time>2016-06-02T09:27:37.023Z</time>
      </trkpt>
      <trkpt lat="45.95384" lon="4.61631">
        <ele>427</ele>
        <time>2016-06-02T09:27:38.032Z</time>
      </trkpt>
      <trkpt lat="45.95375" lon="4.61629">
        <ele>427</ele>
        <time>2016-06-02T09:27:47.012Z</time>
      </trkpt>
      <trkpt lat="45.95374" lon="4.61629">
        <ele>427</ele>
        <time>2016-06-02T09:27:48.035Z</time>
      </trkpt>
      <trkpt lat="45.95365" lon="4.61628">
        <ele>427</ele>
        <time>2016-06-02T09:27:54.003Z</time>
      </trkpt>
      <trkpt lat="45.95364" lon="4.61628">
        <ele>427</ele>
        <time>2016-06-02T09:27:55.007Z</time>
      </trkpt>
      <trkpt lat="45.95355" lon="4.61631">
        <ele>427</ele>
        <time>2016-06-02T09:28:02.018Z</time>
      </trkpt>
      <trkpt lat="45.95354" lon="4.61631">
        <ele>427</ele>
        <time>2016-06-02T09:28:03.019Z</time>
      </trkpt>
      <trkpt lat="45.95346" lon="4.61635">
        <ele>427</ele>
        <time>2016-06-02T09:28:09.015Z</time>
      </trkpt>
      <trkpt lat="45.95345" lon="4.61635">
        <ele>427</ele>
        <time>2016-06-02T09:28:10.019Z</time>
      </trkpt>
      <trkpt lat="45.95336" lon="4.61636">
        <ele>427</ele>
        <time>2016-06-02T09:28:16.021Z</time>
      </trkpt>
      <trkpt lat="45.95334" lon="4.61636">
        <ele>427</ele>
        <time>2016-06-02T09:28:17.023Z</time>
      </trkpt>
      <trkpt lat="45.95326" lon="4.61635">
        <ele>430</ele>
        <time>2016-06-02T09:28:24.035Z</time>
      </trkpt>
      <trkpt lat="45.95325" lon="4.61635">
        <ele>430</ele>
        <time>2016-06-02T09:28:25.034Z</time>
      </trkpt>
      <trkpt lat="45.95316" lon="4.61636">
        <ele>430</ele>
        <time>2016-06-02T09:28:32.007Z</time>
      </trkpt>
      <trkpt lat="45.95315" lon="4.61636">
        <ele>430</ele>
        <time>2016-06-02T09:28:33.033Z</time>
      </trkpt>
      <trkpt lat="45.95306" lon="4.61634">
        <ele>430</ele>
        <time>2016-06-02T09:28:40.03Z</time>
      </trkpt>
      <trkpt lat="45.95305" lon="4.61634">
        <ele>430</ele>
        <time>2016-06-02T09:28:41.022Z</time>
      </trkpt>
      <trkpt lat="45.95296" lon="4.61635">
        <ele>431</ele>
        <time>2016-06-02T09:28:52.031Z</time>
      </trkpt>
      <trkpt lat="45.95296" lon="4.61635">
        <ele>431</ele>
        <time>2016-06-02T09:28:53.018Z</time>
      </trkpt>
      <trkpt lat="45.95288" lon="4.61637">
        <ele>431</ele>
        <time>2016-06-02T09:29:02.022Z</time>
      </trkpt>
      <trkpt lat="45.95287" lon="4.61637">
        <ele>431</ele>
        <time>2016-06-02T09:29:03.026Z</time>
      </trkpt>
      <trkpt lat="45.95279" lon="4.61641">
        <ele>431</ele>
        <time>2016-06-02T09:29:09.018Z</time>
      </trkpt>
      <trkpt lat="45.95277" lon="4.61641">
        <ele>431</ele>
        <time>2016-06-02T09:29:10.023Z</time>
      </trkpt>
      <trkpt lat="45.95269" lon="4.61641">
        <ele>431</ele>
        <time>2016-06-02T09:29:16.032Z</time>
      </trkpt>
      <trkpt lat="45.95268" lon="4.61642">
        <ele>430</ele>
        <time>2016-06-02T09:29:17.019Z</time>
      </trkpt>
      <trkpt lat="45.95261" lon="4.6165">
        <ele>430</ele>
        <time>2016-06-02T09:29:24.036Z</time>
      </trkpt>
      <trkpt lat="45.95261" lon="4.61651">
        <ele>429</ele>
        <time>2016-06-02T09:29:25.013Z</time>
      </trkpt>
      <trkpt lat="45.95254" lon="4.61659">
        <ele>428</ele>
        <time>2016-06-02T09:29:32.018Z</time>
      </trkpt>
      <trkpt lat="45.95253" lon="4.61659">
        <ele>428</ele>
        <time>2016-06-02T09:29:33.018Z</time>
      </trkpt>
      <trkpt lat="45.95245" lon="4.61663">
        <ele>430</ele>
        <time>2016-06-02T09:29:40.034Z</time>
      </trkpt>
      <trkpt lat="45.95244" lon="4.61663">
        <ele>431</ele>
        <time>2016-06-02T09:29:41.033Z</time>
      </trkpt>
      <trkpt lat="45.95236" lon="4.61668">
        <ele>429</ele>
        <time>2016-06-02T09:29:48.034Z</time>
      </trkpt>
      <trkpt lat="45.95236" lon="4.61669">
        <ele>429</ele>
        <time>2016-06-02T09:29:49.012Z</time>
      </trkpt>
      <trkpt lat="45.9523" lon="4.61677">
        <ele>429</ele>
        <time>2016-06-02T09:29:55.046Z</time>
      </trkpt>
      <trkpt lat="45.95229" lon="4.61679">
        <ele>429</ele>
        <time>2016-06-02T09:29:56.03Z</time>
      </trkpt>
      <trkpt lat="45.95225" lon="4.6169">
        <ele>430</ele>
        <time>2016-06-02T09:30:02.025Z</time>
      </trkpt>
      <trkpt lat="45.95225" lon="4.61692">
        <ele>430</ele>
        <time>2016-06-02T09:30:03.036Z</time>
      </trkpt>
      <trkpt lat="45.95219" lon="4.61702">
        <ele>430</ele>
        <time>2016-06-02T09:30:10.018Z</time>
      </trkpt>
      <trkpt lat="45.95218" lon="4.61703">
        <ele>430</ele>
        <time>2016-06-02T09:30:11.021Z</time>
      </trkpt>
      <trkpt lat="45.95213" lon="4.61713">
        <ele>429</ele>
        <time>2016-06-02T09:30:17.037Z</time>
      </trkpt>
      <trkpt lat="45.95212" lon="4.61715">
        <ele>429</ele>
        <time>2016-06-02T09:30:18.039Z</time>
      </trkpt>
      <trkpt lat="45.95208" lon="4.61725">
        <ele>429</ele>
        <time>2016-06-02T09:30:25.037Z</time>
      </trkpt>
      <trkpt lat="45.95207" lon="4.61727">
        <ele>429</ele>
        <time>2016-06-02T09:30:26.04Z</time>
      </trkpt>
      <trkpt lat="45.95203" lon="4.61737">
        <ele>429</ele>
        <time>2016-06-02T09:30:32.022Z</time>
      </trkpt>
      <trkpt lat="45.95202" lon="4.61739">
        <ele>429</ele>
        <time>2016-06-02T09:30:33.034Z</time>
      </trkpt>
      <trkpt lat="45.95199" lon="4.61751">
        <ele>424</ele>
        <time>2016-06-02T09:30:39.017Z</time>
      </trkpt>
      <trkpt lat="45.95199" lon="4.61753">
        <ele>424</ele>
        <time>2016-06-02T09:30:40.018Z</time>
      </trkpt>
      <trkpt lat="45.95194" lon="4.61763">
        <ele>424</ele>
        <time>2016-06-02T09:30:46.021Z</time>
      </trkpt>
      <trkpt lat="45.95193" lon="4.61765">
        <ele>424</ele>
        <time>2016-06-02T09:30:47.033Z</time>
      </trkpt>
      <trkpt lat="45.95188" lon="4.61775">
        <ele>424</ele>
        <time>2016-06-02T09:30:53.035Z</time>
      </trkpt>
      <trkpt lat="45.95187" lon="4.61776">
        <ele>424</ele>
        <time>2016-06-02T09:30:54.032Z</time>
      </trkpt>
      <trkpt lat="45.95182" lon="4.61785">
        <ele>424</ele>
        <time>2016-06-02T09:31:01.003Z</time>
      </trkpt>
      <trkpt lat="45.95181" lon="4.61787">
        <ele>423</ele>
        <time>2016-06-02T09:31:02.016Z</time>
      </trkpt>
      <trkpt lat="45.95177" lon="4.61798">
        <ele>423</ele>
        <time>2016-06-02T09:31:12.038Z</time>
      </trkpt>
      <trkpt lat="45.95179" lon="4.618">
        <ele>423</ele>
        <time>2016-06-02T09:31:13.014Z</time>
      </trkpt>
      <trkpt lat="45.95179" lon="4.61812">
        <ele>423</ele>
        <time>2016-06-02T09:31:24.031Z</time>
      </trkpt>
      <trkpt lat="45.95179" lon="4.61813">
        <ele>423</ele>
        <time>2016-06-02T09:31:25.013Z</time>
      </trkpt>
      <trkpt lat="45.95175" lon="4.61823">
        <ele>423</ele>
        <time>2016-06-02T09:31:31.022Z</time>
      </trkpt>
      <trkpt lat="45.95175" lon="4.61825">
        <ele>424</ele>
        <time>2016-06-02T09:31:32.031Z</time>
      </trkpt>
      <trkpt lat="45.95169" lon="4.61835">
        <ele>424</ele>
        <time>2016-06-02T09:31:39.012Z</time>
      </trkpt>
      <trkpt lat="45.95168" lon="4.61837">
        <ele>423</ele>
        <time>2016-06-02T09:31:40.012Z</time>
      </trkpt>
      <trkpt lat="45.95164" lon="4.61848">
        <ele>426</ele>
        <time>2016-06-02T09:31:45.034Z</time>
      </trkpt>
      <trkpt lat="45.95164" lon="4.61849">
        <ele>426</ele>
        <time>2016-06-02T09:31:46.039Z</time>
      </trkpt>
      <trkpt lat="45.9516" lon="4.6186">
        <ele>426</ele>
        <time>2016-06-02T09:31:53.037Z</time>
      </trkpt>
      <trkpt lat="45.95159" lon="4.61861">
        <ele>426</ele>
        <time>2016-06-02T09:31:54.01Z</time>
      </trkpt>
      <trkpt lat="45.95155" lon="4.61872">
        <ele>425</ele>
        <time>2016-06-02T09:32:03.016Z</time>
      </trkpt>
      <trkpt lat="45.95154" lon="4.61874">
        <ele>425</ele>
        <time>2016-06-02T09:32:04.016Z</time>
      </trkpt>
      <trkpt lat="45.9515" lon="4.61883">
        <ele>425</ele>
        <time>2016-06-02T09:32:10.014Z</time>
      </trkpt>
      <trkpt lat="45.95149" lon="4.61885">
        <ele>424</ele>
        <time>2016-06-02T09:32:11.016Z</time>
      </trkpt>
      <trkpt lat="45.95144" lon="4.61896">
        <ele>424</ele>
        <time>2016-06-02T09:32:18.017Z</time>
      </trkpt>
      <trkpt lat="45.95143" lon="4.61898">
        <ele>424</ele>
        <time>2016-06-02T09:32:19.021Z</time>
      </trkpt>
      <trkpt lat="45.95139" lon="4.61907">
        <ele>423</ele>
        <time>2016-06-02T09:32:24.018Z</time>
      </trkpt>
      <trkpt lat="45.95138" lon="4.61909">
        <ele>423</ele>
        <time>2016-06-02T09:32:25.016Z</time>
      </trkpt>
      <trkpt lat="45.95131" lon="4.61916">
        <ele>424</ele>
        <time>2016-06-02T09:32:31.005Z</time>
      </trkpt>
      <trkpt lat="45.9513" lon="4.61917">
        <ele>415</ele>
        <time>2016-06-02T09:32:32.004Z</time>
      </trkpt>
      <trkpt lat="45.95122" lon="4.61921">
        <ele>416</ele>
        <time>2016-06-02T09:32:40.019Z</time>
      </trkpt>
      <trkpt lat="45.95121" lon="4.61921">
        <ele>416</ele>
        <time>2016-06-02T09:32:41.016Z</time>
      </trkpt>
      <trkpt lat="45.95113" lon="4.61923">
        <ele>417</ele>
        <time>2016-06-02T09:32:50.033Z</time>
      </trkpt>
      <trkpt lat="45.95112" lon="4.61923">
        <ele>417</ele>
        <time>2016-06-02T09:32:51.022Z</time>
      </trkpt>
      <trkpt lat="45.95103" lon="4.61925">
        <ele>419</ele>
        <time>2016-06-02T09:33:01.037Z</time>
      </trkpt>
      <trkpt lat="45.95102" lon="4.61925">
        <ele>419</ele>
        <time>2016-06-02T09:33:02.032Z</time>
      </trkpt>
      <trkpt lat="45.95094" lon="4.61924">
        <ele>421</ele>
        <time>2016-06-02T09:33:08.03Z</time>
      </trkpt>
      <trkpt lat="45.95091" lon="4.61924">
        <ele>421</ele>
        <time>2016-06-02T09:33:09.033Z</time>
      </trkpt>
      <trkpt lat="45.95083" lon="4.61925">
        <ele>424</ele>
        <time>2016-06-02T09:33:14.026Z</time>
      </trkpt>
      <trkpt lat="45.95082" lon="4.61926">
        <ele>424</ele>
        <time>2016-06-02T09:33:15.011Z</time>
      </trkpt>
      <trkpt lat="45.95073" lon="4.61924">
        <ele>424</ele>
        <time>2016-06-02T09:33:21.014Z</time>
      </trkpt>
      <trkpt lat="45.95072" lon="4.61924">
        <ele>424</ele>
        <time>2016-06-02T09:33:22.025Z</time>
      </trkpt>
      <trkpt lat="45.95063" lon="4.61925">
        <ele>423</ele>
        <time>2016-06-02T09:33:29.01Z</time>
      </trkpt>
      <trkpt lat="45.95062" lon="4.61924">
        <ele>423</ele>
        <time>2016-06-02T09:33:30.028Z</time>
      </trkpt>
      <trkpt lat="45.95054" lon="4.6193">
        <ele>423</ele>
        <time>2016-06-02T09:33:37.027Z</time>
      </trkpt>
      <trkpt lat="45.95052" lon="4.6193">
        <ele>423</ele>
        <time>2016-06-02T09:33:38.038Z</time>
      </trkpt>
      <trkpt lat="45.95044" lon="4.61935">
        <ele>423</ele>
        <time>2016-06-02T09:33:42.018Z</time>
      </trkpt>
      <trkpt lat="45.95043" lon="4.61935">
        <ele>423</ele>
        <time>2016-06-02T09:33:43.028Z</time>
      </trkpt>
      <trkpt lat="45.95035" lon="4.61939">
        <ele>423</ele>
        <time>2016-06-02T09:33:48.021Z</time>
      </trkpt>
      <trkpt lat="45.95033" lon="4.61939">
        <ele>423</ele>
        <time>2016-06-02T09:33:49.028Z</time>
      </trkpt>
      <trkpt lat="45.95025" lon="4.61942">
        <ele>423</ele>
        <time>2016-06-02T09:33:54.029Z</time>
      </trkpt>
      <trkpt lat="45.95024" lon="4.61943">
        <ele>423</ele>
        <time>2016-06-02T09:33:55.02Z</time>
      </trkpt>
      <trkpt lat="45.95016" lon="4.61946">
        <ele>423</ele>
        <time>2016-06-02T09:34:00.028Z</time>
      </trkpt>
      <trkpt lat="45.95015" lon="4.61947">
        <ele>423</ele>
        <time>2016-06-02T09:34:01.029Z</time>
      </trkpt>
      <trkpt lat="45.95007" lon="4.61954">
        <ele>423</ele>
        <time>2016-06-02T09:34:07.024Z</time>
      </trkpt>
      <trkpt lat="45.95006" lon="4.61954">
        <ele>422</ele>
        <time>2016-06-02T09:34:08.022Z</time>
      </trkpt>
      <trkpt lat="45.94999" lon="4.61959">
        <ele>425</ele>
        <time>2016-06-02T09:34:13.025Z</time>
      </trkpt>
      <trkpt lat="45.94997" lon="4.6196">
        <ele>424</ele>
        <time>2016-06-02T09:34:14.024Z</time>
      </trkpt>
      <trkpt lat="45.94989" lon="4.61964">
        <ele>424</ele>
        <time>2016-06-02T09:34:20.02Z</time>
      </trkpt>
      <trkpt lat="45.94988" lon="4.61964">
        <ele>424</ele>
        <time>2016-06-02T09:34:21.019Z</time>
      </trkpt>
      <trkpt lat="45.94979" lon="4.61966">
        <ele>424</ele>
        <time>2016-06-02T09:34:28.022Z</time>
      </trkpt>
      <trkpt lat="45.94978" lon="4.61967">
        <ele>424</ele>
        <time>2016-06-02T09:34:29.023Z</time>
      </trkpt>
      <trkpt lat="45.9497" lon="4.61967">
        <ele>424</ele>
        <time>2016-06-02T09:34:37.039Z</time>
      </trkpt>
      <trkpt lat="45.94969" lon="4.61968">
        <ele>424</ele>
        <time>2016-06-02T09:34:38.032Z</time>
      </trkpt>
      <trkpt lat="45.9496" lon="4.61971">
        <ele>424</ele>
        <time>2016-06-02T09:34:45.032Z</time>
      </trkpt>
      <trkpt lat="45.94959" lon="4.61971">
        <ele>424</ele>
        <time>2016-06-02T09:34:46.027Z</time>
      </trkpt>
      <trkpt lat="45.94951" lon="4.61974">
        <ele>423</ele>
        <time>2016-06-02T09:34:51.03Z</time>
      </trkpt>
      <trkpt lat="45.94949" lon="4.61975">
        <ele>423</ele>
        <time>2016-06-02T09:34:52.03Z</time>
      </trkpt>
      <trkpt lat="45.94942" lon="4.6198">
        <ele>422</ele>
        <time>2016-06-02T09:34:56.035Z</time>
      </trkpt>
      <trkpt lat="45.94941" lon="4.61981">
        <ele>422</ele>
        <time>2016-06-02T09:34:57.032Z</time>
      </trkpt>
      <trkpt lat="45.94933" lon="4.61983">
        <ele>422</ele>
        <time>2016-06-02T09:35:02.019Z</time>
      </trkpt>
      <trkpt lat="45.94931" lon="4.61983">
        <ele>421</ele>
        <time>2016-06-02T09:35:03.012Z</time>
      </trkpt>
      <trkpt lat="45.94923" lon="4.61983">
        <ele>421</ele>
        <time>2016-06-02T09:35:08.034Z</time>
      </trkpt>
      <trkpt lat="45.94922" lon="4.61983">
        <ele>421</ele>
        <time>2016-06-02T09:35:09.039Z</time>
      </trkpt>
      <trkpt lat="45.94913" lon="4.6198">
        <ele>420</ele>
        <time>2016-06-02T09:35:15.033Z</time>
      </trkpt>
      <trkpt lat="45.94912" lon="4.6198">
        <ele>420</ele>
        <time>2016-06-02T09:35:16.033Z</time>
      </trkpt>
      <trkpt lat="45.94904" lon="4.61982">
        <ele>420</ele>
        <time>2016-06-02T09:35:23.033Z</time>
      </trkpt>
      <trkpt lat="45.94903" lon="4.61982">
        <ele>420</ele>
        <time>2016-06-02T09:35:24.025Z</time>
      </trkpt>
      <trkpt lat="45.94895" lon="4.61984">
        <ele>420</ele>
        <time>2016-06-02T09:35:30.035Z</time>
      </trkpt>
      <trkpt lat="45.94893" lon="4.61984">
        <ele>420</ele>
        <time>2016-06-02T09:35:31.033Z</time>
      </trkpt>
      <trkpt lat="45.94885" lon="4.61982">
        <ele>421</ele>
        <time>2016-06-02T09:35:38.035Z</time>
      </trkpt>
      <trkpt lat="45.94884" lon="4.61981">
        <ele>421</ele>
        <time>2016-06-02T09:35:39.029Z</time>
      </trkpt>
      <trkpt lat="45.94875" lon="4.61977">
        <ele>421</ele>
        <time>2016-06-02T09:35:46.029Z</time>
      </trkpt>
      <trkpt lat="45.94874" lon="4.61976">
        <ele>421</ele>
        <time>2016-06-02T09:35:47.028Z</time>
      </trkpt>
      <trkpt lat="45.94866" lon="4.61975">
        <ele>421</ele>
        <time>2016-06-02T09:35:52.034Z</time>
      </trkpt>
      <trkpt lat="45.94865" lon="4.61975">
        <ele>421</ele>
        <time>2016-06-02T09:35:53.038Z</time>
      </trkpt>
      <trkpt lat="45.94857" lon="4.61974">
        <ele>420</ele>
        <time>2016-06-02T09:35:59.018Z</time>
      </trkpt>
      <trkpt lat="45.94855" lon="4.61973">
        <ele>420</ele>
        <time>2016-06-02T09:36:00.035Z</time>
      </trkpt>
      <trkpt lat="45.9485" lon="4.61965">
        <ele>421</ele>
        <time>2016-06-02T09:36:07.018Z</time>
      </trkpt>
      <trkpt lat="45.94849" lon="4.61963">
        <ele>421</ele>
        <time>2016-06-02T09:36:08.032Z</time>
      </trkpt>
      <trkpt lat="45.94842" lon="4.61963">
        <ele>421</ele>
        <time>2016-06-02T09:36:14.022Z</time>
      </trkpt>
      <trkpt lat="45.9484" lon="4.61964">
        <ele>421</ele>
        <time>2016-06-02T09:36:15.03Z</time>
      </trkpt>
      <trkpt lat="45.94833" lon="4.61956">
        <ele>422</ele>
        <time>2016-06-02T09:36:26.021Z</time>
      </trkpt>
      <trkpt lat="45.94833" lon="4.61955">
        <ele>419</ele>
        <time>2016-06-02T09:36:27.035Z</time>
      </trkpt>
      <trkpt lat="45.94831" lon="4.61944">
        <ele>420</ele>
        <time>2016-06-02T09:36:33.02Z</time>
      </trkpt>
      <trkpt lat="45.94828" lon="4.61943">
        <ele>420</ele>
        <time>2016-06-02T09:36:34.015Z</time>
      </trkpt>
      <trkpt lat="45.94821" lon="4.61938">
        <ele>421</ele>
        <time>2016-06-02T09:36:40.016Z</time>
      </trkpt>
      <trkpt lat="45.94819" lon="4.61938">
        <ele>420</ele>
        <time>2016-06-02T09:36:41.013Z</time>
      </trkpt>
      <trkpt lat="45.94813" lon="4.6193">
        <ele>421</ele>
        <time>2016-06-02T09:36:49.028Z</time>
      </trkpt>
      <trkpt lat="45.94812" lon="4.6193">
        <ele>421</ele>
        <time>2016-06-02T09:36:50.022Z</time>
      </trkpt>
      <trkpt lat="45.94803" lon="4.61934">
        <ele>420</ele>
        <time>2016-06-02T09:37:04.021Z</time>
      </trkpt>
      <trkpt lat="45.94802" lon="4.61934">
        <ele>420</ele>
        <time>2016-06-02T09:37:05.023Z</time>
      </trkpt>
      <trkpt lat="45.94794" lon="4.61935">
        <ele>420</ele>
        <time>2016-06-02T09:37:10.014Z</time>
      </trkpt>
      <trkpt lat="45.94793" lon="4.61935">
        <ele>420</ele>
        <time>2016-06-02T09:37:11.031Z</time>
      </trkpt>
      <trkpt lat="45.94784" lon="4.61933">
        <ele>420</ele>
        <time>2016-06-02T09:37:17.023Z</time>
      </trkpt>
      <trkpt lat="45.94782" lon="4.61932">
        <ele>420</ele>
        <time>2016-06-02T09:37:18.032Z</time>
      </trkpt>
      <trkpt lat="45.94774" lon="4.6193">
        <ele>420</ele>
        <time>2016-06-02T09:37:26.024Z</time>
      </trkpt>
      <trkpt lat="45.94773" lon="4.61929">
        <ele>420</ele>
        <time>2016-06-02T09:37:27.031Z</time>
      </trkpt>
      <trkpt lat="45.94765" lon="4.61927">
        <ele>422</ele>
        <time>2016-06-02T09:37:33.036Z</time>
      </trkpt>
      <trkpt lat="45.94763" lon="4.61926">
        <ele>422</ele>
        <time>2016-06-02T09:37:34.024Z</time>
      </trkpt>
      <trkpt lat="45.94755" lon="4.61929">
        <ele>422</ele>
        <time>2016-06-02T09:37:39.023Z</time>
      </trkpt>
      <trkpt lat="45.94754" lon="4.6193">
        <ele>422</ele>
        <time>2016-06-02T09:37:40.023Z</time>
      </trkpt>
      <trkpt lat="45.94746" lon="4.61931">
        <ele>422</ele>
        <time>2016-06-02T09:37:47.014Z</time>
      </trkpt>
      <trkpt lat="45.94744" lon="4.61931">
        <ele>422</ele>
        <time>2016-06-02T09:37:48.025Z</time>
      </trkpt>
      <trkpt lat="45.94735" lon="4.61932">
        <ele>421</ele>
        <time>2016-06-02T09:37:52.032Z</time>
      </trkpt>
      <trkpt lat="45.94732" lon="4.61932">
        <ele>421</ele>
        <time>2016-06-02T09:37:53.027Z</time>
      </trkpt>
      <trkpt lat="45.94724" lon="4.61936">
        <ele>421</ele>
        <time>2016-06-02T09:37:57.029Z</time>
      </trkpt>
      <trkpt lat="45.94723" lon="4.61937">
        <ele>420</ele>
        <time>2016-06-02T09:37:58.021Z</time>
      </trkpt>
      <trkpt lat="45.94716" lon="4.61942">
        <ele>420</ele>
        <time>2016-06-02T09:38:02.026Z</time>
      </trkpt>
      <trkpt lat="45.94714" lon="4.61943">
        <ele>420</ele>
        <time>2016-06-02T09:38:03.023Z</time>
      </trkpt>
      <trkpt lat="45.94707" lon="4.61949">
        <ele>419</ele>
        <time>2016-06-02T09:38:07.021Z</time>
      </trkpt>
      <trkpt lat="45.94705" lon="4.61951">
        <ele>419</ele>
        <time>2016-06-02T09:38:08.013Z</time>
      </trkpt>
      <trkpt lat="45.94699" lon="4.61957">
        <ele>419</ele>
        <time>2016-06-02T09:38:12.026Z</time>
      </trkpt>
      <trkpt lat="45.94697" lon="4.61959">
        <ele>419</ele>
        <time>2016-06-02T09:38:13.023Z</time>
      </trkpt>
      <trkpt lat="45.94691" lon="4.61966">
        <ele>418</ele>
        <time>2016-06-02T09:38:18.036Z</time>
      </trkpt>
      <trkpt lat="45.94689" lon="4.61967">
        <ele>418</ele>
        <time>2016-06-02T09:38:19.027Z</time>
      </trkpt>
      <trkpt lat="45.94682" lon="4.61974">
        <ele>418</ele>
        <time>2016-06-02T09:38:25.016Z</time>
      </trkpt>
      <trkpt lat="45.9468" lon="4.61974">
        <ele>418</ele>
        <time>2016-06-02T09:38:26.03Z</time>
      </trkpt>
      <trkpt lat="45.94673" lon="4.61981">
        <ele>418</ele>
        <time>2016-06-02T09:38:31.031Z</time>
      </trkpt>
      <trkpt lat="45.94671" lon="4.61983">
        <ele>417</ele>
        <time>2016-06-02T09:38:32.03Z</time>
      </trkpt>
      <trkpt lat="45.94665" lon="4.61992">
        <ele>419</ele>
        <time>2016-06-02T09:38:37.029Z</time>
      </trkpt>
      <trkpt lat="45.94665" lon="4.61994">
        <ele>418</ele>
        <time>2016-06-02T09:38:38.036Z</time>
      </trkpt>
      <trkpt lat="45.9466" lon="4.62004">
        <ele>414</ele>
        <time>2016-06-02T09:38:44.009Z</time>
      </trkpt>
      <trkpt lat="45.94659" lon="4.62006">
        <ele>414</ele>
        <time>2016-06-02T09:38:45.014Z</time>
      </trkpt>
      <trkpt lat="45.94653" lon="4.62015">
        <ele>413</ele>
        <time>2016-06-02T09:38:51.023Z</time>
      </trkpt>
      <trkpt lat="45.94652" lon="4.62016">
        <ele>413</ele>
        <time>2016-06-02T09:38:52.015Z</time>
      </trkpt>
      <trkpt lat="45.94646" lon="4.62024">
        <ele>412</ele>
        <time>2016-06-02T09:38:57.01Z</time>
      </trkpt>
      <trkpt lat="45.94645" lon="4.62025">
        <ele>412</ele>
        <time>2016-06-02T09:38:58.003Z</time>
      </trkpt>
      <trkpt lat="45.94637" lon="4.62031">
        <ele>411</ele>
        <time>2016-06-02T09:39:04.011Z</time>
      </trkpt>
      <trkpt lat="45.94635" lon="4.62032">
        <ele>411</ele>
        <time>2016-06-02T09:39:05.014Z</time>
      </trkpt>
      <trkpt lat="45.94627" lon="4.62036">
        <ele>411</ele>
        <time>2016-06-02T09:39:11.014Z</time>
      </trkpt>
      <trkpt lat="45.94625" lon="4.62036">
        <ele>411</ele>
        <time>2016-06-02T09:39:12.018Z</time>
      </trkpt>
      <trkpt lat="45.94618" lon="4.62041">
        <ele>411</ele>
        <time>2016-06-02T09:39:18.021Z</time>
      </trkpt>
      <trkpt lat="45.94616" lon="4.62042">
        <ele>411</ele>
        <time>2016-06-02T09:39:19.025Z</time>
      </trkpt>
      <trkpt lat="45.9461" lon="4.62047">
        <ele>410</ele>
        <time>2016-06-02T09:39:24.006Z</time>
      </trkpt>
      <trkpt lat="45.94608" lon="4.62048">
        <ele>410</ele>
        <time>2016-06-02T09:39:25.014Z</time>
      </trkpt>
      <trkpt lat="45.946" lon="4.62049">
        <ele>410</ele>
        <time>2016-06-02T09:39:31.015Z</time>
      </trkpt>
      <trkpt lat="45.94599" lon="4.62049">
        <ele>410</ele>
        <time>2016-06-02T09:39:32.011Z</time>
      </trkpt>
      <trkpt lat="45.94591" lon="4.62054">
        <ele>410</ele>
        <time>2016-06-02T09:39:38.034Z</time>
      </trkpt>
      <trkpt lat="45.9459" lon="4.62055">
        <ele>410</ele>
        <time>2016-06-02T09:39:39.04Z</time>
      </trkpt>
      <trkpt lat="45.94582" lon="4.62057">
        <ele>412</ele>
        <time>2016-06-02T09:39:45.013Z</time>
      </trkpt>
      <trkpt lat="45.9458" lon="4.62057">
        <ele>412</ele>
        <time>2016-06-02T09:39:46.023Z</time>
      </trkpt>
      <trkpt lat="45.94572" lon="4.62061">
        <ele>412</ele>
        <time>2016-06-02T09:39:52.035Z</time>
      </trkpt>
      <trkpt lat="45.94571" lon="4.62062">
        <ele>412</ele>
        <time>2016-06-02T09:39:53.036Z</time>
      </trkpt>
      <trkpt lat="45.94565" lon="4.6207">
        <ele>412</ele>
        <time>2016-06-02T09:39:59.028Z</time>
      </trkpt>
      <trkpt lat="45.94563" lon="4.6207">
        <ele>412</ele>
        <time>2016-06-02T09:40:00.02Z</time>
      </trkpt>
      <trkpt lat="45.94556" lon="4.62073">
        <ele>412</ele>
        <time>2016-06-02T09:40:05.025Z</time>
      </trkpt>
      <trkpt lat="45.94554" lon="4.62074">
        <ele>412</ele>
        <time>2016-06-02T09:40:06.023Z</time>
      </trkpt>
      <trkpt lat="45.94546" lon="4.62077">
        <ele>413</ele>
        <time>2016-06-02T09:40:11.033Z</time>
      </trkpt>
      <trkpt lat="45.94545" lon="4.62077">
        <ele>413</ele>
        <time>2016-06-02T09:40:12.013Z</time>
      </trkpt>
      <trkpt lat="45.94538" lon="4.62083">
        <ele>413</ele>
        <time>2016-06-02T09:40:17.021Z</time>
      </trkpt>
      <trkpt lat="45.94537" lon="4.62083">
        <ele>405</ele>
        <time>2016-06-02T09:40:18.019Z</time>
      </trkpt>
      <trkpt lat="45.94528" lon="4.62088">
        <ele>406</ele>
        <time>2016-06-02T09:40:24.033Z</time>
      </trkpt>
      <trkpt lat="45.94527" lon="4.62089">
        <ele>406</ele>
        <time>2016-06-02T09:40:25.019Z</time>
      </trkpt>
      <trkpt lat="45.9452" lon="4.62096">
        <ele>406</ele>
        <time>2016-06-02T09:40:31.013Z</time>
      </trkpt>
      <trkpt lat="45.94518" lon="4.62097">
        <ele>406</ele>
        <time>2016-06-02T09:40:32.015Z</time>
      </trkpt>
      <trkpt lat="45.94511" lon="4.62105">
        <ele>406</ele>
        <time>2016-06-02T09:40:38.029Z</time>
      </trkpt>
      <trkpt lat="45.9451" lon="4.62106">
        <ele>406</ele>
        <time>2016-06-02T09:40:39.021Z</time>
      </trkpt>
      <trkpt lat="45.94504" lon="4.62113">
        <ele>405</ele>
        <time>2016-06-02T09:40:45.03Z</time>
      </trkpt>
      <trkpt lat="45.94503" lon="4.62115">
        <ele>405</ele>
        <time>2016-06-02T09:40:46.024Z</time>
      </trkpt>
      <trkpt lat="45.94496" lon="4.62123">
        <ele>408</ele>
        <time>2016-06-02T09:40:52.035Z</time>
      </trkpt>
      <trkpt lat="45.94495" lon="4.62124">
        <ele>408</ele>
        <time>2016-06-02T09:40:53.032Z</time>
      </trkpt>
      <trkpt lat="45.94488" lon="4.62131">
        <ele>408</ele>
        <time>2016-06-02T09:40:58.03Z</time>
      </trkpt>
      <trkpt lat="45.94487" lon="4.62132">
        <ele>407</ele>
        <time>2016-06-02T09:40:59.031Z</time>
      </trkpt>
      <trkpt lat="45.94481" lon="4.6214">
        <ele>407</ele>
        <time>2016-06-02T09:41:05.021Z</time>
      </trkpt>
      <trkpt lat="45.9448" lon="4.62141">
        <ele>407</ele>
        <time>2016-06-02T09:41:06.019Z</time>
      </trkpt>
      <trkpt lat="45.94472" lon="4.62146">
        <ele>407</ele>
        <time>2016-06-02T09:41:12.019Z</time>
      </trkpt>
      <trkpt lat="45.9447" lon="4.62147">
        <ele>407</ele>
        <time>2016-06-02T09:41:13.019Z</time>
      </trkpt>
      <trkpt lat="45.94464" lon="4.62154">
        <ele>407</ele>
        <time>2016-06-02T09:41:18.026Z</time>
      </trkpt>
      <trkpt lat="45.94462" lon="4.62154">
        <ele>407</ele>
        <time>2016-06-02T09:41:19.015Z</time>
      </trkpt>
      <trkpt lat="45.94456" lon="4.6216">
        <ele>407</ele>
        <time>2016-06-02T09:41:25.02Z</time>
      </trkpt>
      <trkpt lat="45.94455" lon="4.62161">
        <ele>407</ele>
        <time>2016-06-02T09:41:26.018Z</time>
      </trkpt>
      <trkpt lat="45.94446" lon="4.62162">
        <ele>407</ele>
        <time>2016-06-02T09:41:32.018Z</time>
      </trkpt>
      <trkpt lat="45.94445" lon="4.62163">
        <ele>407</ele>
        <time>2016-06-02T09:41:33.034Z</time>
      </trkpt>
      <trkpt lat="45.94438" lon="4.62168">
        <ele>404</ele>
        <time>2016-06-02T09:41:39.022Z</time>
      </trkpt>
      <trkpt lat="45.94437" lon="4.62169">
        <ele>404</ele>
        <time>2016-06-02T09:41:40.015Z</time>
      </trkpt>
      <trkpt lat="45.94428" lon="4.6217">
        <ele>405</ele>
        <time>2016-06-02T09:41:45.009Z</time>
      </trkpt>
      <trkpt lat="45.94427" lon="4.6217">
        <ele>405</ele>
        <time>2016-06-02T09:41:45.999Z</time>
      </trkpt>
      <trkpt lat="45.94419" lon="4.62168">
        <ele>406</ele>
        <time>2016-06-02T09:41:51.003Z</time>
      </trkpt>
      <trkpt lat="45.94417" lon="4.62168">
        <ele>406</ele>
        <time>2016-06-02T09:41:52.027Z</time>
      </trkpt>
      <trkpt lat="45.94409" lon="4.6217">
        <ele>405</ele>
        <time>2016-06-02T09:41:58.018Z</time>
      </trkpt>
      <trkpt lat="45.94407" lon="4.62169">
        <ele>405</ele>
        <time>2016-06-02T09:41:59.014Z</time>
      </trkpt>
      <trkpt lat="45.94399" lon="4.62165">
        <ele>409</ele>
        <time>2016-06-02T09:42:05.019Z</time>
      </trkpt>
      <trkpt lat="45.94398" lon="4.62165">
        <ele>409</ele>
        <time>2016-06-02T09:42:06.019Z</time>
      </trkpt>
      <trkpt lat="45.94389" lon="4.62162">
        <ele>410</ele>
        <time>2016-06-02T09:42:16.033Z</time>
      </trkpt>
      <trkpt lat="45.94388" lon="4.62162">
        <ele>410</ele>
        <time>2016-06-02T09:42:17.019Z</time>
      </trkpt>
      <trkpt lat="45.94379" lon="4.62164">
        <ele>410</ele>
        <time>2016-06-02T09:42:24.012Z</time>
      </trkpt>
      <trkpt lat="45.94378" lon="4.62164">
        <ele>410</ele>
        <time>2016-06-02T09:42:25.014Z</time>
      </trkpt>
      <trkpt lat="45.94371" lon="4.62169">
        <ele>405</ele>
        <time>2016-06-02T09:42:30.035Z</time>
      </trkpt>
      <trkpt lat="45.9437" lon="4.6217">
        <ele>405</ele>
        <time>2016-06-02T09:42:31.01Z</time>
      </trkpt>
      <trkpt lat="45.94363" lon="4.6217">
        <ele>405</ele>
        <time>2016-06-02T09:42:37.011Z</time>
      </trkpt>
      <trkpt lat="45.94361" lon="4.62171">
        <ele>405</ele>
        <time>2016-06-02T09:42:38.015Z</time>
      </trkpt>
      <trkpt lat="45.94354" lon="4.62175">
        <ele>405</ele>
        <time>2016-06-02T09:42:44.033Z</time>
      </trkpt>
      <trkpt lat="45.94353" lon="4.62176">
        <ele>405</ele>
        <time>2016-06-02T09:42:45.036Z</time>
      </trkpt>
      <trkpt lat="45.94345" lon="4.62178">
        <ele>406</ele>
        <time>2016-06-02T09:42:50.019Z</time>
      </trkpt>
      <trkpt lat="45.94344" lon="4.62178">
        <ele>406</ele>
        <time>2016-06-02T09:42:51.023Z</time>
      </trkpt>
      <trkpt lat="45.94336" lon="4.62183">
        <ele>406</ele>
        <time>2016-06-02T09:42:58.031Z</time>
      </trkpt>
      <trkpt lat="45.94335" lon="4.62183">
        <ele>406</ele>
        <time>2016-06-02T09:42:59.023Z</time>
      </trkpt>
      <trkpt lat="45.94328" lon="4.62185">
        <ele>405</ele>
        <time>2016-06-02T09:43:05.025Z</time>
      </trkpt>
      <trkpt lat="45.94326" lon="4.62185">
        <ele>405</ele>
        <time>2016-06-02T09:43:06.019Z</time>
      </trkpt>
      <trkpt lat="45.94317" lon="4.62186">
        <ele>404</ele>
        <time>2016-06-02T09:43:12.03Z</time>
      </trkpt>
      <trkpt lat="45.94316" lon="4.62186">
        <ele>404</ele>
        <time>2016-06-02T09:43:13.02Z</time>
      </trkpt>
      <trkpt lat="45.94308" lon="4.62185">
        <ele>404</ele>
        <time>2016-06-02T09:43:17.999Z</time>
      </trkpt>
      <trkpt lat="45.94307" lon="4.62186">
        <ele>404</ele>
        <time>2016-06-02T09:43:19.002Z</time>
      </trkpt>
      <trkpt lat="45.94298" lon="4.62187">
        <ele>403</ele>
        <time>2016-06-02T09:43:25.022Z</time>
      </trkpt>
      <trkpt lat="45.94297" lon="4.62188">
        <ele>403</ele>
        <time>2016-06-02T09:43:26.019Z</time>
      </trkpt>
      <trkpt lat="45.94289" lon="4.6219">
        <ele>403</ele>
        <time>2016-06-02T09:43:32.021Z</time>
      </trkpt>
      <trkpt lat="45.94288" lon="4.6219">
        <ele>403</ele>
        <time>2016-06-02T09:43:33.025Z</time>
      </trkpt>
      <trkpt lat="45.94279" lon="4.62192">
        <ele>403</ele>
        <time>2016-06-02T09:43:39.032Z</time>
      </trkpt>
      <trkpt lat="45.94277" lon="4.62192">
        <ele>403</ele>
        <time>2016-06-02T09:43:40.034Z</time>
      </trkpt>
      <trkpt lat="45.9427" lon="4.62193">
        <ele>403</ele>
        <time>2016-06-02T09:43:45.02Z</time>
      </trkpt>
      <trkpt lat="45.94268" lon="4.62194">
        <ele>403</ele>
        <time>2016-06-02T09:43:46.02Z</time>
      </trkpt>
      <trkpt lat="45.9426" lon="4.62196">
        <ele>403</ele>
        <time>2016-06-02T09:43:51.005Z</time>
      </trkpt>
      <trkpt lat="45.94259" lon="4.62197">
        <ele>403</ele>
        <time>2016-06-02T09:43:52.019Z</time>
      </trkpt>
      <trkpt lat="45.94251" lon="4.62199">
        <ele>402</ele>
        <time>2016-06-02T09:43:58.023Z</time>
      </trkpt>
      <trkpt lat="45.9425" lon="4.62198">
        <ele>401</ele>
        <time>2016-06-02T09:43:59.016Z</time>
      </trkpt>
      <trkpt lat="45.94241" lon="4.62198">
        <ele>401</ele>
        <time>2016-06-02T09:44:05.034Z</time>
      </trkpt>
      <trkpt lat="45.9424" lon="4.62198">
        <ele>401</ele>
        <time>2016-06-02T09:44:06.024Z</time>
      </trkpt>
      <trkpt lat="45.94232" lon="4.62195">
        <ele>401</ele>
        <time>2016-06-02T09:44:11.027Z</time>
      </trkpt>
      <trkpt lat="45.94231" lon="4.62194">
        <ele>401</ele>
        <time>2016-06-02T09:44:12.02Z</time>
      </trkpt>
      <trkpt lat="45.94222" lon="4.62191">
        <ele>401</ele>
        <time>2016-06-02T09:44:18.017Z</time>
      </trkpt>
      <trkpt lat="45.94221" lon="4.6219">
        <ele>401</ele>
        <time>2016-06-02T09:44:19.02Z</time>
      </trkpt>
      <trkpt lat="45.94212" lon="4.6219">
        <ele>401</ele>
        <time>2016-06-02T09:44:25.026Z</time>
      </trkpt>
      <trkpt lat="45.94211" lon="4.6219">
        <ele>401</ele>
        <time>2016-06-02T09:44:26.029Z</time>
      </trkpt>
      <trkpt lat="45.94202" lon="4.62188">
        <ele>401</ele>
        <time>2016-06-02T09:44:32.031Z</time>
      </trkpt>
      <trkpt lat="45.94201" lon="4.62188">
        <ele>401</ele>
        <time>2016-06-02T09:44:33.022Z</time>
      </trkpt>
      <trkpt lat="45.94192" lon="4.62183">
        <ele>401</ele>
        <time>2016-06-02T09:44:39.029Z</time>
      </trkpt>
      <trkpt lat="45.94191" lon="4.62182">
        <ele>401</ele>
        <time>2016-06-02T09:44:40.014Z</time>
      </trkpt>
      <trkpt lat="45.94183" lon="4.62179">
        <ele>401</ele>
        <time>2016-06-02T09:44:46.011Z</time>
      </trkpt>
      <trkpt lat="45.94182" lon="4.62178">
        <ele>401</ele>
        <time>2016-06-02T09:44:47.023Z</time>
      </trkpt>
      <trkpt lat="45.94173" lon="4.62176">
        <ele>402</ele>
        <time>2016-06-02T09:44:53.011Z</time>
      </trkpt>
      <trkpt lat="45.94172" lon="4.62175">
        <ele>402</ele>
        <time>2016-06-02T09:44:54.011Z</time>
      </trkpt>
      <trkpt lat="45.94164" lon="4.62172">
        <ele>402</ele>
        <time>2016-06-02T09:45:00.019Z</time>
      </trkpt>
      <trkpt lat="45.94162" lon="4.62171">
        <ele>402</ele>
        <time>2016-06-02T09:45:01.014Z</time>
      </trkpt>
      <trkpt lat="45.94155" lon="4.62166">
        <ele>404</ele>
        <time>2016-06-02T09:45:07.022Z</time>
      </trkpt>
      <trkpt lat="45.94153" lon="4.62166">
        <ele>404</ele>
        <time>2016-06-02T09:45:08.033Z</time>
      </trkpt>
      <trkpt lat="45.94145" lon="4.62162">
        <ele>405</ele>
        <time>2016-06-02T09:45:14.013Z</time>
      </trkpt>
      <trkpt lat="45.94144" lon="4.62161">
        <ele>405</ele>
        <time>2016-06-02T09:45:15.015Z</time>
      </trkpt>
      <trkpt lat="45.94137" lon="4.62156">
        <ele>405</ele>
        <time>2016-06-02T09:45:22.027Z</time>
      </trkpt>
      <trkpt lat="45.94136" lon="4.62155">
        <ele>405</ele>
        <time>2016-06-02T09:45:23.023Z</time>
      </trkpt>
      <trkpt lat="45.94128" lon="4.62151">
        <ele>405</ele>
        <time>2016-06-02T09:45:29.035Z</time>
      </trkpt>
      <trkpt lat="45.94127" lon="4.6215">
        <ele>405</ele>
        <time>2016-06-02T09:45:30.03Z</time>
      </trkpt>
      <trkpt lat="45.94118" lon="4.62148">
        <ele>405</ele>
        <time>2016-06-02T09:45:36.015Z</time>
      </trkpt>
      <trkpt lat="45.94116" lon="4.62148">
        <ele>405</ele>
        <time>2016-06-02T09:45:37.015Z</time>
      </trkpt>
      <trkpt lat="45.94107" lon="4.62147">
        <ele>405</ele>
        <time>2016-06-02T09:45:43.029Z</time>
      </trkpt>
      <trkpt lat="45.94106" lon="4.62147">
        <ele>405</ele>
        <time>2016-06-02T09:45:44.013Z</time>
      </trkpt>
      <trkpt lat="45.94098" lon="4.62149">
        <ele>404</ele>
        <time>2016-06-02T09:45:50.033Z</time>
      </trkpt>
      <trkpt lat="45.94097" lon="4.62149">
        <ele>404</ele>
        <time>2016-06-02T09:45:51.036Z</time>
      </trkpt>
      <trkpt lat="45.94089" lon="4.6215">
        <ele>403</ele>
        <time>2016-06-02T09:45:57.028Z</time>
      </trkpt>
      <trkpt lat="45.94087" lon="4.62151">
        <ele>403</ele>
        <time>2016-06-02T09:45:58.02Z</time>
      </trkpt>
      <trkpt lat="45.94079" lon="4.62152">
        <ele>402</ele>
        <time>2016-06-02T09:46:03.034Z</time>
      </trkpt>
      <trkpt lat="45.94078" lon="4.62153">
        <ele>402</ele>
        <time>2016-06-02T09:46:04.02Z</time>
      </trkpt>
      <trkpt lat="45.9407" lon="4.62155">
        <ele>402</ele>
        <time>2016-06-02T09:46:09.024Z</time>
      </trkpt>
      <trkpt lat="45.94068" lon="4.62155">
        <ele>402</ele>
        <time>2016-06-02T09:46:10.024Z</time>
      </trkpt>
      <trkpt lat="45.94061" lon="4.62157">
        <ele>403</ele>
        <time>2016-06-02T09:46:15.034Z</time>
      </trkpt>
      <trkpt lat="45.94059" lon="4.62158">
        <ele>403</ele>
        <time>2016-06-02T09:46:16.021Z</time>
      </trkpt>
      <trkpt lat="45.94051" lon="4.62162">
        <ele>403</ele>
        <time>2016-06-02T09:46:22.011Z</time>
      </trkpt>
      <trkpt lat="45.9405" lon="4.62163">
        <ele>403</ele>
        <time>2016-06-02T09:46:23.003Z</time>
      </trkpt>
      <trkpt lat="45.94041" lon="4.62165">
        <ele>402</ele>
        <time>2016-06-02T09:46:28.035Z</time>
      </trkpt>
      <trkpt lat="45.94039" lon="4.62166">
        <ele>402</ele>
        <time>2016-06-02T09:46:29.034Z</time>
      </trkpt>
      <trkpt lat="45.94031" lon="4.62169">
        <ele>395</ele>
        <time>2016-06-02T09:46:34.013Z</time>
      </trkpt>
      <trkpt lat="45.9403" lon="4.62169">
        <ele>395</ele>
        <time>2016-06-02T09:46:35.019Z</time>
      </trkpt>
      <trkpt lat="45.94023" lon="4.62172">
        <ele>395</ele>
        <time>2016-06-02T09:46:41.011Z</time>
      </trkpt>
      <trkpt lat="45.94021" lon="4.62172">
        <ele>395</ele>
        <time>2016-06-02T09:46:42.025Z</time>
      </trkpt>
      <trkpt lat="45.94014" lon="4.62177">
        <ele>395</ele>
        <time>2016-06-02T09:46:48.021Z</time>
      </trkpt>
      <trkpt lat="45.94013" lon="4.62178">
        <ele>395</ele>
        <time>2016-06-02T09:46:49.036Z</time>
      </trkpt>
      <trkpt lat="45.94005" lon="4.6218">
        <ele>395</ele>
        <time>2016-06-02T09:46:55.007Z</time>
      </trkpt>
      <trkpt lat="45.94003" lon="4.62181">
        <ele>395</ele>
        <time>2016-06-02T09:46:56.022Z</time>
      </trkpt>
      <trkpt lat="45.93995" lon="4.62181">
        <ele>395</ele>
        <time>2016-06-02T09:47:01.019Z</time>
      </trkpt>
      <trkpt lat="45.93994" lon="4.62182">
        <ele>395</ele>
        <time>2016-06-02T09:47:02.018Z</time>
      </trkpt>
      <trkpt lat="45.93987" lon="4.62187">
        <ele>394</ele>
        <time>2016-06-02T09:47:07.013Z</time>
      </trkpt>
      <trkpt lat="45.93985" lon="4.62188">
        <ele>394</ele>
        <time>2016-06-02T09:47:08.012Z</time>
      </trkpt>
      <trkpt lat="45.93977" lon="4.6219">
        <ele>394</ele>
        <time>2016-06-02T09:47:17.033Z</time>
      </trkpt>
      <trkpt lat="45.93975" lon="4.62191">
        <ele>394</ele>
        <time>2016-06-02T09:47:18.021Z</time>
      </trkpt>
      <trkpt lat="45.93967" lon="4.62192">
        <ele>394</ele>
        <time>2016-06-02T09:47:23.04Z</time>
      </trkpt>
      <trkpt lat="45.93966" lon="4.62192">
        <ele>393</ele>
        <time>2016-06-02T09:47:24.039Z</time>
      </trkpt>
      <trkpt lat="45.93958" lon="4.62198">
        <ele>393</ele>
        <time>2016-06-02T09:47:29.018Z</time>
      </trkpt>
      <trkpt lat="45.93956" lon="4.62198">
        <ele>393</ele>
        <time>2016-06-02T09:47:30.018Z</time>
      </trkpt>
      <trkpt lat="45.93948" lon="4.62201">
        <ele>393</ele>
        <time>2016-06-02T09:47:36.017Z</time>
      </trkpt>
      <trkpt lat="45.93946" lon="4.62201">
        <ele>393</ele>
        <time>2016-06-02T09:47:37.021Z</time>
      </trkpt>
      <trkpt lat="45.93938" lon="4.62202">
        <ele>393</ele>
        <time>2016-06-02T09:47:43.008Z</time>
      </trkpt>
      <trkpt lat="45.93937" lon="4.62202">
        <ele>393</ele>
        <time>2016-06-02T09:47:44.012Z</time>
      </trkpt>
      <trkpt lat="45.93928" lon="4.622">
        <ele>394</ele>
        <time>2016-06-02T09:47:50.033Z</time>
      </trkpt>
      <trkpt lat="45.93927" lon="4.622">
        <ele>394</ele>
        <time>2016-06-02T09:47:51.032Z</time>
      </trkpt>
      <trkpt lat="45.93918" lon="4.622">
        <ele>394</ele>
        <time>2016-06-02T09:47:56.999Z</time>
      </trkpt>
      <trkpt lat="45.93916" lon="4.622">
        <ele>393</ele>
        <time>2016-06-02T09:47:58.022Z</time>
      </trkpt>
      <trkpt lat="45.93907" lon="4.62197">
        <ele>394</ele>
        <time>2016-06-02T09:48:04.035Z</time>
      </trkpt>
      <trkpt lat="45.93906" lon="4.62196">
        <ele>394</ele>
        <time>2016-06-02T09:48:05.025Z</time>
      </trkpt>
      <trkpt lat="45.93897" lon="4.62194">
        <ele>394</ele>
        <time>2016-06-02T09:48:11.04Z</time>
      </trkpt>
      <trkpt lat="45.93896" lon="4.62193">
        <ele>394</ele>
        <time>2016-06-02T09:48:12.035Z</time>
      </trkpt>
      <trkpt lat="45.9389" lon="4.62186">
        <ele>394</ele>
        <time>2016-06-02T09:48:18.015Z</time>
      </trkpt>
      <trkpt lat="45.93889" lon="4.62185">
        <ele>394</ele>
        <time>2016-06-02T09:48:19.021Z</time>
      </trkpt>
      <trkpt lat="45.93882" lon="4.6218">
        <ele>394</ele>
        <time>2016-06-02T09:48:25.016Z</time>
      </trkpt>
      <trkpt lat="45.93881" lon="4.62179">
        <ele>394</ele>
        <time>2016-06-02T09:48:26.038Z</time>
      </trkpt>
      <trkpt lat="45.93873" lon="4.62175">
        <ele>394</ele>
        <time>2016-06-02T09:48:34.012Z</time>
      </trkpt>
      <trkpt lat="45.93872" lon="4.62174">
        <ele>394</ele>
        <time>2016-06-02T09:48:35.019Z</time>
      </trkpt>
      <trkpt lat="45.93863" lon="4.62172">
        <ele>394</ele>
        <time>2016-06-02T09:48:41.028Z</time>
      </trkpt>
      <trkpt lat="45.93862" lon="4.62171">
        <ele>394</ele>
        <time>2016-06-02T09:48:42.014Z</time>
      </trkpt>
      <trkpt lat="45.93854" lon="4.62167">
        <ele>394</ele>
        <time>2016-06-02T09:48:49.014Z</time>
      </trkpt>
      <trkpt lat="45.93853" lon="4.62166">
        <ele>399</ele>
        <time>2016-06-02T09:48:50.02Z</time>
      </trkpt>
      <trkpt lat="45.93846" lon="4.6216">
        <ele>398</ele>
        <time>2016-06-02T09:48:56.02Z</time>
      </trkpt>
      <trkpt lat="45.93845" lon="4.62159">
        <ele>398</ele>
        <time>2016-06-02T09:48:57.024Z</time>
      </trkpt>
      <trkpt lat="45.93837" lon="4.62155">
        <ele>398</ele>
        <time>2016-06-02T09:49:03.02Z</time>
      </trkpt>
      <trkpt lat="45.93836" lon="4.62154">
        <ele>398</ele>
        <time>2016-06-02T09:49:04.024Z</time>
      </trkpt>
      <trkpt lat="45.93829" lon="4.62151">
        <ele>397</ele>
        <time>2016-06-02T09:49:09.029Z</time>
      </trkpt>
      <trkpt lat="45.93827" lon="4.62151">
        <ele>397</ele>
        <time>2016-06-02T09:49:10.013Z</time>
      </trkpt>
      <trkpt lat="45.93819" lon="4.62149">
        <ele>397</ele>
        <time>2016-06-02T09:49:15.04Z</time>
      </trkpt>
      <trkpt lat="45.93818" lon="4.62148">
        <ele>397</ele>
        <time>2016-06-02T09:49:16.028Z</time>
      </trkpt>
      <trkpt lat="45.93809" lon="4.62147">
        <ele>397</ele>
        <time>2016-06-02T09:49:22.028Z</time>
      </trkpt>
      <trkpt lat="45.93808" lon="4.62146">
        <ele>397</ele>
        <time>2016-06-02T09:49:23.036Z</time>
      </trkpt>
      <trkpt lat="45.938" lon="4.62145">
        <ele>397</ele>
        <time>2016-06-02T09:49:28.008Z</time>
      </trkpt>
      <trkpt lat="45.93799" lon="4.62145">
        <ele>397</ele>
        <time>2016-06-02T09:49:29.008Z</time>
      </trkpt>
      <trkpt lat="45.93791" lon="4.62144">
        <ele>397</ele>
        <time>2016-06-02T09:49:34.033Z</time>
      </trkpt>
      <trkpt lat="45.9379" lon="4.62144">
        <ele>397</ele>
        <time>2016-06-02T09:49:35.02Z</time>
      </trkpt>
      <trkpt lat="45.93781" lon="4.62145">
        <ele>396</ele>
        <time>2016-06-02T09:49:41.024Z</time>
      </trkpt>
      <trkpt lat="45.9378" lon="4.62145">
        <ele>396</ele>
        <time>2016-06-02T09:49:42.029Z</time>
      </trkpt>
      <trkpt lat="45.93771" lon="4.62143">
        <ele>396</ele>
        <time>2016-06-02T09:49:48.03Z</time>
      </trkpt>
      <trkpt lat="45.9377" lon="4.62143">
        <ele>396</ele>
        <time>2016-06-02T09:49:49.028Z</time>
      </trkpt>
      <trkpt lat="45.93761" lon="4.62144">
        <ele>395</ele>
        <time>2016-06-02T09:49:55.029Z</time>
      </trkpt>
      <trkpt lat="45.9376" lon="4.62144">
        <ele>395</ele>
        <time>2016-06-02T09:49:56.022Z</time>
      </trkpt>
      <trkpt lat="45.93751" lon="4.62143">
        <ele>395</ele>
        <time>2016-06-02T09:50:02.013Z</time>
      </trkpt>
      <trkpt lat="45.9375" lon="4.62142">
        <ele>392</ele>
        <time>2016-06-02T09:50:03.038Z</time>
      </trkpt>
      <trkpt lat="45.93741" lon="4.62138">
        <ele>393</ele>
        <time>2016-06-02T09:50:09.01Z</time>
      </trkpt>
      <trkpt lat="45.9374" lon="4.62137">
        <ele>393</ele>
        <time>2016-06-02T09:50:10.032Z</time>
      </trkpt>
      <trkpt lat="45.93732" lon="4.62136">
        <ele>393</ele>
        <time>2016-06-02T09:50:17.024Z</time>
      </trkpt>
      <trkpt lat="45.9373" lon="4.62137">
        <ele>392</ele>
        <time>2016-06-02T09:50:18.027Z</time>
      </trkpt>
      <trkpt lat="45.93722" lon="4.62136">
        <ele>392</ele>
        <time>2016-06-02T09:50:23.02Z</time>
      </trkpt>
      <trkpt lat="45.93721" lon="4.62135">
        <ele>392</ele>
        <time>2016-06-02T09:50:24.025Z</time>
      </trkpt>
      <trkpt lat="45.93713" lon="4.62131">
        <ele>392</ele>
        <time>2016-06-02T09:50:30.022Z</time>
      </trkpt>
      <trkpt lat="45.93712" lon="4.6213">
        <ele>392</ele>
        <time>2016-06-02T09:50:31.017Z</time>
      </trkpt>
      <trkpt lat="45.93705" lon="4.62126">
        <ele>392</ele>
        <time>2016-06-02T09:50:37.02Z</time>
      </trkpt>
      <trkpt lat="45.93704" lon="4.62126">
        <ele>392</ele>
        <time>2016-06-02T09:50:38.031Z</time>
      </trkpt>
      <trkpt lat="45.93696" lon="4.62121">
        <ele>392</ele>
        <time>2016-06-02T09:50:45.017Z</time>
      </trkpt>
      <trkpt lat="45.93694" lon="4.62121">
        <ele>392</ele>
        <time>2016-06-02T09:50:46.021Z</time>
      </trkpt>
      <trkpt lat="45.93686" lon="4.62116">
        <ele>393</ele>
        <time>2016-06-02T09:50:53.015Z</time>
      </trkpt>
      <trkpt lat="45.93685" lon="4.62116">
        <ele>393</ele>
        <time>2016-06-02T09:50:54.019Z</time>
      </trkpt>
      <trkpt lat="45.93676" lon="4.62111">
        <ele>393</ele>
        <time>2016-06-02T09:51:01Z</time>
      </trkpt>
      <trkpt lat="45.93675" lon="4.62111">
        <ele>393</ele>
        <time>2016-06-02T09:51:01.999Z</time>
      </trkpt>
      <trkpt lat="45.93667" lon="4.62111">
        <ele>391</ele>
        <time>2016-06-02T09:51:09.016Z</time>
      </trkpt>
      <trkpt lat="45.93665" lon="4.6211">
        <ele>391</ele>
        <time>2016-06-02T09:51:10.018Z</time>
      </trkpt>
      <trkpt lat="45.93656" lon="4.6211">
        <ele>391</ele>
        <time>2016-06-02T09:51:17.019Z</time>
      </trkpt>
      <trkpt lat="45.93655" lon="4.62109">
        <ele>391</ele>
        <time>2016-06-02T09:51:18.014Z</time>
      </trkpt>
      <trkpt lat="45.93648" lon="4.62107">
        <ele>391</ele>
        <time>2016-06-02T09:51:24.011Z</time>
      </trkpt>
      <trkpt lat="45.93646" lon="4.62106">
        <ele>390</ele>
        <time>2016-06-02T09:51:25.001Z</time>
      </trkpt>
      <trkpt lat="45.93639" lon="4.62106">
        <ele>390</ele>
        <time>2016-06-02T09:51:30.023Z</time>
      </trkpt>
      <trkpt lat="45.93637" lon="4.62106">
        <ele>390</ele>
        <time>2016-06-02T09:51:31.02Z</time>
      </trkpt>
      <trkpt lat="45.93628" lon="4.62105">
        <ele>390</ele>
        <time>2016-06-02T09:51:37.022Z</time>
      </trkpt>
      <trkpt lat="45.93627" lon="4.62105">
        <ele>390</ele>
        <time>2016-06-02T09:51:38.013Z</time>
      </trkpt>
      <trkpt lat="45.93619" lon="4.62106">
        <ele>390</ele>
        <time>2016-06-02T09:51:43.015Z</time>
      </trkpt>
      <trkpt lat="45.93618" lon="4.62106">
        <ele>390</ele>
        <time>2016-06-02T09:51:44.027Z</time>
      </trkpt>
      <trkpt lat="45.93609" lon="4.62105">
        <ele>390</ele>
        <time>2016-06-02T09:51:51.015Z</time>
      </trkpt>
      <trkpt lat="45.93608" lon="4.62104">
        <ele>390</ele>
        <time>2016-06-02T09:51:52.017Z</time>
      </trkpt>
      <trkpt lat="45.93599" lon="4.62101">
        <ele>390</ele>
        <time>2016-06-02T09:51:59.01Z</time>
      </trkpt>
      <trkpt lat="45.93598" lon="4.62101">
        <ele>390</ele>
        <time>2016-06-02T09:52:00.009Z</time>
      </trkpt>
      <trkpt lat="45.93589" lon="4.62102">
        <ele>390</ele>
        <time>2016-06-02T09:52:06.017Z</time>
      </trkpt>
      <trkpt lat="45.93588" lon="4.62102">
        <ele>390</ele>
        <time>2016-06-02T09:52:07.023Z</time>
      </trkpt>
      <trkpt lat="45.9358" lon="4.62103">
        <ele>388</ele>
        <time>2016-06-02T09:52:12.016Z</time>
      </trkpt>
      <trkpt lat="45.93578" lon="4.62103">
        <ele>388</ele>
        <time>2016-06-02T09:52:13.017Z</time>
      </trkpt>
      <trkpt lat="45.9357" lon="4.62103">
        <ele>388</ele>
        <time>2016-06-02T09:52:19.012Z</time>
      </trkpt>
      <trkpt lat="45.93568" lon="4.62103">
        <ele>387</ele>
        <time>2016-06-02T09:52:20.022Z</time>
      </trkpt>
      <trkpt lat="45.93559" lon="4.62101">
        <ele>387</ele>
        <time>2016-06-02T09:52:26.038Z</time>
      </trkpt>
      <trkpt lat="45.93558" lon="4.621">
        <ele>387</ele>
        <time>2016-06-02T09:52:27.032Z</time>
      </trkpt>
      <trkpt lat="45.93551" lon="4.62097">
        <ele>387</ele>
        <time>2016-06-02T09:52:32.014Z</time>
      </trkpt>
      <trkpt lat="45.93549" lon="4.62096">
        <ele>387</ele>
        <time>2016-06-02T09:52:33.002Z</time>
      </trkpt>
      <trkpt lat="45.93541" lon="4.62093">
        <ele>386</ele>
        <time>2016-06-02T09:52:39.021Z</time>
      </trkpt>
      <trkpt lat="45.93541" lon="4.62092">
        <ele>386</ele>
        <time>2016-06-02T09:52:40.022Z</time>
      </trkpt>
      <trkpt lat="45.93533" lon="4.62084">
        <ele>386</ele>
        <time>2016-06-02T09:52:47.011Z</time>
      </trkpt>
      <trkpt lat="45.93532" lon="4.62083">
        <ele>388</ele>
        <time>2016-06-02T09:52:48.023Z</time>
      </trkpt>
      <trkpt lat="45.93525" lon="4.62077">
        <ele>388</ele>
        <time>2016-06-02T09:52:54.024Z</time>
      </trkpt>
      <trkpt lat="45.93524" lon="4.62076">
        <ele>388</ele>
        <time>2016-06-02T09:52:55.029Z</time>
      </trkpt>
      <trkpt lat="45.93517" lon="4.62069">
        <ele>388</ele>
        <time>2016-06-02T09:53:01.008Z</time>
      </trkpt>
      <trkpt lat="45.93516" lon="4.62068">
        <ele>388</ele>
        <time>2016-06-02T09:53:02.025Z</time>
      </trkpt>
      <trkpt lat="45.93511" lon="4.62059">
        <ele>388</ele>
        <time>2016-06-02T09:53:11.044Z</time>
      </trkpt>
      <trkpt lat="45.9351" lon="4.62057">
        <ele>388</ele>
        <time>2016-06-02T09:53:12.029Z</time>
      </trkpt>
      <trkpt lat="45.93506" lon="4.62047">
        <ele>388</ele>
        <time>2016-06-02T09:53:19.015Z</time>
      </trkpt>
      <trkpt lat="45.93506" lon="4.62045">
        <ele>388</ele>
        <time>2016-06-02T09:53:20.026Z</time>
      </trkpt>
      <trkpt lat="45.93505" lon="4.62033">
        <ele>388</ele>
        <time>2016-06-02T09:53:26.023Z</time>
      </trkpt>
      <trkpt lat="45.93505" lon="4.62031">
        <ele>388</ele>
        <time>2016-06-02T09:53:27.027Z</time>
      </trkpt>
      <trkpt lat="45.93503" lon="4.6202">
        <ele>388</ele>
        <time>2016-06-02T09:53:33.031Z</time>
      </trkpt>
      <trkpt lat="45.93503" lon="4.62019">
        <ele>388</ele>
        <time>2016-06-02T09:53:34.032Z</time>
      </trkpt>
      <trkpt lat="45.93501" lon="4.62007">
        <ele>387</ele>
        <time>2016-06-02T09:54:16.012Z</time>
      </trkpt>
      <trkpt lat="45.93502" lon="4.62005">
        <ele>387</ele>
        <time>2016-06-02T09:54:17.016Z</time>
      </trkpt>
      <trkpt lat="45.93503" lon="4.61993">
        <ele>387</ele>
        <time>2016-06-02T09:54:24.009Z</time>
      </trkpt>
      <trkpt lat="45.93503" lon="4.61992">
        <ele>387</ele>
        <time>2016-06-02T09:54:25.028Z</time>
      </trkpt>
      <trkpt lat="45.93503" lon="4.6198">
        <ele>388</ele>
        <time>2016-06-02T09:54:31.019Z</time>
      </trkpt>
      <trkpt lat="45.93503" lon="4.61978">
        <ele>388</ele>
        <time>2016-06-02T09:54:32.035Z</time>
      </trkpt>
      <trkpt lat="45.93506" lon="4.61966">
        <ele>389</ele>
        <time>2016-06-02T09:54:37.018Z</time>
      </trkpt>
      <trkpt lat="45.93506" lon="4.61964">
        <ele>389</ele>
        <time>2016-06-02T09:54:38.021Z</time>
      </trkpt>
      <trkpt lat="45.93507" lon="4.61952">
        <ele>389</ele>
        <time>2016-06-02T09:54:43.012Z</time>
      </trkpt>
      <trkpt lat="45.93508" lon="4.6195">
        <ele>389</ele>
        <time>2016-06-02T09:54:44.013Z</time>
      </trkpt>
      <trkpt lat="45.93507" lon="4.61937">
        <ele>388</ele>
        <time>2016-06-02T09:54:50.019Z</time>
      </trkpt>
      <trkpt lat="45.93506" lon="4.61935">
        <ele>388</ele>
        <time>2016-06-02T09:54:51.011Z</time>
      </trkpt>
      <trkpt lat="45.93506" lon="4.61922">
        <ele>387</ele>
        <time>2016-06-02T09:54:57.016Z</time>
      </trkpt>
      <trkpt lat="45.93506" lon="4.6192">
        <ele>386</ele>
        <time>2016-06-02T09:54:58.019Z</time>
      </trkpt>
      <trkpt lat="45.93507" lon="4.61909">
        <ele>387</ele>
        <time>2016-06-02T09:55:04.017Z</time>
      </trkpt>
      <trkpt lat="45.93507" lon="4.61907">
        <ele>388</ele>
        <time>2016-06-02T09:55:05.015Z</time>
      </trkpt>
      <trkpt lat="45.93502" lon="4.61896">
        <ele>389</ele>
        <time>2016-06-02T09:55:12.016Z</time>
      </trkpt>
      <trkpt lat="45.93502" lon="4.61894">
        <ele>389</ele>
        <time>2016-06-02T09:55:13.011Z</time>
      </trkpt>
      <trkpt lat="45.93501" lon="4.61883">
        <ele>389</ele>
        <time>2016-06-02T09:55:18.019Z</time>
      </trkpt>
      <trkpt lat="45.93501" lon="4.6188">
        <ele>390</ele>
        <time>2016-06-02T09:55:19.026Z</time>
      </trkpt>
      <trkpt lat="45.935" lon="4.61869">
        <ele>382</ele>
        <time>2016-06-02T09:55:24.024Z</time>
      </trkpt>
      <trkpt lat="45.93499" lon="4.61867">
        <ele>382</ele>
        <time>2016-06-02T09:55:25.032Z</time>
      </trkpt>
      <trkpt lat="45.93496" lon="4.61857">
        <ele>382</ele>
        <time>2016-06-02T09:55:30.018Z</time>
      </trkpt>
      <trkpt lat="45.93495" lon="4.61855">
        <ele>382</ele>
        <time>2016-06-02T09:55:31.025Z</time>
      </trkpt>
      <trkpt lat="45.9349" lon="4.61845">
        <ele>383</ele>
        <time>2016-06-02T09:55:37.02Z</time>
      </trkpt>
      <trkpt lat="45.93489" lon="4.61844">
        <ele>383</ele>
        <time>2016-06-02T09:55:38.001Z</time>
      </trkpt>
      <trkpt lat="45.93482" lon="4.61838">
        <ele>382</ele>
        <time>2016-06-02T09:55:47.033Z</time>
      </trkpt>
      <trkpt lat="45.93481" lon="4.61837">
        <ele>382</ele>
        <time>2016-06-02T09:55:48.022Z</time>
      </trkpt>
      <trkpt lat="45.93474" lon="4.61831">
        <ele>382</ele>
        <time>2016-06-02T09:55:57.032Z</time>
      </trkpt>
      <trkpt lat="45.93473" lon="4.6183">
        <ele>382</ele>
        <time>2016-06-02T09:55:58.029Z</time>
      </trkpt>
      <trkpt lat="45.93466" lon="4.61824">
        <ele>381</ele>
        <time>2016-06-02T09:56:06.016Z</time>
      </trkpt>
      <trkpt lat="45.93465" lon="4.61823">
        <ele>381</ele>
        <time>2016-06-02T09:56:07.015Z</time>
      </trkpt>
      <trkpt lat="45.93458" lon="4.61817">
        <ele>380</ele>
        <time>2016-06-02T09:56:15.007Z</time>
      </trkpt>
      <trkpt lat="45.93457" lon="4.61816">
        <ele>380</ele>
        <time>2016-06-02T09:56:16.009Z</time>
      </trkpt>
      <trkpt lat="45.93449" lon="4.61813">
        <ele>379</ele>
        <time>2016-06-02T09:56:23.02Z</time>
      </trkpt>
      <trkpt lat="45.93448" lon="4.61814">
        <ele>379</ele>
        <time>2016-06-02T09:56:24.03Z</time>
      </trkpt>
      <trkpt lat="45.93439" lon="4.61814">
        <ele>378</ele>
        <time>2016-06-02T09:56:32.018Z</time>
      </trkpt>
      <trkpt lat="45.93438" lon="4.61815">
        <ele>377</ele>
        <time>2016-06-02T09:56:33.024Z</time>
      </trkpt>
      <trkpt lat="45.93429" lon="4.61817">
        <ele>376</ele>
        <time>2016-06-02T09:56:42.038Z</time>
      </trkpt>
      <trkpt lat="45.93428" lon="4.61816">
        <ele>376</ele>
        <time>2016-06-02T09:56:43.038Z</time>
      </trkpt>
      <trkpt lat="45.9342" lon="4.61817">
        <ele>375</ele>
        <time>2016-06-02T09:56:53.019Z</time>
      </trkpt>
      <trkpt lat="45.93419" lon="4.61817">
        <ele>375</ele>
        <time>2016-06-02T09:56:54.035Z</time>
      </trkpt>
      <trkpt lat="45.93411" lon="4.61816">
        <ele>368</ele>
        <time>2016-06-02T09:57:02.018Z</time>
      </trkpt>
      <trkpt lat="45.9341" lon="4.61816">
        <ele>368</ele>
        <time>2016-06-02T09:57:03.032Z</time>
      </trkpt>
      <trkpt lat="45.93401" lon="4.61813">
        <ele>367</ele>
        <time>2016-06-02T09:57:12.008Z</time>
      </trkpt>
      <trkpt lat="45.93401" lon="4.61812">
        <ele>367</ele>
        <time>2016-06-02T09:57:13.004Z</time>
      </trkpt>
      <trkpt lat="45.93393" lon="4.61805">
        <ele>366</ele>
        <time>2016-06-02T09:57:23.034Z</time>
      </trkpt>
      <trkpt lat="45.93392" lon="4.61804">
        <ele>366</ele>
        <time>2016-06-02T09:57:24.018Z</time>
      </trkpt>
      <trkpt lat="45.93384" lon="4.61802">
        <ele>365</ele>
        <time>2016-06-02T09:57:40.016Z</time>
      </trkpt>
      <trkpt lat="45.93382" lon="4.61801">
        <ele>365</ele>
        <time>2016-06-02T09:57:41.016Z</time>
      </trkpt>
      <trkpt lat="45.93374" lon="4.61798">
        <ele>364</ele>
        <time>2016-06-02T09:57:48.027Z</time>
      </trkpt>
      <trkpt lat="45.93373" lon="4.61798">
        <ele>364</ele>
        <time>2016-06-02T09:57:49.022Z</time>
      </trkpt>
      <trkpt lat="45.93365" lon="4.61791">
        <ele>363</ele>
        <time>2016-06-02T09:58:02.018Z</time>
      </trkpt>
      <trkpt lat="45.93364" lon="4.61792">
        <ele>363</ele>
        <time>2016-06-02T09:58:03.014Z</time>
      </trkpt>
      <trkpt lat="45.93356" lon="4.61792">
        <ele>363</ele>
        <time>2016-06-02T09:58:10.033Z</time>
      </trkpt>
      <trkpt lat="45.93355" lon="4.61792">
        <ele>362</ele>
        <time>2016-06-02T09:58:11.035Z</time>
      </trkpt>
      <trkpt lat="45.93346" lon="4.61788">
        <ele>362</ele>
        <time>2016-06-02T09:58:19.013Z</time>
      </trkpt>
      <trkpt lat="45.93345" lon="4.61787">
        <ele>362</ele>
        <time>2016-06-02T09:58:20.018Z</time>
      </trkpt>
      <trkpt lat="45.93337" lon="4.61781">
        <ele>361</ele>
        <time>2016-06-02T09:58:29.027Z</time>
      </trkpt>
      <trkpt lat="45.93337" lon="4.6178">
        <ele>361</ele>
        <time>2016-06-02T09:58:30.022Z</time>
      </trkpt>
      <trkpt lat="45.93329" lon="4.61774">
        <ele>355</ele>
        <time>2016-06-02T09:58:40.016Z</time>
      </trkpt>
      <trkpt lat="45.93328" lon="4.61773">
        <ele>355</ele>
        <time>2016-06-02T09:58:41.028Z</time>
      </trkpt>
      <trkpt lat="45.93319" lon="4.61774">
        <ele>355</ele>
        <time>2016-06-02T09:58:50.037Z</time>
      </trkpt>
      <trkpt lat="45.93318" lon="4.61775">
        <ele>354</ele>
        <time>2016-06-02T09:58:51.025Z</time>
      </trkpt>
      <trkpt lat="45.93312" lon="4.61782">
        <ele>354</ele>
        <time>2016-06-02T09:58:58.034Z</time>
      </trkpt>
      <trkpt lat="45.93311" lon="4.61783">
        <ele>354</ele>
        <time>2016-06-02T09:58:59.015Z</time>
      </trkpt>
      <trkpt lat="45.93305" lon="4.61791">
        <ele>353</ele>
        <time>2016-06-02T09:59:09.02Z</time>
      </trkpt>
      <trkpt lat="45.93304" lon="4.61792">
        <ele>353</ele>
        <time>2016-06-02T09:59:10.032Z</time>
      </trkpt>
      <trkpt lat="45.93297" lon="4.61797">
        <ele>353</ele>
        <time>2016-06-02T09:59:20.036Z</time>
      </trkpt>
      <trkpt lat="45.93296" lon="4.61797">
        <ele>353</ele>
        <time>2016-06-02T09:59:21.035Z</time>
      </trkpt>
      <trkpt lat="45.93287" lon="4.618">
        <ele>352</ele>
        <time>2016-06-02T09:59:35.029Z</time>
      </trkpt>
      <trkpt lat="45.93287" lon="4.618">
        <ele>352</ele>
        <time>2016-06-02T09:59:36.017Z</time>
      </trkpt>
      <trkpt lat="45.93278" lon="4.61798">
        <ele>352</ele>
        <time>2016-06-02T09:59:46.029Z</time>
      </trkpt>
      <trkpt lat="45.93278" lon="4.61798">
        <ele>352</ele>
        <time>2016-06-02T09:59:47.028Z</time>
      </trkpt>
      <trkpt lat="45.93269" lon="4.61795">
        <ele>352</ele>
        <time>2016-06-02T09:59:54.019Z</time>
      </trkpt>
      <trkpt lat="45.93269" lon="4.61794">
        <ele>352</ele>
        <time>2016-06-02T09:59:55.018Z</time>
      </trkpt>
      <trkpt lat="45.93262" lon="4.61786">
        <ele>352</ele>
        <time>2016-06-02T10:00:05.043Z</time>
      </trkpt>
      <trkpt lat="45.9326" lon="4.61786">
        <ele>352</ele>
        <time>2016-06-02T10:00:06.039Z</time>
      </trkpt>
      <trkpt lat="45.93252" lon="4.61789">
        <ele>351</ele>
        <time>2016-06-02T10:00:11.039Z</time>
      </trkpt>
      <trkpt lat="45.9325" lon="4.6179">
        <ele>351</ele>
        <time>2016-06-02T10:00:12.046Z</time>
      </trkpt>
      <trkpt lat="45.93242" lon="4.61793">
        <ele>350</ele>
        <time>2016-06-02T10:00:18.003Z</time>
      </trkpt>
      <trkpt lat="45.93241" lon="4.61794">
        <ele>350</ele>
        <time>2016-06-02T10:00:19.01Z</time>
      </trkpt>
      <trkpt lat="45.93233" lon="4.61789">
        <ele>350</ele>
        <time>2016-06-02T10:00:30.024Z</time>
      </trkpt>
      <trkpt lat="45.93232" lon="4.61788">
        <ele>350</ele>
        <time>2016-06-02T10:00:31.019Z</time>
      </trkpt>
      <trkpt lat="45.93223" lon="4.61787">
        <ele>350</ele>
        <time>2016-06-02T10:00:37.018Z</time>
      </trkpt>
      <trkpt lat="45.93222" lon="4.61786">
        <ele>350</ele>
        <time>2016-06-02T10:00:38.002Z</time>
      </trkpt>
      <trkpt lat="45.93215" lon="4.61783">
        <ele>350</ele>
        <time>2016-06-02T10:00:44.017Z</time>
      </trkpt>
      <trkpt lat="45.93213" lon="4.61784">
        <ele>350</ele>
        <time>2016-06-02T10:00:45.02Z</time>
      </trkpt>
      <trkpt lat="45.93204" lon="4.61783">
        <ele>351</ele>
        <time>2016-06-02T10:00:55.015Z</time>
      </trkpt>
      <trkpt lat="45.93203" lon="4.61783">
        <ele>351</ele>
        <time>2016-06-02T10:00:56.018Z</time>
      </trkpt>
      <trkpt lat="45.93194" lon="4.61784">
        <ele>351</ele>
        <time>2016-06-02T10:01:06.024Z</time>
      </trkpt>
      <trkpt lat="45.93194" lon="4.61783">
        <ele>351</ele>
        <time>2016-06-02T10:01:07.032Z</time>
      </trkpt>
      <trkpt lat="45.93186" lon="4.61781">
        <ele>351</ele>
        <time>2016-06-02T10:01:17.026Z</time>
      </trkpt>
      <trkpt lat="45.93185" lon="4.61781">
        <ele>351</ele>
        <time>2016-06-02T10:01:18.013Z</time>
      </trkpt>
      <trkpt lat="45.93176" lon="4.61779">
        <ele>351</ele>
        <time>2016-06-02T10:01:24.023Z</time>
      </trkpt>
      <trkpt lat="45.93175" lon="4.61779">
        <ele>351</ele>
        <time>2016-06-02T10:01:25.023Z</time>
      </trkpt>
      <trkpt lat="45.93166" lon="4.61782">
        <ele>354</ele>
        <time>2016-06-02T10:01:30.024Z</time>
      </trkpt>
      <trkpt lat="45.93164" lon="4.61782">
        <ele>354</ele>
        <time>2016-06-02T10:01:31.019Z</time>
      </trkpt>
      <trkpt lat="45.93157" lon="4.61785">
        <ele>354</ele>
        <time>2016-06-02T10:01:36.012Z</time>
      </trkpt>
      <trkpt lat="45.93156" lon="4.61786">
        <ele>354</ele>
        <time>2016-06-02T10:01:37.02Z</time>
      </trkpt>
      <trkpt lat="45.93148" lon="4.61791">
        <ele>354</ele>
        <time>2016-06-02T10:01:41.014Z</time>
      </trkpt>
      <trkpt lat="45.93147" lon="4.61791">
        <ele>354</ele>
        <time>2016-06-02T10:01:42.025Z</time>
      </trkpt>
      <trkpt lat="45.93139" lon="4.61793">
        <ele>354</ele>
        <time>2016-06-02T10:01:48.998Z</time>
      </trkpt>
      <trkpt lat="45.93138" lon="4.61793">
        <ele>354</ele>
        <time>2016-06-02T10:01:50.002Z</time>
      </trkpt>
      <trkpt lat="45.9313" lon="4.61796">
        <ele>355</ele>
        <time>2016-06-02T10:01:55.033Z</time>
      </trkpt>
      <trkpt lat="45.93129" lon="4.61797">
        <ele>355</ele>
        <time>2016-06-02T10:01:56.017Z</time>
      </trkpt>
      <trkpt lat="45.93122" lon="4.618">
        <ele>355</ele>
        <time>2016-06-02T10:02:01.028Z</time>
      </trkpt>
      <trkpt lat="45.9312" lon="4.61801">
        <ele>355</ele>
        <time>2016-06-02T10:02:02.027Z</time>
      </trkpt>
      <trkpt lat="45.93113" lon="4.61809">
        <ele>355</ele>
        <time>2016-06-02T10:02:08.009Z</time>
      </trkpt>
      <trkpt lat="45.93113" lon="4.6181">
        <ele>355</ele>
        <time>2016-06-02T10:02:09.017Z</time>
      </trkpt>
      <trkpt lat="45.93108" lon="4.61819">
        <ele>355</ele>
        <time>2016-06-02T10:02:17.01Z</time>
      </trkpt>
      <trkpt lat="45.93107" lon="4.61821">
        <ele>355</ele>
        <time>2016-06-02T10:02:18.009Z</time>
      </trkpt>
      <trkpt lat="45.931" lon="4.61829">
        <ele>355</ele>
        <time>2016-06-02T10:02:24.015Z</time>
      </trkpt>
      <trkpt lat="45.93099" lon="4.6183">
        <ele>355</ele>
        <time>2016-06-02T10:02:25.016Z</time>
      </trkpt>
      <trkpt lat="45.93092" lon="4.61836">
        <ele>353</ele>
        <time>2016-06-02T10:02:34.013Z</time>
      </trkpt>
      <trkpt lat="45.93091" lon="4.61837">
        <ele>353</ele>
        <time>2016-06-02T10:02:35.018Z</time>
      </trkpt>
      <trkpt lat="45.93084" lon="4.61843">
        <ele>353</ele>
        <time>2016-06-02T10:02:41.017Z</time>
      </trkpt>
      <trkpt lat="45.93083" lon="4.61845">
        <ele>357</ele>
        <time>2016-06-02T10:02:42.024Z</time>
      </trkpt>
      <trkpt lat="45.93078" lon="4.61854">
        <ele>358</ele>
        <time>2016-06-02T10:02:49.029Z</time>
      </trkpt>
      <trkpt lat="45.93077" lon="4.61855">
        <ele>358</ele>
        <time>2016-06-02T10:02:50.019Z</time>
      </trkpt>
      <trkpt lat="45.93071" lon="4.61864">
        <ele>358</ele>
        <time>2016-06-02T10:02:58.017Z</time>
      </trkpt>
      <trkpt lat="45.9307" lon="4.61865">
        <ele>358</ele>
        <time>2016-06-02T10:02:59.018Z</time>
      </trkpt>
      <trkpt lat="45.93064" lon="4.61873">
        <ele>359</ele>
        <time>2016-06-02T10:03:07.018Z</time>
      </trkpt>
      <trkpt lat="45.93063" lon="4.61874">
        <ele>359</ele>
        <time>2016-06-02T10:03:08.019Z</time>
      </trkpt>
      <trkpt lat="45.93055" lon="4.61879">
        <ele>359</ele>
        <time>2016-06-02T10:03:15.008Z</time>
      </trkpt>
      <trkpt lat="45.93054" lon="4.61879">
        <ele>359</ele>
        <time>2016-06-02T10:03:16.007Z</time>
      </trkpt>
      <trkpt lat="45.93047" lon="4.61883">
        <ele>360</ele>
        <time>2016-06-02T10:03:23.011Z</time>
      </trkpt>
      <trkpt lat="45.93045" lon="4.61884">
        <ele>360</ele>
        <time>2016-06-02T10:03:24.018Z</time>
      </trkpt>
      <trkpt lat="45.93038" lon="4.61889">
        <ele>360</ele>
        <time>2016-06-02T10:03:31.019Z</time>
      </trkpt>
      <trkpt lat="45.93037" lon="4.6189">
        <ele>360</ele>
        <time>2016-06-02T10:03:32.018Z</time>
      </trkpt>
      <trkpt lat="45.93033" lon="4.61901">
        <ele>361</ele>
        <time>2016-06-02T10:03:40.03Z</time>
      </trkpt>
      <trkpt lat="45.93033" lon="4.61903">
        <ele>361</ele>
        <time>2016-06-02T10:03:41.021Z</time>
      </trkpt>
      <trkpt lat="45.93028" lon="4.61913">
        <ele>361</ele>
        <time>2016-06-02T10:03:48.015Z</time>
      </trkpt>
      <trkpt lat="45.93028" lon="4.61915">
        <ele>361</ele>
        <time>2016-06-02T10:03:49.012Z</time>
      </trkpt>
      <trkpt lat="45.93024" lon="4.61925">
        <ele>360</ele>
        <time>2016-06-02T10:03:56.014Z</time>
      </trkpt>
      <trkpt lat="45.93023" lon="4.61926">
        <ele>360</ele>
        <time>2016-06-02T10:03:57.015Z</time>
      </trkpt>
      <trkpt lat="45.93018" lon="4.61937">
        <ele>360</ele>
        <time>2016-06-02T10:04:05.018Z</time>
      </trkpt>
      <trkpt lat="45.93017" lon="4.61938">
        <ele>360</ele>
        <time>2016-06-02T10:04:06.019Z</time>
      </trkpt>
      <trkpt lat="45.93013" lon="4.61949">
        <ele>359</ele>
        <time>2016-06-02T10:04:14.017Z</time>
      </trkpt>
      <trkpt lat="45.93012" lon="4.61951">
        <ele>359</ele>
        <time>2016-06-02T10:04:15.01Z</time>
      </trkpt>
      <trkpt lat="45.93008" lon="4.61962">
        <ele>359</ele>
        <time>2016-06-02T10:04:22.018Z</time>
      </trkpt>
      <trkpt lat="45.93008" lon="4.61963">
        <ele>359</ele>
        <time>2016-06-02T10:04:23.015Z</time>
      </trkpt>
      <trkpt lat="45.93005" lon="4.61974">
        <ele>360</ele>
        <time>2016-06-02T10:04:30.016Z</time>
      </trkpt>
      <trkpt lat="45.93005" lon="4.61976">
        <ele>360</ele>
        <time>2016-06-02T10:04:31.017Z</time>
      </trkpt>
      <trkpt lat="45.93002" lon="4.61988">
        <ele>361</ele>
        <time>2016-06-02T10:04:38.01Z</time>
      </trkpt>
      <trkpt lat="45.93002" lon="4.61989">
        <ele>361</ele>
        <time>2016-06-02T10:04:39.009Z</time>
      </trkpt>
      <trkpt lat="45.93" lon="4.62002">
        <ele>364</ele>
        <time>2016-06-02T10:04:47.011Z</time>
      </trkpt>
      <trkpt lat="45.93" lon="4.62003">
        <ele>364</ele>
        <time>2016-06-02T10:04:48.011Z</time>
      </trkpt>
      <trkpt lat="45.92998" lon="4.62015">
        <ele>365</ele>
        <time>2016-06-02T10:04:57.014Z</time>
      </trkpt>
      <trkpt lat="45.92998" lon="4.62017">
        <ele>365</ele>
        <time>2016-06-02T10:04:58.019Z</time>
      </trkpt>
      <trkpt lat="45.92996" lon="4.62029">
        <ele>365</ele>
        <time>2016-06-02T10:05:04.01Z</time>
      </trkpt>
      <trkpt lat="45.92996" lon="4.62031">
        <ele>365</ele>
        <time>2016-06-02T10:05:05.01Z</time>
      </trkpt>
      <trkpt lat="45.92994" lon="4.62042">
        <ele>364</ele>
        <time>2016-06-02T10:05:11.021Z</time>
      </trkpt>
      <trkpt lat="45.92993" lon="4.62044">
        <ele>364</ele>
        <time>2016-06-02T10:05:12.014Z</time>
      </trkpt>
      <trkpt lat="45.9299" lon="4.62055">
        <ele>364</ele>
        <time>2016-06-02T10:05:19.01Z</time>
      </trkpt>
      <trkpt lat="45.92989" lon="4.62057">
        <ele>364</ele>
        <time>2016-06-02T10:05:20.011Z</time>
      </trkpt>
      <trkpt lat="45.92986" lon="4.62067">
        <ele>363</ele>
        <time>2016-06-02T10:05:27.011Z</time>
      </trkpt>
      <trkpt lat="45.92985" lon="4.62069">
        <ele>363</ele>
        <time>2016-06-02T10:05:28.01Z</time>
      </trkpt>
      <trkpt lat="45.92983" lon="4.6208">
        <ele>362</ele>
        <time>2016-06-02T10:05:34.019Z</time>
      </trkpt>
      <trkpt lat="45.92983" lon="4.62082">
        <ele>362</ele>
        <time>2016-06-02T10:05:35.009Z</time>
      </trkpt>
      <trkpt lat="45.92981" lon="4.62094">
        <ele>362</ele>
        <time>2016-06-02T10:05:41.034Z</time>
      </trkpt>
      <trkpt lat="45.9298" lon="4.62096">
        <ele>362</ele>
        <time>2016-06-02T10:05:42.018Z</time>
      </trkpt>
      <trkpt lat="45.92977" lon="4.62106">
        <ele>362</ele>
        <time>2016-06-02T10:05:47.018Z</time>
      </trkpt>
      <trkpt lat="45.92976" lon="4.62109">
        <ele>362</ele>
        <time>2016-06-02T10:05:48.02Z</time>
      </trkpt>
      <trkpt lat="45.92973" lon="4.6212">
        <ele>363</ele>
        <time>2016-06-02T10:05:54.017Z</time>
      </trkpt>
      <trkpt lat="45.92973" lon="4.62121">
        <ele>363</ele>
        <time>2016-06-02T10:05:55.018Z</time>
      </trkpt>
      <trkpt lat="45.92969" lon="4.62131">
        <ele>363</ele>
        <time>2016-06-02T10:06:02.019Z</time>
      </trkpt>
      <trkpt lat="45.92968" lon="4.62133">
        <ele>363</ele>
        <time>2016-06-02T10:06:03.02Z</time>
      </trkpt>
      <trkpt lat="45.92961" lon="4.6214">
        <ele>363</ele>
        <time>2016-06-02T10:06:11.021Z</time>
      </trkpt>
      <trkpt lat="45.9296" lon="4.62142">
        <ele>363</ele>
        <time>2016-06-02T10:06:12.016Z</time>
      </trkpt>
      <trkpt lat="45.92955" lon="4.62151">
        <ele>364</ele>
        <time>2016-06-02T10:06:17.021Z</time>
      </trkpt>
      <trkpt lat="45.92954" lon="4.62152">
        <ele>364</ele>
        <time>2016-06-02T10:06:18.021Z</time>
      </trkpt>
      <trkpt lat="45.92951" lon="4.62163">
        <ele>364</ele>
        <time>2016-06-02T10:06:24.016Z</time>
      </trkpt>
      <trkpt lat="45.9295" lon="4.62164">
        <ele>364</ele>
        <time>2016-06-02T10:06:25.005Z</time>
      </trkpt>
      <trkpt lat="45.92946" lon="4.62173">
        <ele>364</ele>
        <time>2016-06-02T10:06:32.009Z</time>
      </trkpt>
      <trkpt lat="45.92945" lon="4.62175">
        <ele>364</ele>
        <time>2016-06-02T10:06:33.006Z</time>
      </trkpt>
      <trkpt lat="45.92942" lon="4.62186">
        <ele>364</ele>
        <time>2016-06-02T10:06:40.022Z</time>
      </trkpt>
      <trkpt lat="45.92942" lon="4.62188">
        <ele>364</ele>
        <time>2016-06-02T10:06:41.017Z</time>
      </trkpt>
      <trkpt lat="45.92939" lon="4.62199">
        <ele>364</ele>
        <time>2016-06-02T10:06:48.022Z</time>
      </trkpt>
      <trkpt lat="45.92939" lon="4.62201">
        <ele>364</ele>
        <time>2016-06-02T10:06:49.022Z</time>
      </trkpt>
      <trkpt lat="45.92934" lon="4.62211">
        <ele>364</ele>
        <time>2016-06-02T10:06:56.01Z</time>
      </trkpt>
      <trkpt lat="45.92934" lon="4.62212">
        <ele>364</ele>
        <time>2016-06-02T10:06:57.017Z</time>
      </trkpt>
      <trkpt lat="45.92929" lon="4.62223">
        <ele>364</ele>
        <time>2016-06-02T10:07:05.017Z</time>
      </trkpt>
      <trkpt lat="45.92928" lon="4.62223">
        <ele>364</ele>
        <time>2016-06-02T10:07:06.007Z</time>
      </trkpt>
      <trkpt lat="45.92922" lon="4.62214">
        <ele>364</ele>
        <time>2016-06-02T10:07:15.02Z</time>
      </trkpt>
      <trkpt lat="45.92921" lon="4.62213">
        <ele>364</ele>
        <time>2016-06-02T10:07:16.018Z</time>
      </trkpt>
      <trkpt lat="45.92913" lon="4.6221">
        <ele>370</ele>
        <time>2016-06-02T10:07:24.038Z</time>
      </trkpt>
      <trkpt lat="45.92911" lon="4.6221">
        <ele>370</ele>
        <time>2016-06-02T10:07:25.024Z</time>
      </trkpt>
      <trkpt lat="45.92903" lon="4.62209">
        <ele>370</ele>
        <time>2016-06-02T10:07:34.016Z</time>
      </trkpt>
      <trkpt lat="45.92902" lon="4.62209">
        <ele>370</ele>
        <time>2016-06-02T10:07:35.018Z</time>
      </trkpt>
      <trkpt lat="45.92893" lon="4.62208">
        <ele>370</ele>
        <time>2016-06-02T10:07:41.021Z</time>
      </trkpt>
      <trkpt lat="45.92892" lon="4.62208">
        <ele>370</ele>
        <time>2016-06-02T10:07:42.017Z</time>
      </trkpt>
      <trkpt lat="45.92884" lon="4.62205">
        <ele>370</ele>
        <time>2016-06-02T10:07:49.015Z</time>
      </trkpt>
      <trkpt lat="45.92882" lon="4.62205">
        <ele>371</ele>
        <time>2016-06-02T10:07:50.016Z</time>
      </trkpt>
      <trkpt lat="45.92875" lon="4.62202">
        <ele>371</ele>
        <time>2016-06-02T10:07:55.015Z</time>
      </trkpt>
      <trkpt lat="45.92873" lon="4.62202">
        <ele>371</ele>
        <time>2016-06-02T10:07:56.019Z</time>
      </trkpt>
      <trkpt lat="45.92866" lon="4.62195">
        <ele>371</ele>
        <time>2016-06-02T10:08:03.019Z</time>
      </trkpt>
      <trkpt lat="45.92866" lon="4.62194">
        <ele>371</ele>
        <time>2016-06-02T10:08:04.025Z</time>
      </trkpt>
      <trkpt lat="45.9286" lon="4.62185">
        <ele>371</ele>
        <time>2016-06-02T10:08:12.032Z</time>
      </trkpt>
      <trkpt lat="45.9286" lon="4.62184">
        <ele>371</ele>
        <time>2016-06-02T10:08:13.033Z</time>
      </trkpt>
      <trkpt lat="45.92857" lon="4.62172">
        <ele>372</ele>
        <time>2016-06-02T10:08:20.019Z</time>
      </trkpt>
      <trkpt lat="45.92857" lon="4.6217">
        <ele>372</ele>
        <time>2016-06-02T10:08:21.017Z</time>
      </trkpt>
      <trkpt lat="45.92853" lon="4.62158">
        <ele>372</ele>
        <time>2016-06-02T10:08:28Z</time>
      </trkpt>
      <trkpt lat="45.92853" lon="4.62157">
        <ele>372</ele>
        <time>2016-06-02T10:08:28.998Z</time>
      </trkpt>
      <trkpt lat="45.92849" lon="4.62147">
        <ele>372</ele>
        <time>2016-06-02T10:08:36.019Z</time>
      </trkpt>
      <trkpt lat="45.92849" lon="4.62145">
        <ele>372</ele>
        <time>2016-06-02T10:08:37.031Z</time>
      </trkpt>
      <trkpt lat="45.92844" lon="4.62135">
        <ele>372</ele>
        <time>2016-06-02T10:08:44.029Z</time>
      </trkpt>
      <trkpt lat="45.92843" lon="4.62133">
        <ele>372</ele>
        <time>2016-06-02T10:08:45.025Z</time>
      </trkpt>
      <trkpt lat="45.92838" lon="4.62124">
        <ele>372</ele>
        <time>2016-06-02T10:08:52.02Z</time>
      </trkpt>
      <trkpt lat="45.92837" lon="4.62123">
        <ele>372</ele>
        <time>2016-06-02T10:08:53.021Z</time>
      </trkpt>
      <trkpt lat="45.9283" lon="4.62115">
        <ele>374</ele>
        <time>2016-06-02T10:09:00.018Z</time>
      </trkpt>
      <trkpt lat="45.92829" lon="4.62114">
        <ele>374</ele>
        <time>2016-06-02T10:09:01.019Z</time>
      </trkpt>
      <trkpt lat="45.92821" lon="4.6211">
        <ele>374</ele>
        <time>2016-06-02T10:09:09.011Z</time>
      </trkpt>
      <trkpt lat="45.9282" lon="4.62109">
        <ele>374</ele>
        <time>2016-06-02T10:09:10.007Z</time>
      </trkpt>
      <trkpt lat="45.92811" lon="4.62108">
        <ele>375</ele>
        <time>2016-06-02T10:09:16.018Z</time>
      </trkpt>
      <trkpt lat="45.92809" lon="4.62107">
        <ele>375</ele>
        <time>2016-06-02T10:09:17.038Z</time>
      </trkpt>
      <trkpt lat="45.92801" lon="4.62106">
        <ele>375</ele>
        <time>2016-06-02T10:09:22.02Z</time>
      </trkpt>
      <trkpt lat="45.928" lon="4.62105">
        <ele>375</ele>
        <time>2016-06-02T10:09:23.032Z</time>
      </trkpt>
      <trkpt lat="45.92791" lon="4.62103">
        <ele>375</ele>
        <time>2016-06-02T10:09:30.007Z</time>
      </trkpt>
      <trkpt lat="45.92791" lon="4.62102">
        <ele>375</ele>
        <time>2016-06-02T10:09:30.997Z</time>
      </trkpt>
      <trkpt lat="45.92784" lon="4.62095">
        <ele>375</ele>
        <time>2016-06-02T10:09:39.018Z</time>
      </trkpt>
      <trkpt lat="45.92783" lon="4.62094">
        <ele>375</ele>
        <time>2016-06-02T10:09:40.015Z</time>
      </trkpt>
      <trkpt lat="45.92776" lon="4.62087">
        <ele>375</ele>
        <time>2016-06-02T10:09:48.016Z</time>
      </trkpt>
      <trkpt lat="45.92775" lon="4.62086">
        <ele>375</ele>
        <time>2016-06-02T10:09:49.032Z</time>
      </trkpt>
      <trkpt lat="45.92767" lon="4.62083">
        <ele>375</ele>
        <time>2016-06-02T10:09:56.032Z</time>
      </trkpt>
      <trkpt lat="45.92766" lon="4.62082">
        <ele>375</ele>
        <time>2016-06-02T10:09:57.029Z</time>
      </trkpt>
      <trkpt lat="45.92758" lon="4.6208">
        <ele>376</ele>
        <time>2016-06-02T10:10:03.02Z</time>
      </trkpt>
      <trkpt lat="45.92756" lon="4.6208">
        <ele>376</ele>
        <time>2016-06-02T10:10:04.019Z</time>
      </trkpt>
      <trkpt lat="45.92748" lon="4.62081">
        <ele>376</ele>
        <time>2016-06-02T10:10:09.02Z</time>
      </trkpt>
      <trkpt lat="45.92747" lon="4.62081">
        <ele>376</ele>
        <time>2016-06-02T10:10:10.012Z</time>
      </trkpt>
      <trkpt lat="45.92739" lon="4.62083">
        <ele>375</ele>
        <time>2016-06-02T10:10:15.02Z</time>
      </trkpt>
      <trkpt lat="45.92737" lon="4.62083">
        <ele>375</ele>
        <time>2016-06-02T10:10:16.019Z</time>
      </trkpt>
      <trkpt lat="45.92729" lon="4.62079">
        <ele>375</ele>
        <time>2016-06-02T10:10:27.019Z</time>
      </trkpt>
      <trkpt lat="45.92727" lon="4.6208">
        <ele>375</ele>
        <time>2016-06-02T10:10:28.017Z</time>
      </trkpt>
      <trkpt lat="45.92719" lon="4.62077">
        <ele>375</ele>
        <time>2016-06-02T10:10:35.008Z</time>
      </trkpt>
      <trkpt lat="45.92718" lon="4.62076">
        <ele>375</ele>
        <time>2016-06-02T10:10:36.019Z</time>
      </trkpt>
      <trkpt lat="45.9271" lon="4.62071">
        <ele>375</ele>
        <time>2016-06-02T10:10:44.012Z</time>
      </trkpt>
      <trkpt lat="45.92709" lon="4.6207">
        <ele>374</ele>
        <time>2016-06-02T10:10:45.009Z</time>
      </trkpt>
      <trkpt lat="45.92701" lon="4.62069">
        <ele>374</ele>
        <time>2016-06-02T10:10:51.008Z</time>
      </trkpt>
      <trkpt lat="45.927" lon="4.62068">
        <ele>374</ele>
        <time>2016-06-02T10:10:52.018Z</time>
      </trkpt>
      <trkpt lat="45.92692" lon="4.62065">
        <ele>374</ele>
        <time>2016-06-02T10:10:58.048Z</time>
      </trkpt>
      <trkpt lat="45.9269" lon="4.62065">
        <ele>374</ele>
        <time>2016-06-02T10:10:59.038Z</time>
      </trkpt>
      <trkpt lat="45.92683" lon="4.62063">
        <ele>374</ele>
        <time>2016-06-02T10:11:04.004Z</time>
      </trkpt>
      <trkpt lat="45.92681" lon="4.62062">
        <ele>374</ele>
        <time>2016-06-02T10:11:05.018Z</time>
      </trkpt>
      <trkpt lat="45.92673" lon="4.62061">
        <ele>374</ele>
        <time>2016-06-02T10:11:10.021Z</time>
      </trkpt>
      <trkpt lat="45.92672" lon="4.6206">
        <ele>374</ele>
        <time>2016-06-02T10:11:11.007Z</time>
      </trkpt>
      <trkpt lat="45.92665" lon="4.62057">
        <ele>372</ele>
        <time>2016-06-02T10:11:16.02Z</time>
      </trkpt>
      <trkpt lat="45.92663" lon="4.62056">
        <ele>372</ele>
        <time>2016-06-02T10:11:17.021Z</time>
      </trkpt>
      <trkpt lat="45.92655" lon="4.62052">
        <ele>372</ele>
        <time>2016-06-02T10:11:23.019Z</time>
      </trkpt>
      <trkpt lat="45.92654" lon="4.62051">
        <ele>372</ele>
        <time>2016-06-02T10:11:24.037Z</time>
      </trkpt>
      <trkpt lat="45.92648" lon="4.62043">
        <ele>371</ele>
        <time>2016-06-02T10:11:30.02Z</time>
      </trkpt>
      <trkpt lat="45.92647" lon="4.62042">
        <ele>371</ele>
        <time>2016-06-02T10:11:31.02Z</time>
      </trkpt>
      <trkpt lat="45.92641" lon="4.62033">
        <ele>371</ele>
        <time>2016-06-02T10:11:38.027Z</time>
      </trkpt>
      <trkpt lat="45.92639" lon="4.62032">
        <ele>371</ele>
        <time>2016-06-02T10:11:39.032Z</time>
      </trkpt>
      <trkpt lat="45.92633" lon="4.62024">
        <ele>371</ele>
        <time>2016-06-02T10:11:46.019Z</time>
      </trkpt>
      <trkpt lat="45.92632" lon="4.62022">
        <ele>371</ele>
        <time>2016-06-02T10:11:47.03Z</time>
      </trkpt>
      <trkpt lat="45.92625" lon="4.62017">
        <ele>371</ele>
        <time>2016-06-02T10:11:59.016Z</time>
      </trkpt>
      <trkpt lat="45.92624" lon="4.62016">
        <ele>371</ele>
        <time>2016-06-02T10:12:00.012Z</time>
      </trkpt>
      <trkpt lat="45.92616" lon="4.62013">
        <ele>370</ele>
        <time>2016-06-02T10:12:04.039Z</time>
      </trkpt>
      <trkpt lat="45.92615" lon="4.62013">
        <ele>370</ele>
        <time>2016-06-02T10:12:05.036Z</time>
      </trkpt>
      <trkpt lat="45.92608" lon="4.62006">
        <ele>370</ele>
        <time>2016-06-02T10:12:17.02Z</time>
      </trkpt>
      <trkpt lat="45.92607" lon="4.62005">
        <ele>370</ele>
        <time>2016-06-02T10:12:18.032Z</time>
      </trkpt>
      <trkpt lat="45.92599" lon="4.62005">
        <ele>369</ele>
        <time>2016-06-02T10:12:24.021Z</time>
      </trkpt>
      <trkpt lat="45.92598" lon="4.62006">
        <ele>369</ele>
        <time>2016-06-02T10:12:25.01Z</time>
      </trkpt>
      <trkpt lat="45.92591" lon="4.62006">
        <ele>369</ele>
        <time>2016-06-02T10:12:35.007Z</time>
      </trkpt>
      <trkpt lat="45.92589" lon="4.62007">
        <ele>369</ele>
        <time>2016-06-02T10:12:36Z</time>
      </trkpt>
      <trkpt lat="45.92581" lon="4.62008">
        <ele>367</ele>
        <time>2016-06-02T10:12:40.011Z</time>
      </trkpt>
      <trkpt lat="45.92579" lon="4.62007">
        <ele>367</ele>
        <time>2016-06-02T10:12:41.019Z</time>
      </trkpt>
      <trkpt lat="45.92571" lon="4.62002">
        <ele>367</ele>
        <time>2016-06-02T10:12:46.017Z</time>
      </trkpt>
      <trkpt lat="45.9257" lon="4.62001">
        <ele>367</ele>
        <time>2016-06-02T10:12:47.014Z</time>
      </trkpt>
      <trkpt lat="45.92562" lon="4.61995">
        <ele>365</ele>
        <time>2016-06-02T10:12:53.022Z</time>
      </trkpt>
      <trkpt lat="45.9256" lon="4.61994">
        <ele>365</ele>
        <time>2016-06-02T10:12:54.018Z</time>
      </trkpt>
      <trkpt lat="45.92552" lon="4.61988">
        <ele>364</ele>
        <time>2016-06-02T10:12:59.019Z</time>
      </trkpt>
      <trkpt lat="45.92551" lon="4.61986">
        <ele>364</ele>
        <time>2016-06-02T10:13:00.018Z</time>
      </trkpt>
      <trkpt lat="45.92545" lon="4.61978">
        <ele>364</ele>
        <time>2016-06-02T10:13:06.02Z</time>
      </trkpt>
      <trkpt lat="45.92544" lon="4.61977">
        <ele>364</ele>
        <time>2016-06-02T10:13:07.018Z</time>
      </trkpt>
      <trkpt lat="45.92537" lon="4.61971">
        <ele>363</ele>
        <time>2016-06-02T10:13:12.019Z</time>
      </trkpt>
      <trkpt lat="45.92536" lon="4.61969">
        <ele>363</ele>
        <time>2016-06-02T10:13:13.022Z</time>
      </trkpt>
      <trkpt lat="45.92529" lon="4.61962">
        <ele>363</ele>
        <time>2016-06-02T10:13:21.026Z</time>
      </trkpt>
      <trkpt lat="45.92528" lon="4.61961">
        <ele>363</ele>
        <time>2016-06-02T10:13:22.03Z</time>
      </trkpt>
      <trkpt lat="45.92526" lon="4.6195">
        <ele>363</ele>
        <time>2016-06-02T10:13:28.014Z</time>
      </trkpt>
      <trkpt lat="45.92525" lon="4.61948">
        <ele>363</ele>
        <time>2016-06-02T10:13:29.02Z</time>
      </trkpt>
      <trkpt lat="45.92523" lon="4.61937">
        <ele>362</ele>
        <time>2016-06-02T10:13:35.021Z</time>
      </trkpt>
      <trkpt lat="45.92522" lon="4.61936">
        <ele>362</ele>
        <time>2016-06-02T10:13:36.012Z</time>
      </trkpt>
      <trkpt lat="45.92518" lon="4.61925">
        <ele>362</ele>
        <time>2016-06-02T10:13:42.021Z</time>
      </trkpt>
      <trkpt lat="45.92517" lon="4.61923">
        <ele>362</ele>
        <time>2016-06-02T10:13:43.018Z</time>
      </trkpt>
      <trkpt lat="45.92513" lon="4.61914">
        <ele>362</ele>
        <time>2016-06-02T10:13:48.022Z</time>
      </trkpt>
      <trkpt lat="45.92512" lon="4.61912">
        <ele>362</ele>
        <time>2016-06-02T10:13:49.022Z</time>
      </trkpt>
      <trkpt lat="45.92505" lon="4.61904">
        <ele>362</ele>
        <time>2016-06-02T10:13:56.016Z</time>
      </trkpt>
      <trkpt lat="45.92504" lon="4.61902">
        <ele>362</ele>
        <time>2016-06-02T10:13:57.015Z</time>
      </trkpt>
      <trkpt lat="45.92499" lon="4.61892">
        <ele>360</ele>
        <time>2016-06-02T10:14:03.024Z</time>
      </trkpt>
      <trkpt lat="45.92498" lon="4.61891">
        <ele>360</ele>
        <time>2016-06-02T10:14:04.022Z</time>
      </trkpt>
      <trkpt lat="45.92492" lon="4.61882">
        <ele>360</ele>
        <time>2016-06-02T10:14:10Z</time>
      </trkpt>
      <trkpt lat="45.92491" lon="4.61881">
        <ele>360</ele>
        <time>2016-06-02T10:14:11.021Z</time>
      </trkpt>
      <trkpt lat="45.92482" lon="4.61882">
        <ele>360</ele>
        <time>2016-06-02T10:14:28.031Z</time>
      </trkpt>
      <trkpt lat="45.92482" lon="4.61883">
        <ele>360</ele>
        <time>2016-06-02T10:14:29.033Z</time>
      </trkpt>
      <trkpt lat="45.92473" lon="4.61885">
        <ele>360</ele>
        <time>2016-06-02T10:14:41.018Z</time>
      </trkpt>
      <trkpt lat="45.92472" lon="4.61885">
        <ele>360</ele>
        <time>2016-06-02T10:14:42.014Z</time>
      </trkpt>
      <trkpt lat="45.92464" lon="4.61888">
        <ele>360</ele>
        <time>2016-06-02T10:14:48.018Z</time>
      </trkpt>
      <trkpt lat="45.92463" lon="4.61888">
        <ele>360</ele>
        <time>2016-06-02T10:14:49.02Z</time>
      </trkpt>
      <trkpt lat="45.92454" lon="4.61891">
        <ele>359</ele>
        <time>2016-06-02T10:14:57.033Z</time>
      </trkpt>
      <trkpt lat="45.92453" lon="4.61891">
        <ele>359</ele>
        <time>2016-06-02T10:14:58.021Z</time>
      </trkpt>
      <trkpt lat="45.92446" lon="4.61891">
        <ele>359</ele>
        <time>2016-06-02T10:15:04.016Z</time>
      </trkpt>
      <trkpt lat="45.92444" lon="4.61892">
        <ele>359</ele>
        <time>2016-06-02T10:15:05.035Z</time>
      </trkpt>
      <trkpt lat="45.92436" lon="4.61894">
        <ele>358</ele>
        <time>2016-06-02T10:15:12.039Z</time>
      </trkpt>
      <trkpt lat="45.92435" lon="4.61894">
        <ele>358</ele>
        <time>2016-06-02T10:15:13.04Z</time>
      </trkpt>
      <trkpt lat="45.92431" lon="4.61897">
        <ele>358</ele>
        <time>2016-06-02T10:20:08.59Z</time>
      </trkpt>
    </trkseg>
  </trk>
</gpx>